<?xml version='1.0' encoding='UTF-8'?><gpx version="1.1" creator="JPX - https://github.com/jenetics/jpx" xmlns="http://www.topografix.com/GPX/1/1"><trk><trkseg><trkpt lat="43.4756637" lon="11.6178933"><ele>235.5</ele><time>2026-04-22T10:49:32.139Z</time></trkpt><trkpt lat="43.475415" lon="11.6174901"><ele>239.0</ele><time>2026-04-22T10:50:50.142Z</time></trkpt><trkpt lat="43.4753198" lon="11.6173937"><ele>239.0</ele><time>2026-04-22T10:50:51.141Z</time></trkpt><trkpt lat="43.4751866" lon="11.617301"><ele>239.0</ele><time>2026-04-22T10:50:52.144Z</time></trkpt><trkpt lat="43.4750307" lon="11.6172034"><ele>239.0</ele><time>2026-04-22T10:50:53.139Z</time></trkpt><trkpt lat="43.4748605" lon="11.6171003"><ele>239.0</ele><time>2026-04-22T10:50:54.136Z</time></trkpt><trkpt lat="43.474694" lon="11.6169978"><ele>239.0</ele><time>2026-04-22T10:50:55.141Z</time></trkpt><trkpt lat="43.4745443" lon="11.6169086"><ele>239.0</ele><time>2026-04-22T10:50:56.146Z</time></trkpt><trkpt lat="43.4743984" lon="11.6168245"><ele>240.0</ele><time>2026-04-22T10:50:57.142Z</time></trkpt><trkpt lat="43.47426" lon="11.6167433"><ele>241.0</ele><time>2026-04-22T10:50:58.145Z</time></trkpt><trkpt lat="43.4741283" lon="11.6166667"><ele>242.0</ele><time>2026-04-22T10:50:59.139Z</time></trkpt><trkpt lat="43.4740033" lon="11.61659"><ele>243.0</ele><time>2026-04-22T10:51:00.143Z</time></trkpt><trkpt lat="43.4738917" lon="11.61652"><ele>243.0</ele><time>2026-04-22T10:51:01.141Z</time></trkpt><trkpt lat="43.473785" lon="11.616455"><ele>243.0</ele><time>2026-04-22T10:51:02.14Z</time></trkpt><trkpt lat="43.473685" lon="11.6163933"><ele>243.0</ele><time>2026-04-22T10:51:03.14Z</time></trkpt><trkpt lat="43.4735833" lon="11.6163333"><ele>243.0</ele><time>2026-04-22T10:51:04.142Z</time></trkpt><trkpt lat="43.4734867" lon="11.6162733"><ele>243.0</ele><time>2026-04-22T10:51:05.138Z</time></trkpt><trkpt lat="43.47338" lon="11.6162117"><ele>243.60000000000002</ele><time>2026-04-22T10:51:06.139Z</time></trkpt><trkpt lat="43.4732733" lon="11.6161483"><ele>244.20000000000002</ele><time>2026-04-22T10:51:07.139Z</time></trkpt><trkpt lat="43.4731833" lon="11.6160883"><ele>244.8</ele><time>2026-04-22T10:51:08.139Z</time></trkpt><trkpt lat="43.4730917" lon="11.61603"><ele>245.4</ele><time>2026-04-22T10:51:09.14Z</time></trkpt><trkpt lat="43.4730017" lon="11.6159733"><ele>246.0</ele><time>2026-04-22T10:51:10.14Z</time></trkpt><trkpt lat="43.4729133" lon="11.6159167"><ele>247.0</ele><time>2026-04-22T10:51:11.139Z</time></trkpt><trkpt lat="43.4728183" lon="11.6158583"><ele>248.00000000000003</ele><time>2026-04-22T10:51:12.135Z</time></trkpt><trkpt lat="43.4727233" lon="11.6158"><ele>249.00000000000003</ele><time>2026-04-22T10:51:13.136Z</time></trkpt><trkpt lat="43.472625" lon="11.6157433"><ele>250.0</ele><time>2026-04-22T10:51:14.14Z</time></trkpt><trkpt lat="43.4725217" lon="11.6156817"><ele>251.0</ele><time>2026-04-22T10:51:15.137Z</time></trkpt><trkpt lat="43.4724217" lon="11.61561"><ele>251.0</ele><time>2026-04-22T10:51:16.138Z</time></trkpt><trkpt lat="43.472325" lon="11.6155283"><ele>251.00000000000003</ele><time>2026-04-22T10:51:17.136Z</time></trkpt><trkpt lat="43.4722417" lon="11.6154433"><ele>251.00000000000003</ele><time>2026-04-22T10:51:18.137Z</time></trkpt><trkpt lat="43.472185" lon="11.6153433"><ele>251.0</ele><time>2026-04-22T10:51:19.138Z</time></trkpt><trkpt lat="43.4721467" lon="11.615215"><ele>251.0</ele><time>2026-04-22T10:51:20.139Z</time></trkpt><trkpt lat="43.4721233" lon="11.6150633"><ele>251.16666666666669</ele><time>2026-04-22T10:51:21.136Z</time></trkpt><trkpt lat="43.472115" lon="11.6149067"><ele>251.33333333333334</ele><time>2026-04-22T10:51:22.135Z</time></trkpt><trkpt lat="43.4721167" lon="11.614765"><ele>251.5</ele><time>2026-04-22T10:51:23.135Z</time></trkpt><trkpt lat="43.47212" lon="11.6146467"><ele>251.66666666666669</ele><time>2026-04-22T10:51:24.137Z</time></trkpt><trkpt lat="43.47212" lon="11.6145483"><ele>251.83333333333334</ele><time>2026-04-22T10:51:25.137Z</time></trkpt><trkpt lat="43.4720983" lon="11.6144667"><ele>252.0</ele><time>2026-04-22T10:51:26.137Z</time></trkpt><trkpt lat="43.4720467" lon="11.614395"><ele>252.0</ele><time>2026-04-22T10:51:27.137Z</time></trkpt><trkpt lat="43.471975" lon="11.6143183"><ele>252.0</ele><time>2026-04-22T10:51:28.134Z</time></trkpt><trkpt lat="43.4718833" lon="11.6142317"><ele>252.0</ele><time>2026-04-22T10:51:29.138Z</time></trkpt><trkpt lat="43.4717867" lon="11.6141367"><ele>252.0</ele><time>2026-04-22T10:51:30.138Z</time></trkpt><trkpt lat="43.471695" lon="11.6140417"><ele>252.0</ele><time>2026-04-22T10:51:31.136Z</time></trkpt><trkpt lat="43.4716017" lon="11.6139633"><ele>252.0</ele><time>2026-04-22T10:51:32.139Z</time></trkpt><trkpt lat="43.4715017" lon="11.61391"><ele>252.0</ele><time>2026-04-22T10:51:33.139Z</time></trkpt><trkpt lat="43.4713817" lon="11.6138817"><ele>252.0</ele><time>2026-04-22T10:51:34.136Z</time></trkpt><trkpt lat="43.4712483" lon="11.61387"><ele>252.0</ele><time>2026-04-22T10:51:35.136Z</time></trkpt><trkpt lat="43.4711233" lon="11.6138533"><ele>251.5</ele><time>2026-04-22T10:51:36.137Z</time></trkpt><trkpt lat="43.4710067" lon="11.61382"><ele>251.0</ele><time>2026-04-22T10:51:37.137Z</time></trkpt><trkpt lat="43.4708933" lon="11.6137633"><ele>250.5</ele><time>2026-04-22T10:51:38.138Z</time></trkpt><trkpt lat="43.47079" lon="11.6136833"><ele>250.0</ele><time>2026-04-22T10:51:39.138Z</time></trkpt><trkpt lat="43.4706867" lon="11.6135783"><ele>250.0</ele><time>2026-04-22T10:51:40.138Z</time></trkpt><trkpt lat="43.4705917" lon="11.6134567"><ele>250.0</ele><time>2026-04-22T10:51:41.137Z</time></trkpt><trkpt lat="43.4704967" lon="11.6133317"><ele>250.0</ele><time>2026-04-22T10:51:42.14Z</time></trkpt><trkpt lat="43.4704017" lon="11.6132083"><ele>250.0</ele><time>2026-04-22T10:51:43.138Z</time></trkpt><trkpt lat="43.4703067" lon="11.61308"><ele>249.25</ele><time>2026-04-22T10:51:44.138Z</time></trkpt><trkpt lat="43.470215" lon="11.61296"><ele>248.5</ele><time>2026-04-22T10:51:45.137Z</time></trkpt><trkpt lat="43.470125" lon="11.612845"><ele>247.75</ele><time>2026-04-22T10:51:46.137Z</time></trkpt><trkpt lat="43.4700317" lon="11.61273"><ele>247.0</ele><time>2026-04-22T10:51:47.135Z</time></trkpt><trkpt lat="43.4699383" lon="11.61262"><ele>246.2</ele><time>2026-04-22T10:51:48.136Z</time></trkpt><trkpt lat="43.469845" lon="11.6125133"><ele>245.39999999999998</ele><time>2026-04-22T10:51:49.137Z</time></trkpt><trkpt lat="43.4697567" lon="11.612415"><ele>244.60000000000002</ele><time>2026-04-22T10:51:50.136Z</time></trkpt><trkpt lat="43.4696733" lon="11.6123217"><ele>243.8</ele><time>2026-04-22T10:51:51.136Z</time></trkpt><trkpt lat="43.4695983" lon="11.6122333"><ele>243.0</ele><time>2026-04-22T10:51:52.137Z</time></trkpt><trkpt lat="43.4695367" lon="11.61215"><ele>242.16666666666666</ele><time>2026-04-22T10:51:53.137Z</time></trkpt><trkpt lat="43.4694833" lon="11.6120683"><ele>241.33333333333331</ele><time>2026-04-22T10:51:54.137Z</time></trkpt><trkpt lat="43.4694317" lon="11.6119917"><ele>240.5</ele><time>2026-04-22T10:51:55.138Z</time></trkpt><trkpt lat="43.4693867" lon="11.6119217"><ele>239.66666666666666</ele><time>2026-04-22T10:51:56.138Z</time></trkpt><trkpt lat="43.4693283" lon="11.6118367"><ele>238.83333333333331</ele><time>2026-04-22T10:51:58.138Z</time></trkpt><trkpt lat="43.4693233" lon="11.6116767"><ele>238.0</ele><time>2026-04-22T10:52:03.138Z</time></trkpt><trkpt lat="43.4693467" lon="11.6115733"><ele>237.8</ele><time>2026-04-22T10:52:04.136Z</time></trkpt><trkpt lat="43.4693833" lon="11.61144"><ele>237.60000000000002</ele><time>2026-04-22T10:52:05.136Z</time></trkpt><trkpt lat="43.4694267" lon="11.6112967"><ele>237.39999999999998</ele><time>2026-04-22T10:52:06.138Z</time></trkpt><trkpt lat="43.469465" lon="11.6111483"><ele>237.2</ele><time>2026-04-22T10:52:07.136Z</time></trkpt><trkpt lat="43.4694983" lon="11.6110033"><ele>237.0</ele><time>2026-04-22T10:52:08.137Z</time></trkpt><trkpt lat="43.4695317" lon="11.61086"><ele>237.0</ele><time>2026-04-22T10:52:09.137Z</time></trkpt><trkpt lat="43.4695633" lon="11.6107233"><ele>237.0</ele><time>2026-04-22T10:52:10.136Z</time></trkpt><trkpt lat="43.4695917" lon="11.6105917"><ele>237.0</ele><time>2026-04-22T10:52:11.136Z</time></trkpt><trkpt lat="43.4696217" lon="11.6104667"><ele>237.0</ele><time>2026-04-22T10:52:12.137Z</time></trkpt><trkpt lat="43.46965" lon="11.6103517"><ele>237.0</ele><time>2026-04-22T10:52:13.137Z</time></trkpt><trkpt lat="43.4696767" lon="11.6102417"><ele>236.66666666666666</ele><time>2026-04-22T10:52:14.137Z</time></trkpt><trkpt lat="43.4697033" lon="11.610125"><ele>236.33333333333331</ele><time>2026-04-22T10:52:15.137Z</time></trkpt><trkpt lat="43.4697217" lon="11.6100133"><ele>236.0</ele><time>2026-04-22T10:52:16.137Z</time></trkpt><trkpt lat="43.4697217" lon="11.6099067"><ele>235.66666666666666</ele><time>2026-04-22T10:52:17.136Z</time></trkpt><trkpt lat="43.4696983" lon="11.6098"><ele>235.33333333333331</ele><time>2026-04-22T10:52:18.137Z</time></trkpt><trkpt lat="43.4696417" lon="11.609705"><ele>235.0</ele><time>2026-04-22T10:52:19.136Z</time></trkpt><trkpt lat="43.469545" lon="11.60963"><ele>235.0</ele><time>2026-04-22T10:52:20.138Z</time></trkpt><trkpt lat="43.46945" lon="11.60956"><ele>235.0</ele><time>2026-04-22T10:52:21.138Z</time></trkpt><trkpt lat="43.469365" lon="11.6094983"><ele>235.0</ele><time>2026-04-22T10:52:22.139Z</time></trkpt><trkpt lat="43.4692883" lon="11.6094433"><ele>235.0</ele><time>2026-04-22T10:52:23.138Z</time></trkpt><trkpt lat="43.4692167" lon="11.6093883"><ele>235.0</ele><time>2026-04-22T10:52:24.138Z</time></trkpt><trkpt lat="43.4691483" lon="11.6093317"><ele>234.83333333333331</ele><time>2026-04-22T10:52:25.138Z</time></trkpt><trkpt lat="43.4690817" lon="11.6092783"><ele>234.66666666666666</ele><time>2026-04-22T10:52:26.138Z</time></trkpt><trkpt lat="43.469015" lon="11.6092267"><ele>234.5</ele><time>2026-04-22T10:52:27.137Z</time></trkpt><trkpt lat="43.4689467" lon="11.6091767"><ele>234.33333333333331</ele><time>2026-04-22T10:52:28.139Z</time></trkpt><trkpt lat="43.4688833" lon="11.609125"><ele>234.16666666666666</ele><time>2026-04-22T10:52:29.137Z</time></trkpt><trkpt lat="43.4688133" lon="11.60907"><ele>234.0</ele><time>2026-04-22T10:52:30.137Z</time></trkpt><trkpt lat="43.4687383" lon="11.6090133"><ele>234.79999999999998</ele><time>2026-04-22T10:52:31.137Z</time></trkpt><trkpt lat="43.4686583" lon="11.6089467"><ele>235.59999999999997</ele><time>2026-04-22T10:52:32.139Z</time></trkpt><trkpt lat="43.4685717" lon="11.60888"><ele>236.4</ele><time>2026-04-22T10:52:33.138Z</time></trkpt><trkpt lat="43.46848" lon="11.6088117"><ele>237.2</ele><time>2026-04-22T10:52:34.139Z</time></trkpt><trkpt lat="43.4683833" lon="11.60874"><ele>238.0</ele><time>2026-04-22T10:52:35.137Z</time></trkpt><trkpt lat="43.4682833" lon="11.608665"><ele>238.0</ele><time>2026-04-22T10:52:36.138Z</time></trkpt><trkpt lat="43.468175" lon="11.60858"><ele>238.0</ele><time>2026-04-22T10:52:37.138Z</time></trkpt><trkpt lat="43.4680633" lon="11.60848"><ele>238.0</ele><time>2026-04-22T10:52:38.138Z</time></trkpt><trkpt lat="43.4679467" lon="11.6083633"><ele>238.0</ele><time>2026-04-22T10:52:39.138Z</time></trkpt><trkpt lat="43.4678283" lon="11.608235"><ele>240.33333333333331</ele><time>2026-04-22T10:52:40.136Z</time></trkpt><trkpt lat="43.46771" lon="11.6081083"><ele>242.66666666666669</ele><time>2026-04-22T10:52:41.137Z</time></trkpt><trkpt lat="43.4675883" lon="11.6079833"><ele>245.0</ele><time>2026-04-22T10:52:42.137Z</time></trkpt><trkpt lat="43.4674567" lon="11.6078567"><ele>245.66666666666669</ele><time>2026-04-22T10:52:43.137Z</time></trkpt><trkpt lat="43.4673183" lon="11.60773"><ele>246.33333333333331</ele><time>2026-04-22T10:52:44.137Z</time></trkpt><trkpt lat="43.467175" lon="11.6076"><ele>247.0</ele><time>2026-04-22T10:52:45.138Z</time></trkpt><trkpt lat="43.4670217" lon="11.607465"><ele>248.33333333333331</ele><time>2026-04-22T10:52:46.136Z</time></trkpt><trkpt lat="43.4668717" lon="11.607335"><ele>249.66666666666669</ele><time>2026-04-22T10:52:47.135Z</time></trkpt><trkpt lat="43.466725" lon="11.6072067"><ele>251.0</ele><time>2026-04-22T10:52:48.137Z</time></trkpt><trkpt lat="43.466575" lon="11.6070783"><ele>251.0</ele><time>2026-04-22T10:52:49.137Z</time></trkpt><trkpt lat="43.4664317" lon="11.6069533"><ele>251.0</ele><time>2026-04-22T10:52:50.137Z</time></trkpt><trkpt lat="43.466295" lon="11.606835"><ele>251.0</ele><time>2026-04-22T10:52:51.137Z</time></trkpt><trkpt lat="43.4661683" lon="11.6067317"><ele>251.75</ele><time>2026-04-22T10:52:52.136Z</time></trkpt><trkpt lat="43.4660533" lon="11.60665"><ele>252.5</ele><time>2026-04-22T10:52:53.137Z</time></trkpt><trkpt lat="43.465935" lon="11.606605"><ele>253.25</ele><time>2026-04-22T10:52:54.138Z</time></trkpt><trkpt lat="43.4658117" lon="11.606605"><ele>254.0</ele><time>2026-04-22T10:52:55.138Z</time></trkpt><trkpt lat="43.46568" lon="11.606655"><ele>254.0</ele><time>2026-04-22T10:52:56.137Z</time></trkpt><trkpt lat="43.4655467" lon="11.606735"><ele>254.0</ele><time>2026-04-22T10:52:57.138Z</time></trkpt><trkpt lat="43.4654083" lon="11.606825"><ele>254.0</ele><time>2026-04-22T10:52:58.137Z</time></trkpt><trkpt lat="43.46526" lon="11.6069183"><ele>253.66666666666669</ele><time>2026-04-22T10:52:59.137Z</time></trkpt><trkpt lat="43.4651117" lon="11.607005"><ele>253.33333333333331</ele><time>2026-04-22T10:53:00.138Z</time></trkpt><trkpt lat="43.464965" lon="11.6070767"><ele>253.0</ele><time>2026-04-22T10:53:01.137Z</time></trkpt><trkpt lat="43.46482" lon="11.60713"><ele>253.0</ele><time>2026-04-22T10:53:02.136Z</time></trkpt><trkpt lat="43.464675" lon="11.6071517"><ele>253.0</ele><time>2026-04-22T10:53:03.139Z</time></trkpt><trkpt lat="43.4645217" lon="11.6071467"><ele>253.0</ele><time>2026-04-22T10:53:04.138Z</time></trkpt><trkpt lat="43.4643617" lon="11.6071167"><ele>253.66666666666666</ele><time>2026-04-22T10:53:05.135Z</time></trkpt><trkpt lat="43.464205" lon="11.60707"><ele>254.33333333333331</ele><time>2026-04-22T10:53:06.137Z</time></trkpt><trkpt lat="43.46405" lon="11.607015"><ele>255.0</ele><time>2026-04-22T10:53:07.141Z</time></trkpt><trkpt lat="43.4639033" lon="11.6069467"><ele>251.0</ele><time>2026-04-22T10:53:08.137Z</time></trkpt><trkpt lat="43.4637667" lon="11.60687"><ele>247.0</ele><time>2026-04-22T10:53:09.137Z</time></trkpt><trkpt lat="43.4636267" lon="11.6067733"><ele>243.0</ele><time>2026-04-22T10:53:10.137Z</time></trkpt><trkpt lat="43.46349" lon="11.6066533"><ele>243.0</ele><time>2026-04-22T10:53:11.136Z</time></trkpt><trkpt lat="43.4633583" lon="11.6065217"><ele>243.0</ele><time>2026-04-22T10:53:12.136Z</time></trkpt><trkpt lat="43.463225" lon="11.6063883"><ele>243.0</ele><time>2026-04-22T10:53:13.136Z</time></trkpt><trkpt lat="43.4631017" lon="11.6062467"><ele>241.33333333333331</ele><time>2026-04-22T10:53:14.137Z</time></trkpt><trkpt lat="43.4629817" lon="11.6061017"><ele>239.66666666666666</ele><time>2026-04-22T10:53:15.138Z</time></trkpt><trkpt lat="43.4628667" lon="11.605955"><ele>238.0</ele><time>2026-04-22T10:53:16.136Z</time></trkpt><trkpt lat="43.46275" lon="11.6058133"><ele>237.0</ele><time>2026-04-22T10:53:17.136Z</time></trkpt><trkpt lat="43.4626333" lon="11.6056733"><ele>236.0</ele><time>2026-04-22T10:53:18.137Z</time></trkpt><trkpt lat="43.4625183" lon="11.6055367"><ele>235.0</ele><time>2026-04-22T10:53:19.137Z</time></trkpt><trkpt lat="43.462405" lon="11.6053983"><ele>236.0</ele><time>2026-04-22T10:53:20.138Z</time></trkpt><trkpt lat="43.46229" lon="11.6052633"><ele>237.0</ele><time>2026-04-22T10:53:21.138Z</time></trkpt><trkpt lat="43.46217" lon="11.605125"><ele>238.0</ele><time>2026-04-22T10:53:22.137Z</time></trkpt><trkpt lat="43.4620467" lon="11.6049833"><ele>240.0</ele><time>2026-04-22T10:53:23.135Z</time></trkpt><trkpt lat="43.4619233" lon="11.6048383"><ele>242.0</ele><time>2026-04-22T10:53:24.138Z</time></trkpt><trkpt lat="43.4618017" lon="11.6046933"><ele>244.0</ele><time>2026-04-22T10:53:25.137Z</time></trkpt><trkpt lat="43.46168" lon="11.6045467"><ele>244.66666666666666</ele><time>2026-04-22T10:53:26.137Z</time></trkpt><trkpt lat="43.46156" lon="11.6043917"><ele>245.33333333333331</ele><time>2026-04-22T10:53:27.138Z</time></trkpt><trkpt lat="43.4614383" lon="11.60424"><ele>246.0</ele><time>2026-04-22T10:53:28.136Z</time></trkpt><trkpt lat="43.4613133" lon="11.60409"><ele>248.0</ele><time>2026-04-22T10:53:29.136Z</time></trkpt><trkpt lat="43.4611833" lon="11.6039383"><ele>250.0</ele><time>2026-04-22T10:53:30.136Z</time></trkpt><trkpt lat="43.4610567" lon="11.6037833"><ele>252.0</ele><time>2026-04-22T10:53:31.137Z</time></trkpt><trkpt lat="43.4609317" lon="11.603625"><ele>253.0</ele><time>2026-04-22T10:53:32.137Z</time></trkpt><trkpt lat="43.46081" lon="11.6034617"><ele>254.0</ele><time>2026-04-22T10:53:33.138Z</time></trkpt><trkpt lat="43.460685" lon="11.6032967"><ele>255.0</ele><time>2026-04-22T10:53:34.137Z</time></trkpt><trkpt lat="43.4605517" lon="11.6031267"><ele>253.66666666666669</ele><time>2026-04-22T10:53:35.137Z</time></trkpt><trkpt lat="43.4604117" lon="11.6029533"><ele>252.33333333333334</ele><time>2026-04-22T10:53:36.136Z</time></trkpt><trkpt lat="43.4602767" lon="11.6027833"><ele>251.0</ele><time>2026-04-22T10:53:37.137Z</time></trkpt><trkpt lat="43.460145" lon="11.60262"><ele>253.66666666666669</ele><time>2026-04-22T10:53:38.138Z</time></trkpt><trkpt lat="43.4600183" lon="11.6024583"><ele>256.3333333333333</ele><time>2026-04-22T10:53:39.138Z</time></trkpt><trkpt lat="43.4599017" lon="11.6023083"><ele>259.0</ele><time>2026-04-22T10:53:40.137Z</time></trkpt><trkpt lat="43.4597967" lon="11.60218"><ele>259.0</ele><time>2026-04-22T10:53:41.137Z</time></trkpt><trkpt lat="43.4596733" lon="11.6020833"><ele>259.0</ele><time>2026-04-22T10:53:42.139Z</time></trkpt><trkpt lat="43.4595317" lon="11.6020267"><ele>259.0</ele><time>2026-04-22T10:53:43.137Z</time></trkpt><trkpt lat="43.45938" lon="11.6020017"><ele>259.0</ele><time>2026-04-22T10:53:44.136Z</time></trkpt><trkpt lat="43.4592417" lon="11.6019867"><ele>259.25</ele><time>2026-04-22T10:53:45.137Z</time></trkpt><trkpt lat="43.4591233" lon="11.6019467"><ele>259.5</ele><time>2026-04-22T10:53:46.137Z</time></trkpt><trkpt lat="43.4590233" lon="11.60186"><ele>259.75</ele><time>2026-04-22T10:53:47.135Z</time></trkpt><trkpt lat="43.4589383" lon="11.6017317"><ele>260.0</ele><time>2026-04-22T10:53:48.137Z</time></trkpt><trkpt lat="43.4588583" lon="11.6015833"><ele>259.6666666666667</ele><time>2026-04-22T10:53:49.138Z</time></trkpt><trkpt lat="43.4587783" lon="11.6014233"><ele>259.3333333333333</ele><time>2026-04-22T10:53:50.136Z</time></trkpt><trkpt lat="43.4586917" lon="11.601245"><ele>259.0</ele><time>2026-04-22T10:53:51.138Z</time></trkpt><trkpt lat="43.4585917" lon="11.6010383"><ele>259.0</ele><time>2026-04-22T10:53:52.135Z</time></trkpt><trkpt lat="43.45848" lon="11.6008067"><ele>259.0</ele><time>2026-04-22T10:53:53.135Z</time></trkpt><trkpt lat="43.4583583" lon="11.60055"><ele>259.0</ele><time>2026-04-22T10:53:54.138Z</time></trkpt><trkpt lat="43.458225" lon="11.6002733"><ele>261.0</ele><time>2026-04-22T10:53:55.138Z</time></trkpt><trkpt lat="43.458085" lon="11.5999783"><ele>263.0</ele><time>2026-04-22T10:53:56.134Z</time></trkpt><trkpt lat="43.457945" lon="11.59968"><ele>264.6666666666667</ele><time>2026-04-22T10:53:57.138Z</time></trkpt><trkpt lat="43.4578133" lon="11.5994"><ele>266.3333333333333</ele><time>2026-04-22T10:53:58.138Z</time></trkpt><trkpt lat="43.4577033" lon="11.59916"><ele>268.0</ele><time>2026-04-22T10:53:59.136Z</time></trkpt><trkpt lat="43.4576133" lon="11.5989583"><ele>268.0</ele><time>2026-04-22T10:54:00.137Z</time></trkpt><trkpt lat="43.45754" lon="11.5987717"><ele>268.0</ele><time>2026-04-22T10:54:01.138Z</time></trkpt><trkpt lat="43.4574783" lon="11.5985983"><ele>268.0</ele><time>2026-04-22T10:54:02.139Z</time></trkpt><trkpt lat="43.45743" lon="11.598435"><ele>268.0</ele><time>2026-04-22T10:54:03.137Z</time></trkpt><trkpt lat="43.45739" lon="11.5982883"><ele>267.66666666666663</ele><time>2026-04-22T10:54:04.136Z</time></trkpt><trkpt lat="43.45735" lon="11.5981633"><ele>267.3333333333333</ele><time>2026-04-22T10:54:05.138Z</time></trkpt><trkpt lat="43.45731" lon="11.598065"><ele>267.0</ele><time>2026-04-22T10:54:06.137Z</time></trkpt><trkpt lat="43.45727" lon="11.5979867"><ele>266.6666666666667</ele><time>2026-04-22T10:54:07.139Z</time></trkpt><trkpt lat="43.4572083" lon="11.5978767"><ele>266.33333333333337</ele><time>2026-04-22T10:54:09.138Z</time></trkpt><trkpt lat="43.4571633" lon="11.59781"><ele>266.0</ele><time>2026-04-22T10:54:11.137Z</time></trkpt><trkpt lat="43.45708" lon="11.59773"><ele>267.0</ele><time>2026-04-22T10:54:46.137Z</time></trkpt><trkpt lat="43.4570333" lon="11.5976533"><ele>268.0</ele><time>2026-04-22T10:54:47.138Z</time></trkpt><trkpt lat="43.4569867" lon="11.5975717"><ele>269.0</ele><time>2026-04-22T10:54:48.135Z</time></trkpt><trkpt lat="43.4569417" lon="11.5974967"><ele>270.0</ele><time>2026-04-22T10:54:49.136Z</time></trkpt><trkpt lat="43.4569017" lon="11.5974217"><ele>271.0</ele><time>2026-04-22T10:54:50.137Z</time></trkpt><trkpt lat="43.456875" lon="11.5973367"><ele>272.0</ele><time>2026-04-22T10:54:51.137Z</time></trkpt><trkpt lat="43.4568583" lon="11.5972283"><ele>273.0</ele><time>2026-04-22T10:54:52.136Z</time></trkpt><trkpt lat="43.4568533" lon="11.59711"><ele>273.0</ele><time>2026-04-22T10:54:53.138Z</time></trkpt><trkpt lat="43.4568383" lon="11.5970033"><ele>273.0</ele><time>2026-04-22T10:54:54.137Z</time></trkpt><trkpt lat="43.4568" lon="11.5969083"><ele>273.0</ele><time>2026-04-22T10:54:55.138Z</time></trkpt><trkpt lat="43.4567467" lon="11.5968317"><ele>273.0</ele><time>2026-04-22T10:54:56.137Z</time></trkpt><trkpt lat="43.4566783" lon="11.5967633"><ele>273.0</ele><time>2026-04-22T10:54:57.139Z</time></trkpt><trkpt lat="43.456605" lon="11.5967133"><ele>273.0</ele><time>2026-04-22T10:54:58.137Z</time></trkpt><trkpt lat="43.4565267" lon="11.596675"><ele>273.2</ele><time>2026-04-22T10:54:59.137Z</time></trkpt><trkpt lat="43.4564517" lon="11.5966417"><ele>273.4</ele><time>2026-04-22T10:55:00.138Z</time></trkpt><trkpt lat="43.4563783" lon="11.596605"><ele>273.59999999999997</ele><time>2026-04-22T10:55:01.137Z</time></trkpt><trkpt lat="43.4563133" lon="11.5965733"><ele>273.8</ele><time>2026-04-22T10:55:02.139Z</time></trkpt><trkpt lat="43.45621" lon="11.5965383"><ele>274.0</ele><time>2026-04-22T10:55:04.138Z</time></trkpt><trkpt lat="43.4560883" lon="11.5965367"><ele>275.3333333333333</ele><time>2026-04-22T10:55:06.138Z</time></trkpt><trkpt lat="43.4560033" lon="11.5965367"><ele>276.66666666666663</ele><time>2026-04-22T10:55:07.134Z</time></trkpt><trkpt lat="43.4559183" lon="11.596545"><ele>278.0</ele><time>2026-04-22T10:55:08.137Z</time></trkpt><trkpt lat="43.4558467" lon="11.5965483"><ele>279.3333333333333</ele><time>2026-04-22T10:55:09.137Z</time></trkpt><trkpt lat="43.4557733" lon="11.5965317"><ele>280.6666666666667</ele><time>2026-04-22T10:55:10.137Z</time></trkpt><trkpt lat="43.4557117" lon="11.59646"><ele>282.0</ele><time>2026-04-22T10:55:11.138Z</time></trkpt><trkpt lat="43.4556583" lon="11.5963817"><ele>282.0</ele><time>2026-04-22T10:55:12.135Z</time></trkpt><trkpt lat="43.4556117" lon="11.5963033"><ele>282.0</ele><time>2026-04-22T10:55:13.136Z</time></trkpt><trkpt lat="43.4555717" lon="11.5962333"><ele>282.0</ele><time>2026-04-22T10:55:14.135Z</time></trkpt><trkpt lat="43.4555183" lon="11.5961717"><ele>282.0</ele><time>2026-04-22T10:55:15.137Z</time></trkpt><trkpt lat="43.4554183" lon="11.59608"><ele>282.0</ele><time>2026-04-22T10:55:17.136Z</time></trkpt><trkpt lat="43.4553533" lon="11.596025"><ele>282.0</ele><time>2026-04-22T10:55:18.135Z</time></trkpt><trkpt lat="43.4552867" lon="11.595965"><ele>282.6</ele><time>2026-04-22T10:55:19.136Z</time></trkpt><trkpt lat="43.45523" lon="11.595895"><ele>283.2</ele><time>2026-04-22T10:55:20.135Z</time></trkpt><trkpt lat="43.45518" lon="11.5958033"><ele>283.8</ele><time>2026-04-22T10:55:21.137Z</time></trkpt><trkpt lat="43.4551317" lon="11.5956867"><ele>284.4</ele><time>2026-04-22T10:55:22.137Z</time></trkpt><trkpt lat="43.4550933" lon="11.595535"><ele>285.0</ele><time>2026-04-22T10:55:23.137Z</time></trkpt><trkpt lat="43.455065" lon="11.5953883"><ele>286.2</ele><time>2026-04-22T10:55:24.136Z</time></trkpt><trkpt lat="43.45505" lon="11.59526"><ele>287.4</ele><time>2026-04-22T10:55:25.137Z</time></trkpt><trkpt lat="43.4550483" lon="11.5951483"><ele>288.6</ele><time>2026-04-22T10:55:26.137Z</time></trkpt><trkpt lat="43.4550567" lon="11.595035"><ele>289.8</ele><time>2026-04-22T10:55:27.137Z</time></trkpt><trkpt lat="43.455055" lon="11.59493"><ele>291.0</ele><time>2026-04-22T10:55:28.136Z</time></trkpt><trkpt lat="43.4550133" lon="11.594765"><ele>291.0</ele><time>2026-04-22T10:55:30.137Z</time></trkpt><trkpt lat="43.4549417" lon="11.5947517"><ele>291.0</ele><time>2026-04-22T10:55:31.135Z</time></trkpt><trkpt lat="43.454865" lon="11.594765"><ele>291.0</ele><time>2026-04-22T10:55:32.138Z</time></trkpt><trkpt lat="43.4548017" lon="11.5947733"><ele>291.0</ele><time>2026-04-22T10:55:33.137Z</time></trkpt><trkpt lat="43.4546817" lon="11.5948017"><ele>291.0</ele><time>2026-04-22T10:55:35.136Z</time></trkpt><trkpt lat="43.4546117" lon="11.594835"><ele>291.0</ele><time>2026-04-22T10:55:36.137Z</time></trkpt><trkpt lat="43.45454" lon="11.594885"><ele>290.6666666666667</ele><time>2026-04-22T10:55:37.138Z</time></trkpt><trkpt lat="43.45448" lon="11.594935"><ele>290.3333333333333</ele><time>2026-04-22T10:55:38.138Z</time></trkpt><trkpt lat="43.454375" lon="11.59499"><ele>290.0</ele><time>2026-04-22T10:55:40.137Z</time></trkpt><trkpt lat="43.45427" lon="11.5949733"><ele>289.66666666666663</ele><time>2026-04-22T10:55:42.137Z</time></trkpt><trkpt lat="43.45421" lon="11.5949383"><ele>289.3333333333333</ele><time>2026-04-22T10:55:43.136Z</time></trkpt><trkpt lat="43.4541483" lon="11.5948767"><ele>289.0</ele><time>2026-04-22T10:55:44.136Z</time></trkpt><trkpt lat="43.454085" lon="11.594805"><ele>289.0</ele><time>2026-04-22T10:55:45.138Z</time></trkpt><trkpt lat="43.4540167" lon="11.59474"><ele>289.0</ele><time>2026-04-22T10:55:46.136Z</time></trkpt><trkpt lat="43.4539567" lon="11.5946783"><ele>289.0</ele><time>2026-04-22T10:55:47.138Z</time></trkpt><trkpt lat="43.453915" lon="11.59461"><ele>289.0</ele><time>2026-04-22T10:55:48.135Z</time></trkpt><trkpt lat="43.453895" lon="11.5944667"><ele>289.0</ele><time>2026-04-22T10:55:50.136Z</time></trkpt><trkpt lat="43.4539117" lon="11.5943683"><ele>289.0</ele><time>2026-04-22T10:55:51.136Z</time></trkpt><trkpt lat="43.4539283" lon="11.5942483"><ele>290.8333333333333</ele><time>2026-04-22T10:55:52.136Z</time></trkpt><trkpt lat="43.4539367" lon="11.5941117"><ele>292.66666666666663</ele><time>2026-04-22T10:55:53.137Z</time></trkpt><trkpt lat="43.4539283" lon="11.5939767"><ele>294.5</ele><time>2026-04-22T10:55:54.136Z</time></trkpt><trkpt lat="43.453915" lon="11.5938617"><ele>296.3333333333333</ele><time>2026-04-22T10:55:55.139Z</time></trkpt><trkpt lat="43.4539117" lon="11.5937667"><ele>298.1666666666667</ele><time>2026-04-22T10:55:56.137Z</time></trkpt><trkpt lat="43.453925" lon="11.5936683"><ele>300.0</ele><time>2026-04-22T10:55:57.137Z</time></trkpt><trkpt lat="43.453955" lon="11.5935767"><ele>300.8</ele><time>2026-04-22T10:55:58.135Z</time></trkpt><trkpt lat="43.4540267" lon="11.5934967"><ele>301.6</ele><time>2026-04-22T10:55:59.135Z</time></trkpt><trkpt lat="43.4541033" lon="11.5934167"><ele>302.4</ele><time>2026-04-22T10:56:00.137Z</time></trkpt><trkpt lat="43.4541733" lon="11.5933467"><ele>303.2</ele><time>2026-04-22T10:56:01.137Z</time></trkpt><trkpt lat="43.4542233" lon="11.59328"><ele>304.0</ele><time>2026-04-22T10:56:02.137Z</time></trkpt><trkpt lat="43.454285" lon="11.5931533"><ele>304.0</ele><time>2026-04-22T10:56:04.138Z</time></trkpt><trkpt lat="43.4543033" lon="11.5930333"><ele>304.0</ele><time>2026-04-22T10:56:06.135Z</time></trkpt><trkpt lat="43.4542567" lon="11.59285"><ele>304.0</ele><time>2026-04-22T10:56:08.136Z</time></trkpt><trkpt lat="43.45422" lon="11.5927333"><ele>304.0</ele><time>2026-04-22T10:56:09.138Z</time></trkpt><trkpt lat="43.454195" lon="11.5926133"><ele>304.0</ele><time>2026-04-22T10:56:10.137Z</time></trkpt><trkpt lat="43.4541617" lon="11.5924917"><ele>304.59999999999997</ele><time>2026-04-22T10:56:11.136Z</time></trkpt><trkpt lat="43.4541217" lon="11.5923817"><ele>305.2</ele><time>2026-04-22T10:56:12.135Z</time></trkpt><trkpt lat="43.454075" lon="11.5922767"><ele>305.79999999999995</ele><time>2026-04-22T10:56:13.138Z</time></trkpt><trkpt lat="43.45403" lon="11.59217"><ele>306.4</ele><time>2026-04-22T10:56:14.136Z</time></trkpt><trkpt lat="43.4539833" lon="11.5920567"><ele>307.0</ele><time>2026-04-22T10:56:15.138Z</time></trkpt><trkpt lat="43.4539367" lon="11.59194"><ele>307.99999999999994</ele><time>2026-04-22T10:56:16.137Z</time></trkpt><trkpt lat="43.4539033" lon="11.5918433"><ele>309.0</ele><time>2026-04-22T10:56:17.137Z</time></trkpt><trkpt lat="43.4538817" lon="11.5917583"><ele>310.0</ele><time>2026-04-22T10:56:18.138Z</time></trkpt><trkpt lat="43.4538633" lon="11.591665"><ele>311.0</ele><time>2026-04-22T10:56:19.137Z</time></trkpt><trkpt lat="43.4538583" lon="11.5915683"><ele>312.0</ele><time>2026-04-22T10:56:20.138Z</time></trkpt><trkpt lat="43.453865" lon="11.591465"><ele>312.99999999999994</ele><time>2026-04-22T10:56:21.137Z</time></trkpt><trkpt lat="43.4538733" lon="11.5913533"><ele>314.0</ele><time>2026-04-22T10:56:22.135Z</time></trkpt><trkpt lat="43.4538833" lon="11.5912383"><ele>315.6666666666667</ele><time>2026-04-22T10:56:23.136Z</time></trkpt><trkpt lat="43.45389" lon="11.5911267"><ele>317.33333333333337</ele><time>2026-04-22T10:56:24.136Z</time></trkpt><trkpt lat="43.4538967" lon="11.59103"><ele>319.0</ele><time>2026-04-22T10:56:25.135Z</time></trkpt><trkpt lat="43.4539033" lon="11.59089"><ele>320.6666666666667</ele><time>2026-04-22T10:56:27.138Z</time></trkpt><trkpt lat="43.4539067" lon="11.5908"><ele>322.3333333333333</ele><time>2026-04-22T10:56:29.136Z</time></trkpt><trkpt lat="43.4539333" lon="11.5907133"><ele>324.0</ele><time>2026-04-22T10:56:37.137Z</time></trkpt><trkpt lat="43.4539133" lon="11.5905933"><ele>324.0</ele><time>2026-04-22T10:56:40.136Z</time></trkpt><trkpt lat="43.45389" lon="11.5905017"><ele>324.0</ele><time>2026-04-22T10:56:41.137Z</time></trkpt><trkpt lat="43.45387" lon="11.590405"><ele>324.0</ele><time>2026-04-22T10:56:42.135Z</time></trkpt><trkpt lat="43.453865" lon="11.5903033"><ele>324.0</ele><time>2026-04-22T10:56:43.136Z</time></trkpt><trkpt lat="43.45387" lon="11.59021"><ele>324.0</ele><time>2026-04-22T10:56:44.138Z</time></trkpt><trkpt lat="43.4539233" lon="11.5900683"><ele>324.0</ele><time>2026-04-22T10:56:46.137Z</time></trkpt><trkpt lat="43.4539783" lon="11.5899667"><ele>326.2</ele><time>2026-04-22T10:56:48.136Z</time></trkpt><trkpt lat="43.4540217" lon="11.5898333"><ele>328.4</ele><time>2026-04-22T10:56:50.136Z</time></trkpt><trkpt lat="43.4540483" lon="11.5896617"><ele>330.6</ele><time>2026-04-22T10:56:52.136Z</time></trkpt><trkpt lat="43.454065" lon="11.5895533"><ele>332.8</ele><time>2026-04-22T10:56:53.136Z</time></trkpt><trkpt lat="43.4540817" lon="11.5894417"><ele>335.0</ele><time>2026-04-22T10:56:54.133Z</time></trkpt><trkpt lat="43.45411" lon="11.5893217"><ele>336.83333333333337</ele><time>2026-04-22T10:56:55.136Z</time></trkpt><trkpt lat="43.4541317" lon="11.5891883"><ele>338.6666666666667</ele><time>2026-04-22T10:56:56.137Z</time></trkpt><trkpt lat="43.4541383" lon="11.5890517"><ele>340.5</ele><time>2026-04-22T10:56:57.138Z</time></trkpt><trkpt lat="43.4541367" lon="11.58893"><ele>342.3333333333333</ele><time>2026-04-22T10:56:58.136Z</time></trkpt><trkpt lat="43.454145" lon="11.5888317"><ele>344.16666666666663</ele><time>2026-04-22T10:56:59.136Z</time></trkpt><trkpt lat="43.4541617" lon="11.5887417"><ele>346.0</ele><time>2026-04-22T10:57:00.137Z</time></trkpt><trkpt lat="43.4541683" lon="11.5886433"><ele>347.0</ele><time>2026-04-22T10:57:01.136Z</time></trkpt><trkpt lat="43.454165" lon="11.5885333"><ele>348.0</ele><time>2026-04-22T10:57:02.135Z</time></trkpt><trkpt lat="43.4541483" lon="11.5884217"><ele>349.0</ele><time>2026-04-22T10:57:03.138Z</time></trkpt><trkpt lat="43.454115" lon="11.5882983"><ele>350.0</ele><time>2026-04-22T10:57:04.136Z</time></trkpt><trkpt lat="43.4540783" lon="11.588175"><ele>351.0</ele><time>2026-04-22T10:57:05.135Z</time></trkpt><trkpt lat="43.45405" lon="11.5880533"><ele>352.0</ele><time>2026-04-22T10:57:06.137Z</time></trkpt><trkpt lat="43.4540267" lon="11.58792"><ele>352.8333333333333</ele><time>2026-04-22T10:57:07.136Z</time></trkpt><trkpt lat="43.454005" lon="11.5877917"><ele>353.66666666666663</ele><time>2026-04-22T10:57:08.137Z</time></trkpt><trkpt lat="43.453995" lon="11.5876767"><ele>354.5</ele><time>2026-04-22T10:57:09.137Z</time></trkpt><trkpt lat="43.4539983" lon="11.5875617"><ele>355.3333333333333</ele><time>2026-04-22T10:57:10.135Z</time></trkpt><trkpt lat="43.454015" lon="11.5874367"><ele>356.1666666666667</ele><time>2026-04-22T10:57:11.136Z</time></trkpt><trkpt lat="43.4540267" lon="11.5873083"><ele>357.0</ele><time>2026-04-22T10:57:12.137Z</time></trkpt><trkpt lat="43.4540367" lon="11.5871817"><ele>357.0</ele><time>2026-04-22T10:57:13.135Z</time></trkpt><trkpt lat="43.4540533" lon="11.587045"><ele>357.0</ele><time>2026-04-22T10:57:14.136Z</time></trkpt><trkpt lat="43.454075" lon="11.586895"><ele>357.0</ele><time>2026-04-22T10:57:15.136Z</time></trkpt><trkpt lat="43.4540967" lon="11.586725"><ele>357.0</ele><time>2026-04-22T10:57:16.137Z</time></trkpt><trkpt lat="43.4541167" lon="11.5865317"><ele>357.8</ele><time>2026-04-22T10:57:17.134Z</time></trkpt><trkpt lat="43.45413" lon="11.58635"><ele>358.6</ele><time>2026-04-22T10:57:18.138Z</time></trkpt><trkpt lat="43.4541367" lon="11.5862067"><ele>359.40000000000003</ele><time>2026-04-22T10:57:19.135Z</time></trkpt><trkpt lat="43.4541367" lon="11.5861067"><ele>360.20000000000005</ele><time>2026-04-22T10:57:20.137Z</time></trkpt><trkpt lat="43.4541467" lon="11.58592"><ele>361.0</ele><time>2026-04-22T10:57:22.136Z</time></trkpt><trkpt lat="43.4541483" lon="11.585795"><ele>362.6</ele><time>2026-04-22T10:57:23.135Z</time></trkpt><trkpt lat="43.454145" lon="11.58566"><ele>364.20000000000005</ele><time>2026-04-22T10:57:24.135Z</time></trkpt><trkpt lat="43.454135" lon="11.585525"><ele>365.79999999999995</ele><time>2026-04-22T10:57:25.136Z</time></trkpt><trkpt lat="43.4541233" lon="11.5853917"><ele>367.4</ele><time>2026-04-22T10:57:26.136Z</time></trkpt><trkpt lat="43.4541083" lon="11.585255"><ele>369.0</ele><time>2026-04-22T10:57:27.136Z</time></trkpt><trkpt lat="43.4540917" lon="11.58513"><ele>371.0</ele><time>2026-04-22T10:57:28.136Z</time></trkpt><trkpt lat="43.4540517" lon="11.58501"><ele>373.0</ele><time>2026-04-22T10:57:29.135Z</time></trkpt><trkpt lat="43.4540017" lon="11.584885"><ele>375.0</ele><time>2026-04-22T10:57:30.136Z</time></trkpt><trkpt lat="43.4539533" lon="11.5847583"><ele>377.0</ele><time>2026-04-22T10:57:31.137Z</time></trkpt><trkpt lat="43.45391" lon="11.584635"><ele>379.0</ele><time>2026-04-22T10:57:32.136Z</time></trkpt><trkpt lat="43.453875" lon="11.5845133"><ele>381.3333333333333</ele><time>2026-04-22T10:57:33.137Z</time></trkpt><trkpt lat="43.453845" lon="11.5843983"><ele>383.66666666666663</ele><time>2026-04-22T10:57:34.137Z</time></trkpt><trkpt lat="43.4538217" lon="11.5842867"><ele>386.0</ele><time>2026-04-22T10:57:35.136Z</time></trkpt><trkpt lat="43.453815" lon="11.584165"><ele>388.3333333333333</ele><time>2026-04-22T10:57:36.137Z</time></trkpt><trkpt lat="43.45382" lon="11.5840433"><ele>390.6666666666667</ele><time>2026-04-22T10:57:37.136Z</time></trkpt><trkpt lat="43.4538267" lon="11.583915"><ele>393.0</ele><time>2026-04-22T10:57:38.137Z</time></trkpt><trkpt lat="43.453835" lon="11.58378"><ele>394.5</ele><time>2026-04-22T10:57:39.139Z</time></trkpt><trkpt lat="43.4538467" lon="11.5836367"><ele>396.0</ele><time>2026-04-22T10:57:40.136Z</time></trkpt><trkpt lat="43.4538567" lon="11.5835"><ele>397.5</ele><time>2026-04-22T10:57:41.135Z</time></trkpt><trkpt lat="43.4538633" lon="11.5833817"><ele>399.0</ele><time>2026-04-22T10:57:42.137Z</time></trkpt><trkpt lat="43.4538667" lon="11.583285"><ele>400.5</ele><time>2026-04-22T10:57:43.137Z</time></trkpt><trkpt lat="43.4538783" lon="11.5831933"><ele>402.0</ele><time>2026-04-22T10:57:44.137Z</time></trkpt><trkpt lat="43.4538867" lon="11.5831067"><ele>402.0</ele><time>2026-04-22T10:57:45.138Z</time></trkpt><trkpt lat="43.4538883" lon="11.5830183"><ele>402.0</ele><time>2026-04-22T10:57:46.134Z</time></trkpt><trkpt lat="43.4538883" lon="11.5828333"><ele>402.0</ele><time>2026-04-22T10:57:48.136Z</time></trkpt><trkpt lat="43.4539017" lon="11.5827417"><ele>402.0</ele><time>2026-04-22T10:57:49.138Z</time></trkpt><trkpt lat="43.4539133" lon="11.5826283"><ele>402.0</ele><time>2026-04-22T10:57:50.138Z</time></trkpt><trkpt lat="43.453925" lon="11.5825183"><ele>402.0</ele><time>2026-04-22T10:57:51.137Z</time></trkpt><trkpt lat="43.4539433" lon="11.5824167"><ele>402.40000000000003</ele><time>2026-04-22T10:57:52.136Z</time></trkpt><trkpt lat="43.4539667" lon="11.582325"><ele>402.8</ele><time>2026-04-22T10:57:53.136Z</time></trkpt><trkpt lat="43.4539917" lon="11.5822433"><ele>403.2</ele><time>2026-04-22T10:57:54.137Z</time></trkpt><trkpt lat="43.4540333" lon="11.5820933"><ele>403.6</ele><time>2026-04-22T10:57:56.137Z</time></trkpt><trkpt lat="43.4540567" lon="11.5819433"><ele>404.0</ele><time>2026-04-22T10:57:58.137Z</time></trkpt><trkpt lat="43.4540517" lon="11.5818217"><ele>406.16666666666663</ele><time>2026-04-22T10:58:00.137Z</time></trkpt><trkpt lat="43.4540233" lon="11.5817167"><ele>408.3333333333333</ele><time>2026-04-22T10:58:02.137Z</time></trkpt><trkpt lat="43.4539967" lon="11.5815917"><ele>410.5</ele><time>2026-04-22T10:58:04.137Z</time></trkpt><trkpt lat="43.453975" lon="11.58147"><ele>412.66666666666663</ele><time>2026-04-22T10:58:06.136Z</time></trkpt><trkpt lat="43.4539433" lon="11.581355"><ele>414.8333333333333</ele><time>2026-04-22T10:58:08.142Z</time></trkpt><trkpt lat="43.4538883" lon="11.5812533"><ele>417.0</ele><time>2026-04-22T10:58:10.14Z</time></trkpt><trkpt lat="43.4538483" lon="11.58118"><ele>420.0</ele><time>2026-04-22T10:58:11.138Z</time></trkpt><trkpt lat="43.453785" lon="11.581075"><ele>423.0</ele><time>2026-04-22T10:58:12.137Z</time></trkpt><trkpt lat="43.4536867" lon="11.5809467"><ele>426.0</ele><time>2026-04-22T10:58:13.136Z</time></trkpt><trkpt lat="43.453595" lon="11.5808217"><ele>429.0</ele><time>2026-04-22T10:58:14.137Z</time></trkpt><trkpt lat="43.4535067" lon="11.580715"><ele>429.0</ele><time>2026-04-22T10:58:15.137Z</time></trkpt><trkpt lat="43.453425" lon="11.5806367"><ele>429.0</ele><time>2026-04-22T10:58:16.136Z</time></trkpt><trkpt lat="43.4533483" lon="11.5805767"><ele>429.0</ele><time>2026-04-22T10:58:17.134Z</time></trkpt><trkpt lat="43.4532767" lon="11.5805367"><ele>429.0</ele><time>2026-04-22T10:58:18.135Z</time></trkpt><trkpt lat="43.4532117" lon="11.5805117"><ele>429.0</ele><time>2026-04-22T10:58:19.136Z</time></trkpt><trkpt lat="43.4531467" lon="11.580495"><ele>429.0</ele><time>2026-04-22T10:58:20.138Z</time></trkpt><trkpt lat="43.4530683" lon="11.58048"><ele>429.0</ele><time>2026-04-22T10:58:21.137Z</time></trkpt><trkpt lat="43.4529817" lon="11.5804733"><ele>429.0</ele><time>2026-04-22T10:58:22.135Z</time></trkpt><trkpt lat="43.4528817" lon="11.5804783"><ele>429.0</ele><time>2026-04-22T10:58:23.136Z</time></trkpt><trkpt lat="43.4527817" lon="11.580495"><ele>429.0</ele><time>2026-04-22T10:58:24.135Z</time></trkpt><trkpt lat="43.4526733" lon="11.5805217"><ele>429.0</ele><time>2026-04-22T10:58:25.136Z</time></trkpt><trkpt lat="43.452555" lon="11.5805567"><ele>431.0</ele><time>2026-04-22T10:58:26.137Z</time></trkpt><trkpt lat="43.45244" lon="11.5805933"><ele>433.0</ele><time>2026-04-22T10:58:27.138Z</time></trkpt><trkpt lat="43.4523383" lon="11.58062"><ele>435.0</ele><time>2026-04-22T10:58:28.135Z</time></trkpt><trkpt lat="43.4522467" lon="11.5806283"><ele>437.0</ele><time>2026-04-22T10:58:29.135Z</time></trkpt><trkpt lat="43.4521667" lon="11.5806133"><ele>439.0</ele><time>2026-04-22T10:58:30.136Z</time></trkpt><trkpt lat="43.4520933" lon="11.58059"><ele>440.33333333333337</ele><time>2026-04-22T10:58:31.136Z</time></trkpt><trkpt lat="43.4520217" lon="11.5805767"><ele>441.6666666666667</ele><time>2026-04-22T10:58:32.136Z</time></trkpt><trkpt lat="43.4519467" lon="11.5805767"><ele>443.0</ele><time>2026-04-22T10:58:33.138Z</time></trkpt><trkpt lat="43.4518683" lon="11.5805883"><ele>444.33333333333337</ele><time>2026-04-22T10:58:34.135Z</time></trkpt><trkpt lat="43.4517833" lon="11.5806133"><ele>445.6666666666667</ele><time>2026-04-22T10:58:35.136Z</time></trkpt><trkpt lat="43.451695" lon="11.580655"><ele>447.0</ele><time>2026-04-22T10:58:36.136Z</time></trkpt><trkpt lat="43.4516083" lon="11.5807017"><ele>447.0</ele><time>2026-04-22T10:58:37.136Z</time></trkpt><trkpt lat="43.4515267" lon="11.580755"><ele>447.00000000000006</ele><time>2026-04-22T10:58:38.138Z</time></trkpt><trkpt lat="43.4514483" lon="11.580815"><ele>447.00000000000006</ele><time>2026-04-22T10:58:39.138Z</time></trkpt><trkpt lat="43.4513683" lon="11.5808733"><ele>447.0</ele><time>2026-04-22T10:58:40.137Z</time></trkpt><trkpt lat="43.4512967" lon="11.5809483"><ele>447.0</ele><time>2026-04-22T10:58:41.136Z</time></trkpt><trkpt lat="43.4512283" lon="11.5810317"><ele>448.6666666666667</ele><time>2026-04-22T10:58:42.137Z</time></trkpt><trkpt lat="43.45118" lon="11.5811333"><ele>450.33333333333337</ele><time>2026-04-22T10:58:43.136Z</time></trkpt><trkpt lat="43.4511417" lon="11.581225"><ele>452.0</ele><time>2026-04-22T10:58:44.138Z</time></trkpt><trkpt lat="43.4511233" lon="11.5813283"><ele>453.6666666666667</ele><time>2026-04-22T10:58:45.138Z</time></trkpt><trkpt lat="43.4511233" lon="11.581435"><ele>455.33333333333337</ele><time>2026-04-22T10:58:46.136Z</time></trkpt><trkpt lat="43.4511417" lon="11.5815317"><ele>457.0</ele><time>2026-04-22T10:58:47.136Z</time></trkpt><trkpt lat="43.4511667" lon="11.5816317"><ele>458.0</ele><time>2026-04-22T10:58:48.137Z</time></trkpt><trkpt lat="43.4511917" lon="11.58173"><ele>459.00000000000006</ele><time>2026-04-22T10:58:49.138Z</time></trkpt><trkpt lat="43.45121" lon="11.5818267"><ele>460.00000000000006</ele><time>2026-04-22T10:58:50.131Z</time></trkpt><trkpt lat="43.451195" lon="11.5819783"><ele>461.0</ele><time>2026-04-22T10:58:52.131Z</time></trkpt><trkpt lat="43.4510883" lon="11.581965"><ele>462.0</ele><time>2026-04-22T10:58:54.137Z</time></trkpt><trkpt lat="43.45102" lon="11.5818983"><ele>462.0</ele><time>2026-04-22T10:58:55.133Z</time></trkpt><trkpt lat="43.450945" lon="11.5818383"><ele>462.0</ele><time>2026-04-22T10:58:56.133Z</time></trkpt><trkpt lat="43.450865" lon="11.5817933"><ele>462.0</ele><time>2026-04-22T10:58:57.137Z</time></trkpt><trkpt lat="43.45078" lon="11.5817717"><ele>462.0</ele><time>2026-04-22T10:58:58.136Z</time></trkpt><trkpt lat="43.4506967" lon="11.5817633"><ele>462.0</ele><time>2026-04-22T10:58:59.131Z</time></trkpt><trkpt lat="43.4506183" lon="11.5817667"><ele>462.0</ele><time>2026-04-22T10:59:00.136Z</time></trkpt><trkpt lat="43.4505167" lon="11.5817883"><ele>462.8</ele><time>2026-04-22T10:59:01.137Z</time></trkpt><trkpt lat="43.450405" lon="11.5818133"><ele>463.6</ele><time>2026-04-22T10:59:02.136Z</time></trkpt><trkpt lat="43.4502967" lon="11.5818267"><ele>464.40000000000003</ele><time>2026-04-22T10:59:03.14Z</time></trkpt><trkpt lat="43.450185" lon="11.581835"><ele>465.20000000000005</ele><time>2026-04-22T10:59:04.137Z</time></trkpt><trkpt lat="43.450075" lon="11.581845"><ele>466.0</ele><time>2026-04-22T10:59:05.136Z</time></trkpt><trkpt lat="43.44998" lon="11.5818733"><ele>466.0</ele><time>2026-04-22T10:59:06.133Z</time></trkpt><trkpt lat="43.4498883" lon="11.5819233"><ele>466.0</ele><time>2026-04-22T10:59:07.137Z</time></trkpt><trkpt lat="43.449795" lon="11.5819833"><ele>466.0</ele><time>2026-04-22T10:59:08.137Z</time></trkpt><trkpt lat="43.4496933" lon="11.5820433"><ele>466.0</ele><time>2026-04-22T10:59:09.138Z</time></trkpt><trkpt lat="43.44958" lon="11.5821133"><ele>466.0</ele><time>2026-04-22T10:59:10.138Z</time></trkpt><trkpt lat="43.4494733" lon="11.5821817"><ele>466.20000000000005</ele><time>2026-04-22T10:59:11.139Z</time></trkpt><trkpt lat="43.4493833" lon="11.5822683"><ele>466.40000000000003</ele><time>2026-04-22T10:59:12.138Z</time></trkpt><trkpt lat="43.44931" lon="11.5823683"><ele>466.6</ele><time>2026-04-22T10:59:13.137Z</time></trkpt><trkpt lat="43.4492583" lon="11.5824983"><ele>466.8</ele><time>2026-04-22T10:59:14.136Z</time></trkpt><trkpt lat="43.4492183" lon="11.582635"><ele>467.0</ele><time>2026-04-22T10:59:15.136Z</time></trkpt><trkpt lat="43.4491833" lon="11.58275"><ele>466.8333333333333</ele><time>2026-04-22T10:59:16.136Z</time></trkpt><trkpt lat="43.449155" lon="11.58285"><ele>466.66666666666663</ele><time>2026-04-22T10:59:17.136Z</time></trkpt><trkpt lat="43.449125" lon="11.58293"><ele>466.5</ele><time>2026-04-22T10:59:18.138Z</time></trkpt><trkpt lat="43.4490133" lon="11.583"><ele>466.33333333333337</ele><time>2026-04-22T10:59:20.137Z</time></trkpt><trkpt lat="43.4489367" lon="11.5830183"><ele>466.1666666666667</ele><time>2026-04-22T10:59:21.139Z</time></trkpt><trkpt lat="43.4488533" lon="11.5830467"><ele>466.0</ele><time>2026-04-22T10:59:22.138Z</time></trkpt><trkpt lat="43.44877" lon="11.58308"><ele>468.33333333333337</ele><time>2026-04-22T10:59:23.138Z</time></trkpt><trkpt lat="43.4486867" lon="11.5831133"><ele>470.6666666666667</ele><time>2026-04-22T10:59:24.137Z</time></trkpt><trkpt lat="43.4486033" lon="11.5831433"><ele>473.0</ele><time>2026-04-22T10:59:25.137Z</time></trkpt><trkpt lat="43.448525" lon="11.5831683"><ele>475.33333333333337</ele><time>2026-04-22T10:59:26.137Z</time></trkpt><trkpt lat="43.4484533" lon="11.583195"><ele>477.6666666666667</ele><time>2026-04-22T10:59:27.137Z</time></trkpt><trkpt lat="43.448385" lon="11.5832133"><ele>480.0</ele><time>2026-04-22T10:59:28.135Z</time></trkpt><trkpt lat="43.4483183" lon="11.5832283"><ele>480.0</ele><time>2026-04-22T10:59:29.136Z</time></trkpt><trkpt lat="43.448245" lon="11.58325"><ele>480.0</ele><time>2026-04-22T10:59:30.136Z</time></trkpt><trkpt lat="43.448165" lon="11.5832833"><ele>480.0</ele><time>2026-04-22T10:59:31.137Z</time></trkpt><trkpt lat="43.448085" lon="11.5833233"><ele>480.0</ele><time>2026-04-22T10:59:32.137Z</time></trkpt><trkpt lat="43.448" lon="11.5833717"><ele>480.0</ele><time>2026-04-22T10:59:33.138Z</time></trkpt><trkpt lat="43.4479133" lon="11.5834183"><ele>480.0</ele><time>2026-04-22T10:59:34.136Z</time></trkpt><trkpt lat="43.44783" lon="11.5834583"><ele>482.0</ele><time>2026-04-22T10:59:35.131Z</time></trkpt><trkpt lat="43.44775" lon="11.583505"><ele>484.0</ele><time>2026-04-22T10:59:36.139Z</time></trkpt><trkpt lat="43.44767" lon="11.5835417"><ele>486.0</ele><time>2026-04-22T10:59:37.136Z</time></trkpt><trkpt lat="43.4475867" lon="11.583565"><ele>488.0</ele><time>2026-04-22T10:59:38.136Z</time></trkpt><trkpt lat="43.4474983" lon="11.583585"><ele>490.0</ele><time>2026-04-22T10:59:39.134Z</time></trkpt><trkpt lat="43.447405" lon="11.5836117"><ele>492.0</ele><time>2026-04-22T10:59:40.145Z</time></trkpt><trkpt lat="43.4473" lon="11.5836583"><ele>489.20000000000005</ele><time>2026-04-22T10:59:41.131Z</time></trkpt><trkpt lat="43.4471983" lon="11.5837133"><ele>486.40000000000003</ele><time>2026-04-22T10:59:42.132Z</time></trkpt><trkpt lat="43.447105" lon="11.5837667"><ele>483.59999999999997</ele><time>2026-04-22T10:59:43.133Z</time></trkpt><trkpt lat="43.447025" lon="11.58382"><ele>480.79999999999995</ele><time>2026-04-22T10:59:44.138Z</time></trkpt><trkpt lat="43.4469433" lon="11.5838433"><ele>478.0</ele><time>2026-04-22T10:59:45.135Z</time></trkpt><trkpt lat="43.4468483" lon="11.5838467"><ele>478.00000000000006</ele><time>2026-04-22T10:59:46.134Z</time></trkpt><trkpt lat="43.4467583" lon="11.583855"><ele>478.0</ele><time>2026-04-22T10:59:47.139Z</time></trkpt><trkpt lat="43.4466683" lon="11.58387"><ele>478.0</ele><time>2026-04-22T10:59:48.134Z</time></trkpt><trkpt lat="43.4465867" lon="11.5839033"><ele>478.0</ele><time>2026-04-22T10:59:49.138Z</time></trkpt><trkpt lat="43.4465033" lon="11.5839283"><ele>478.00000000000006</ele><time>2026-04-22T10:59:50.136Z</time></trkpt><trkpt lat="43.4464233" lon="11.58393"><ele>478.0</ele><time>2026-04-22T10:59:51.14Z</time></trkpt><trkpt lat="43.4463367" lon="11.5838917"><ele>476.0</ele><time>2026-04-22T10:59:52.135Z</time></trkpt><trkpt lat="43.44624" lon="11.5838333"><ele>473.99999999999994</ele><time>2026-04-22T10:59:53.133Z</time></trkpt><trkpt lat="43.44614" lon="11.5837667"><ele>471.99999999999994</ele><time>2026-04-22T10:59:54.14Z</time></trkpt><trkpt lat="43.4460383" lon="11.5837117"><ele>470.0</ele><time>2026-04-22T10:59:55.142Z</time></trkpt><trkpt lat="43.4459317" lon="11.5836583"><ele>468.0</ele><time>2026-04-22T10:59:56.134Z</time></trkpt><trkpt lat="43.4458317" lon="11.5836"><ele>471.4</ele><time>2026-04-22T10:59:57.141Z</time></trkpt><trkpt lat="43.4457433" lon="11.5835517"><ele>474.79999999999995</ele><time>2026-04-22T10:59:58.135Z</time></trkpt><trkpt lat="43.4456633" lon="11.5835067"><ele>478.2</ele><time>2026-04-22T10:59:59.136Z</time></trkpt><trkpt lat="43.4455783" lon="11.5834433"><ele>481.6</ele><time>2026-04-22T11:00:00.143Z</time></trkpt><trkpt lat="43.4454967" lon="11.58336"><ele>485.0</ele><time>2026-04-22T11:00:01.134Z</time></trkpt><trkpt lat="43.4454167" lon="11.583285"><ele>485.0</ele><time>2026-04-22T11:00:02.13Z</time></trkpt><trkpt lat="43.44534" lon="11.5832217"><ele>485.0</ele><time>2026-04-22T11:00:03.135Z</time></trkpt><trkpt lat="43.4452667" lon="11.5831667"><ele>485.0</ele><time>2026-04-22T11:00:04.132Z</time></trkpt><trkpt lat="43.4452" lon="11.5831433"><ele>485.0</ele><time>2026-04-22T11:00:05.134Z</time></trkpt><trkpt lat="43.4450683" lon="11.5831967"><ele>485.0</ele><time>2026-04-22T11:00:07.137Z</time></trkpt><trkpt lat="43.4449883" lon="11.58327"><ele>485.0</ele><time>2026-04-22T11:00:08.137Z</time></trkpt><trkpt lat="43.444915" lon="11.583345"><ele>485.0</ele><time>2026-04-22T11:00:09.136Z</time></trkpt><trkpt lat="43.4448317" lon="11.583415"><ele>485.0</ele><time>2026-04-22T11:00:10.135Z</time></trkpt><trkpt lat="43.444745" lon="11.583485"><ele>485.0</ele><time>2026-04-22T11:00:11.134Z</time></trkpt><trkpt lat="43.4446567" lon="11.5835583"><ele>485.0</ele><time>2026-04-22T11:00:12.138Z</time></trkpt><trkpt lat="43.4445767" lon="11.5836083"><ele>486.8</ele><time>2026-04-22T11:00:13.134Z</time></trkpt><trkpt lat="43.4445" lon="11.58364"><ele>488.6</ele><time>2026-04-22T11:00:14.136Z</time></trkpt><trkpt lat="43.4444117" lon="11.583625"><ele>490.4</ele><time>2026-04-22T11:00:15.136Z</time></trkpt><trkpt lat="43.4443183" lon="11.5836067"><ele>492.2</ele><time>2026-04-22T11:00:16.135Z</time></trkpt><trkpt lat="43.444215" lon="11.5835867"><ele>494.0</ele><time>2026-04-22T11:00:17.134Z</time></trkpt><trkpt lat="43.4441067" lon="11.583585"><ele>494.0</ele><time>2026-04-22T11:00:18.133Z</time></trkpt><trkpt lat="43.4439883" lon="11.5836017"><ele>494.0</ele><time>2026-04-22T11:00:19.137Z</time></trkpt><trkpt lat="43.4438767" lon="11.583615"><ele>494.0</ele><time>2026-04-22T11:00:20.137Z</time></trkpt><trkpt lat="43.4437733" lon="11.583615"><ele>494.0</ele><time>2026-04-22T11:00:21.137Z</time></trkpt><trkpt lat="43.443675" lon="11.5835983"><ele>494.0</ele><time>2026-04-22T11:00:22.136Z</time></trkpt><trkpt lat="43.4435733" lon="11.5835883"><ele>494.79999999999995</ele><time>2026-04-22T11:00:23.138Z</time></trkpt><trkpt lat="43.4434633" lon="11.5835917"><ele>495.59999999999997</ele><time>2026-04-22T11:00:24.136Z</time></trkpt><trkpt lat="43.4433533" lon="11.583605"><ele>496.4</ele><time>2026-04-22T11:00:25.138Z</time></trkpt><trkpt lat="43.4432467" lon="11.5836183"><ele>497.2</ele><time>2026-04-22T11:00:26.136Z</time></trkpt><trkpt lat="43.443145" lon="11.58362"><ele>498.0</ele><time>2026-04-22T11:00:27.136Z</time></trkpt><trkpt lat="43.4430483" lon="11.583615"><ele>496.79999999999995</ele><time>2026-04-22T11:00:28.134Z</time></trkpt><trkpt lat="43.4429583" lon="11.5836033"><ele>495.59999999999997</ele><time>2026-04-22T11:00:29.136Z</time></trkpt><trkpt lat="43.4428683" lon="11.5835917"><ele>494.40000000000003</ele><time>2026-04-22T11:00:30.136Z</time></trkpt><trkpt lat="43.4427767" lon="11.583575"><ele>493.20000000000005</ele><time>2026-04-22T11:00:31.136Z</time></trkpt><trkpt lat="43.4426883" lon="11.5835667"><ele>492.0</ele><time>2026-04-22T11:00:32.138Z</time></trkpt><trkpt lat="43.4425917" lon="11.5835683"><ele>492.0</ele><time>2026-04-22T11:00:33.138Z</time></trkpt><trkpt lat="43.4425033" lon="11.5835867"><ele>492.0</ele><time>2026-04-22T11:00:34.136Z</time></trkpt><trkpt lat="43.4424183" lon="11.58361"><ele>492.0</ele><time>2026-04-22T11:00:35.135Z</time></trkpt><trkpt lat="43.4423317" lon="11.583615"><ele>492.0</ele><time>2026-04-22T11:00:36.138Z</time></trkpt><trkpt lat="43.4422467" lon="11.5835967"><ele>492.0</ele><time>2026-04-22T11:00:37.137Z</time></trkpt><trkpt lat="43.4421617" lon="11.583535"><ele>492.0</ele><time>2026-04-22T11:00:38.138Z</time></trkpt><trkpt lat="43.442075" lon="11.583455"><ele>490.6</ele><time>2026-04-22T11:00:39.139Z</time></trkpt><trkpt lat="43.4419917" lon="11.583385"><ele>489.20000000000005</ele><time>2026-04-22T11:00:40.136Z</time></trkpt><trkpt lat="43.44191" lon="11.5833417"><ele>487.8</ele><time>2026-04-22T11:00:41.137Z</time></trkpt><trkpt lat="43.44182" lon="11.5833367"><ele>486.4</ele><time>2026-04-22T11:00:42.136Z</time></trkpt><trkpt lat="43.441725" lon="11.5833733"><ele>485.0</ele><time>2026-04-22T11:00:43.138Z</time></trkpt><trkpt lat="43.4416333" lon="11.5834233"><ele>484.99999999999994</ele><time>2026-04-22T11:00:44.134Z</time></trkpt><trkpt lat="43.4415467" lon="11.58348"><ele>485.0</ele><time>2026-04-22T11:00:45.138Z</time></trkpt><trkpt lat="43.4414683" lon="11.583525"><ele>485.0</ele><time>2026-04-22T11:00:46.136Z</time></trkpt><trkpt lat="43.4413933" lon="11.58354"><ele>485.0</ele><time>2026-04-22T11:00:47.135Z</time></trkpt><trkpt lat="43.4413133" lon="11.58352"><ele>484.99999999999994</ele><time>2026-04-22T11:00:48.137Z</time></trkpt><trkpt lat="43.4412167" lon="11.5834733"><ele>485.0</ele><time>2026-04-22T11:00:49.136Z</time></trkpt><trkpt lat="43.4411167" lon="11.5834133"><ele>483.49999999999994</ele><time>2026-04-22T11:00:50.137Z</time></trkpt><trkpt lat="43.441025" lon="11.583335"><ele>482.0</ele><time>2026-04-22T11:00:51.138Z</time></trkpt><trkpt lat="43.44095" lon="11.5832567"><ele>480.5</ele><time>2026-04-22T11:00:52.135Z</time></trkpt><trkpt lat="43.4408983" lon="11.583195"><ele>479.0</ele><time>2026-04-22T11:00:53.137Z</time></trkpt><trkpt lat="43.4408533" lon="11.5831017"><ele>477.49999999999994</ele><time>2026-04-22T11:00:55.135Z</time></trkpt><trkpt lat="43.4409267" lon="11.58307"><ele>476.0</ele><time>2026-04-22T11:00:59.135Z</time></trkpt><trkpt lat="43.441" lon="11.5831667"><ele>475.99999999999994</ele><time>2026-04-22T11:01:01.137Z</time></trkpt><trkpt lat="43.4410783" lon="11.5832717"><ele>476.0</ele><time>2026-04-22T11:01:03.137Z</time></trkpt><trkpt lat="43.4411717" lon="11.5832933"><ele>476.0</ele><time>2026-04-22T11:01:05.137Z</time></trkpt><trkpt lat="43.441225" lon="11.5832183"><ele>476.0</ele><time>2026-04-22T11:01:07.135Z</time></trkpt><trkpt lat="43.4411967" lon="11.583105"><ele>475.99999999999994</ele><time>2026-04-22T11:01:09.139Z</time></trkpt><trkpt lat="43.44115" lon="11.58303"><ele>476.0</ele><time>2026-04-22T11:01:10.136Z</time></trkpt><trkpt lat="43.441095" lon="11.5829233"><ele>478.8</ele><time>2026-04-22T11:01:11.138Z</time></trkpt><trkpt lat="43.441045" lon="11.5827817"><ele>481.6</ele><time>2026-04-22T11:01:12.135Z</time></trkpt><trkpt lat="43.4410117" lon="11.5826217"><ele>484.4</ele><time>2026-04-22T11:01:13.136Z</time></trkpt><trkpt lat="43.440995" lon="11.58247"><ele>487.2</ele><time>2026-04-22T11:01:14.135Z</time></trkpt><trkpt lat="43.4409983" lon="11.5823333"><ele>490.0</ele><time>2026-04-22T11:01:15.138Z</time></trkpt><trkpt lat="43.4410217" lon="11.58221"><ele>490.00000000000006</ele><time>2026-04-22T11:01:16.136Z</time></trkpt><trkpt lat="43.44105" lon="11.582095"><ele>490.0</ele><time>2026-04-22T11:01:17.137Z</time></trkpt><trkpt lat="43.4410717" lon="11.5819883"><ele>490.0</ele><time>2026-04-22T11:01:18.137Z</time></trkpt><trkpt lat="43.4410867" lon="11.5818817"><ele>490.0</ele><time>2026-04-22T11:01:19.137Z</time></trkpt><trkpt lat="43.4411033" lon="11.58177"><ele>490.00000000000006</ele><time>2026-04-22T11:01:20.138Z</time></trkpt><trkpt lat="43.4411283" lon="11.5816633"><ele>490.0</ele><time>2026-04-22T11:01:21.138Z</time></trkpt><trkpt lat="43.4411617" lon="11.5815667"><ele>491.33333333333337</ele><time>2026-04-22T11:01:22.136Z</time></trkpt><trkpt lat="43.4411983" lon="11.5814683"><ele>492.6666666666667</ele><time>2026-04-22T11:01:23.136Z</time></trkpt><trkpt lat="43.4412267" lon="11.581375"><ele>494.0</ele><time>2026-04-22T11:01:24.137Z</time></trkpt><trkpt lat="43.4412467" lon="11.581265"><ele>495.33333333333337</ele><time>2026-04-22T11:01:25.138Z</time></trkpt><trkpt lat="43.4412617" lon="11.58116"><ele>496.6666666666667</ele><time>2026-04-22T11:01:26.138Z</time></trkpt><trkpt lat="43.44127" lon="11.5810333"><ele>498.0</ele><time>2026-04-22T11:01:27.137Z</time></trkpt><trkpt lat="43.4412667" lon="11.580915"><ele>498.3333333333333</ele><time>2026-04-22T11:01:28.139Z</time></trkpt><trkpt lat="43.4412483" lon="11.5808017"><ele>498.66666666666663</ele><time>2026-04-22T11:01:29.138Z</time></trkpt><trkpt lat="43.4412167" lon="11.5806983"><ele>499.0</ele><time>2026-04-22T11:01:30.133Z</time></trkpt><trkpt lat="43.441175" lon="11.5806117"><ele>499.3333333333333</ele><time>2026-04-22T11:01:31.136Z</time></trkpt><trkpt lat="43.4411217" lon="11.580535"><ele>499.66666666666663</ele><time>2026-04-22T11:01:32.135Z</time></trkpt><trkpt lat="43.4410667" lon="11.5804617"><ele>500.0</ele><time>2026-04-22T11:01:33.136Z</time></trkpt><trkpt lat="43.4410133" lon="11.58039"><ele>498.3333333333333</ele><time>2026-04-22T11:01:34.138Z</time></trkpt><trkpt lat="43.4409783" lon="11.5803117"><ele>496.66666666666663</ele><time>2026-04-22T11:01:35.136Z</time></trkpt><trkpt lat="43.4409583" lon="11.5802233"><ele>495.0</ele><time>2026-04-22T11:01:36.136Z</time></trkpt><trkpt lat="43.4409517" lon="11.5801233"><ele>493.33333333333337</ele><time>2026-04-22T11:01:37.137Z</time></trkpt><trkpt lat="43.44095" lon="11.580015"><ele>491.6666666666667</ele><time>2026-04-22T11:01:38.137Z</time></trkpt><trkpt lat="43.4409483" lon="11.5799033"><ele>490.0</ele><time>2026-04-22T11:01:39.139Z</time></trkpt><trkpt lat="43.4409367" lon="11.57979"><ele>490.00000000000006</ele><time>2026-04-22T11:01:40.138Z</time></trkpt><trkpt lat="43.44091" lon="11.5796767"><ele>490.0</ele><time>2026-04-22T11:01:41.135Z</time></trkpt><trkpt lat="43.4408867" lon="11.5795683"><ele>490.0</ele><time>2026-04-22T11:01:42.137Z</time></trkpt><trkpt lat="43.4408467" lon="11.579465"><ele>490.0</ele><time>2026-04-22T11:01:43.136Z</time></trkpt><trkpt lat="43.4408017" lon="11.57937"><ele>490.00000000000006</ele><time>2026-04-22T11:01:44.136Z</time></trkpt><trkpt lat="43.44076" lon="11.5792917"><ele>490.0</ele><time>2026-04-22T11:01:45.137Z</time></trkpt><trkpt lat="43.44071" lon="11.5791617"><ele>489.2</ele><time>2026-04-22T11:01:47.135Z</time></trkpt><trkpt lat="43.44073" lon="11.5790783"><ele>488.4</ele><time>2026-04-22T11:01:49.139Z</time></trkpt><trkpt lat="43.4407933" lon="11.5790783"><ele>487.6</ele><time>2026-04-22T11:01:50.138Z</time></trkpt><trkpt lat="43.4409383" lon="11.5791367"><ele>486.8</ele><time>2026-04-22T11:01:51.138Z</time></trkpt><trkpt lat="43.4410517" lon="11.5791817"><ele>486.0</ele><time>2026-04-22T11:01:52.139Z</time></trkpt><trkpt lat="43.4411633" lon="11.5792133"><ele>486.0</ele><time>2026-04-22T11:01:53.138Z</time></trkpt><trkpt lat="43.441255" lon="11.5792167"><ele>486.0</ele><time>2026-04-22T11:01:54.138Z</time></trkpt><trkpt lat="43.4413417" lon="11.5791983"><ele>486.0</ele><time>2026-04-22T11:01:55.14Z</time></trkpt><trkpt lat="43.4414" lon="11.57912"><ele>486.0</ele><time>2026-04-22T11:01:56.138Z</time></trkpt><trkpt lat="43.4414517" lon="11.5790267"><ele>486.0</ele><time>2026-04-22T11:01:57.138Z</time></trkpt><trkpt lat="43.4414983" lon="11.5789417"><ele>486.0</ele><time>2026-04-22T11:01:58.138Z</time></trkpt><trkpt lat="43.4415717" lon="11.5788833"><ele>486.8333333333333</ele><time>2026-04-22T11:01:59.138Z</time></trkpt><trkpt lat="43.44166" lon="11.5788583"><ele>487.66666666666663</ele><time>2026-04-22T11:02:00.138Z</time></trkpt><trkpt lat="43.44175" lon="11.578825"><ele>488.5</ele><time>2026-04-22T11:02:01.138Z</time></trkpt><trkpt lat="43.4418333" lon="11.5787817"><ele>489.3333333333333</ele><time>2026-04-22T11:02:02.139Z</time></trkpt><trkpt lat="43.4419017" lon="11.578705"><ele>490.16666666666663</ele><time>2026-04-22T11:02:03.139Z</time></trkpt><trkpt lat="43.4419633" lon="11.5786183"><ele>491.0</ele><time>2026-04-22T11:02:04.136Z</time></trkpt><trkpt lat="43.4420183" lon="11.5785067"><ele>491.0</ele><time>2026-04-22T11:02:05.137Z</time></trkpt><trkpt lat="43.442065" lon="11.5783917"><ele>491.0</ele><time>2026-04-22T11:02:06.137Z</time></trkpt><trkpt lat="43.442105" lon="11.57828"><ele>491.0</ele><time>2026-04-22T11:02:07.138Z</time></trkpt><trkpt lat="43.4421417" lon="11.578165"><ele>491.0</ele><time>2026-04-22T11:02:08.137Z</time></trkpt><trkpt lat="43.4421667" lon="11.578035"><ele>491.0</ele><time>2026-04-22T11:02:09.14Z</time></trkpt><trkpt lat="43.4421733" lon="11.5778917"><ele>483.0</ele><time>2026-04-22T11:02:10.137Z</time></trkpt><trkpt lat="43.4421767" lon="11.577745"><ele>475.0</ele><time>2026-04-22T11:02:11.137Z</time></trkpt><trkpt lat="43.4421883" lon="11.5775817"><ele>467.0</ele><time>2026-04-22T11:02:12.138Z</time></trkpt><trkpt lat="43.4422233" lon="11.5773983"><ele>459.0</ele><time>2026-04-22T11:02:13.136Z</time></trkpt><trkpt lat="43.442275" lon="11.5772417"><ele>459.0</ele><time>2026-04-22T11:02:14.138Z</time></trkpt><trkpt lat="43.44232" lon="11.5771017"><ele>459.0</ele><time>2026-04-22T11:02:15.138Z</time></trkpt><trkpt lat="43.4423467" lon="11.57699"><ele>459.0</ele><time>2026-04-22T11:02:16.138Z</time></trkpt><trkpt lat="43.4423633" lon="11.5768767"><ele>459.0</ele><time>2026-04-22T11:02:17.138Z</time></trkpt><trkpt lat="43.4423733" lon="11.5767617"><ele>459.0</ele><time>2026-04-22T11:02:18.136Z</time></trkpt><trkpt lat="43.4423567" lon="11.5766467"><ele>459.4</ele><time>2026-04-22T11:02:19.136Z</time></trkpt><trkpt lat="43.4423067" lon="11.5765233"><ele>459.79999999999995</ele><time>2026-04-22T11:02:20.137Z</time></trkpt><trkpt lat="43.4422233" lon="11.5764"><ele>460.20000000000005</ele><time>2026-04-22T11:02:21.137Z</time></trkpt><trkpt lat="43.4421483" lon="11.5762667"><ele>460.6</ele><time>2026-04-22T11:02:22.136Z</time></trkpt><trkpt lat="43.4420933" lon="11.5761583"><ele>461.0</ele><time>2026-04-22T11:02:23.136Z</time></trkpt><trkpt lat="43.4420417" lon="11.5760783"><ele>467.0</ele><time>2026-04-22T11:02:24.137Z</time></trkpt><trkpt lat="43.442" lon="11.5759483"><ele>473.0</ele><time>2026-04-22T11:02:26.138Z</time></trkpt><trkpt lat="43.4420383" lon="11.5758383"><ele>479.0</ele><time>2026-04-22T11:02:28.137Z</time></trkpt><trkpt lat="43.4421217" lon="11.5757417"><ele>485.0</ele><time>2026-04-22T11:02:30.139Z</time></trkpt><trkpt lat="43.4421233" lon="11.5755317"><ele>485.0</ele><time>2026-04-22T11:02:32.138Z</time></trkpt><trkpt lat="43.4420867" lon="11.5753667"><ele>485.0</ele><time>2026-04-22T11:02:33.139Z</time></trkpt><trkpt lat="43.44204" lon="11.5751917"><ele>485.0</ele><time>2026-04-22T11:02:34.139Z</time></trkpt><trkpt lat="43.442" lon="11.575015"><ele>485.0</ele><time>2026-04-22T11:02:35.136Z</time></trkpt><trkpt lat="43.4419633" lon="11.57485"><ele>482.0</ele><time>2026-04-22T11:02:36.137Z</time></trkpt><trkpt lat="43.4419233" lon="11.574685"><ele>479.0</ele><time>2026-04-22T11:02:37.139Z</time></trkpt><trkpt lat="43.4418833" lon="11.57453"><ele>476.0</ele><time>2026-04-22T11:02:38.138Z</time></trkpt><trkpt lat="43.4418533" lon="11.5743783"><ele>473.0</ele><time>2026-04-22T11:02:39.138Z</time></trkpt><trkpt lat="43.4418233" lon="11.574225"><ele>470.59999999999997</ele><time>2026-04-22T11:02:40.137Z</time></trkpt><trkpt lat="43.4417933" lon="11.5740917"><ele>468.19999999999993</ele><time>2026-04-22T11:02:41.136Z</time></trkpt><trkpt lat="43.4417583" lon="11.573965"><ele>465.8</ele><time>2026-04-22T11:02:42.138Z</time></trkpt><trkpt lat="43.44171" lon="11.57383"><ele>463.4</ele><time>2026-04-22T11:02:43.137Z</time></trkpt><trkpt lat="43.4416567" lon="11.5736967"><ele>461.0</ele><time>2026-04-22T11:02:44.133Z</time></trkpt><trkpt lat="43.4416017" lon="11.573565"><ele>459.3333333333333</ele><time>2026-04-22T11:02:45.132Z</time></trkpt><trkpt lat="43.44156" lon="11.573445"><ele>457.66666666666663</ele><time>2026-04-22T11:02:46.138Z</time></trkpt><trkpt lat="43.4415367" lon="11.5733417"><ele>456.0</ele><time>2026-04-22T11:02:47.137Z</time></trkpt><trkpt lat="43.4415117" lon="11.5732567"><ele>454.33333333333337</ele><time>2026-04-22T11:02:48.137Z</time></trkpt><trkpt lat="43.4414717" lon="11.5731417"><ele>452.6666666666667</ele><time>2026-04-22T11:02:50.137Z</time></trkpt><trkpt lat="43.4415617" lon="11.5731533"><ele>451.0</ele><time>2026-04-22T11:02:59.137Z</time></trkpt><trkpt lat="43.4416317" lon="11.5731933"><ele>451.00000000000006</ele><time>2026-04-22T11:03:00.138Z</time></trkpt><trkpt lat="43.4417167" lon="11.57324"><ele>451.0</ele><time>2026-04-22T11:03:01.138Z</time></trkpt><trkpt lat="43.4417933" lon="11.5732883"><ele>451.0</ele><time>2026-04-22T11:03:02.137Z</time></trkpt><trkpt lat="43.4418633" lon="11.573355"><ele>451.0</ele><time>2026-04-22T11:03:03.139Z</time></trkpt><trkpt lat="43.441935" lon="11.5734433"><ele>451.00000000000006</ele><time>2026-04-22T11:03:04.137Z</time></trkpt><trkpt lat="43.4419967" lon="11.5735283"><ele>451.0</ele><time>2026-04-22T11:03:05.137Z</time></trkpt><trkpt lat="43.4420567" lon="11.5736333"><ele>451.0</ele><time>2026-04-22T11:03:06.137Z</time></trkpt><trkpt lat="43.44212" lon="11.57377"><ele>451.0</ele><time>2026-04-22T11:03:07.138Z</time></trkpt><trkpt lat="43.442185" lon="11.5739083"><ele>451.0</ele><time>2026-04-22T11:03:08.134Z</time></trkpt><trkpt lat="43.4422533" lon="11.5740667"><ele>451.0</ele><time>2026-04-22T11:03:09.138Z</time></trkpt><trkpt lat="43.442325" lon="11.574225"><ele>451.0</ele><time>2026-04-22T11:03:10.138Z</time></trkpt><trkpt lat="43.4424183" lon="11.5743883"><ele>451.0</ele><time>2026-04-22T11:03:11.136Z</time></trkpt><trkpt lat="43.4425183" lon="11.5745533"><ele>451.0</ele><time>2026-04-22T11:03:12.138Z</time></trkpt><trkpt lat="43.4426117" lon="11.5747133"><ele>449.75</ele><time>2026-04-22T11:03:13.139Z</time></trkpt><trkpt lat="43.4427033" lon="11.5748617"><ele>448.5</ele><time>2026-04-22T11:03:14.137Z</time></trkpt><trkpt lat="43.4427833" lon="11.5750083"><ele>447.25</ele><time>2026-04-22T11:03:15.138Z</time></trkpt><trkpt lat="43.442855" lon="11.5751533"><ele>446.0</ele><time>2026-04-22T11:03:16.137Z</time></trkpt><trkpt lat="43.4429183" lon="11.575295"><ele>445.75</ele><time>2026-04-22T11:03:17.135Z</time></trkpt><trkpt lat="43.4429933" lon="11.575425"><ele>445.5</ele><time>2026-04-22T11:03:18.137Z</time></trkpt><trkpt lat="43.44308" lon="11.5755583"><ele>445.25</ele><time>2026-04-22T11:03:19.136Z</time></trkpt><trkpt lat="43.4431633" lon="11.575685"><ele>445.0</ele><time>2026-04-22T11:03:20.138Z</time></trkpt><trkpt lat="43.4432333" lon="11.5757967"><ele>445.0</ele><time>2026-04-22T11:03:21.139Z</time></trkpt><trkpt lat="43.4432833" lon="11.5759"><ele>445.0</ele><time>2026-04-22T11:03:22.137Z</time></trkpt><trkpt lat="43.443325" lon="11.5760133"><ele>445.0</ele><time>2026-04-22T11:03:23.137Z</time></trkpt><trkpt lat="43.4433467" lon="11.576145"><ele>445.0</ele><time>2026-04-22T11:03:24.137Z</time></trkpt><trkpt lat="43.44336" lon="11.5762683"><ele>445.0</ele><time>2026-04-22T11:03:25.137Z</time></trkpt><trkpt lat="43.443375" lon="11.5764033"><ele>444.2</ele><time>2026-04-22T11:03:26.137Z</time></trkpt><trkpt lat="43.4434117" lon="11.57654"><ele>443.4</ele><time>2026-04-22T11:03:27.138Z</time></trkpt><trkpt lat="43.4434633" lon="11.5766817"><ele>442.6</ele><time>2026-04-22T11:03:28.137Z</time></trkpt><trkpt lat="43.4435183" lon="11.5768233"><ele>441.8</ele><time>2026-04-22T11:03:29.138Z</time></trkpt><trkpt lat="43.44356" lon="11.5769533"><ele>441.0</ele><time>2026-04-22T11:03:30.137Z</time></trkpt><trkpt lat="43.4435917" lon="11.577095"><ele>440.3333333333333</ele><time>2026-04-22T11:03:31.137Z</time></trkpt><trkpt lat="43.44362" lon="11.5772283"><ele>439.66666666666663</ele><time>2026-04-22T11:03:32.138Z</time></trkpt><trkpt lat="43.4436517" lon="11.5773517"><ele>439.0</ele><time>2026-04-22T11:03:33.137Z</time></trkpt><trkpt lat="43.4436917" lon="11.577455"><ele>438.3333333333333</ele><time>2026-04-22T11:03:34.137Z</time></trkpt><trkpt lat="43.4437317" lon="11.5775533"><ele>437.66666666666663</ele><time>2026-04-22T11:03:35.138Z</time></trkpt><trkpt lat="43.4437783" lon="11.5776317"><ele>437.0</ele><time>2026-04-22T11:03:36.137Z</time></trkpt><trkpt lat="43.4438317" lon="11.5776917"><ele>439.49999999999994</ele><time>2026-04-22T11:03:37.139Z</time></trkpt><trkpt lat="43.4439467" lon="11.57773"><ele>442.0</ele><time>2026-04-22T11:03:39.139Z</time></trkpt><trkpt lat="43.44403" lon="11.5776383"><ele>444.5</ele><time>2026-04-22T11:03:41.138Z</time></trkpt><trkpt lat="43.4440417" lon="11.5775433"><ele>447.0</ele><time>2026-04-22T11:03:42.138Z</time></trkpt><trkpt lat="43.4440433" lon="11.5774467"><ele>449.49999999999994</ele><time>2026-04-22T11:03:43.138Z</time></trkpt><trkpt lat="43.4440217" lon="11.57734"><ele>452.0</ele><time>2026-04-22T11:03:44.137Z</time></trkpt><trkpt lat="43.4440133" lon="11.5772483"><ele>452.0</ele><time>2026-04-22T11:03:45.136Z</time></trkpt><trkpt lat="43.4440467" lon="11.57715"><ele>452.00000000000006</ele><time>2026-04-22T11:03:47.138Z</time></trkpt><trkpt lat="43.4441283" lon="11.5771333"><ele>452.00000000000006</ele><time>2026-04-22T11:03:49.138Z</time></trkpt><trkpt lat="43.4442083" lon="11.5770883"><ele>452.0</ele><time>2026-04-22T11:03:51.138Z</time></trkpt><trkpt lat="43.4442667" lon="11.5770083"><ele>452.0</ele><time>2026-04-22T11:03:53.138Z</time></trkpt><trkpt lat="43.4443767" lon="11.57694"><ele>454.3333333333333</ele><time>2026-04-22T11:03:55.139Z</time></trkpt><trkpt lat="43.44444" lon="11.5769067"><ele>456.66666666666663</ele><time>2026-04-22T11:03:56.139Z</time></trkpt><trkpt lat="43.4445283" lon="11.5768"><ele>459.0</ele><time>2026-04-22T11:03:58.14Z</time></trkpt><trkpt lat="43.444525" lon="11.5766517"><ele>461.33333333333337</ele><time>2026-04-22T11:04:00.138Z</time></trkpt><trkpt lat="43.4445033" lon="11.5765533"><ele>463.6666666666667</ele><time>2026-04-22T11:04:01.134Z</time></trkpt><trkpt lat="43.4444783" lon="11.57646"><ele>466.0</ele><time>2026-04-22T11:04:02.137Z</time></trkpt><trkpt lat="43.4444567" lon="11.576365"><ele>466.0</ele><time>2026-04-22T11:04:03.138Z</time></trkpt><trkpt lat="43.4444517" lon="11.57625"><ele>466.0</ele><time>2026-04-22T11:04:04.136Z</time></trkpt><trkpt lat="43.444455" lon="11.5761233"><ele>466.0</ele><time>2026-04-22T11:04:05.136Z</time></trkpt><trkpt lat="43.44448" lon="11.5759867"><ele>466.0</ele><time>2026-04-22T11:04:06.138Z</time></trkpt><trkpt lat="43.4444967" lon="11.575835"><ele>466.0</ele><time>2026-04-22T11:04:07.137Z</time></trkpt><trkpt lat="43.4445083" lon="11.57568"><ele>467.6</ele><time>2026-04-22T11:04:08.138Z</time></trkpt><trkpt lat="43.4445183" lon="11.5755317"><ele>469.20000000000005</ele><time>2026-04-22T11:04:09.14Z</time></trkpt><trkpt lat="43.4445333" lon="11.5753983"><ele>470.79999999999995</ele><time>2026-04-22T11:04:10.137Z</time></trkpt><trkpt lat="43.4445483" lon="11.5752733"><ele>472.4</ele><time>2026-04-22T11:04:11.141Z</time></trkpt><trkpt lat="43.4445717" lon="11.57516"><ele>474.0</ele><time>2026-04-22T11:04:12.138Z</time></trkpt><trkpt lat="43.4445933" lon="11.5750583"><ele>475.71428571428567</ele><time>2026-04-22T11:04:13.137Z</time></trkpt><trkpt lat="43.4446033" lon="11.5749533"><ele>477.42857142857144</ele><time>2026-04-22T11:04:14.138Z</time></trkpt><trkpt lat="43.4445967" lon="11.5748483"><ele>479.1428571428571</ele><time>2026-04-22T11:04:15.138Z</time></trkpt><trkpt lat="43.4445983" lon="11.57475"><ele>480.85714285714283</ele><time>2026-04-22T11:04:16.138Z</time></trkpt><trkpt lat="43.4446167" lon="11.5746567"><ele>482.57142857142856</ele><time>2026-04-22T11:04:17.136Z</time></trkpt><trkpt lat="43.4446533" lon="11.5745667"><ele>484.2857142857143</ele><time>2026-04-22T11:04:18.138Z</time></trkpt><trkpt lat="43.444685" lon="11.5744783"><ele>486.0</ele><time>2026-04-22T11:04:19.138Z</time></trkpt><trkpt lat="43.4447083" lon="11.574395"><ele>488.8333333333333</ele><time>2026-04-22T11:04:20.138Z</time></trkpt><trkpt lat="43.4447233" lon="11.5743083"><ele>491.66666666666663</ele><time>2026-04-22T11:04:21.139Z</time></trkpt><trkpt lat="43.44473" lon="11.5742067"><ele>494.5</ele><time>2026-04-22T11:04:22.138Z</time></trkpt><trkpt lat="43.44474" lon="11.5740933"><ele>497.3333333333333</ele><time>2026-04-22T11:04:23.138Z</time></trkpt><trkpt lat="43.44475" lon="11.5739733"><ele>500.16666666666663</ele><time>2026-04-22T11:04:24.139Z</time></trkpt><trkpt lat="43.4447617" lon="11.5738567"><ele>503.0</ele><time>2026-04-22T11:04:25.138Z</time></trkpt><trkpt lat="43.444755" lon="11.573745"><ele>504.66666666666663</ele><time>2026-04-22T11:04:26.139Z</time></trkpt><trkpt lat="43.4447433" lon="11.57363"><ele>506.3333333333333</ele><time>2026-04-22T11:04:27.137Z</time></trkpt><trkpt lat="43.4447333" lon="11.5735083"><ele>508.0</ele><time>2026-04-22T11:04:28.137Z</time></trkpt><trkpt lat="43.4447267" lon="11.573395"><ele>509.66666666666663</ele><time>2026-04-22T11:04:29.137Z</time></trkpt><trkpt lat="43.444705" lon="11.573285"><ele>511.3333333333333</ele><time>2026-04-22T11:04:30.138Z</time></trkpt><trkpt lat="43.4446783" lon="11.573185"><ele>513.0</ele><time>2026-04-22T11:04:31.136Z</time></trkpt><trkpt lat="43.44465" lon="11.5730967"><ele>513.6666666666666</ele><time>2026-04-22T11:04:32.137Z</time></trkpt><trkpt lat="43.4446283" lon="11.5730133"><ele>514.3333333333334</ele><time>2026-04-22T11:04:33.138Z</time></trkpt><trkpt lat="43.4446233" lon="11.5729183"><ele>515.0</ele><time>2026-04-22T11:04:34.139Z</time></trkpt><trkpt lat="43.4446283" lon="11.5728133"><ele>515.6666666666667</ele><time>2026-04-22T11:04:35.138Z</time></trkpt><trkpt lat="43.4446383" lon="11.5727033"><ele>516.3333333333334</ele><time>2026-04-22T11:04:36.138Z</time></trkpt><trkpt lat="43.444665" lon="11.5725917"><ele>517.0</ele><time>2026-04-22T11:04:37.138Z</time></trkpt><trkpt lat="43.4447017" lon="11.5724733"><ele>518.8000000000001</ele><time>2026-04-22T11:04:38.139Z</time></trkpt><trkpt lat="43.4447583" lon="11.5723417"><ele>520.6</ele><time>2026-04-22T11:04:39.138Z</time></trkpt><trkpt lat="43.4448267" lon="11.57221"><ele>522.4000000000001</ele><time>2026-04-22T11:04:40.138Z</time></trkpt><trkpt lat="43.444885" lon="11.57208"><ele>524.2</ele><time>2026-04-22T11:04:41.136Z</time></trkpt><trkpt lat="43.44494" lon="11.5719533"><ele>526.0</ele><time>2026-04-22T11:04:42.137Z</time></trkpt><trkpt lat="43.4450033" lon="11.5718267"><ele>526.25</ele><time>2026-04-22T11:04:43.139Z</time></trkpt><trkpt lat="43.4450733" lon="11.5716967"><ele>526.5</ele><time>2026-04-22T11:04:44.139Z</time></trkpt><trkpt lat="43.445155" lon="11.571565"><ele>526.75</ele><time>2026-04-22T11:04:45.139Z</time></trkpt><trkpt lat="43.44524" lon="11.5714433"><ele>527.0</ele><time>2026-04-22T11:04:46.137Z</time></trkpt><trkpt lat="43.4453183" lon="11.571335"><ele>527.0</ele><time>2026-04-22T11:04:47.138Z</time></trkpt><trkpt lat="43.4453983" lon="11.571245"><ele>527.0</ele><time>2026-04-22T11:04:48.137Z</time></trkpt><trkpt lat="43.44547" lon="11.57117"><ele>527.0</ele><time>2026-04-22T11:04:49.137Z</time></trkpt><trkpt lat="43.4455317" lon="11.5710783"><ele>527.0</ele><time>2026-04-22T11:04:50.138Z</time></trkpt><trkpt lat="43.4455883" lon="11.57098"><ele>527.0</ele><time>2026-04-22T11:04:51.138Z</time></trkpt><trkpt lat="43.445635" lon="11.5708867"><ele>526.6666666666666</ele><time>2026-04-22T11:04:52.136Z</time></trkpt><trkpt lat="43.4456767" lon="11.57081"><ele>526.3333333333333</ele><time>2026-04-22T11:04:53.138Z</time></trkpt><trkpt lat="43.4457667" lon="11.5706817"><ele>526.0</ele><time>2026-04-22T11:04:55.137Z</time></trkpt><trkpt lat="43.4458267" lon="11.57061"><ele>525.6666666666666</ele><time>2026-04-22T11:04:56.138Z</time></trkpt><trkpt lat="43.4458967" lon="11.5705383"><ele>525.3333333333334</ele><time>2026-04-22T11:04:57.142Z</time></trkpt><trkpt lat="43.4459533" lon="11.5704733"><ele>525.0</ele><time>2026-04-22T11:04:58.139Z</time></trkpt><trkpt lat="43.4459967" lon="11.570405"><ele>524.8</ele><time>2026-04-22T11:04:59.141Z</time></trkpt><trkpt lat="43.4459917" lon="11.570305"><ele>524.6</ele><time>2026-04-22T11:05:00.138Z</time></trkpt><trkpt lat="43.4459783" lon="11.57018"><ele>524.4</ele><time>2026-04-22T11:05:01.14Z</time></trkpt><trkpt lat="43.4459767" lon="11.5700417"><ele>524.2</ele><time>2026-04-22T11:05:02.139Z</time></trkpt><trkpt lat="43.4459883" lon="11.5698933"><ele>524.0</ele><time>2026-04-22T11:05:03.141Z</time></trkpt><trkpt lat="43.4460017" lon="11.56977"><ele>524.0</ele><time>2026-04-22T11:05:04.141Z</time></trkpt><trkpt lat="43.4460317" lon="11.56966"><ele>524.0</ele><time>2026-04-22T11:05:05.139Z</time></trkpt><trkpt lat="43.4460667" lon="11.5695417"><ele>524.0</ele><time>2026-04-22T11:05:06.14Z</time></trkpt><trkpt lat="43.4461067" lon="11.5694183"><ele>524.0</ele><time>2026-04-22T11:05:07.14Z</time></trkpt><trkpt lat="43.4461433" lon="11.5693033"><ele>524.0</ele><time>2026-04-22T11:05:08.14Z</time></trkpt><trkpt lat="43.4461783" lon="11.5692033"><ele>524.0</ele><time>2026-04-22T11:05:09.141Z</time></trkpt><trkpt lat="43.4462133" lon="11.56913"><ele>525.8</ele><time>2026-04-22T11:05:10.143Z</time></trkpt><trkpt lat="43.4463117" lon="11.5690383"><ele>527.5999999999999</ele><time>2026-04-22T11:05:12.14Z</time></trkpt><trkpt lat="43.446385" lon="11.5690233"><ele>529.4</ele><time>2026-04-22T11:05:13.139Z</time></trkpt><trkpt lat="43.44646" lon="11.5690133"><ele>531.1999999999999</ele><time>2026-04-22T11:05:14.136Z</time></trkpt><trkpt lat="43.4465817" lon="11.56896"><ele>533.0</ele><time>2026-04-22T11:05:16.136Z</time></trkpt><trkpt lat="43.4466433" lon="11.568895"><ele>533.0</ele><time>2026-04-22T11:05:17.139Z</time></trkpt><trkpt lat="43.44672" lon="11.5688183"><ele>533.0</ele><time>2026-04-22T11:05:18.136Z</time></trkpt><trkpt lat="43.446795" lon="11.5687383"><ele>533.0</ele><time>2026-04-22T11:05:19.14Z</time></trkpt><trkpt lat="43.446855" lon="11.5686567"><ele>533.0</ele><time>2026-04-22T11:05:20.138Z</time></trkpt><trkpt lat="43.4468983" lon="11.56857"><ele>533.0</ele><time>2026-04-22T11:05:21.139Z</time></trkpt><trkpt lat="43.4469183" lon="11.568465"><ele>533.0</ele><time>2026-04-22T11:05:22.138Z</time></trkpt><trkpt lat="43.446935" lon="11.5683417"><ele>533.3333333333333</ele><time>2026-04-22T11:05:23.137Z</time></trkpt><trkpt lat="43.4469533" lon="11.56822"><ele>533.6666666666666</ele><time>2026-04-22T11:05:24.139Z</time></trkpt><trkpt lat="43.4469617" lon="11.5681017"><ele>534.0</ele><time>2026-04-22T11:05:25.138Z</time></trkpt><trkpt lat="43.4469667" lon="11.5679917"><ele>534.3333333333334</ele><time>2026-04-22T11:05:26.138Z</time></trkpt><trkpt lat="43.446975" lon="11.567875"><ele>534.6666666666667</ele><time>2026-04-22T11:05:27.139Z</time></trkpt><trkpt lat="43.4469833" lon="11.5677567"><ele>535.0</ele><time>2026-04-22T11:05:28.137Z</time></trkpt><trkpt lat="43.446995" lon="11.5676483"><ele>536.0</ele><time>2026-04-22T11:05:29.137Z</time></trkpt><trkpt lat="43.4470117" lon="11.5675517"><ele>537.0</ele><time>2026-04-22T11:05:30.138Z</time></trkpt><trkpt lat="43.4470433" lon="11.5674633"><ele>538.0</ele><time>2026-04-22T11:05:31.137Z</time></trkpt><trkpt lat="43.44708" lon="11.5673817"><ele>539.0</ele><time>2026-04-22T11:05:32.138Z</time></trkpt><trkpt lat="43.44711" lon="11.5673033"><ele>540.0</ele><time>2026-04-22T11:05:33.139Z</time></trkpt><trkpt lat="43.4471433" lon="11.5671317"><ele>541.0</ele><time>2026-04-22T11:05:35.137Z</time></trkpt><trkpt lat="43.44718" lon="11.5670217"><ele>543.0</ele><time>2026-04-22T11:05:36.137Z</time></trkpt><trkpt lat="43.4472217" lon="11.5669117"><ele>545.0</ele><time>2026-04-22T11:05:37.133Z</time></trkpt><trkpt lat="43.4472633" lon="11.5668133"><ele>547.0</ele><time>2026-04-22T11:05:38.137Z</time></trkpt><trkpt lat="43.4472967" lon="11.56672"><ele>549.0</ele><time>2026-04-22T11:05:39.138Z</time></trkpt><trkpt lat="43.4473033" lon="11.5666333"><ele>551.0</ele><time>2026-04-22T11:05:40.137Z</time></trkpt><trkpt lat="43.4473" lon="11.56647"><ele>553.0</ele><time>2026-04-22T11:05:42.137Z</time></trkpt><trkpt lat="43.447315" lon="11.566305"><ele>553.0</ele><time>2026-04-22T11:05:44.138Z</time></trkpt><trkpt lat="43.4473033" lon="11.5662133"><ele>553.0</ele><time>2026-04-22T11:05:45.139Z</time></trkpt><trkpt lat="43.4472833" lon="11.5661167"><ele>553.0</ele><time>2026-04-22T11:05:46.139Z</time></trkpt><trkpt lat="43.4472733" lon="11.566015"><ele>553.0</ele><time>2026-04-22T11:05:47.137Z</time></trkpt><trkpt lat="43.44727" lon="11.5659033"><ele>553.0</ele><time>2026-04-22T11:05:48.138Z</time></trkpt><trkpt lat="43.447285" lon="11.5657783"><ele>553.0</ele><time>2026-04-22T11:05:49.137Z</time></trkpt><trkpt lat="43.44729" lon="11.565665"><ele>554.0</ele><time>2026-04-22T11:05:50.137Z</time></trkpt><trkpt lat="43.4472867" lon="11.5655467"><ele>555.0</ele><time>2026-04-22T11:05:51.14Z</time></trkpt><trkpt lat="43.4472733" lon="11.5654133"><ele>556.0</ele><time>2026-04-22T11:05:52.136Z</time></trkpt><trkpt lat="43.447255" lon="11.5652467"><ele>557.0</ele><time>2026-04-22T11:05:53.138Z</time></trkpt><trkpt lat="43.4472383" lon="11.565065"><ele>558.0</ele><time>2026-04-22T11:05:54.137Z</time></trkpt><trkpt lat="43.4472283" lon="11.5649017"><ele>558.1999999999999</ele><time>2026-04-22T11:05:55.138Z</time></trkpt><trkpt lat="43.4472083" lon="11.564755"><ele>558.4</ele><time>2026-04-22T11:05:56.137Z</time></trkpt><trkpt lat="43.4471783" lon="11.5646133"><ele>558.5999999999999</ele><time>2026-04-22T11:05:57.137Z</time></trkpt><trkpt lat="43.447145" lon="11.5644867"><ele>558.8</ele><time>2026-04-22T11:05:58.137Z</time></trkpt><trkpt lat="43.4471083" lon="11.5643767"><ele>559.0</ele><time>2026-04-22T11:05:59.137Z</time></trkpt><trkpt lat="43.44708" lon="11.5642817"><ele>559.0</ele><time>2026-04-22T11:06:00.137Z</time></trkpt><trkpt lat="43.447055" lon="11.5641833"><ele>559.0</ele><time>2026-04-22T11:06:01.138Z</time></trkpt><trkpt lat="43.44704" lon="11.5640617"><ele>559.0</ele><time>2026-04-22T11:06:02.137Z</time></trkpt><trkpt lat="43.4470433" lon="11.5639017"><ele>559.0</ele><time>2026-04-22T11:06:03.14Z</time></trkpt><trkpt lat="43.4470467" lon="11.5637483"><ele>559.0</ele><time>2026-04-22T11:06:04.139Z</time></trkpt><trkpt lat="43.447055" lon="11.5636117"><ele>559.0</ele><time>2026-04-22T11:06:05.136Z</time></trkpt><trkpt lat="43.4470683" lon="11.563495"><ele>559.0</ele><time>2026-04-22T11:06:06.138Z</time></trkpt><trkpt lat="43.4470983" lon="11.56339"><ele>559.0</ele><time>2026-04-22T11:06:07.137Z</time></trkpt><trkpt lat="43.4471483" lon="11.5632983"><ele>559.0</ele><time>2026-04-22T11:06:08.137Z</time></trkpt><trkpt lat="43.44721" lon="11.5632217"><ele>559.0</ele><time>2026-04-22T11:06:09.133Z</time></trkpt><trkpt lat="43.447285" lon="11.5631733"><ele>559.0</ele><time>2026-04-22T11:06:10.137Z</time></trkpt><trkpt lat="43.44737" lon="11.5631383"><ele>560.5</ele><time>2026-04-22T11:06:11.135Z</time></trkpt><trkpt lat="43.4474467" lon="11.5631333"><ele>562.0</ele><time>2026-04-22T11:06:12.135Z</time></trkpt><trkpt lat="43.4475167" lon="11.5631417"><ele>563.5</ele><time>2026-04-22T11:06:13.134Z</time></trkpt><trkpt lat="43.4475933" lon="11.5631767"><ele>565.0</ele><time>2026-04-22T11:06:14.134Z</time></trkpt><trkpt lat="43.44766" lon="11.5632367"><ele>566.5</ele><time>2026-04-22T11:06:15.135Z</time></trkpt><trkpt lat="43.447725" lon="11.5632833"><ele>568.0</ele><time>2026-04-22T11:06:16.133Z</time></trkpt><trkpt lat="43.447795" lon="11.5632967"><ele>568.0</ele><time>2026-04-22T11:06:17.136Z</time></trkpt><trkpt lat="43.4478767" lon="11.5632733"><ele>568.0</ele><time>2026-04-22T11:06:18.134Z</time></trkpt><trkpt lat="43.4479517" lon="11.5632233"><ele>568.0</ele><time>2026-04-22T11:06:19.138Z</time></trkpt><trkpt lat="43.4480183" lon="11.5631867"><ele>568.0</ele><time>2026-04-22T11:06:20.137Z</time></trkpt><trkpt lat="43.4481283" lon="11.5631733"><ele>568.0</ele><time>2026-04-22T11:06:22.136Z</time></trkpt><trkpt lat="43.44819" lon="11.5630967"><ele>568.0</ele><time>2026-04-22T11:06:26.137Z</time></trkpt><trkpt lat="43.4481467" lon="11.56298"><ele>569.0</ele><time>2026-04-22T11:06:28.135Z</time></trkpt><trkpt lat="43.4481233" lon="11.56281"><ele>570.0</ele><time>2026-04-22T11:06:30.137Z</time></trkpt><trkpt lat="43.4481283" lon="11.56271"><ele>571.0</ele><time>2026-04-22T11:06:31.139Z</time></trkpt><trkpt lat="43.4481233" lon="11.5626167"><ele>572.0</ele><time>2026-04-22T11:06:32.138Z</time></trkpt><trkpt lat="43.4481" lon="11.562525"><ele>573.0</ele><time>2026-04-22T11:06:33.139Z</time></trkpt><trkpt lat="43.4480517" lon="11.5624283"><ele>574.0</ele><time>2026-04-22T11:06:34.137Z</time></trkpt><trkpt lat="43.4479783" lon="11.5623167"><ele>574.75</ele><time>2026-04-22T11:06:35.138Z</time></trkpt><trkpt lat="43.447895" lon="11.5622133"><ele>575.5</ele><time>2026-04-22T11:06:36.138Z</time></trkpt><trkpt lat="43.44781" lon="11.5621083"><ele>576.25</ele><time>2026-04-22T11:06:37.138Z</time></trkpt><trkpt lat="43.4477267" lon="11.5619917"><ele>577.0</ele><time>2026-04-22T11:06:38.138Z</time></trkpt><trkpt lat="43.44765" lon="11.5618583"><ele>578.4</ele><time>2026-04-22T11:06:39.139Z</time></trkpt><trkpt lat="43.447585" lon="11.5617217"><ele>579.8000000000001</ele><time>2026-04-22T11:06:40.138Z</time></trkpt><trkpt lat="43.4475317" lon="11.5616"><ele>581.2</ele><time>2026-04-22T11:06:41.136Z</time></trkpt><trkpt lat="43.4474833" lon="11.5614967"><ele>582.6</ele><time>2026-04-22T11:06:42.136Z</time></trkpt><trkpt lat="43.4474267" lon="11.5614"><ele>584.0</ele><time>2026-04-22T11:06:43.136Z</time></trkpt><trkpt lat="43.447355" lon="11.5612867"><ele>584.25</ele><time>2026-04-22T11:06:44.137Z</time></trkpt><trkpt lat="43.4472783" lon="11.5611717"><ele>584.5</ele><time>2026-04-22T11:06:45.138Z</time></trkpt><trkpt lat="43.447205" lon="11.56106"><ele>584.75</ele><time>2026-04-22T11:06:46.136Z</time></trkpt><trkpt lat="43.4471283" lon="11.56093"><ele>585.0</ele><time>2026-04-22T11:06:47.136Z</time></trkpt><trkpt lat="43.4470333" lon="11.5607767"><ele>585.6666666666666</ele><time>2026-04-22T11:06:48.138Z</time></trkpt><trkpt lat="43.4469317" lon="11.5606167"><ele>586.3333333333333</ele><time>2026-04-22T11:06:49.137Z</time></trkpt><trkpt lat="43.4468217" lon="11.5604617"><ele>587.0</ele><time>2026-04-22T11:06:50.137Z</time></trkpt><trkpt lat="43.44671" lon="11.5603167"><ele>588.2</ele><time>2026-04-22T11:06:51.138Z</time></trkpt><trkpt lat="43.4466133" lon="11.5601933"><ele>589.4000000000001</ele><time>2026-04-22T11:06:52.137Z</time></trkpt><trkpt lat="43.446535" lon="11.5600817"><ele>590.5999999999999</ele><time>2026-04-22T11:06:53.136Z</time></trkpt><trkpt lat="43.446475" lon="11.5599783"><ele>591.8</ele><time>2026-04-22T11:06:54.137Z</time></trkpt><trkpt lat="43.4464283" lon="11.5598733"><ele>593.0</ele><time>2026-04-22T11:06:55.138Z</time></trkpt><trkpt lat="43.4463883" lon="11.559755"><ele>592.9999999999999</ele><time>2026-04-22T11:06:56.135Z</time></trkpt><trkpt lat="43.4463567" lon="11.5596383"><ele>593.0</ele><time>2026-04-22T11:06:57.138Z</time></trkpt><trkpt lat="43.4463233" lon="11.5595433"><ele>593.0</ele><time>2026-04-22T11:06:58.137Z</time></trkpt><trkpt lat="43.4462783" lon="11.5594733"><ele>593.0</ele><time>2026-04-22T11:06:59.138Z</time></trkpt><trkpt lat="43.4462133" lon="11.5594417"><ele>593.0</ele><time>2026-04-22T11:07:00.139Z</time></trkpt><trkpt lat="43.4461533" lon="11.5594017"><ele>592.9999999999999</ele><time>2026-04-22T11:07:01.138Z</time></trkpt><trkpt lat="43.44609" lon="11.55934"><ele>593.0</ele><time>2026-04-22T11:07:02.137Z</time></trkpt><trkpt lat="43.44601" lon="11.55925"><ele>595.0</ele><time>2026-04-22T11:07:03.138Z</time></trkpt><trkpt lat="43.4459233" lon="11.5591567"><ele>597.0</ele><time>2026-04-22T11:07:04.138Z</time></trkpt><trkpt lat="43.4458433" lon="11.55908"><ele>599.0</ele><time>2026-04-22T11:07:05.138Z</time></trkpt><trkpt lat="43.44578" lon="11.5590183"><ele>601.0</ele><time>2026-04-22T11:07:06.138Z</time></trkpt><trkpt lat="43.4457333" lon="11.55896"><ele>603.0</ele><time>2026-04-22T11:07:07.139Z</time></trkpt><trkpt lat="43.445705" lon="11.5588117"><ele>603.0</ele><time>2026-04-22T11:07:09.14Z</time></trkpt><trkpt lat="43.4457133" lon="11.5587117"><ele>603.0</ele><time>2026-04-22T11:07:10.14Z</time></trkpt><trkpt lat="43.4457167" lon="11.55861"><ele>603.0</ele><time>2026-04-22T11:07:11.137Z</time></trkpt><trkpt lat="43.4456983" lon="11.5584983"><ele>603.0</ele><time>2026-04-22T11:07:12.137Z</time></trkpt><trkpt lat="43.4456633" lon="11.5583817"><ele>603.0</ele><time>2026-04-22T11:07:13.138Z</time></trkpt><trkpt lat="43.4456167" lon="11.5582583"><ele>603.0</ele><time>2026-04-22T11:07:14.139Z</time></trkpt><trkpt lat="43.445545" lon="11.5581383"><ele>603.5</ele><time>2026-04-22T11:07:15.138Z</time></trkpt><trkpt lat="43.4454433" lon="11.5580267"><ele>604.0</ele><time>2026-04-22T11:07:16.139Z</time></trkpt><trkpt lat="43.4453483" lon="11.5579083"><ele>604.5</ele><time>2026-04-22T11:07:17.137Z</time></trkpt><trkpt lat="43.4452533" lon="11.5577667"><ele>605.0</ele><time>2026-04-22T11:07:18.137Z</time></trkpt><trkpt lat="43.4451517" lon="11.5576217"><ele>605.0</ele><time>2026-04-22T11:07:19.137Z</time></trkpt><trkpt lat="43.4450617" lon="11.5574867"><ele>605.0</ele><time>2026-04-22T11:07:20.137Z</time></trkpt><trkpt lat="43.4449967" lon="11.5573833"><ele>605.0</ele><time>2026-04-22T11:07:21.138Z</time></trkpt><trkpt lat="43.444945" lon="11.5573017"><ele>605.0</ele><time>2026-04-22T11:07:22.139Z</time></trkpt><trkpt lat="43.44489" lon="11.5572317"><ele>605.0</ele><time>2026-04-22T11:07:23.136Z</time></trkpt><trkpt lat="43.4447967" lon="11.5571917"><ele>605.0</ele><time>2026-04-22T11:07:24.136Z</time></trkpt><trkpt lat="43.4446817" lon="11.5571483"><ele>605.0</ele><time>2026-04-22T11:07:25.137Z</time></trkpt><trkpt lat="43.4445483" lon="11.5571017"><ele>605.0</ele><time>2026-04-22T11:07:26.138Z</time></trkpt><trkpt lat="43.4444433" lon="11.55706"><ele>605.0</ele><time>2026-04-22T11:07:27.138Z</time></trkpt><trkpt lat="43.4443667" lon="11.5570233"><ele>605.0</ele><time>2026-04-22T11:07:28.137Z</time></trkpt><trkpt lat="43.444305" lon="11.5569917"><ele>606.6</ele><time>2026-04-22T11:07:29.136Z</time></trkpt><trkpt lat="43.4442933" lon="11.556895"><ele>608.2</ele><time>2026-04-22T11:07:32.136Z</time></trkpt><trkpt lat="43.44439" lon="11.5567783"><ele>609.8</ele><time>2026-04-22T11:07:34.138Z</time></trkpt><trkpt lat="43.44445" lon="11.5566933"><ele>611.4</ele><time>2026-04-22T11:07:35.137Z</time></trkpt><trkpt lat="43.444495" lon="11.5565833"><ele>613.0</ele><time>2026-04-22T11:07:36.137Z</time></trkpt><trkpt lat="43.44453" lon="11.5564383"><ele>613.0</ele><time>2026-04-22T11:07:37.139Z</time></trkpt><trkpt lat="43.4445483" lon="11.556285"><ele>613.0</ele><time>2026-04-22T11:07:38.137Z</time></trkpt><trkpt lat="43.4445617" lon="11.5561467"><ele>613.0</ele><time>2026-04-22T11:07:39.14Z</time></trkpt><trkpt lat="43.4445683" lon="11.55601"><ele>613.0</ele><time>2026-04-22T11:07:40.137Z</time></trkpt><trkpt lat="43.4445633" lon="11.5558867"><ele>613.0</ele><time>2026-04-22T11:07:41.136Z</time></trkpt><trkpt lat="43.4445467" lon="11.5557733"><ele>612.4</ele><time>2026-04-22T11:07:42.139Z</time></trkpt><trkpt lat="43.4445067" lon="11.555655"><ele>611.8</ele><time>2026-04-22T11:07:43.138Z</time></trkpt><trkpt lat="43.444445" lon="11.55553"><ele>611.2</ele><time>2026-04-22T11:07:44.137Z</time></trkpt><trkpt lat="43.4443817" lon="11.5554133"><ele>610.6</ele><time>2026-04-22T11:07:45.139Z</time></trkpt><trkpt lat="43.4443167" lon="11.55528"><ele>610.0</ele><time>2026-04-22T11:07:46.136Z</time></trkpt><trkpt lat="43.4442483" lon="11.5551233"><ele>607.5</ele><time>2026-04-22T11:07:47.138Z</time></trkpt><trkpt lat="43.444175" lon="11.55495"><ele>605.0</ele><time>2026-04-22T11:07:48.138Z</time></trkpt><trkpt lat="43.4440983" lon="11.554785"><ele>602.5</ele><time>2026-04-22T11:07:49.135Z</time></trkpt><trkpt lat="43.4440233" lon="11.5546267"><ele>600.0</ele><time>2026-04-22T11:07:50.136Z</time></trkpt><trkpt lat="43.4439567" lon="11.5544667"><ele>597.25</ele><time>2026-04-22T11:07:51.138Z</time></trkpt><trkpt lat="43.4438867" lon="11.5543067"><ele>594.5</ele><time>2026-04-22T11:07:52.135Z</time></trkpt><trkpt lat="43.4438283" lon="11.5541483"><ele>591.75</ele><time>2026-04-22T11:07:53.137Z</time></trkpt><trkpt lat="43.44378" lon="11.5539883"><ele>589.0</ele><time>2026-04-22T11:07:54.136Z</time></trkpt><trkpt lat="43.443735" lon="11.553845"><ele>593.6</ele><time>2026-04-22T11:07:55.137Z</time></trkpt><trkpt lat="43.443695" lon="11.5537133"><ele>598.2</ele><time>2026-04-22T11:07:56.137Z</time></trkpt><trkpt lat="43.44365" lon="11.5535967"><ele>602.8000000000001</ele><time>2026-04-22T11:07:57.131Z</time></trkpt><trkpt lat="43.44362" lon="11.5534783"><ele>607.4</ele><time>2026-04-22T11:07:58.137Z</time></trkpt><trkpt lat="43.4435983" lon="11.55336"><ele>612.0</ele><time>2026-04-22T11:07:59.136Z</time></trkpt><trkpt lat="43.4435683" lon="11.5532383"><ele>612.0</ele><time>2026-04-22T11:08:00.138Z</time></trkpt><trkpt lat="43.4435233" lon="11.5531133"><ele>612.0</ele><time>2026-04-22T11:08:01.139Z</time></trkpt><trkpt lat="43.44347" lon="11.5529817"><ele>612.0</ele><time>2026-04-22T11:08:02.139Z</time></trkpt><trkpt lat="43.443425" lon="11.5528483"><ele>612.0</ele><time>2026-04-22T11:08:03.14Z</time></trkpt><trkpt lat="43.443385" lon="11.5527117"><ele>612.0</ele><time>2026-04-22T11:08:04.138Z</time></trkpt><trkpt lat="43.4433483" lon="11.5525733"><ele>608.2</ele><time>2026-04-22T11:08:05.136Z</time></trkpt><trkpt lat="43.4433" lon="11.5524417"><ele>604.4000000000001</ele><time>2026-04-22T11:08:06.134Z</time></trkpt><trkpt lat="43.4432467" lon="11.5523033"><ele>600.5999999999999</ele><time>2026-04-22T11:08:07.136Z</time></trkpt><trkpt lat="43.4431967" lon="11.5521633"><ele>596.8</ele><time>2026-04-22T11:08:08.138Z</time></trkpt><trkpt lat="43.4431533" lon="11.5520267"><ele>593.0</ele><time>2026-04-22T11:08:09.138Z</time></trkpt><trkpt lat="43.44308" lon="11.5519033"><ele>593.5</ele><time>2026-04-22T11:08:10.136Z</time></trkpt><trkpt lat="43.4429933" lon="11.5517867"><ele>594.0</ele><time>2026-04-22T11:08:11.138Z</time></trkpt><trkpt lat="43.4429133" lon="11.5516717"><ele>594.5</ele><time>2026-04-22T11:08:12.137Z</time></trkpt><trkpt lat="43.4428467" lon="11.551545"><ele>595.0</ele><time>2026-04-22T11:08:13.136Z</time></trkpt><trkpt lat="43.4428017" lon="11.55142"><ele>595.0</ele><time>2026-04-22T11:08:14.137Z</time></trkpt><trkpt lat="43.44275" lon="11.5513133"><ele>595.0</ele><time>2026-04-22T11:08:15.138Z</time></trkpt><trkpt lat="43.4426733" lon="11.5512083"><ele>595.0</ele><time>2026-04-22T11:08:16.136Z</time></trkpt><trkpt lat="43.4425817" lon="11.5511167"><ele>595.0</ele><time>2026-04-22T11:08:17.138Z</time></trkpt><trkpt lat="43.4424917" lon="11.55102"><ele>595.0</ele><time>2026-04-22T11:08:18.136Z</time></trkpt><trkpt lat="43.44241" lon="11.5508983"><ele>594.25</ele><time>2026-04-22T11:08:19.136Z</time></trkpt><trkpt lat="43.442335" lon="11.5507333"><ele>593.5</ele><time>2026-04-22T11:08:20.137Z</time></trkpt><trkpt lat="43.44226" lon="11.5505383"><ele>592.75</ele><time>2026-04-22T11:08:21.138Z</time></trkpt><trkpt lat="43.44219" lon="11.5503683"><ele>592.0</ele><time>2026-04-22T11:08:22.138Z</time></trkpt><trkpt lat="43.44214" lon="11.5502383"><ele>592.0</ele><time>2026-04-22T11:08:23.136Z</time></trkpt><trkpt lat="43.4421083" lon="11.55013"><ele>592.0</ele><time>2026-04-22T11:08:24.136Z</time></trkpt><trkpt lat="43.442105" lon="11.550025"><ele>592.0</ele><time>2026-04-22T11:08:25.136Z</time></trkpt><trkpt lat="43.4421233" lon="11.5499233"><ele>592.0</ele><time>2026-04-22T11:08:26.137Z</time></trkpt><trkpt lat="43.4421783" lon="11.5498167"><ele>592.0</ele><time>2026-04-22T11:08:27.138Z</time></trkpt><trkpt lat="43.442235" lon="11.5496817"><ele>592.0</ele><time>2026-04-22T11:08:28.136Z</time></trkpt><trkpt lat="43.4422733" lon="11.5495283"><ele>592.5</ele><time>2026-04-22T11:08:29.136Z</time></trkpt><trkpt lat="43.4422917" lon="11.5493633"><ele>593.0</ele><time>2026-04-22T11:08:30.137Z</time></trkpt><trkpt lat="43.4422983" lon="11.5491817"><ele>593.5</ele><time>2026-04-22T11:08:31.137Z</time></trkpt><trkpt lat="43.4423017" lon="11.5489883"><ele>594.0</ele><time>2026-04-22T11:08:32.137Z</time></trkpt><trkpt lat="43.4423017" lon="11.5488033"><ele>593.5</ele><time>2026-04-22T11:08:33.139Z</time></trkpt><trkpt lat="43.4422983" lon="11.5486333"><ele>593.0</ele><time>2026-04-22T11:08:34.137Z</time></trkpt><trkpt lat="43.4423017" lon="11.54847"><ele>592.5</ele><time>2026-04-22T11:08:35.137Z</time></trkpt><trkpt lat="43.4423017" lon="11.5483083"><ele>592.0</ele><time>2026-04-22T11:08:36.136Z</time></trkpt><trkpt lat="43.4422983" lon="11.5481567"><ele>592.0</ele><time>2026-04-22T11:08:37.137Z</time></trkpt><trkpt lat="43.4422867" lon="11.54801"><ele>592.0</ele><time>2026-04-22T11:08:38.137Z</time></trkpt><trkpt lat="43.442265" lon="11.5478667"><ele>592.0</ele><time>2026-04-22T11:08:39.137Z</time></trkpt><trkpt lat="43.4422267" lon="11.5477233"><ele>592.0</ele><time>2026-04-22T11:08:40.137Z</time></trkpt><trkpt lat="43.4421817" lon="11.5475883"><ele>592.0</ele><time>2026-04-22T11:08:41.135Z</time></trkpt><trkpt lat="43.4421433" lon="11.54746"><ele>593.5</ele><time>2026-04-22T11:08:42.137Z</time></trkpt><trkpt lat="43.4421167" lon="11.5473367"><ele>595.0</ele><time>2026-04-22T11:08:43.139Z</time></trkpt><trkpt lat="43.4421067" lon="11.547205"><ele>596.5</ele><time>2026-04-22T11:08:44.138Z</time></trkpt><trkpt lat="43.44212" lon="11.5470767"><ele>598.0</ele><time>2026-04-22T11:08:45.138Z</time></trkpt><trkpt lat="43.442145" lon="11.54697"><ele>599.5</ele><time>2026-04-22T11:08:46.136Z</time></trkpt><trkpt lat="43.44217" lon="11.546875"><ele>601.0</ele><time>2026-04-22T11:08:47.136Z</time></trkpt><trkpt lat="43.4422067" lon="11.5467733"><ele>601.0</ele><time>2026-04-22T11:08:48.137Z</time></trkpt><trkpt lat="43.4422583" lon="11.54666"><ele>601.0</ele><time>2026-04-22T11:08:49.134Z</time></trkpt><trkpt lat="43.4423333" lon="11.5465517"><ele>601.0</ele><time>2026-04-22T11:08:50.137Z</time></trkpt><trkpt lat="43.4424183" lon="11.5464667"><ele>601.0</ele><time>2026-04-22T11:08:51.137Z</time></trkpt><trkpt lat="43.4425017" lon="11.54641"><ele>601.0</ele><time>2026-04-22T11:08:52.136Z</time></trkpt><trkpt lat="43.4425717" lon="11.54636"><ele>601.0</ele><time>2026-04-22T11:08:53.137Z</time></trkpt><trkpt lat="43.44264" lon="11.5463183"><ele>601.0</ele><time>2026-04-22T11:08:54.138Z</time></trkpt><trkpt lat="43.4427167" lon="11.5462683"><ele>601.0</ele><time>2026-04-22T11:08:55.138Z</time></trkpt><trkpt lat="43.4427933" lon="11.5462033"><ele>601.0</ele><time>2026-04-22T11:08:56.136Z</time></trkpt><trkpt lat="43.44285" lon="11.5461183"><ele>601.0</ele><time>2026-04-22T11:08:57.138Z</time></trkpt><trkpt lat="43.4429017" lon="11.5460133"><ele>601.0</ele><time>2026-04-22T11:08:58.138Z</time></trkpt><trkpt lat="43.442915" lon="11.5458917"><ele>601.0</ele><time>2026-04-22T11:08:59.137Z</time></trkpt><trkpt lat="43.4429067" lon="11.5457667"><ele>601.0</ele><time>2026-04-22T11:09:00.137Z</time></trkpt><trkpt lat="43.442885" lon="11.545635"><ele>601.0</ele><time>2026-04-22T11:09:01.139Z</time></trkpt><trkpt lat="43.4428417" lon="11.5455017"><ele>601.0</ele><time>2026-04-22T11:09:02.138Z</time></trkpt><trkpt lat="43.4428017" lon="11.54537"><ele>601.0</ele><time>2026-04-22T11:09:03.138Z</time></trkpt><trkpt lat="43.4427617" lon="11.5452417"><ele>601.0</ele><time>2026-04-22T11:09:04.138Z</time></trkpt><trkpt lat="43.4427217" lon="11.5451183"><ele>601.0</ele><time>2026-04-22T11:09:05.135Z</time></trkpt><trkpt lat="43.442675" lon="11.544995"><ele>601.0</ele><time>2026-04-22T11:09:06.137Z</time></trkpt><trkpt lat="43.442625" lon="11.5448683"><ele>601.0</ele><time>2026-04-22T11:09:07.138Z</time></trkpt><trkpt lat="43.442575" lon="11.5447467"><ele>601.0</ele><time>2026-04-22T11:09:08.138Z</time></trkpt><trkpt lat="43.442525" lon="11.544645"><ele>601.0</ele><time>2026-04-22T11:09:09.138Z</time></trkpt><trkpt lat="43.4424767" lon="11.544555"><ele>601.0</ele><time>2026-04-22T11:09:10.138Z</time></trkpt><trkpt lat="43.442425" lon="11.5444667"><ele>601.0</ele><time>2026-04-22T11:09:11.137Z</time></trkpt><trkpt lat="43.4423783" lon="11.544375"><ele>601.0</ele><time>2026-04-22T11:09:12.136Z</time></trkpt><trkpt lat="43.442345" lon="11.5442733"><ele>601.0</ele><time>2026-04-22T11:09:13.134Z</time></trkpt><trkpt lat="43.4423233" lon="11.5441517"><ele>601.0</ele><time>2026-04-22T11:09:14.136Z</time></trkpt><trkpt lat="43.4423033" lon="11.544025"><ele>598.8</ele><time>2026-04-22T11:09:15.138Z</time></trkpt><trkpt lat="43.44228" lon="11.5439017"><ele>596.6</ele><time>2026-04-22T11:09:16.136Z</time></trkpt><trkpt lat="43.4422583" lon="11.543785"><ele>594.4</ele><time>2026-04-22T11:09:17.136Z</time></trkpt><trkpt lat="43.4422367" lon="11.543665"><ele>592.2</ele><time>2026-04-22T11:09:18.136Z</time></trkpt><trkpt lat="43.442225" lon="11.5435333"><ele>590.0</ele><time>2026-04-22T11:09:19.137Z</time></trkpt><trkpt lat="43.4422317" lon="11.5433867"><ele>589.3333333333333</ele><time>2026-04-22T11:09:20.137Z</time></trkpt><trkpt lat="43.442245" lon="11.5432417"><ele>588.6666666666666</ele><time>2026-04-22T11:09:21.138Z</time></trkpt><trkpt lat="43.442265" lon="11.5431117"><ele>588.0</ele><time>2026-04-22T11:09:22.136Z</time></trkpt><trkpt lat="43.4422883" lon="11.5430083"><ele>587.3333333333334</ele><time>2026-04-22T11:09:23.136Z</time></trkpt><trkpt lat="43.442295" lon="11.5429017"><ele>586.6666666666667</ele><time>2026-04-22T11:09:24.135Z</time></trkpt><trkpt lat="43.4422817" lon="11.5427967"><ele>586.0</ele><time>2026-04-22T11:09:25.138Z</time></trkpt><trkpt lat="43.442255" lon="11.54269"><ele>585.6666666666667</ele><time>2026-04-22T11:09:26.137Z</time></trkpt><trkpt lat="43.4422033" lon="11.54259"><ele>585.3333333333334</ele><time>2026-04-22T11:09:27.138Z</time></trkpt><trkpt lat="43.442155" lon="11.5424817"><ele>585.0</ele><time>2026-04-22T11:09:28.137Z</time></trkpt><trkpt lat="43.4421067" lon="11.5423667"><ele>584.6666666666666</ele><time>2026-04-22T11:09:29.138Z</time></trkpt><trkpt lat="43.4420817" lon="11.5422683"><ele>584.3333333333333</ele><time>2026-04-22T11:09:30.137Z</time></trkpt><trkpt lat="43.4420583" lon="11.5421783"><ele>584.0</ele><time>2026-04-22T11:09:31.137Z</time></trkpt><trkpt lat="43.4420567" lon="11.542075"><ele>586.6</ele><time>2026-04-22T11:09:32.136Z</time></trkpt><trkpt lat="43.4420683" lon="11.5419667"><ele>589.2</ele><time>2026-04-22T11:09:33.139Z</time></trkpt><trkpt lat="43.4420767" lon="11.5418467"><ele>591.8000000000001</ele><time>2026-04-22T11:09:34.137Z</time></trkpt><trkpt lat="43.44208" lon="11.541705"><ele>594.4</ele><time>2026-04-22T11:09:35.138Z</time></trkpt><trkpt lat="43.4420883" lon="11.5415483"><ele>597.0</ele><time>2026-04-22T11:09:36.137Z</time></trkpt><trkpt lat="43.4420883" lon="11.54142"><ele>597.0</ele><time>2026-04-22T11:09:37.137Z</time></trkpt><trkpt lat="43.4420867" lon="11.5413117"><ele>597.0</ele><time>2026-04-22T11:09:38.137Z</time></trkpt><trkpt lat="43.44206" lon="11.5412217"><ele>597.0</ele><time>2026-04-22T11:09:39.138Z</time></trkpt><trkpt lat="43.442025" lon="11.541135"><ele>597.0</ele><time>2026-04-22T11:09:40.138Z</time></trkpt><trkpt lat="43.44199" lon="11.54103"><ele>597.0</ele><time>2026-04-22T11:09:41.137Z</time></trkpt><trkpt lat="43.4419683" lon="11.54092"><ele>597.0</ele><time>2026-04-22T11:09:42.137Z</time></trkpt><trkpt lat="43.4419533" lon="11.54079"><ele>600.2</ele><time>2026-04-22T11:09:43.14Z</time></trkpt><trkpt lat="43.4419483" lon="11.5406367"><ele>603.4000000000001</ele><time>2026-04-22T11:09:44.139Z</time></trkpt><trkpt lat="43.44195" lon="11.5404817"><ele>606.5999999999999</ele><time>2026-04-22T11:09:45.141Z</time></trkpt><trkpt lat="43.4419567" lon="11.54035"><ele>609.8</ele><time>2026-04-22T11:09:46.138Z</time></trkpt><trkpt lat="43.44196" lon="11.5402367"><ele>613.0</ele><time>2026-04-22T11:09:47.137Z</time></trkpt><trkpt lat="43.4419483" lon="11.540125"><ele>613.1999999999999</ele><time>2026-04-22T11:09:48.139Z</time></trkpt><trkpt lat="43.44192" lon="11.540005"><ele>613.4</ele><time>2026-04-22T11:09:49.136Z</time></trkpt><trkpt lat="43.4419017" lon="11.5398833"><ele>613.5999999999999</ele><time>2026-04-22T11:09:50.136Z</time></trkpt><trkpt lat="43.4418883" lon="11.5397617"><ele>613.8</ele><time>2026-04-22T11:09:51.136Z</time></trkpt><trkpt lat="43.44189" lon="11.539625"><ele>614.0</ele><time>2026-04-22T11:09:52.134Z</time></trkpt><trkpt lat="43.4419033" lon="11.5394817"><ele>613.4</ele><time>2026-04-22T11:09:53.136Z</time></trkpt><trkpt lat="43.4419167" lon="11.53934"><ele>612.8</ele><time>2026-04-22T11:09:54.133Z</time></trkpt><trkpt lat="43.44193" lon="11.53921"><ele>612.2</ele><time>2026-04-22T11:09:55.138Z</time></trkpt><trkpt lat="43.44194" lon="11.5391"><ele>611.6</ele><time>2026-04-22T11:09:56.137Z</time></trkpt><trkpt lat="43.441935" lon="11.5390067"><ele>611.0</ele><time>2026-04-22T11:09:57.139Z</time></trkpt><trkpt lat="43.4418867" lon="11.5388683"><ele>611.0</ele><time>2026-04-22T11:09:59.138Z</time></trkpt><trkpt lat="43.441825" lon="11.5387867"><ele>611.0</ele><time>2026-04-22T11:10:01.136Z</time></trkpt><trkpt lat="43.441815" lon="11.538695"><ele>611.0</ele><time>2026-04-22T11:10:03.138Z</time></trkpt><trkpt lat="43.4418583" lon="11.538575"><ele>611.0</ele><time>2026-04-22T11:10:06.133Z</time></trkpt><trkpt lat="43.4418617" lon="11.5384667"><ele>611.0</ele><time>2026-04-22T11:10:08.136Z</time></trkpt><trkpt lat="43.4418367" lon="11.5383517"><ele>611.0</ele><time>2026-04-22T11:10:10.136Z</time></trkpt><trkpt lat="43.4418783" lon="11.5382267"><ele>611.0</ele><time>2026-04-22T11:10:12.136Z</time></trkpt><trkpt lat="43.44193" lon="11.5380917"><ele>611.0</ele><time>2026-04-22T11:10:14.14Z</time></trkpt><trkpt lat="43.44196" lon="11.53792"><ele>611.0</ele><time>2026-04-22T11:10:16.139Z</time></trkpt><trkpt lat="43.44198" lon="11.53782"><ele>611.0</ele><time>2026-04-22T11:10:17.136Z</time></trkpt><trkpt lat="43.4419983" lon="11.53771"><ele>611.0</ele><time>2026-04-22T11:10:18.137Z</time></trkpt><trkpt lat="43.4420117" lon="11.5375983"><ele>611.5</ele><time>2026-04-22T11:10:19.137Z</time></trkpt><trkpt lat="43.4420217" lon="11.5374883"><ele>612.0</ele><time>2026-04-22T11:10:20.132Z</time></trkpt><trkpt lat="43.4420317" lon="11.537395"><ele>612.5</ele><time>2026-04-22T11:10:21.138Z</time></trkpt><trkpt lat="43.4420667" lon="11.537225"><ele>613.0</ele><time>2026-04-22T11:10:23.136Z</time></trkpt><trkpt lat="43.4420817" lon="11.5371283"><ele>613.5</ele><time>2026-04-22T11:10:24.137Z</time></trkpt><trkpt lat="43.4420933" lon="11.53702"><ele>614.0</ele><time>2026-04-22T11:10:25.137Z</time></trkpt><trkpt lat="43.442095" lon="11.53691"><ele>614.6</ele><time>2026-04-22T11:10:26.138Z</time></trkpt><trkpt lat="43.4420917" lon="11.5367933"><ele>615.2</ele><time>2026-04-22T11:10:27.137Z</time></trkpt><trkpt lat="43.44208" lon="11.5366617"><ele>615.8000000000001</ele><time>2026-04-22T11:10:28.133Z</time></trkpt><trkpt lat="43.4420683" lon="11.5365217"><ele>616.4</ele><time>2026-04-22T11:10:29.136Z</time></trkpt><trkpt lat="43.4420633" lon="11.5363817"><ele>617.0</ele><time>2026-04-22T11:10:30.137Z</time></trkpt><trkpt lat="43.442065" lon="11.5362517"><ele>617.8333333333333</ele><time>2026-04-22T11:10:31.137Z</time></trkpt><trkpt lat="43.4420667" lon="11.5361367"><ele>618.6666666666666</ele><time>2026-04-22T11:10:32.136Z</time></trkpt><trkpt lat="43.44207" lon="11.5360283"><ele>619.5</ele><time>2026-04-22T11:10:33.143Z</time></trkpt><trkpt lat="43.4420683" lon="11.5359317"><ele>620.3333333333334</ele><time>2026-04-22T11:10:34.138Z</time></trkpt><trkpt lat="43.4421067" lon="11.535805"><ele>621.1666666666667</ele><time>2026-04-22T11:10:36.138Z</time></trkpt><trkpt lat="43.442195" lon="11.5357533"><ele>622.0</ele><time>2026-04-22T11:10:38.138Z</time></trkpt><trkpt lat="43.44225" lon="11.5356683"><ele>623.5</ele><time>2026-04-22T11:10:40.138Z</time></trkpt><trkpt lat="43.442265" lon="11.5355033"><ele>625.0</ele><time>2026-04-22T11:10:42.137Z</time></trkpt><trkpt lat="43.442265" lon="11.5353917"><ele>626.5</ele><time>2026-04-22T11:10:43.138Z</time></trkpt><trkpt lat="43.4422567" lon="11.53528"><ele>628.0</ele><time>2026-04-22T11:10:44.138Z</time></trkpt><trkpt lat="43.44225" lon="11.5351733"><ele>629.5</ele><time>2026-04-22T11:10:45.138Z</time></trkpt><trkpt lat="43.4422383" lon="11.5350683"><ele>631.0</ele><time>2026-04-22T11:10:46.137Z</time></trkpt><trkpt lat="43.442225" lon="11.5349767"><ele>631.6</ele><time>2026-04-22T11:10:47.138Z</time></trkpt><trkpt lat="43.442205" lon="11.5348883"><ele>632.2</ele><time>2026-04-22T11:10:48.139Z</time></trkpt><trkpt lat="43.4421333" lon="11.5347483"><ele>632.8</ele><time>2026-04-22T11:10:50.137Z</time></trkpt><trkpt lat="43.4420233" lon="11.534685"><ele>633.4</ele><time>2026-04-22T11:10:52.138Z</time></trkpt><trkpt lat="43.4419517" lon="11.5346883"><ele>634.0</ele><time>2026-04-22T11:10:53.141Z</time></trkpt><trkpt lat="43.44188" lon="11.53467"><ele>634.0</ele><time>2026-04-22T11:10:54.137Z</time></trkpt><trkpt lat="43.4418183" lon="11.534625"><ele>634.0</ele><time>2026-04-22T11:10:55.138Z</time></trkpt><trkpt lat="43.4417717" lon="11.5345333"><ele>634.0</ele><time>2026-04-22T11:10:56.136Z</time></trkpt><trkpt lat="43.4417017" lon="11.5344183"><ele>634.0</ele><time>2026-04-22T11:10:57.139Z</time></trkpt><trkpt lat="43.44163" lon="11.5343067"><ele>634.0</ele><time>2026-04-22T11:10:58.138Z</time></trkpt><trkpt lat="43.4415617" lon="11.5342117"><ele>636.0</ele><time>2026-04-22T11:10:59.137Z</time></trkpt><trkpt lat="43.4415133" lon="11.53413"><ele>638.0</ele><time>2026-04-22T11:11:00.137Z</time></trkpt><trkpt lat="43.4414783" lon="11.5340517"><ele>640.0</ele><time>2026-04-22T11:11:01.139Z</time></trkpt><trkpt lat="43.4414717" lon="11.533895"><ele>642.0</ele><time>2026-04-22T11:11:03.138Z</time></trkpt><trkpt lat="43.441475" lon="11.53373"><ele>644.0</ele><time>2026-04-22T11:11:05.137Z</time></trkpt><trkpt lat="43.4414683" lon="11.53356"><ele>644.3333333333333</ele><time>2026-04-22T11:11:07.138Z</time></trkpt><trkpt lat="43.441465" lon="11.5334583"><ele>644.6666666666666</ele><time>2026-04-22T11:11:08.137Z</time></trkpt><trkpt lat="43.4414467" lon="11.5333483"><ele>645.0</ele><time>2026-04-22T11:11:09.137Z</time></trkpt><trkpt lat="43.4414133" lon="11.5332317"><ele>645.3333333333334</ele><time>2026-04-22T11:11:10.137Z</time></trkpt><trkpt lat="43.4413817" lon="11.53311"><ele>645.6666666666667</ele><time>2026-04-22T11:11:11.137Z</time></trkpt><trkpt lat="43.441355" lon="11.532995"><ele>646.0</ele><time>2026-04-22T11:11:12.137Z</time></trkpt><trkpt lat="43.441335" lon="11.53289"><ele>646.6666666666667</ele><time>2026-04-22T11:11:13.138Z</time></trkpt><trkpt lat="43.44132" lon="11.5328"><ele>647.3333333333334</ele><time>2026-04-22T11:11:14.138Z</time></trkpt><trkpt lat="43.4413117" lon="11.5326383"><ele>648.0</ele><time>2026-04-22T11:11:16.136Z</time></trkpt><trkpt lat="43.441315" lon="11.5325467"><ele>648.6666666666666</ele><time>2026-04-22T11:11:17.136Z</time></trkpt><trkpt lat="43.4413233" lon="11.5324283"><ele>649.3333333333333</ele><time>2026-04-22T11:11:18.137Z</time></trkpt><trkpt lat="43.4413417" lon="11.5322933"><ele>650.0</ele><time>2026-04-22T11:11:19.137Z</time></trkpt><trkpt lat="43.4413683" lon="11.5321683"><ele>651.0</ele><time>2026-04-22T11:11:20.138Z</time></trkpt><trkpt lat="43.4413917" lon="11.5320517"><ele>652.0</ele><time>2026-04-22T11:11:21.137Z</time></trkpt><trkpt lat="43.4414067" lon="11.5319317"><ele>653.0</ele><time>2026-04-22T11:11:22.137Z</time></trkpt><trkpt lat="43.4414017" lon="11.5318267"><ele>654.0</ele><time>2026-04-22T11:11:23.138Z</time></trkpt><trkpt lat="43.44139" lon="11.531725"><ele>655.0</ele><time>2026-04-22T11:11:24.138Z</time></trkpt><trkpt lat="43.44136" lon="11.53162"><ele>656.0</ele><time>2026-04-22T11:11:25.138Z</time></trkpt><trkpt lat="43.4413283" lon="11.5315183"><ele>656.0</ele><time>2026-04-22T11:11:26.137Z</time></trkpt><trkpt lat="43.4413067" lon="11.531415"><ele>656.0</ele><time>2026-04-22T11:11:27.139Z</time></trkpt><trkpt lat="43.441285" lon="11.53131"><ele>656.0</ele><time>2026-04-22T11:11:28.137Z</time></trkpt><trkpt lat="43.4412667" lon="11.5312017"><ele>656.0</ele><time>2026-04-22T11:11:29.137Z</time></trkpt><trkpt lat="43.4412517" lon="11.5310833"><ele>656.0</ele><time>2026-04-22T11:11:30.138Z</time></trkpt><trkpt lat="43.4412467" lon="11.530965"><ele>656.0</ele><time>2026-04-22T11:11:31.138Z</time></trkpt><trkpt lat="43.4412417" lon="11.5308467"><ele>653.6666666666666</ele><time>2026-04-22T11:11:32.137Z</time></trkpt><trkpt lat="43.4412467" lon="11.5307433"><ele>651.3333333333333</ele><time>2026-04-22T11:11:33.137Z</time></trkpt><trkpt lat="43.4412683" lon="11.5305983"><ele>649.0</ele><time>2026-04-22T11:11:35.136Z</time></trkpt><trkpt lat="43.4412883" lon="11.5304967"><ele>646.6666666666666</ele><time>2026-04-22T11:11:37.138Z</time></trkpt><trkpt lat="43.44132" lon="11.530375"><ele>644.3333333333334</ele><time>2026-04-22T11:11:39.138Z</time></trkpt><trkpt lat="43.4413333" lon="11.5302717"><ele>642.0</ele><time>2026-04-22T11:11:41.136Z</time></trkpt><trkpt lat="43.44128" lon="11.5301917"><ele>640.1666666666666</ele><time>2026-04-22T11:11:43.136Z</time></trkpt><trkpt lat="43.4412167" lon="11.5301633"><ele>638.3333333333334</ele><time>2026-04-22T11:11:44.138Z</time></trkpt><trkpt lat="43.4411467" lon="11.5301483"><ele>636.5</ele><time>2026-04-22T11:11:45.141Z</time></trkpt><trkpt lat="43.4410817" lon="11.5301417"><ele>634.6666666666667</ele><time>2026-04-22T11:11:46.138Z</time></trkpt><trkpt lat="43.4409567" lon="11.5301317"><ele>632.8333333333334</ele><time>2026-04-22T11:11:48.139Z</time></trkpt><trkpt lat="43.440865" lon="11.530085"><ele>631.0</ele><time>2026-04-22T11:11:50.136Z</time></trkpt><trkpt lat="43.440835" lon="11.5299917"><ele>631.0</ele><time>2026-04-22T11:11:52.137Z</time></trkpt><trkpt lat="43.4409167" lon="11.5299133"><ele>631.0</ele><time>2026-04-22T11:11:54.139Z</time></trkpt><trkpt lat="43.4409733" lon="11.5298367"><ele>631.0</ele><time>2026-04-22T11:11:56.138Z</time></trkpt><trkpt lat="43.44095" lon="11.5297317"><ele>631.0</ele><time>2026-04-22T11:11:58.138Z</time></trkpt><trkpt lat="43.4408867" lon="11.5296583"><ele>631.0</ele><time>2026-04-22T11:12:00.136Z</time></trkpt><trkpt lat="43.440845" lon="11.5295083"><ele>628.25</ele><time>2026-04-22T11:12:02.137Z</time></trkpt><trkpt lat="43.4408383" lon="11.529365"><ele>625.5</ele><time>2026-04-22T11:12:03.134Z</time></trkpt><trkpt lat="43.4408283" lon="11.5291867"><ele>622.75</ele><time>2026-04-22T11:12:04.137Z</time></trkpt><trkpt lat="43.440825" lon="11.52902"><ele>620.0</ele><time>2026-04-22T11:12:05.139Z</time></trkpt><trkpt lat="43.4408267" lon="11.5288683"><ele>620.0</ele><time>2026-04-22T11:12:06.137Z</time></trkpt><trkpt lat="43.440835" lon="11.5287283"><ele>620.0</ele><time>2026-04-22T11:12:07.137Z</time></trkpt><trkpt lat="43.4408533" lon="11.5285933"><ele>620.0</ele><time>2026-04-22T11:12:08.136Z</time></trkpt><trkpt lat="43.44089" lon="11.528455"><ele>620.0</ele><time>2026-04-22T11:12:09.138Z</time></trkpt><trkpt lat="43.4409483" lon="11.5283033"><ele>620.0</ele><time>2026-04-22T11:12:10.137Z</time></trkpt><trkpt lat="43.4410133" lon="11.5281517"><ele>620.5</ele><time>2026-04-22T11:12:11.137Z</time></trkpt><trkpt lat="43.44108" lon="11.5280067"><ele>621.0</ele><time>2026-04-22T11:12:12.136Z</time></trkpt><trkpt lat="43.4411567" lon="11.5278683"><ele>621.5</ele><time>2026-04-22T11:12:13.138Z</time></trkpt><trkpt lat="43.4412333" lon="11.5277483"><ele>622.0</ele><time>2026-04-22T11:12:14.136Z</time></trkpt><trkpt lat="43.4413167" lon="11.5276517"><ele>619.5</ele><time>2026-04-22T11:12:15.136Z</time></trkpt><trkpt lat="43.4414083" lon="11.52757"><ele>617.0</ele><time>2026-04-22T11:12:16.136Z</time></trkpt><trkpt lat="43.4415133" lon="11.5274983"><ele>614.5</ele><time>2026-04-22T11:12:17.136Z</time></trkpt><trkpt lat="43.4416317" lon="11.5274317"><ele>612.0</ele><time>2026-04-22T11:12:18.138Z</time></trkpt><trkpt lat="43.4417583" lon="11.5273533"><ele>612.0</ele><time>2026-04-22T11:12:19.138Z</time></trkpt><trkpt lat="43.4418833" lon="11.5272817"><ele>612.0</ele><time>2026-04-22T11:12:20.137Z</time></trkpt><trkpt lat="43.4420017" lon="11.5272217"><ele>612.0</ele><time>2026-04-22T11:12:21.138Z</time></trkpt><trkpt lat="43.442125" lon="11.52719"><ele>612.0</ele><time>2026-04-22T11:12:22.138Z</time></trkpt><trkpt lat="43.4422583" lon="11.52719"><ele>611.25</ele><time>2026-04-22T11:12:23.137Z</time></trkpt><trkpt lat="43.442395" lon="11.5272067"><ele>610.5</ele><time>2026-04-22T11:12:24.138Z</time></trkpt><trkpt lat="43.4425267" lon="11.5272217"><ele>609.75</ele><time>2026-04-22T11:12:25.14Z</time></trkpt><trkpt lat="43.4426533" lon="11.5272267"><ele>609.0</ele><time>2026-04-22T11:12:26.139Z</time></trkpt><trkpt lat="43.4427683" lon="11.5272167"><ele>609.0</ele><time>2026-04-22T11:12:27.138Z</time></trkpt><trkpt lat="43.4428633" lon="11.527185"><ele>609.0</ele><time>2026-04-22T11:12:28.138Z</time></trkpt><trkpt lat="43.442945" lon="11.5271233"><ele>609.0</ele><time>2026-04-22T11:12:29.138Z</time></trkpt><trkpt lat="43.4430083" lon="11.52702"><ele>609.0</ele><time>2026-04-22T11:12:30.136Z</time></trkpt><trkpt lat="43.44307" lon="11.5268917"><ele>609.0</ele><time>2026-04-22T11:12:31.138Z</time></trkpt><trkpt lat="43.443125" lon="11.5267583"><ele>610.75</ele><time>2026-04-22T11:12:32.139Z</time></trkpt><trkpt lat="43.4431667" lon="11.52662"><ele>612.5</ele><time>2026-04-22T11:12:33.138Z</time></trkpt><trkpt lat="43.4431817" lon="11.52647"><ele>614.25</ele><time>2026-04-22T11:12:34.139Z</time></trkpt><trkpt lat="43.44317" lon="11.526315"><ele>616.0</ele><time>2026-04-22T11:12:35.137Z</time></trkpt><trkpt lat="43.443135" lon="11.52615"><ele>616.0</ele><time>2026-04-22T11:12:36.138Z</time></trkpt><trkpt lat="43.44309" lon="11.5259683"><ele>616.0</ele><time>2026-04-22T11:12:37.138Z</time></trkpt><trkpt lat="43.4430383" lon="11.525775"><ele>616.0</ele><time>2026-04-22T11:12:38.139Z</time></trkpt><trkpt lat="43.442985" lon="11.5255733"><ele>616.0</ele><time>2026-04-22T11:12:39.141Z</time></trkpt><trkpt lat="43.4429217" lon="11.525385"><ele>617.0</ele><time>2026-04-22T11:12:40.139Z</time></trkpt><trkpt lat="43.442855" lon="11.5252"><ele>618.0</ele><time>2026-04-22T11:12:41.138Z</time></trkpt><trkpt lat="43.4427933" lon="11.5250283"><ele>619.0</ele><time>2026-04-22T11:12:42.136Z</time></trkpt><trkpt lat="43.4427383" lon="11.5248833"><ele>620.0</ele><time>2026-04-22T11:12:43.136Z</time></trkpt><trkpt lat="43.4426767" lon="11.52477"><ele>620.0</ele><time>2026-04-22T11:12:44.136Z</time></trkpt><trkpt lat="43.4426017" lon="11.52466"><ele>620.0</ele><time>2026-04-22T11:12:45.14Z</time></trkpt><trkpt lat="43.4425183" lon="11.5245667"><ele>620.0</ele><time>2026-04-22T11:12:46.138Z</time></trkpt><trkpt lat="43.442435" lon="11.5244783"><ele>620.0</ele><time>2026-04-22T11:12:47.138Z</time></trkpt><trkpt lat="43.4423617" lon="11.5243883"><ele>620.0</ele><time>2026-04-22T11:12:48.136Z</time></trkpt><trkpt lat="43.44231" lon="11.5242917"><ele>622.6666666666666</ele><time>2026-04-22T11:12:49.136Z</time></trkpt><trkpt lat="43.442275" lon="11.5241883"><ele>625.3333333333333</ele><time>2026-04-22T11:12:50.138Z</time></trkpt><trkpt lat="43.44226" lon="11.524065"><ele>628.0</ele><time>2026-04-22T11:12:51.137Z</time></trkpt><trkpt lat="43.4422667" lon="11.523955"><ele>630.6666666666666</ele><time>2026-04-22T11:12:52.138Z</time></trkpt><trkpt lat="43.44226" lon="11.5238633"><ele>633.3333333333334</ele><time>2026-04-22T11:12:53.136Z</time></trkpt><trkpt lat="43.4421983" lon="11.5237217"><ele>636.0</ele><time>2026-04-22T11:12:55.137Z</time></trkpt><trkpt lat="43.44212" lon="11.523685"><ele>637.25</ele><time>2026-04-22T11:12:56.132Z</time></trkpt><trkpt lat="43.4420317" lon="11.52364"><ele>638.5</ele><time>2026-04-22T11:12:57.14Z</time></trkpt><trkpt lat="43.44192" lon="11.5235717"><ele>639.75</ele><time>2026-04-22T11:12:58.137Z</time></trkpt><trkpt lat="43.4418" lon="11.5234833"><ele>641.0</ele><time>2026-04-22T11:12:59.136Z</time></trkpt><trkpt lat="43.4416933" lon="11.5234"><ele>641.0</ele><time>2026-04-22T11:13:00.135Z</time></trkpt><trkpt lat="43.441595" lon="11.52333"><ele>641.0</ele><time>2026-04-22T11:13:01.136Z</time></trkpt><trkpt lat="43.4415133" lon="11.523275"><ele>641.0</ele><time>2026-04-22T11:13:02.136Z</time></trkpt><trkpt lat="43.44145" lon="11.5232267"><ele>641.0</ele><time>2026-04-22T11:13:03.138Z</time></trkpt><trkpt lat="43.4413933" lon="11.523105"><ele>641.0</ele><time>2026-04-22T11:13:05.136Z</time></trkpt><trkpt lat="43.4414367" lon="11.52299"><ele>642.75</ele><time>2026-04-22T11:13:06.134Z</time></trkpt><trkpt lat="43.441475" lon="11.522875"><ele>644.5</ele><time>2026-04-22T11:13:07.137Z</time></trkpt><trkpt lat="43.4415267" lon="11.5226967"><ele>646.25</ele><time>2026-04-22T11:13:08.138Z</time></trkpt><trkpt lat="43.4415683" lon="11.522525"><ele>648.0</ele><time>2026-04-22T11:13:09.138Z</time></trkpt><trkpt lat="43.4415983" lon="11.5223883"><ele>648.0</ele><time>2026-04-22T11:13:10.137Z</time></trkpt><trkpt lat="43.4416267" lon="11.5222867"><ele>648.0</ele><time>2026-04-22T11:13:11.137Z</time></trkpt><trkpt lat="43.441675" lon="11.5222067"><ele>648.0</ele><time>2026-04-22T11:13:12.138Z</time></trkpt><trkpt lat="43.44174" lon="11.5221333"><ele>648.0</ele><time>2026-04-22T11:13:13.139Z</time></trkpt><trkpt lat="43.4418317" lon="11.522045"><ele>648.0</ele><time>2026-04-22T11:13:14.139Z</time></trkpt><trkpt lat="43.4419567" lon="11.5219367"><ele>649.3333333333334</ele><time>2026-04-22T11:13:15.139Z</time></trkpt><trkpt lat="43.44208" lon="11.5218217"><ele>650.6666666666667</ele><time>2026-04-22T11:13:16.14Z</time></trkpt><trkpt lat="43.4422083" lon="11.5217033"><ele>652.0</ele><time>2026-04-22T11:13:17.136Z</time></trkpt><trkpt lat="43.44233" lon="11.5215833"><ele>652.0</ele><time>2026-04-22T11:13:18.137Z</time></trkpt><trkpt lat="43.442435" lon="11.52147"><ele>652.0</ele><time>2026-04-22T11:13:19.137Z</time></trkpt><trkpt lat="43.442515" lon="11.5213633"><ele>652.0</ele><time>2026-04-22T11:13:20.138Z</time></trkpt><trkpt lat="43.4425867" lon="11.52124"><ele>652.0</ele><time>2026-04-22T11:13:21.137Z</time></trkpt><trkpt lat="43.4426583" lon="11.5210867"><ele>651.0</ele><time>2026-04-22T11:13:22.137Z</time></trkpt><trkpt lat="43.4427267" lon="11.5208883"><ele>650.0</ele><time>2026-04-22T11:13:23.135Z</time></trkpt><trkpt lat="43.4428017" lon="11.5206733"><ele>649.0</ele><time>2026-04-22T11:13:24.138Z</time></trkpt><trkpt lat="43.4428833" lon="11.5204567"><ele>648.5</ele><time>2026-04-22T11:13:25.136Z</time></trkpt><trkpt lat="43.44296" lon="11.5202633"><ele>648.0</ele><time>2026-04-22T11:13:26.136Z</time></trkpt><trkpt lat="43.4430267" lon="11.52011"><ele>647.5</ele><time>2026-04-22T11:13:27.138Z</time></trkpt><trkpt lat="43.4430717" lon="11.5199983"><ele>647.0</ele><time>2026-04-22T11:13:28.137Z</time></trkpt><trkpt lat="43.44311" lon="11.5199167"><ele>647.0</ele><time>2026-04-22T11:13:29.138Z</time></trkpt><trkpt lat="43.443135" lon="11.5198317"><ele>647.0</ele><time>2026-04-22T11:13:31.138Z</time></trkpt><trkpt lat="43.4430683" lon="11.5197633"><ele>647.0</ele><time>2026-04-22T11:13:33.138Z</time></trkpt><trkpt lat="43.4429567" lon="11.5196717"><ele>647.0</ele><time>2026-04-22T11:13:35.136Z</time></trkpt><trkpt lat="43.4429" lon="11.5196033"><ele>647.0</ele><time>2026-04-22T11:13:36.137Z</time></trkpt><trkpt lat="43.44285" lon="11.5195267"><ele>647.0</ele><time>2026-04-22T11:13:37.139Z</time></trkpt><trkpt lat="43.4428083" lon="11.5194383"><ele>648.0</ele><time>2026-04-22T11:13:38.138Z</time></trkpt><trkpt lat="43.442785" lon="11.5193383"><ele>649.0</ele><time>2026-04-22T11:13:39.138Z</time></trkpt><trkpt lat="43.4427767" lon="11.51922"><ele>650.0</ele><time>2026-04-22T11:13:40.136Z</time></trkpt><trkpt lat="43.4427783" lon="11.5191067"><ele>651.0</ele><time>2026-04-22T11:13:41.137Z</time></trkpt><trkpt lat="43.4427867" lon="11.5190017"><ele>652.0</ele><time>2026-04-22T11:13:42.139Z</time></trkpt><trkpt lat="43.4427917" lon="11.518895"><ele>653.0</ele><time>2026-04-22T11:13:43.139Z</time></trkpt><trkpt lat="43.4427917" lon="11.5187917"><ele>653.6666666666666</ele><time>2026-04-22T11:13:44.137Z</time></trkpt><trkpt lat="43.4428017" lon="11.518695"><ele>654.3333333333333</ele><time>2026-04-22T11:13:45.138Z</time></trkpt><trkpt lat="43.4428167" lon="11.518595"><ele>655.0</ele><time>2026-04-22T11:13:46.137Z</time></trkpt><trkpt lat="43.4428383" lon="11.5184917"><ele>655.6666666666666</ele><time>2026-04-22T11:13:47.137Z</time></trkpt><trkpt lat="43.4428583" lon="11.518385"><ele>656.3333333333334</ele><time>2026-04-22T11:13:48.137Z</time></trkpt><trkpt lat="43.442875" lon="11.518275"><ele>657.0</ele><time>2026-04-22T11:13:49.136Z</time></trkpt><trkpt lat="43.442895" lon="11.51817"><ele>657.0</ele><time>2026-04-22T11:13:50.138Z</time></trkpt><trkpt lat="43.4429167" lon="11.5180717"><ele>657.0</ele><time>2026-04-22T11:13:51.138Z</time></trkpt><trkpt lat="43.4429483" lon="11.5179733"><ele>657.0</ele><time>2026-04-22T11:13:52.135Z</time></trkpt><trkpt lat="43.4429833" lon="11.517865"><ele>657.0</ele><time>2026-04-22T11:13:53.138Z</time></trkpt><trkpt lat="43.44301" lon="11.51776"><ele>657.0</ele><time>2026-04-22T11:13:54.138Z</time></trkpt><trkpt lat="43.44303" lon="11.5176667"><ele>657.0</ele><time>2026-04-22T11:13:55.137Z</time></trkpt><trkpt lat="43.4430383" lon="11.5175667"><ele>660.5</ele><time>2026-04-22T11:13:56.136Z</time></trkpt><trkpt lat="43.443045" lon="11.517465"><ele>664.0</ele><time>2026-04-22T11:13:57.138Z</time></trkpt><trkpt lat="43.4430483" lon="11.5173633"><ele>667.5</ele><time>2026-04-22T11:13:58.138Z</time></trkpt><trkpt lat="43.443045" lon="11.51726"><ele>671.0</ele><time>2026-04-22T11:13:59.136Z</time></trkpt><trkpt lat="43.4430267" lon="11.5171567"><ele>674.5</ele><time>2026-04-22T11:14:00.138Z</time></trkpt><trkpt lat="43.443" lon="11.5170517"><ele>678.0</ele><time>2026-04-22T11:14:01.137Z</time></trkpt><trkpt lat="43.4429783" lon="11.516945"><ele>676.3333333333334</ele><time>2026-04-22T11:14:02.137Z</time></trkpt><trkpt lat="43.44295" lon="11.5168367"><ele>674.6666666666666</ele><time>2026-04-22T11:14:03.139Z</time></trkpt><trkpt lat="43.4429133" lon="11.5167217"><ele>673.0</ele><time>2026-04-22T11:14:04.137Z</time></trkpt><trkpt lat="43.4428783" lon="11.5166133"><ele>671.3333333333333</ele><time>2026-04-22T11:14:05.137Z</time></trkpt><trkpt lat="43.4428517" lon="11.5165133"><ele>669.6666666666666</ele><time>2026-04-22T11:14:06.136Z</time></trkpt><trkpt lat="43.442835" lon="11.5164233"><ele>668.0</ele><time>2026-04-22T11:14:07.137Z</time></trkpt><trkpt lat="43.442815" lon="11.5162517"><ele>669.3333333333333</ele><time>2026-04-22T11:14:09.139Z</time></trkpt><trkpt lat="43.4428083" lon="11.5161383"><ele>670.6666666666666</ele><time>2026-04-22T11:14:10.138Z</time></trkpt><trkpt lat="43.4428133" lon="11.5160167"><ele>672.0</ele><time>2026-04-22T11:14:11.136Z</time></trkpt><trkpt lat="43.442825" lon="11.5159"><ele>673.3333333333334</ele><time>2026-04-22T11:14:12.137Z</time></trkpt><trkpt lat="43.4428433" lon="11.5157883"><ele>674.6666666666667</ele><time>2026-04-22T11:14:13.138Z</time></trkpt><trkpt lat="43.44286" lon="11.51568"><ele>676.0</ele><time>2026-04-22T11:14:14.137Z</time></trkpt><trkpt lat="43.4428767" lon="11.515585"><ele>676.0</ele><time>2026-04-22T11:14:15.132Z</time></trkpt><trkpt lat="43.44294" lon="11.5154767"><ele>676.0</ele><time>2026-04-22T11:14:17.136Z</time></trkpt><trkpt lat="43.4430367" lon="11.5154533"><ele>676.0</ele><time>2026-04-22T11:14:19.138Z</time></trkpt><trkpt lat="43.4431467" lon="11.51545"><ele>676.0</ele><time>2026-04-22T11:14:21.138Z</time></trkpt><trkpt lat="43.4432267" lon="11.515455"><ele>676.0</ele><time>2026-04-22T11:14:22.136Z</time></trkpt><trkpt lat="43.4433083" lon="11.5154567"><ele>678.1666666666667</ele><time>2026-04-22T11:14:23.136Z</time></trkpt><trkpt lat="43.44339" lon="11.51545"><ele>680.3333333333334</ele><time>2026-04-22T11:14:24.137Z</time></trkpt><trkpt lat="43.4434617" lon="11.5154383"><ele>682.5</ele><time>2026-04-22T11:14:25.137Z</time></trkpt><trkpt lat="43.4435383" lon="11.51542"><ele>684.6666666666666</ele><time>2026-04-22T11:14:26.136Z</time></trkpt><trkpt lat="43.44362" lon="11.5153883"><ele>686.8333333333333</ele><time>2026-04-22T11:14:27.138Z</time></trkpt><trkpt lat="43.443715" lon="11.5153433"><ele>689.0</ele><time>2026-04-22T11:14:28.137Z</time></trkpt><trkpt lat="43.4438017" lon="11.5152967"><ele>692.3333333333333</ele><time>2026-04-22T11:14:29.136Z</time></trkpt><trkpt lat="43.4438767" lon="11.515245"><ele>695.6666666666666</ele><time>2026-04-22T11:14:30.137Z</time></trkpt><trkpt lat="43.4439417" lon="11.5152067"><ele>699.0</ele><time>2026-04-22T11:14:31.136Z</time></trkpt><trkpt lat="43.444035" lon="11.5151267"><ele>702.3333333333334</ele><time>2026-04-22T11:14:33.143Z</time></trkpt><trkpt lat="43.44408" lon="11.5150467"><ele>705.6666666666667</ele><time>2026-04-22T11:14:34.136Z</time></trkpt><trkpt lat="43.44411" lon="11.514935"><ele>709.0</ele><time>2026-04-22T11:14:35.137Z</time></trkpt><trkpt lat="43.4441267" lon="11.5148167"><ele>709.0</ele><time>2026-04-22T11:14:36.136Z</time></trkpt><trkpt lat="43.4441283" lon="11.51469"><ele>709.0</ele><time>2026-04-22T11:14:37.138Z</time></trkpt><trkpt lat="43.4441283" lon="11.5145767"><ele>709.0</ele><time>2026-04-22T11:14:38.136Z</time></trkpt><trkpt lat="43.44413" lon="11.5144667"><ele>709.0</ele><time>2026-04-22T11:14:39.139Z</time></trkpt><trkpt lat="43.4441383" lon="11.5143583"><ele>709.0</ele><time>2026-04-22T11:14:40.137Z</time></trkpt><trkpt lat="43.4441433" lon="11.5142483"><ele>709.0</ele><time>2026-04-22T11:14:41.137Z</time></trkpt><trkpt lat="43.444145" lon="11.5141417"><ele>709.2</ele><time>2026-04-22T11:14:42.137Z</time></trkpt><trkpt lat="43.4441483" lon="11.5140183"><ele>709.4000000000001</ele><time>2026-04-22T11:14:43.136Z</time></trkpt><trkpt lat="43.4441367" lon="11.5138617"><ele>709.6</ele><time>2026-04-22T11:14:44.136Z</time></trkpt><trkpt lat="43.4441267" lon="11.513705"><ele>709.8</ele><time>2026-04-22T11:14:45.138Z</time></trkpt><trkpt lat="43.44412" lon="11.5135583"><ele>710.0</ele><time>2026-04-22T11:14:46.136Z</time></trkpt><trkpt lat="43.4441167" lon="11.5134417"><ele>710.0</ele><time>2026-04-22T11:14:47.136Z</time></trkpt><trkpt lat="43.44412" lon="11.5133467"><ele>710.0</ele><time>2026-04-22T11:14:48.136Z</time></trkpt><trkpt lat="43.444135" lon="11.51326"><ele>710.0</ele><time>2026-04-22T11:14:49.137Z</time></trkpt><trkpt lat="43.44417" lon="11.513185"><ele>710.0</ele><time>2026-04-22T11:14:50.136Z</time></trkpt><trkpt lat="43.44422" lon="11.5131133"><ele>710.0</ele><time>2026-04-22T11:14:51.138Z</time></trkpt><trkpt lat="43.4442917" lon="11.5130417"><ele>710.0</ele><time>2026-04-22T11:14:52.138Z</time></trkpt><trkpt lat="43.44436" lon="11.5129683"><ele>710.0</ele><time>2026-04-22T11:14:53.137Z</time></trkpt><trkpt lat="43.44443" lon="11.51289"><ele>708.0</ele><time>2026-04-22T11:14:54.138Z</time></trkpt><trkpt lat="43.4445033" lon="11.5127917"><ele>706.0</ele><time>2026-04-22T11:14:55.136Z</time></trkpt><trkpt lat="43.44457" lon="11.51269"><ele>704.0</ele><time>2026-04-22T11:14:56.138Z</time></trkpt><trkpt lat="43.44464" lon="11.5125917"><ele>702.0</ele><time>2026-04-22T11:14:57.137Z</time></trkpt><trkpt lat="43.4447133" lon="11.5125083"><ele>700.0</ele><time>2026-04-22T11:14:58.139Z</time></trkpt><trkpt lat="43.444785" lon="11.5124433"><ele>704.5</ele><time>2026-04-22T11:14:59.138Z</time></trkpt><trkpt lat="43.4448483" lon="11.51238"><ele>709.0</ele><time>2026-04-22T11:15:00.137Z</time></trkpt><trkpt lat="43.4449133" lon="11.5123167"><ele>713.5</ele><time>2026-04-22T11:15:01.14Z</time></trkpt><trkpt lat="43.4449883" lon="11.5122683"><ele>718.0</ele><time>2026-04-22T11:15:02.138Z</time></trkpt><trkpt lat="43.445075" lon="11.5122383"><ele>722.5</ele><time>2026-04-22T11:15:03.138Z</time></trkpt><trkpt lat="43.445175" lon="11.5122233"><ele>727.0</ele><time>2026-04-22T11:15:04.136Z</time></trkpt><trkpt lat="43.4452667" lon="11.5122033"><ele>727.0</ele><time>2026-04-22T11:15:05.137Z</time></trkpt><trkpt lat="43.4453417" lon="11.5121833"><ele>727.0</ele><time>2026-04-22T11:15:06.136Z</time></trkpt><trkpt lat="43.4454367" lon="11.512165"><ele>727.0</ele><time>2026-04-22T11:15:08.137Z</time></trkpt><trkpt lat="43.4455083" lon="11.5121017"><ele>727.0</ele><time>2026-04-22T11:15:11.136Z</time></trkpt><trkpt lat="43.4455417" lon="11.5119383"><ele>727.0</ele><time>2026-04-22T11:15:13.138Z</time></trkpt><trkpt lat="43.4455433" lon="11.5118033"><ele>728.0</ele><time>2026-04-22T11:15:14.143Z</time></trkpt><trkpt lat="43.445545" lon="11.51166"><ele>729.0</ele><time>2026-04-22T11:15:15.135Z</time></trkpt><trkpt lat="43.4455517" lon="11.511505"><ele>730.0</ele><time>2026-04-22T11:15:16.136Z</time></trkpt><trkpt lat="43.44556" lon="11.511335"><ele>731.0</ele><time>2026-04-22T11:15:17.137Z</time></trkpt><trkpt lat="43.4455667" lon="11.511175"><ele>731.0</ele><time>2026-04-22T11:15:18.137Z</time></trkpt><trkpt lat="43.4455667" lon="11.5110433"><ele>731.0</ele><time>2026-04-22T11:15:19.137Z</time></trkpt><trkpt lat="43.445565" lon="11.5109433"><ele>731.0</ele><time>2026-04-22T11:15:20.137Z</time></trkpt><trkpt lat="43.445585" lon="11.5108267"><ele>731.0</ele><time>2026-04-22T11:15:22.137Z</time></trkpt><trkpt lat="43.4456183" lon="11.5107317"><ele>731.0</ele><time>2026-04-22T11:15:24.136Z</time></trkpt><trkpt lat="43.445645" lon="11.5106083"><ele>731.0</ele><time>2026-04-22T11:15:26.138Z</time></trkpt><trkpt lat="43.4456883" lon="11.5104317"><ele>733.6666666666666</ele><time>2026-04-22T11:15:28.138Z</time></trkpt><trkpt lat="43.4457183" lon="11.51032"><ele>736.3333333333333</ele><time>2026-04-22T11:15:29.137Z</time></trkpt><trkpt lat="43.4457517" lon="11.5102083"><ele>739.0</ele><time>2026-04-22T11:15:30.137Z</time></trkpt><trkpt lat="43.4457883" lon="11.5100983"><ele>741.6666666666666</ele><time>2026-04-22T11:15:31.138Z</time></trkpt><trkpt lat="43.4458167" lon="11.51"><ele>744.3333333333334</ele><time>2026-04-22T11:15:32.137Z</time></trkpt><trkpt lat="43.4458383" lon="11.5099083"><ele>747.0</ele><time>2026-04-22T11:15:33.137Z</time></trkpt><trkpt lat="43.4458533" lon="11.5098217"><ele>747.0</ele><time>2026-04-22T11:15:34.139Z</time></trkpt><trkpt lat="43.4458767" lon="11.509655"><ele>747.0</ele><time>2026-04-22T11:15:36.138Z</time></trkpt><trkpt lat="43.4458983" lon="11.5095683"><ele>747.0</ele><time>2026-04-22T11:15:37.137Z</time></trkpt><trkpt lat="43.4459317" lon="11.5094783"><ele>747.0</ele><time>2026-04-22T11:15:38.137Z</time></trkpt><trkpt lat="43.44598" lon="11.5094"><ele>747.0</ele><time>2026-04-22T11:15:39.138Z</time></trkpt><trkpt lat="43.4460283" lon="11.50933"><ele>747.0</ele><time>2026-04-22T11:15:40.136Z</time></trkpt><trkpt lat="43.446125" lon="11.5092767"><ele>747.6666666666666</ele><time>2026-04-22T11:15:42.137Z</time></trkpt><trkpt lat="43.4461883" lon="11.5092683"><ele>748.3333333333334</ele><time>2026-04-22T11:15:43.137Z</time></trkpt><trkpt lat="43.4462983" lon="11.5092283"><ele>749.0</ele><time>2026-04-22T11:15:45.137Z</time></trkpt><trkpt lat="43.4463517" lon="11.5091817"><ele>749.6666666666667</ele><time>2026-04-22T11:15:47.136Z</time></trkpt><trkpt lat="43.4463333" lon="11.5090633"><ele>750.3333333333334</ele><time>2026-04-22T11:15:52.137Z</time></trkpt><trkpt lat="43.4462633" lon="11.5089933"><ele>751.0</ele><time>2026-04-22T11:15:54.137Z</time></trkpt><trkpt lat="43.4462" lon="11.5089583"><ele>751.0</ele><time>2026-04-22T11:15:57.139Z</time></trkpt><trkpt lat="43.44627" lon="11.5089683"><ele>751.0</ele><time>2026-04-22T11:16:05.137Z</time></trkpt><trkpt lat="43.446335" lon="11.5090017"><ele>751.0</ele><time>2026-04-22T11:16:08.137Z</time></trkpt><trkpt lat="43.4463883" lon="11.5090633"><ele>751.0</ele><time>2026-04-22T11:16:11.138Z</time></trkpt><trkpt lat="43.4463783" lon="11.5091733"><ele>751.0</ele><time>2026-04-22T11:16:14.136Z</time></trkpt><trkpt lat="43.4463133" lon="11.5092317"><ele>751.0</ele><time>2026-04-22T11:16:16.137Z</time></trkpt><trkpt lat="43.4462333" lon="11.5092633"><ele>750.4285714285714</ele><time>2026-04-22T11:16:18.137Z</time></trkpt><trkpt lat="43.4461633" lon="11.509285"><ele>749.8571428571429</ele><time>2026-04-22T11:16:20.138Z</time></trkpt><trkpt lat="43.4460983" lon="11.5093183"><ele>749.2857142857142</ele><time>2026-04-22T11:16:22.139Z</time></trkpt><trkpt lat="43.446035" lon="11.5093667"><ele>748.7142857142858</ele><time>2026-04-22T11:16:24.14Z</time></trkpt><trkpt lat="43.44599" lon="11.509435"><ele>748.1428571428571</ele><time>2026-04-22T11:16:26.137Z</time></trkpt><trkpt lat="43.4459467" lon="11.50951"><ele>747.5714285714286</ele><time>2026-04-22T11:16:28.138Z</time></trkpt><trkpt lat="43.4459033" lon="11.5096033"><ele>747.0</ele><time>2026-04-22T11:16:30.138Z</time></trkpt><trkpt lat="43.44587" lon="11.5097217"><ele>747.0</ele><time>2026-04-22T11:16:32.137Z</time></trkpt><trkpt lat="43.4458483" lon="11.5098383"><ele>747.0</ele><time>2026-04-22T11:16:34.138Z</time></trkpt><trkpt lat="43.4458383" lon="11.5099367"><ele>747.0</ele><time>2026-04-22T11:16:36.137Z</time></trkpt><trkpt lat="43.4458183" lon="11.5100533"><ele>747.0</ele><time>2026-04-22T11:16:38.138Z</time></trkpt><trkpt lat="43.445775" lon="11.510185"><ele>747.0</ele><time>2026-04-22T11:16:40.138Z</time></trkpt><trkpt lat="43.4457433" lon="11.5102683"><ele>747.0</ele><time>2026-04-22T11:16:41.137Z</time></trkpt><trkpt lat="43.44571" lon="11.5103433"><ele>743.8</ele><time>2026-04-22T11:16:42.138Z</time></trkpt><trkpt lat="43.4456517" lon="11.5104733"><ele>740.6</ele><time>2026-04-22T11:16:44.136Z</time></trkpt><trkpt lat="43.4456233" lon="11.51058"><ele>737.4</ele><time>2026-04-22T11:16:46.137Z</time></trkpt><trkpt lat="43.4456017" lon="11.5106917"><ele>734.1999999999999</ele><time>2026-04-22T11:16:48.138Z</time></trkpt><trkpt lat="43.4455683" lon="11.5108067"><ele>731.0</ele><time>2026-04-22T11:16:50.137Z</time></trkpt><trkpt lat="43.4455367" lon="11.510935"><ele>731.0</ele><time>2026-04-22T11:16:52.139Z</time></trkpt><trkpt lat="43.4455317" lon="11.5110333"><ele>731.0</ele><time>2026-04-22T11:16:53.137Z</time></trkpt><trkpt lat="43.4455317" lon="11.511165"><ele>731.0</ele><time>2026-04-22T11:16:54.139Z</time></trkpt><trkpt lat="43.44553" lon="11.511315"><ele>731.0</ele><time>2026-04-22T11:16:55.138Z</time></trkpt><trkpt lat="43.4455283" lon="11.5114767"><ele>731.0</ele><time>2026-04-22T11:16:56.136Z</time></trkpt><trkpt lat="43.445525" lon="11.5116333"><ele>730.3333333333333</ele><time>2026-04-22T11:16:57.138Z</time></trkpt><trkpt lat="43.4455217" lon="11.5117717"><ele>729.6666666666666</ele><time>2026-04-22T11:16:58.138Z</time></trkpt><trkpt lat="43.44552" lon="11.51189"><ele>729.0</ele><time>2026-04-22T11:16:59.137Z</time></trkpt><trkpt lat="43.445525" lon="11.5119967"><ele>728.3333333333334</ele><time>2026-04-22T11:17:00.137Z</time></trkpt><trkpt lat="43.4454867" lon="11.5121233"><ele>727.6666666666667</ele><time>2026-04-22T11:17:02.137Z</time></trkpt><trkpt lat="43.445425" lon="11.5121667"><ele>727.0</ele><time>2026-04-22T11:17:03.138Z</time></trkpt><trkpt lat="43.445345" lon="11.5121867"><ele>727.0</ele><time>2026-04-22T11:17:04.137Z</time></trkpt><trkpt lat="43.44525" lon="11.5121983"><ele>727.0</ele><time>2026-04-22T11:17:05.137Z</time></trkpt><trkpt lat="43.44516" lon="11.5122183"><ele>727.0</ele><time>2026-04-22T11:17:06.138Z</time></trkpt><trkpt lat="43.4450717" lon="11.51224"><ele>727.0</ele><time>2026-04-22T11:17:07.136Z</time></trkpt><trkpt lat="43.4449933" lon="11.51227"><ele>727.0</ele><time>2026-04-22T11:17:08.136Z</time></trkpt><trkpt lat="43.4449183" lon="11.5123083"><ele>727.0</ele><time>2026-04-22T11:17:09.139Z</time></trkpt><trkpt lat="43.4448483" lon="11.5123533"><ele>727.0</ele><time>2026-04-22T11:17:10.136Z</time></trkpt><trkpt lat="43.444795" lon="11.512425"><ele>727.0</ele><time>2026-04-22T11:17:11.138Z</time></trkpt><trkpt lat="43.4447317" lon="11.5124883"><ele>727.0</ele><time>2026-04-22T11:17:12.138Z</time></trkpt><trkpt lat="43.4446633" lon="11.5125533"><ele>727.0</ele><time>2026-04-22T11:17:13.138Z</time></trkpt><trkpt lat="43.4445983" lon="11.5126433"><ele>727.0</ele><time>2026-04-22T11:17:14.138Z</time></trkpt><trkpt lat="43.4445417" lon="11.51276"><ele>727.0</ele><time>2026-04-22T11:17:15.137Z</time></trkpt><trkpt lat="43.444485" lon="11.51286"><ele>724.1666666666667</ele><time>2026-04-22T11:17:16.136Z</time></trkpt><trkpt lat="43.444425" lon="11.51295"><ele>721.3333333333334</ele><time>2026-04-22T11:17:17.137Z</time></trkpt><trkpt lat="43.4443633" lon="11.51303"><ele>718.5</ele><time>2026-04-22T11:17:18.137Z</time></trkpt><trkpt lat="43.4443033" lon="11.51311"><ele>715.6666666666666</ele><time>2026-04-22T11:17:19.137Z</time></trkpt><trkpt lat="43.4442483" lon="11.513185"><ele>712.8333333333333</ele><time>2026-04-22T11:17:20.138Z</time></trkpt><trkpt lat="43.4442033" lon="11.51326"><ele>710.0</ele><time>2026-04-22T11:17:21.137Z</time></trkpt><trkpt lat="43.4441667" lon="11.5133367"><ele>710.0</ele><time>2026-04-22T11:17:22.137Z</time></trkpt><trkpt lat="43.44414" lon="11.5134167"><ele>710.0</ele><time>2026-04-22T11:17:23.136Z</time></trkpt><trkpt lat="43.444125" lon="11.513595"><ele>710.0</ele><time>2026-04-22T11:17:25.137Z</time></trkpt><trkpt lat="43.444135" lon="11.5137167"><ele>710.0</ele><time>2026-04-22T11:17:26.137Z</time></trkpt><trkpt lat="43.4441433" lon="11.5138517"><ele>710.0</ele><time>2026-04-22T11:17:27.138Z</time></trkpt><trkpt lat="43.444155" lon="11.5139817"><ele>710.0</ele><time>2026-04-22T11:17:28.136Z</time></trkpt><trkpt lat="43.44416" lon="11.5140983"><ele>710.0</ele><time>2026-04-22T11:17:29.138Z</time></trkpt><trkpt lat="43.4441583" lon="11.5142117"><ele>710.0</ele><time>2026-04-22T11:17:30.137Z</time></trkpt><trkpt lat="43.4441517" lon="11.5143183"><ele>710.0</ele><time>2026-04-22T11:17:31.136Z</time></trkpt><trkpt lat="43.4441417" lon="11.514415"><ele>710.0</ele><time>2026-04-22T11:17:32.137Z</time></trkpt><trkpt lat="43.4441367" lon="11.5145183"><ele>710.0</ele><time>2026-04-22T11:17:33.138Z</time></trkpt><trkpt lat="43.44413" lon="11.5146283"><ele>709.8333333333333</ele><time>2026-04-22T11:17:34.137Z</time></trkpt><trkpt lat="43.444125" lon="11.51475"><ele>709.6666666666666</ele><time>2026-04-22T11:17:35.137Z</time></trkpt><trkpt lat="43.4441133" lon="11.5148733"><ele>709.5</ele><time>2026-04-22T11:17:36.137Z</time></trkpt><trkpt lat="43.4440917" lon="11.5149867"><ele>709.3333333333334</ele><time>2026-04-22T11:17:37.139Z</time></trkpt><trkpt lat="43.4440667" lon="11.5150783"><ele>709.1666666666667</ele><time>2026-04-22T11:17:38.137Z</time></trkpt><trkpt lat="43.444015" lon="11.5151667"><ele>709.0</ele><time>2026-04-22T11:17:40.138Z</time></trkpt><trkpt lat="43.443905" lon="11.5152267"><ele>709.0</ele><time>2026-04-22T11:17:43.139Z</time></trkpt><trkpt lat="43.4438267" lon="11.5152767"><ele>709.0</ele><time>2026-04-22T11:17:44.136Z</time></trkpt><trkpt lat="43.4437367" lon="11.5153233"><ele>709.0</ele><time>2026-04-22T11:17:45.137Z</time></trkpt><trkpt lat="43.44364" lon="11.5153683"><ele>709.0</ele><time>2026-04-22T11:17:46.137Z</time></trkpt><trkpt lat="43.4435533" lon="11.515405"><ele>709.0</ele><time>2026-04-22T11:17:47.136Z</time></trkpt><trkpt lat="43.4434783" lon="11.5154317"><ele>706.5</ele><time>2026-04-22T11:17:48.136Z</time></trkpt><trkpt lat="43.4434117" lon="11.5154467"><ele>704.0</ele><time>2026-04-22T11:17:49.137Z</time></trkpt><trkpt lat="43.4433417" lon="11.5154567"><ele>701.5</ele><time>2026-04-22T11:17:50.137Z</time></trkpt><trkpt lat="43.4432767" lon="11.515465"><ele>699.0</ele><time>2026-04-22T11:17:51.14Z</time></trkpt><trkpt lat="43.4431567" lon="11.51548"><ele>696.5</ele><time>2026-04-22T11:17:53.137Z</time></trkpt><trkpt lat="43.443045" lon="11.5154867"><ele>694.0</ele><time>2026-04-22T11:17:55.139Z</time></trkpt><trkpt lat="43.4429433" lon="11.515525"><ele>690.4000000000001</ele><time>2026-04-22T11:17:57.139Z</time></trkpt><trkpt lat="43.4428617" lon="11.51564"><ele>686.8</ele><time>2026-04-22T11:17:59.137Z</time></trkpt><trkpt lat="43.4428433" lon="11.51575"><ele>683.2</ele><time>2026-04-22T11:18:00.137Z</time></trkpt><trkpt lat="43.4428283" lon="11.5158683"><ele>679.5999999999999</ele><time>2026-04-22T11:18:01.136Z</time></trkpt><trkpt lat="43.442815" lon="11.51599"><ele>676.0</ele><time>2026-04-22T11:18:02.138Z</time></trkpt><trkpt lat="43.4428133" lon="11.5161083"><ele>676.0</ele><time>2026-04-22T11:18:03.138Z</time></trkpt><trkpt lat="43.44282" lon="11.5162233"><ele>676.0</ele><time>2026-04-22T11:18:04.136Z</time></trkpt><trkpt lat="43.4428333" lon="11.516325"><ele>676.0</ele><time>2026-04-22T11:18:05.136Z</time></trkpt><trkpt lat="43.4428417" lon="11.5164183"><ele>676.0</ele><time>2026-04-22T11:18:06.138Z</time></trkpt><trkpt lat="43.4428533" lon="11.5165083"><ele>676.0</ele><time>2026-04-22T11:18:07.138Z</time></trkpt><trkpt lat="43.4428767" lon="11.5166117"><ele>676.0</ele><time>2026-04-22T11:18:08.138Z</time></trkpt><trkpt lat="43.4429117" lon="11.51673"><ele>676.3333333333334</ele><time>2026-04-22T11:18:09.137Z</time></trkpt><trkpt lat="43.4429467" lon="11.51685"><ele>676.6666666666667</ele><time>2026-04-22T11:18:10.138Z</time></trkpt><trkpt lat="43.4429767" lon="11.5169683"><ele>677.0</ele><time>2026-04-22T11:18:11.136Z</time></trkpt><trkpt lat="43.4430033" lon="11.5170833"><ele>677.3333333333334</ele><time>2026-04-22T11:18:12.139Z</time></trkpt><trkpt lat="43.4430283" lon="11.5171967"><ele>677.6666666666666</ele><time>2026-04-22T11:18:13.137Z</time></trkpt><trkpt lat="43.443045" lon="11.5173033"><ele>678.0</ele><time>2026-04-22T11:18:14.137Z</time></trkpt><trkpt lat="43.44305" lon="11.517405"><ele>678.0</ele><time>2026-04-22T11:18:15.138Z</time></trkpt><trkpt lat="43.4430433" lon="11.5175083"><ele>678.0</ele><time>2026-04-22T11:18:16.137Z</time></trkpt><trkpt lat="43.4430317" lon="11.5176167"><ele>678.0</ele><time>2026-04-22T11:18:17.136Z</time></trkpt><trkpt lat="43.44302" lon="11.5177217"><ele>678.0</ele><time>2026-04-22T11:18:18.137Z</time></trkpt><trkpt lat="43.4430033" lon="11.5178267"><ele>678.0</ele><time>2026-04-22T11:18:19.138Z</time></trkpt><trkpt lat="43.44297" lon="11.5179317"><ele>678.0</ele><time>2026-04-22T11:18:20.138Z</time></trkpt><trkpt lat="43.4429367" lon="11.51804"><ele>675.0</ele><time>2026-04-22T11:18:21.139Z</time></trkpt><trkpt lat="43.4429083" lon="11.518145"><ele>672.0</ele><time>2026-04-22T11:18:22.136Z</time></trkpt><trkpt lat="43.4428883" lon="11.51825"><ele>669.0</ele><time>2026-04-22T11:18:23.136Z</time></trkpt><trkpt lat="43.4428683" lon="11.5183433"><ele>666.0</ele><time>2026-04-22T11:18:24.145Z</time></trkpt><trkpt lat="43.44285" lon="11.5184317"><ele>663.0</ele><time>2026-04-22T11:18:25.138Z</time></trkpt><trkpt lat="43.4428317" lon="11.51852"><ele>660.0</ele><time>2026-04-22T11:18:26.136Z</time></trkpt><trkpt lat="43.4428117" lon="11.51861"><ele>657.0</ele><time>2026-04-22T11:18:27.137Z</time></trkpt><trkpt lat="43.4427867" lon="11.5187033"><ele>656.3333333333334</ele><time>2026-04-22T11:18:28.137Z</time></trkpt><trkpt lat="43.44277" lon="11.5188017"><ele>655.6666666666666</ele><time>2026-04-22T11:18:29.136Z</time></trkpt><trkpt lat="43.4427617" lon="11.5189117"><ele>655.0</ele><time>2026-04-22T11:18:30.138Z</time></trkpt><trkpt lat="43.4427533" lon="11.5190267"><ele>654.3333333333333</ele><time>2026-04-22T11:18:31.138Z</time></trkpt><trkpt lat="43.4427467" lon="11.5191483"><ele>653.6666666666666</ele><time>2026-04-22T11:18:32.137Z</time></trkpt><trkpt lat="43.4427433" lon="11.5192667"><ele>653.0</ele><time>2026-04-22T11:18:33.138Z</time></trkpt><trkpt lat="43.44275" lon="11.519375"><ele>653.0</ele><time>2026-04-22T11:18:34.138Z</time></trkpt><trkpt lat="43.4427767" lon="11.5194733"><ele>653.0</ele><time>2026-04-22T11:18:35.136Z</time></trkpt><trkpt lat="43.442815" lon="11.5195633"><ele>653.0</ele><time>2026-04-22T11:18:36.138Z</time></trkpt><trkpt lat="43.4428583" lon="11.519635"><ele>653.0</ele><time>2026-04-22T11:18:37.137Z</time></trkpt><trkpt lat="43.4429417" lon="11.5197183"><ele>653.0</ele><time>2026-04-22T11:18:39.138Z</time></trkpt><trkpt lat="43.443005" lon="11.51978"><ele>653.0</ele><time>2026-04-22T11:18:41.138Z</time></trkpt><trkpt lat="43.443085" lon="11.5198333"><ele>653.0</ele><time>2026-04-22T11:18:44.137Z</time></trkpt><trkpt lat="43.44311" lon="11.519925"><ele>653.0</ele><time>2026-04-22T11:18:47.138Z</time></trkpt><trkpt lat="43.4430567" lon="11.520045"><ele>653.0</ele><time>2026-04-22T11:18:49.138Z</time></trkpt><trkpt lat="43.4430133" lon="11.5201417"><ele>653.0</ele><time>2026-04-22T11:18:50.137Z</time></trkpt><trkpt lat="43.4429433" lon="11.5202967"><ele>653.0</ele><time>2026-04-22T11:18:51.139Z</time></trkpt><trkpt lat="43.4428633" lon="11.52049"><ele>652.0</ele><time>2026-04-22T11:18:52.137Z</time></trkpt><trkpt lat="43.4427883" lon="11.5206917"><ele>651.0</ele><time>2026-04-22T11:18:53.136Z</time></trkpt><trkpt lat="43.4427217" lon="11.5208767"><ele>650.0</ele><time>2026-04-22T11:18:54.137Z</time></trkpt><trkpt lat="43.4426617" lon="11.5210333"><ele>649.0</ele><time>2026-04-22T11:18:55.14Z</time></trkpt><trkpt lat="43.4426" lon="11.5211683"><ele>649.75</ele><time>2026-04-22T11:18:56.136Z</time></trkpt><trkpt lat="43.4425283" lon="11.5212967"><ele>650.5</ele><time>2026-04-22T11:18:57.137Z</time></trkpt><trkpt lat="43.4424417" lon="11.521415"><ele>651.25</ele><time>2026-04-22T11:18:58.137Z</time></trkpt><trkpt lat="43.442335" lon="11.52155"><ele>652.0</ele><time>2026-04-22T11:18:59.137Z</time></trkpt><trkpt lat="43.4422217" lon="11.521685"><ele>651.0</ele><time>2026-04-22T11:19:00.138Z</time></trkpt><trkpt lat="43.4421117" lon="11.5217933"><ele>650.0</ele><time>2026-04-22T11:19:01.139Z</time></trkpt><trkpt lat="43.4420033" lon="11.5218917"><ele>649.0</ele><time>2026-04-22T11:19:02.137Z</time></trkpt><trkpt lat="43.4419017" lon="11.5219917"><ele>648.0</ele><time>2026-04-22T11:19:03.139Z</time></trkpt><trkpt lat="43.4418033" lon="11.5220767"><ele>648.0</ele><time>2026-04-22T11:19:04.138Z</time></trkpt><trkpt lat="43.4417233" lon="11.5221533"><ele>648.0</ele><time>2026-04-22T11:19:05.137Z</time></trkpt><trkpt lat="43.4416583" lon="11.522215"><ele>648.0</ele><time>2026-04-22T11:19:06.138Z</time></trkpt><trkpt lat="43.441615" lon="11.5222817"><ele>648.0</ele><time>2026-04-22T11:19:07.138Z</time></trkpt><trkpt lat="43.441565" lon="11.522365"><ele>648.0</ele><time>2026-04-22T11:19:08.138Z</time></trkpt><trkpt lat="43.4415333" lon="11.5224733"><ele>648.0</ele><time>2026-04-22T11:19:09.139Z</time></trkpt><trkpt lat="43.441495" lon="11.5226167"><ele>648.0</ele><time>2026-04-22T11:19:10.138Z</time></trkpt><trkpt lat="43.4414617" lon="11.5227567"><ele>648.0</ele><time>2026-04-22T11:19:11.138Z</time></trkpt><trkpt lat="43.4414283" lon="11.5228767"><ele>648.0</ele><time>2026-04-22T11:19:12.138Z</time></trkpt><trkpt lat="43.4413917" lon="11.5229717"><ele>648.0</ele><time>2026-04-22T11:19:13.138Z</time></trkpt><trkpt lat="43.4413417" lon="11.523095"><ele>648.0</ele><time>2026-04-22T11:19:15.138Z</time></trkpt><trkpt lat="43.4414" lon="11.52322"><ele>646.5999999999999</ele><time>2026-04-22T11:19:17.138Z</time></trkpt><trkpt lat="43.4414683" lon="11.5232717"><ele>645.1999999999999</ele><time>2026-04-22T11:19:18.137Z</time></trkpt><trkpt lat="43.4415617" lon="11.5233267"><ele>643.8</ele><time>2026-04-22T11:19:19.14Z</time></trkpt><trkpt lat="43.4416683" lon="11.5233933"><ele>642.4</ele><time>2026-04-22T11:19:20.133Z</time></trkpt><trkpt lat="43.4417717" lon="11.5234767"><ele>641.0</ele><time>2026-04-22T11:19:21.138Z</time></trkpt><trkpt lat="43.4418733" lon="11.5235617"><ele>641.0</ele><time>2026-04-22T11:19:22.137Z</time></trkpt><trkpt lat="43.4419783" lon="11.5236317"><ele>641.0</ele><time>2026-04-22T11:19:23.138Z</time></trkpt><trkpt lat="43.4420767" lon="11.5236917"><ele>641.0</ele><time>2026-04-22T11:19:24.136Z</time></trkpt><trkpt lat="43.442155" lon="11.5237433"><ele>641.0</ele><time>2026-04-22T11:19:25.137Z</time></trkpt><trkpt lat="43.4422133" lon="11.5238083"><ele>641.0</ele><time>2026-04-22T11:19:26.138Z</time></trkpt><trkpt lat="43.4422483" lon="11.5239117"><ele>640.1666666666666</ele><time>2026-04-22T11:19:27.138Z</time></trkpt><trkpt lat="43.44227" lon="11.5240217"><ele>639.3333333333333</ele><time>2026-04-22T11:19:28.138Z</time></trkpt><trkpt lat="43.442275" lon="11.5241367"><ele>638.5</ele><time>2026-04-22T11:19:29.138Z</time></trkpt><trkpt lat="43.4422917" lon="11.5242583"><ele>637.6666666666666</ele><time>2026-04-22T11:19:30.136Z</time></trkpt><trkpt lat="43.4423267" lon="11.5243733"><ele>636.8333333333334</ele><time>2026-04-22T11:19:31.137Z</time></trkpt><trkpt lat="43.4423917" lon="11.5244767"><ele>636.0</ele><time>2026-04-22T11:19:32.137Z</time></trkpt><trkpt lat="43.4424683" lon="11.52458"><ele>632.8</ele><time>2026-04-22T11:19:33.139Z</time></trkpt><trkpt lat="43.4425467" lon="11.5246733"><ele>629.6</ele><time>2026-04-22T11:19:34.137Z</time></trkpt><trkpt lat="43.4426233" lon="11.5247683"><ele>626.4</ele><time>2026-04-22T11:19:35.137Z</time></trkpt><trkpt lat="43.4426967" lon="11.52488"><ele>623.2</ele><time>2026-04-22T11:19:36.138Z</time></trkpt><trkpt lat="43.4427617" lon="11.52503"><ele>620.0</ele><time>2026-04-22T11:19:37.138Z</time></trkpt><trkpt lat="43.4428233" lon="11.5252083"><ele>620.0</ele><time>2026-04-22T11:19:38.14Z</time></trkpt><trkpt lat="43.4428917" lon="11.5253933"><ele>620.0</ele><time>2026-04-22T11:19:39.139Z</time></trkpt><trkpt lat="43.4429517" lon="11.525575"><ele>620.0</ele><time>2026-04-22T11:19:40.138Z</time></trkpt><trkpt lat="43.4430067" lon="11.52576"><ele>620.0</ele><time>2026-04-22T11:19:41.138Z</time></trkpt><trkpt lat="43.44306" lon="11.5259517"><ele>619.25</ele><time>2026-04-22T11:19:42.138Z</time></trkpt><trkpt lat="43.4431083" lon="11.5261283"><ele>618.5</ele><time>2026-04-22T11:19:43.136Z</time></trkpt><trkpt lat="43.4431383" lon="11.5263033"><ele>617.75</ele><time>2026-04-22T11:19:44.139Z</time></trkpt><trkpt lat="43.4431567" lon="11.5264717"><ele>617.0</ele><time>2026-04-22T11:19:45.138Z</time></trkpt><trkpt lat="43.4431483" lon="11.5266183"><ele>617.0</ele><time>2026-04-22T11:19:46.137Z</time></trkpt><trkpt lat="43.4431133" lon="11.52674"><ele>617.0</ele><time>2026-04-22T11:19:47.138Z</time></trkpt><trkpt lat="43.4430583" lon="11.5268667"><ele>617.0</ele><time>2026-04-22T11:19:48.138Z</time></trkpt><trkpt lat="43.443" lon="11.5269917"><ele>617.0</ele><time>2026-04-22T11:19:49.137Z</time></trkpt><trkpt lat="43.4429433" lon="11.5270933"><ele>617.0</ele><time>2026-04-22T11:19:50.138Z</time></trkpt><trkpt lat="43.4428783" lon="11.527175"><ele>615.0</ele><time>2026-04-22T11:19:51.137Z</time></trkpt><trkpt lat="43.4427967" lon="11.5272217"><ele>613.0</ele><time>2026-04-22T11:19:52.138Z</time></trkpt><trkpt lat="43.442685" lon="11.52724"><ele>611.0</ele><time>2026-04-22T11:19:53.132Z</time></trkpt><trkpt lat="43.4425433" lon="11.5272167"><ele>609.0</ele><time>2026-04-22T11:19:54.135Z</time></trkpt><trkpt lat="43.4424033" lon="11.5271867"><ele>609.0</ele><time>2026-04-22T11:19:55.136Z</time></trkpt><trkpt lat="43.442265" lon="11.5271617"><ele>609.0</ele><time>2026-04-22T11:19:56.136Z</time></trkpt><trkpt lat="43.4421317" lon="11.5271617"><ele>609.0</ele><time>2026-04-22T11:19:57.137Z</time></trkpt><trkpt lat="43.4420017" lon="11.5271983"><ele>609.0</ele><time>2026-04-22T11:19:58.137Z</time></trkpt><trkpt lat="43.44187" lon="11.5272667"><ele>609.75</ele><time>2026-04-22T11:19:59.138Z</time></trkpt><trkpt lat="43.4417317" lon="11.5273517"><ele>610.5</ele><time>2026-04-22T11:20:00.138Z</time></trkpt><trkpt lat="43.4416033" lon="11.5274333"><ele>611.25</ele><time>2026-04-22T11:20:01.138Z</time></trkpt><trkpt lat="43.44149" lon="11.5275"><ele>612.0</ele><time>2026-04-22T11:20:02.137Z</time></trkpt><trkpt lat="43.4413933" lon="11.5275633"><ele>612.0</ele><time>2026-04-22T11:20:03.139Z</time></trkpt><trkpt lat="43.4413117" lon="11.52763"><ele>612.0</ele><time>2026-04-22T11:20:04.138Z</time></trkpt><trkpt lat="43.4412417" lon="11.5277267"><ele>612.0</ele><time>2026-04-22T11:20:05.138Z</time></trkpt><trkpt lat="43.4411683" lon="11.5278533"><ele>612.0</ele><time>2026-04-22T11:20:06.139Z</time></trkpt><trkpt lat="43.44109" lon="11.528"><ele>612.0</ele><time>2026-04-22T11:20:07.137Z</time></trkpt><trkpt lat="43.441015" lon="11.52816"><ele>614.0</ele><time>2026-04-22T11:20:08.139Z</time></trkpt><trkpt lat="43.4409483" lon="11.5283167"><ele>616.0</ele><time>2026-04-22T11:20:09.14Z</time></trkpt><trkpt lat="43.4408917" lon="11.5284717"><ele>618.0</ele><time>2026-04-22T11:20:10.138Z</time></trkpt><trkpt lat="43.440845" lon="11.5286183"><ele>620.0</ele><time>2026-04-22T11:20:11.137Z</time></trkpt><trkpt lat="43.440815" lon="11.528745"><ele>620.0</ele><time>2026-04-22T11:20:12.135Z</time></trkpt><trkpt lat="43.4408" lon="11.5288783"><ele>620.0</ele><time>2026-04-22T11:20:13.136Z</time></trkpt><trkpt lat="43.4407967" lon="11.52903"><ele>620.0</ele><time>2026-04-22T11:20:14.137Z</time></trkpt><trkpt lat="43.4408067" lon="11.5292"><ele>620.0</ele><time>2026-04-22T11:20:15.137Z</time></trkpt><trkpt lat="43.4408167" lon="11.5293667"><ele>620.0</ele><time>2026-04-22T11:20:16.137Z</time></trkpt><trkpt lat="43.4408267" lon="11.5295"><ele>620.0</ele><time>2026-04-22T11:20:17.137Z</time></trkpt><trkpt lat="43.4408417" lon="11.5295983"><ele>620.0</ele><time>2026-04-22T11:20:18.137Z</time></trkpt><trkpt lat="43.4409167" lon="11.52973"><ele>620.0</ele><time>2026-04-22T11:20:20.136Z</time></trkpt><trkpt lat="43.44097" lon="11.52983"><ele>620.0</ele><time>2026-04-22T11:20:22.136Z</time></trkpt><trkpt lat="43.4409367" lon="11.5299217"><ele>622.2</ele><time>2026-04-22T11:20:24.136Z</time></trkpt><trkpt lat="43.4408383" lon="11.53001"><ele>624.4</ele><time>2026-04-22T11:20:26.138Z</time></trkpt><trkpt lat="43.4408367" lon="11.5301133"><ele>626.6</ele><time>2026-04-22T11:20:28.136Z</time></trkpt><trkpt lat="43.440935" lon="11.5301383"><ele>628.8</ele><time>2026-04-22T11:20:29.137Z</time></trkpt><trkpt lat="43.4410267" lon="11.530155"><ele>631.0</ele><time>2026-04-22T11:20:30.138Z</time></trkpt><trkpt lat="43.4411167" lon="11.53017"><ele>631.0</ele><time>2026-04-22T11:20:31.138Z</time></trkpt><trkpt lat="43.441205" lon="11.53019"><ele>631.0</ele><time>2026-04-22T11:20:32.137Z</time></trkpt><trkpt lat="43.4412817" lon="11.5302183"><ele>631.0</ele><time>2026-04-22T11:20:33.138Z</time></trkpt><trkpt lat="43.4413583" lon="11.5302883"><ele>631.0</ele><time>2026-04-22T11:20:35.137Z</time></trkpt><trkpt lat="43.441345" lon="11.5304117"><ele>631.0</ele><time>2026-04-22T11:20:37.137Z</time></trkpt><trkpt lat="43.441325" lon="11.5305183"><ele>631.0</ele><time>2026-04-22T11:20:38.138Z</time></trkpt><trkpt lat="43.4413033" lon="11.5306467"><ele>632.8</ele><time>2026-04-22T11:20:39.138Z</time></trkpt><trkpt lat="43.441285" lon="11.5308033"><ele>634.6</ele><time>2026-04-22T11:20:40.137Z</time></trkpt><trkpt lat="43.4412733" lon="11.5309633"><ele>636.4</ele><time>2026-04-22T11:20:41.137Z</time></trkpt><trkpt lat="43.4412683" lon="11.5311067"><ele>638.2</ele><time>2026-04-22T11:20:42.137Z</time></trkpt><trkpt lat="43.441285" lon="11.5312383"><ele>640.0</ele><time>2026-04-22T11:20:43.139Z</time></trkpt><trkpt lat="43.4413017" lon="11.531355"><ele>642.6666666666667</ele><time>2026-04-22T11:20:44.138Z</time></trkpt><trkpt lat="43.4413217" lon="11.531465"><ele>645.3333333333334</ele><time>2026-04-22T11:20:45.139Z</time></trkpt><trkpt lat="43.441355" lon="11.5315733"><ele>648.0</ele><time>2026-04-22T11:20:46.137Z</time></trkpt><trkpt lat="43.4413867" lon="11.5316767"><ele>650.6666666666666</ele><time>2026-04-22T11:20:47.137Z</time></trkpt><trkpt lat="43.441405" lon="11.531785"><ele>653.3333333333333</ele><time>2026-04-22T11:20:48.137Z</time></trkpt><trkpt lat="43.44141" lon="11.5318967"><ele>656.0</ele><time>2026-04-22T11:20:49.137Z</time></trkpt><trkpt lat="43.44141" lon="11.5320183"><ele>655.0</ele><time>2026-04-22T11:20:50.137Z</time></trkpt><trkpt lat="43.44139" lon="11.5321417"><ele>654.0</ele><time>2026-04-22T11:20:51.138Z</time></trkpt><trkpt lat="43.44137" lon="11.53226"><ele>653.0</ele><time>2026-04-22T11:20:52.138Z</time></trkpt><trkpt lat="43.4413467" lon="11.5323867"><ele>652.0</ele><time>2026-04-22T11:20:53.137Z</time></trkpt><trkpt lat="43.441335" lon="11.5325083"><ele>651.0</ele><time>2026-04-22T11:20:54.139Z</time></trkpt><trkpt lat="43.4413283" lon="11.5326183"><ele>650.0</ele><time>2026-04-22T11:20:55.14Z</time></trkpt><trkpt lat="43.441325" lon="11.532725"><ele>650.0</ele><time>2026-04-22T11:20:56.137Z</time></trkpt><trkpt lat="43.4413267" lon="11.532825"><ele>650.0</ele><time>2026-04-22T11:20:57.138Z</time></trkpt><trkpt lat="43.4413333" lon="11.5329183"><ele>650.0</ele><time>2026-04-22T11:20:58.136Z</time></trkpt><trkpt lat="43.441345" lon="11.5330183"><ele>650.0</ele><time>2026-04-22T11:20:59.138Z</time></trkpt><trkpt lat="43.4413783" lon="11.5331333"><ele>650.0</ele><time>2026-04-22T11:21:00.137Z</time></trkpt><trkpt lat="43.4414217" lon="11.5332467"><ele>650.0</ele><time>2026-04-22T11:21:01.139Z</time></trkpt><trkpt lat="43.4414517" lon="11.5333567"><ele>649.3333333333333</ele><time>2026-04-22T11:21:02.138Z</time></trkpt><trkpt lat="43.441475" lon="11.5334567"><ele>648.6666666666666</ele><time>2026-04-22T11:21:03.139Z</time></trkpt><trkpt lat="43.4414733" lon="11.533545"><ele>648.0</ele><time>2026-04-22T11:21:04.138Z</time></trkpt><trkpt lat="43.441475" lon="11.5336367"><ele>647.3333333333334</ele><time>2026-04-22T11:21:05.138Z</time></trkpt><trkpt lat="43.441485" lon="11.5338"><ele>646.6666666666667</ele><time>2026-04-22T11:21:07.138Z</time></trkpt><trkpt lat="43.4414783" lon="11.5338867"><ele>646.0</ele><time>2026-04-22T11:21:08.138Z</time></trkpt><trkpt lat="43.4414733" lon="11.5340417"><ele>645.5999999999999</ele><time>2026-04-22T11:21:10.137Z</time></trkpt><trkpt lat="43.4415367" lon="11.5342017"><ele>645.2</ele><time>2026-04-22T11:21:12.138Z</time></trkpt><trkpt lat="43.441595" lon="11.5342967"><ele>644.8</ele><time>2026-04-22T11:21:13.14Z</time></trkpt><trkpt lat="43.4416633" lon="11.5343967"><ele>644.4000000000001</ele><time>2026-04-22T11:21:14.139Z</time></trkpt><trkpt lat="43.4417217" lon="11.5344967"><ele>644.0</ele><time>2026-04-22T11:21:15.139Z</time></trkpt><trkpt lat="43.4417767" lon="11.5345767"><ele>642.2</ele><time>2026-04-22T11:21:16.138Z</time></trkpt><trkpt lat="43.4418517" lon="11.5346717"><ele>640.4000000000001</ele><time>2026-04-22T11:21:18.138Z</time></trkpt><trkpt lat="43.4419567" lon="11.534705"><ele>638.6</ele><time>2026-04-22T11:21:20.138Z</time></trkpt><trkpt lat="43.4420833" lon="11.53473"><ele>636.8</ele><time>2026-04-22T11:21:22.138Z</time></trkpt><trkpt lat="43.4421417" lon="11.5347683"><ele>635.0</ele><time>2026-04-22T11:21:23.139Z</time></trkpt><trkpt lat="43.4422317" lon="11.5348833"><ele>634.9999999999999</ele><time>2026-04-22T11:21:25.138Z</time></trkpt><trkpt lat="43.442255" lon="11.534975"><ele>635.0</ele><time>2026-04-22T11:21:26.138Z</time></trkpt><trkpt lat="43.442275" lon="11.5350633"><ele>635.0</ele><time>2026-04-22T11:21:27.138Z</time></trkpt><trkpt lat="43.442295" lon="11.53515"><ele>635.0</ele><time>2026-04-22T11:21:28.137Z</time></trkpt><trkpt lat="43.4423033" lon="11.535245"><ele>635.0</ele><time>2026-04-22T11:21:29.136Z</time></trkpt><trkpt lat="43.4423017" lon="11.5353417"><ele>634.9999999999999</ele><time>2026-04-22T11:21:30.138Z</time></trkpt><trkpt lat="43.4422983" lon="11.535445"><ele>635.0</ele><time>2026-04-22T11:21:31.138Z</time></trkpt><trkpt lat="43.442305" lon="11.5355333"><ele>634.2</ele><time>2026-04-22T11:21:32.138Z</time></trkpt><trkpt lat="43.442265" lon="11.5356717"><ele>633.4</ele><time>2026-04-22T11:21:34.138Z</time></trkpt><trkpt lat="43.4421717" lon="11.535755"><ele>632.6</ele><time>2026-04-22T11:21:36.138Z</time></trkpt><trkpt lat="43.4420917" lon="11.5358217"><ele>631.8</ele><time>2026-04-22T11:21:38.138Z</time></trkpt><trkpt lat="43.442075" lon="11.535975"><ele>631.0</ele><time>2026-04-22T11:21:40.138Z</time></trkpt><trkpt lat="43.44207" lon="11.5361533"><ele>628.6666666666667</ele><time>2026-04-22T11:21:42.137Z</time></trkpt><trkpt lat="43.442065" lon="11.53626"><ele>626.3333333333334</ele><time>2026-04-22T11:21:43.138Z</time></trkpt><trkpt lat="43.442065" lon="11.5363833"><ele>624.0</ele><time>2026-04-22T11:21:44.139Z</time></trkpt><trkpt lat="43.4420683" lon="11.5365117"><ele>621.6666666666666</ele><time>2026-04-22T11:21:45.139Z</time></trkpt><trkpt lat="43.4420767" lon="11.5366433"><ele>619.3333333333333</ele><time>2026-04-22T11:21:46.139Z</time></trkpt><trkpt lat="43.4420817" lon="11.5367683"><ele>617.0</ele><time>2026-04-22T11:21:47.139Z</time></trkpt><trkpt lat="43.4420817" lon="11.5368917"><ele>617.0</ele><time>2026-04-22T11:21:48.138Z</time></trkpt><trkpt lat="43.442075" lon="11.5370083"><ele>617.0</ele><time>2026-04-22T11:21:49.14Z</time></trkpt><trkpt lat="43.4420617" lon="11.5371117"><ele>617.0</ele><time>2026-04-22T11:21:50.138Z</time></trkpt><trkpt lat="43.4420383" lon="11.5372033"><ele>617.0</ele><time>2026-04-22T11:21:51.139Z</time></trkpt><trkpt lat="43.4420183" lon="11.5373667"><ele>617.0</ele><time>2026-04-22T11:21:53.138Z</time></trkpt><trkpt lat="43.4420117" lon="11.5374617"><ele>617.0</ele><time>2026-04-22T11:21:54.137Z</time></trkpt><trkpt lat="43.4419983" lon="11.537575"><ele>616.5</ele><time>2026-04-22T11:21:55.139Z</time></trkpt><trkpt lat="43.4419817" lon="11.5376983"><ele>616.0</ele><time>2026-04-22T11:21:56.138Z</time></trkpt><trkpt lat="43.4419667" lon="11.5378117"><ele>615.5</ele><time>2026-04-22T11:21:57.14Z</time></trkpt><trkpt lat="43.4419483" lon="11.537915"><ele>615.0</ele><time>2026-04-22T11:21:58.138Z</time></trkpt><trkpt lat="43.441935" lon="11.5380033"><ele>614.5</ele><time>2026-04-22T11:21:59.134Z</time></trkpt><trkpt lat="43.44189" lon="11.53816"><ele>614.0</ele><time>2026-04-22T11:22:01.139Z</time></trkpt><trkpt lat="43.441825" lon="11.538285"><ele>613.5</ele><time>2026-04-22T11:22:03.139Z</time></trkpt><trkpt lat="43.4418167" lon="11.5383933"><ele>613.0</ele><time>2026-04-22T11:22:05.137Z</time></trkpt><trkpt lat="43.4418533" lon="11.5384933"><ele>612.5</ele><time>2026-04-22T11:22:07.137Z</time></trkpt><trkpt lat="43.4418617" lon="11.5385833"><ele>612.0</ele><time>2026-04-22T11:22:09.138Z</time></trkpt><trkpt lat="43.4418433" lon="11.5386717"><ele>611.5</ele><time>2026-04-22T11:22:11.136Z</time></trkpt><trkpt lat="43.4418067" lon="11.5387767"><ele>611.0</ele><time>2026-04-22T11:22:14.137Z</time></trkpt><trkpt lat="43.4418417" lon="11.5388733"><ele>611.0</ele><time>2026-04-22T11:22:17.137Z</time></trkpt><trkpt lat="43.44191" lon="11.5389183"><ele>611.0</ele><time>2026-04-22T11:22:19.137Z</time></trkpt><trkpt lat="43.44197" lon="11.539035"><ele>611.0</ele><time>2026-04-22T11:22:21.138Z</time></trkpt><trkpt lat="43.4419733" lon="11.53922"><ele>611.0</ele><time>2026-04-22T11:22:23.136Z</time></trkpt><trkpt lat="43.44196" lon="11.5393467"><ele>611.0</ele><time>2026-04-22T11:22:24.136Z</time></trkpt><trkpt lat="43.44195" lon="11.5394733"><ele>611.5</ele><time>2026-04-22T11:22:25.136Z</time></trkpt><trkpt lat="43.4419367" lon="11.5395933"><ele>612.0</ele><time>2026-04-22T11:22:26.136Z</time></trkpt><trkpt lat="43.441925" lon="11.5397083"><ele>612.5</ele><time>2026-04-22T11:22:27.138Z</time></trkpt><trkpt lat="43.44192" lon="11.53982"><ele>613.0</ele><time>2026-04-22T11:22:28.137Z</time></trkpt><trkpt lat="43.4419317" lon="11.5399383"><ele>613.5</ele><time>2026-04-22T11:22:29.137Z</time></trkpt><trkpt lat="43.4419417" lon="11.5400517"><ele>614.0</ele><time>2026-04-22T11:22:30.137Z</time></trkpt><trkpt lat="43.441965" lon="11.54016"><ele>614.0</ele><time>2026-04-22T11:22:31.139Z</time></trkpt><trkpt lat="43.441985" lon="11.540275"><ele>614.0</ele><time>2026-04-22T11:22:32.137Z</time></trkpt><trkpt lat="43.4419983" lon="11.5404"><ele>614.0</ele><time>2026-04-22T11:22:33.138Z</time></trkpt><trkpt lat="43.4419917" lon="11.540535"><ele>614.0</ele><time>2026-04-22T11:22:34.137Z</time></trkpt><trkpt lat="43.44199" lon="11.5406783"><ele>614.0</ele><time>2026-04-22T11:22:35.138Z</time></trkpt><trkpt lat="43.4419867" lon="11.5408167"><ele>613.8333333333333</ele><time>2026-04-22T11:22:36.136Z</time></trkpt><trkpt lat="43.4419867" lon="11.5409417"><ele>613.6666666666666</ele><time>2026-04-22T11:22:37.139Z</time></trkpt><trkpt lat="43.442" lon="11.5410567"><ele>613.5</ele><time>2026-04-22T11:22:38.138Z</time></trkpt><trkpt lat="43.4420217" lon="11.54116"><ele>613.3333333333334</ele><time>2026-04-22T11:22:39.139Z</time></trkpt><trkpt lat="43.4420617" lon="11.5412483"><ele>613.1666666666667</ele><time>2026-04-22T11:22:40.138Z</time></trkpt><trkpt lat="43.44208" lon="11.541345"><ele>613.0</ele><time>2026-04-22T11:22:41.137Z</time></trkpt><trkpt lat="43.4420833" lon="11.5414417"><ele>610.3333333333334</ele><time>2026-04-22T11:22:42.138Z</time></trkpt><trkpt lat="43.4420917" lon="11.5415517"><ele>607.6666666666667</ele><time>2026-04-22T11:22:43.139Z</time></trkpt><trkpt lat="43.4420867" lon="11.541675"><ele>605.0</ele><time>2026-04-22T11:22:44.139Z</time></trkpt><trkpt lat="43.44209" lon="11.5418033"><ele>602.3333333333334</ele><time>2026-04-22T11:22:45.139Z</time></trkpt><trkpt lat="43.4420917" lon="11.5419167"><ele>599.6666666666666</ele><time>2026-04-22T11:22:46.138Z</time></trkpt><trkpt lat="43.44208" lon="11.5420233"><ele>597.0</ele><time>2026-04-22T11:22:47.136Z</time></trkpt><trkpt lat="43.4420733" lon="11.5421217"><ele>594.8333333333334</ele><time>2026-04-22T11:22:48.138Z</time></trkpt><trkpt lat="43.4420767" lon="11.542215"><ele>592.6666666666666</ele><time>2026-04-22T11:22:49.138Z</time></trkpt><trkpt lat="43.4420783" lon="11.5423133"><ele>590.5</ele><time>2026-04-22T11:22:50.137Z</time></trkpt><trkpt lat="43.4420967" lon="11.542415"><ele>588.3333333333333</ele><time>2026-04-22T11:22:51.139Z</time></trkpt><trkpt lat="43.44214" lon="11.5425267"><ele>586.1666666666666</ele><time>2026-04-22T11:22:52.137Z</time></trkpt><trkpt lat="43.4421917" lon="11.5426267"><ele>584.0</ele><time>2026-04-22T11:22:53.139Z</time></trkpt><trkpt lat="43.442235" lon="11.542715"><ele>584.0</ele><time>2026-04-22T11:22:54.139Z</time></trkpt><trkpt lat="43.4422767" lon="11.5428017"><ele>584.0</ele><time>2026-04-22T11:22:55.138Z</time></trkpt><trkpt lat="43.4423133" lon="11.542895"><ele>584.0</ele><time>2026-04-22T11:22:56.137Z</time></trkpt><trkpt lat="43.4423283" lon="11.543"><ele>584.0</ele><time>2026-04-22T11:22:57.139Z</time></trkpt><trkpt lat="43.44231" lon="11.5431133"><ele>584.0</ele><time>2026-04-22T11:22:58.138Z</time></trkpt><trkpt lat="43.442275" lon="11.5432217"><ele>584.0</ele><time>2026-04-22T11:22:59.138Z</time></trkpt><trkpt lat="43.4422567" lon="11.5433383"><ele>584.4</ele><time>2026-04-22T11:23:00.137Z</time></trkpt><trkpt lat="43.4422467" lon="11.5434867"><ele>584.8</ele><time>2026-04-22T11:23:01.139Z</time></trkpt><trkpt lat="43.4422333" lon="11.5436283"><ele>585.2</ele><time>2026-04-22T11:23:02.138Z</time></trkpt><trkpt lat="43.4422317" lon="11.5437533"><ele>585.6</ele><time>2026-04-22T11:23:03.138Z</time></trkpt><trkpt lat="43.4422583" lon="11.5438683"><ele>586.0</ele><time>2026-04-22T11:23:04.138Z</time></trkpt><trkpt lat="43.4422883" lon="11.5439767"><ele>586.6666666666667</ele><time>2026-04-22T11:23:05.138Z</time></trkpt><trkpt lat="43.4423067" lon="11.54408"><ele>587.3333333333334</ele><time>2026-04-22T11:23:06.137Z</time></trkpt><trkpt lat="43.4423217" lon="11.544185"><ele>588.0</ele><time>2026-04-22T11:23:07.138Z</time></trkpt><trkpt lat="43.4423433" lon="11.5442883"><ele>588.6666666666666</ele><time>2026-04-22T11:23:08.138Z</time></trkpt><trkpt lat="43.44237" lon="11.544385"><ele>589.3333333333333</ele><time>2026-04-22T11:23:09.139Z</time></trkpt><trkpt lat="43.44241" lon="11.5444817"><ele>590.0</ele><time>2026-04-22T11:23:10.139Z</time></trkpt><trkpt lat="43.442455" lon="11.5445883"><ele>592.75</ele><time>2026-04-22T11:23:11.138Z</time></trkpt><trkpt lat="43.442515" lon="11.5446983"><ele>595.5</ele><time>2026-04-22T11:23:12.138Z</time></trkpt><trkpt lat="43.4425783" lon="11.544825"><ele>598.25</ele><time>2026-04-22T11:23:13.138Z</time></trkpt><trkpt lat="43.4426433" lon="11.5449633"><ele>601.0</ele><time>2026-04-22T11:23:14.138Z</time></trkpt><trkpt lat="43.4426967" lon="11.54511"><ele>601.0</ele><time>2026-04-22T11:23:15.139Z</time></trkpt><trkpt lat="43.4427433" lon="11.54525"><ele>601.0</ele><time>2026-04-22T11:23:16.138Z</time></trkpt><trkpt lat="43.4427833" lon="11.5453883"><ele>601.0</ele><time>2026-04-22T11:23:17.137Z</time></trkpt><trkpt lat="43.4428267" lon="11.5455267"><ele>601.0</ele><time>2026-04-22T11:23:18.137Z</time></trkpt><trkpt lat="43.4428617" lon="11.5456617"><ele>601.0</ele><time>2026-04-22T11:23:19.138Z</time></trkpt><trkpt lat="43.4428817" lon="11.5457833"><ele>601.0</ele><time>2026-04-22T11:23:20.137Z</time></trkpt><trkpt lat="43.4428867" lon="11.5459017"><ele>601.0</ele><time>2026-04-22T11:23:21.138Z</time></trkpt><trkpt lat="43.442875" lon="11.5460117"><ele>601.0</ele><time>2026-04-22T11:23:22.138Z</time></trkpt><trkpt lat="43.4428417" lon="11.5461217"><ele>601.0</ele><time>2026-04-22T11:23:23.138Z</time></trkpt><trkpt lat="43.442775" lon="11.546215"><ele>601.0</ele><time>2026-04-22T11:23:24.139Z</time></trkpt><trkpt lat="43.4426967" lon="11.5462883"><ele>601.0</ele><time>2026-04-22T11:23:25.136Z</time></trkpt><trkpt lat="43.4426267" lon="11.5463417"><ele>601.0</ele><time>2026-04-22T11:23:26.137Z</time></trkpt><trkpt lat="43.4425517" lon="11.54638"><ele>601.0</ele><time>2026-04-22T11:23:27.138Z</time></trkpt><trkpt lat="43.4424717" lon="11.546415"><ele>601.0</ele><time>2026-04-22T11:23:28.139Z</time></trkpt><trkpt lat="43.4423817" lon="11.546475"><ele>601.0</ele><time>2026-04-22T11:23:29.137Z</time></trkpt><trkpt lat="43.4423067" lon="11.5465633"><ele>601.0</ele><time>2026-04-22T11:23:30.136Z</time></trkpt><trkpt lat="43.4422417" lon="11.5466667"><ele>601.0</ele><time>2026-04-22T11:23:31.136Z</time></trkpt><trkpt lat="43.4421867" lon="11.54678"><ele>601.0</ele><time>2026-04-22T11:23:32.137Z</time></trkpt><trkpt lat="43.44215" lon="11.5469067"><ele>601.0</ele><time>2026-04-22T11:23:33.138Z</time></trkpt><trkpt lat="43.442135" lon="11.5470417"><ele>601.0</ele><time>2026-04-22T11:23:34.137Z</time></trkpt><trkpt lat="43.44213" lon="11.5471733"><ele>601.0</ele><time>2026-04-22T11:23:35.138Z</time></trkpt><trkpt lat="43.4421267" lon="11.547305"><ele>599.2</ele><time>2026-04-22T11:23:36.137Z</time></trkpt><trkpt lat="43.4421333" lon="11.5474283"><ele>597.4000000000001</ele><time>2026-04-22T11:23:37.138Z</time></trkpt><trkpt lat="43.442155" lon="11.5475433"><ele>595.6</ele><time>2026-04-22T11:23:38.139Z</time></trkpt><trkpt lat="43.4421917" lon="11.5476517"><ele>593.8000000000001</ele><time>2026-04-22T11:23:39.139Z</time></trkpt><trkpt lat="43.4422283" lon="11.5477717"><ele>592.0</ele><time>2026-04-22T11:23:40.137Z</time></trkpt><trkpt lat="43.4422633" lon="11.5479117"><ele>592.0</ele><time>2026-04-22T11:23:41.138Z</time></trkpt><trkpt lat="43.4422917" lon="11.5480567"><ele>592.0</ele><time>2026-04-22T11:23:42.137Z</time></trkpt><trkpt lat="43.4423067" lon="11.5481933"><ele>592.0</ele><time>2026-04-22T11:23:43.137Z</time></trkpt><trkpt lat="43.44232" lon="11.5483367"><ele>592.0</ele><time>2026-04-22T11:23:44.14Z</time></trkpt><trkpt lat="43.442325" lon="11.5484867"><ele>592.0</ele><time>2026-04-22T11:23:45.135Z</time></trkpt><trkpt lat="43.4423267" lon="11.5486367"><ele>592.5</ele><time>2026-04-22T11:23:46.138Z</time></trkpt><trkpt lat="43.4423267" lon="11.54879"><ele>593.0</ele><time>2026-04-22T11:23:47.138Z</time></trkpt><trkpt lat="43.44232" lon="11.5489633"><ele>593.5</ele><time>2026-04-22T11:23:48.139Z</time></trkpt><trkpt lat="43.4423133" lon="11.5491583"><ele>594.0</ele><time>2026-04-22T11:23:49.139Z</time></trkpt><trkpt lat="43.442305" lon="11.5493383"><ele>594.0</ele><time>2026-04-22T11:23:50.138Z</time></trkpt><trkpt lat="43.4423" lon="11.5494933"><ele>594.0</ele><time>2026-04-22T11:23:51.139Z</time></trkpt><trkpt lat="43.44228" lon="11.549635"><ele>594.0</ele><time>2026-04-22T11:23:52.139Z</time></trkpt><trkpt lat="43.44224" lon="11.5497617"><ele>594.0</ele><time>2026-04-22T11:23:53.137Z</time></trkpt><trkpt lat="43.442195" lon="11.5498767"><ele>594.0</ele><time>2026-04-22T11:23:54.137Z</time></trkpt><trkpt lat="43.442155" lon="11.5499783"><ele>593.8</ele><time>2026-04-22T11:23:55.138Z</time></trkpt><trkpt lat="43.4421217" lon="11.550075"><ele>593.5999999999999</ele><time>2026-04-22T11:23:56.136Z</time></trkpt><trkpt lat="43.4421133" lon="11.5501783"><ele>593.4</ele><time>2026-04-22T11:23:57.139Z</time></trkpt><trkpt lat="43.4421533" lon="11.5502983"><ele>593.1999999999999</ele><time>2026-04-22T11:23:58.134Z</time></trkpt><trkpt lat="43.4422083" lon="11.5504433"><ele>593.0</ele><time>2026-04-22T11:23:59.131Z</time></trkpt><trkpt lat="43.4422717" lon="11.5506067"><ele>591.75</ele><time>2026-04-22T11:24:00.132Z</time></trkpt><trkpt lat="43.4423333" lon="11.5507667"><ele>590.5</ele><time>2026-04-22T11:24:01.135Z</time></trkpt><trkpt lat="43.4423867" lon="11.550915"><ele>589.25</ele><time>2026-04-22T11:24:02.132Z</time></trkpt><trkpt lat="43.44245" lon="11.551045"><ele>588.0</ele><time>2026-04-22T11:24:03.135Z</time></trkpt><trkpt lat="43.4425333" lon="11.551145"><ele>589.4</ele><time>2026-04-22T11:24:04.132Z</time></trkpt><trkpt lat="43.4426117" lon="11.5512217"><ele>590.8</ele><time>2026-04-22T11:24:05.135Z</time></trkpt><trkpt lat="43.4426933" lon="11.5512967"><ele>592.2</ele><time>2026-04-22T11:24:06.137Z</time></trkpt><trkpt lat="43.4427567" lon="11.55139"><ele>593.6</ele><time>2026-04-22T11:24:07.138Z</time></trkpt><trkpt lat="43.4428167" lon="11.5515067"><ele>595.0</ele><time>2026-04-22T11:24:08.132Z</time></trkpt><trkpt lat="43.4428733" lon="11.5516267"><ele>595.0</ele><time>2026-04-22T11:24:09.139Z</time></trkpt><trkpt lat="43.4429383" lon="11.5517467"><ele>595.0</ele><time>2026-04-22T11:24:10.137Z</time></trkpt><trkpt lat="43.443015" lon="11.5518683"><ele>595.0</ele><time>2026-04-22T11:24:11.135Z</time></trkpt><trkpt lat="43.44309" lon="11.551975"><ele>595.0</ele><time>2026-04-22T11:24:12.137Z</time></trkpt><trkpt lat="43.443165" lon="11.5521"><ele>594.5</ele><time>2026-04-22T11:24:13.139Z</time></trkpt><trkpt lat="43.44323" lon="11.55224"><ele>594.0</ele><time>2026-04-22T11:24:14.136Z</time></trkpt><trkpt lat="43.443295" lon="11.5523833"><ele>593.5</ele><time>2026-04-22T11:24:15.139Z</time></trkpt><trkpt lat="43.4433483" lon="11.5525317"><ele>593.0</ele><time>2026-04-22T11:24:16.137Z</time></trkpt><trkpt lat="43.4434" lon="11.5526767"><ele>593.0</ele><time>2026-04-22T11:24:17.137Z</time></trkpt><trkpt lat="43.4434567" lon="11.5528267"><ele>593.0</ele><time>2026-04-22T11:24:18.131Z</time></trkpt><trkpt lat="43.4435083" lon="11.5529833"><ele>593.0</ele><time>2026-04-22T11:24:19.137Z</time></trkpt><trkpt lat="43.4435683" lon="11.5531383"><ele>593.0</ele><time>2026-04-22T11:24:20.137Z</time></trkpt><trkpt lat="43.443615" lon="11.5532817"><ele>596.8</ele><time>2026-04-22T11:24:21.138Z</time></trkpt><trkpt lat="43.4436517" lon="11.5534183"><ele>600.5999999999999</ele><time>2026-04-22T11:24:22.139Z</time></trkpt><trkpt lat="43.443685" lon="11.5535517"><ele>604.4000000000001</ele><time>2026-04-22T11:24:23.136Z</time></trkpt><trkpt lat="43.44371" lon="11.5536733"><ele>608.2</ele><time>2026-04-22T11:24:24.138Z</time></trkpt><trkpt lat="43.4437483" lon="11.5537933"><ele>612.0</ele><time>2026-04-22T11:24:25.138Z</time></trkpt><trkpt lat="43.4437883" lon="11.5539117"><ele>609.0</ele><time>2026-04-22T11:24:26.138Z</time></trkpt><trkpt lat="43.44384" lon="11.5540567"><ele>606.0</ele><time>2026-04-22T11:24:27.138Z</time></trkpt><trkpt lat="43.4438933" lon="11.5542317"><ele>603.0</ele><time>2026-04-22T11:24:28.136Z</time></trkpt><trkpt lat="43.44396" lon="11.5544167"><ele>600.0</ele><time>2026-04-22T11:24:29.136Z</time></trkpt><trkpt lat="43.4440267" lon="11.5546"><ele>600.0</ele><time>2026-04-22T11:24:30.137Z</time></trkpt><trkpt lat="43.444095" lon="11.5547667"><ele>600.0</ele><time>2026-04-22T11:24:31.137Z</time></trkpt><trkpt lat="43.4441667" lon="11.5549267"><ele>600.0</ele><time>2026-04-22T11:24:32.137Z</time></trkpt><trkpt lat="43.4442367" lon="11.5550817"><ele>600.0</ele><time>2026-04-22T11:24:33.137Z</time></trkpt><trkpt lat="43.4443017" lon="11.5552367"><ele>602.5</ele><time>2026-04-22T11:24:34.137Z</time></trkpt><trkpt lat="43.4443717" lon="11.55538"><ele>605.0</ele><time>2026-04-22T11:24:35.137Z</time></trkpt><trkpt lat="43.4444417" lon="11.555515"><ele>607.5</ele><time>2026-04-22T11:24:36.138Z</time></trkpt><trkpt lat="43.4445083" lon="11.5556383"><ele>610.0</ele><time>2026-04-22T11:24:37.139Z</time></trkpt><trkpt lat="43.4445533" lon="11.555765"><ele>610.0</ele><time>2026-04-22T11:24:38.134Z</time></trkpt><trkpt lat="43.44458" lon="11.5558933"><ele>610.0</ele><time>2026-04-22T11:24:39.138Z</time></trkpt><trkpt lat="43.4445883" lon="11.5560333"><ele>610.0</ele><time>2026-04-22T11:24:40.133Z</time></trkpt><trkpt lat="43.44459" lon="11.556175"><ele>610.0</ele><time>2026-04-22T11:24:41.138Z</time></trkpt><trkpt lat="43.44458" lon="11.5563233"><ele>610.0</ele><time>2026-04-22T11:24:42.143Z</time></trkpt><trkpt lat="43.444545" lon="11.5564767"><ele>610.6</ele><time>2026-04-22T11:24:43.137Z</time></trkpt><trkpt lat="43.4445017" lon="11.5566183"><ele>611.2</ele><time>2026-04-22T11:24:44.137Z</time></trkpt><trkpt lat="43.4444517" lon="11.5567333"><ele>611.8</ele><time>2026-04-22T11:24:45.138Z</time></trkpt><trkpt lat="43.4443917" lon="11.5568367"><ele>612.4</ele><time>2026-04-22T11:24:46.136Z</time></trkpt><trkpt lat="43.444315" lon="11.5569217"><ele>613.0</ele><time>2026-04-22T11:24:47.138Z</time></trkpt><trkpt lat="43.444235" lon="11.556995"><ele>611.4</ele><time>2026-04-22T11:24:48.143Z</time></trkpt><trkpt lat="43.4441483" lon="11.5570483"><ele>609.8</ele><time>2026-04-22T11:24:49.137Z</time></trkpt><trkpt lat="43.4440533" lon="11.5571017"><ele>608.2</ele><time>2026-04-22T11:24:50.137Z</time></trkpt><trkpt lat="43.4439483" lon="11.5571483"><ele>606.6</ele><time>2026-04-22T11:24:51.137Z</time></trkpt><trkpt lat="43.44384" lon="11.5571933"><ele>605.0</ele><time>2026-04-22T11:24:52.138Z</time></trkpt><trkpt lat="43.443735" lon="11.5572383"><ele>604.8</ele><time>2026-04-22T11:24:53.137Z</time></trkpt><trkpt lat="43.4436383" lon="11.55729"><ele>604.6</ele><time>2026-04-22T11:24:54.137Z</time></trkpt><trkpt lat="43.4435467" lon="11.5573533"><ele>604.4</ele><time>2026-04-22T11:24:55.137Z</time></trkpt><trkpt lat="43.44346" lon="11.557445"><ele>604.2</ele><time>2026-04-22T11:24:56.138Z</time></trkpt><trkpt lat="43.443395" lon="11.557555"><ele>604.0</ele><time>2026-04-22T11:24:57.138Z</time></trkpt><trkpt lat="43.44334" lon="11.5576667"><ele>604.0</ele><time>2026-04-22T11:24:58.137Z</time></trkpt><trkpt lat="43.4433067" lon="11.5577767"><ele>604.0</ele><time>2026-04-22T11:24:59.132Z</time></trkpt><trkpt lat="43.4432933" lon="11.5578883"><ele>604.0</ele><time>2026-04-22T11:25:00.135Z</time></trkpt><trkpt lat="43.44331" lon="11.5580083"><ele>604.0</ele><time>2026-04-22T11:25:01.135Z</time></trkpt><trkpt lat="43.4433383" lon="11.5581117"><ele>604.0</ele><time>2026-04-22T11:25:02.138Z</time></trkpt><trkpt lat="43.4433433" lon="11.5582167"><ele>604.0</ele><time>2026-04-22T11:25:04.137Z</time></trkpt><trkpt lat="43.44322" lon="11.5582433"><ele>603.4</ele><time>2026-04-22T11:25:06.138Z</time></trkpt><trkpt lat="43.4431183" lon="11.55824"><ele>602.8</ele><time>2026-04-22T11:25:07.136Z</time></trkpt><trkpt lat="43.4430167" lon="11.5582483"><ele>602.2</ele><time>2026-04-22T11:25:08.137Z</time></trkpt><trkpt lat="43.4429117" lon="11.558275"><ele>601.6</ele><time>2026-04-22T11:25:09.139Z</time></trkpt><trkpt lat="43.442815" lon="11.558315"><ele>601.0</ele><time>2026-04-22T11:25:10.138Z</time></trkpt><trkpt lat="43.4427183" lon="11.558365"><ele>599.0</ele><time>2026-04-22T11:25:11.137Z</time></trkpt><trkpt lat="43.44262" lon="11.5584133"><ele>597.0</ele><time>2026-04-22T11:25:12.137Z</time></trkpt><trkpt lat="43.4425183" lon="11.558475"><ele>595.0</ele><time>2026-04-22T11:25:13.136Z</time></trkpt><trkpt lat="43.4424067" lon="11.5585433"><ele>593.0</ele><time>2026-04-22T11:25:14.137Z</time></trkpt><trkpt lat="43.4422833" lon="11.5586217"><ele>593.0</ele><time>2026-04-22T11:25:15.139Z</time></trkpt><trkpt lat="43.4421617" lon="11.558685"><ele>593.0</ele><time>2026-04-22T11:25:16.138Z</time></trkpt><trkpt lat="43.4420317" lon="11.5587467"><ele>593.0</ele><time>2026-04-22T11:25:17.138Z</time></trkpt><trkpt lat="43.4419017" lon="11.5588133"><ele>593.0</ele><time>2026-04-22T11:25:18.135Z</time></trkpt><trkpt lat="43.4417833" lon="11.5588733"><ele>593.6</ele><time>2026-04-22T11:25:19.139Z</time></trkpt><trkpt lat="43.44168" lon="11.5589267"><ele>594.1999999999999</ele><time>2026-04-22T11:25:20.138Z</time></trkpt><trkpt lat="43.44159" lon="11.5589883"><ele>594.8</ele><time>2026-04-22T11:25:21.139Z</time></trkpt><trkpt lat="43.4415117" lon="11.559065"><ele>595.4</ele><time>2026-04-22T11:25:22.136Z</time></trkpt><trkpt lat="43.4414383" lon="11.559155"><ele>596.0</ele><time>2026-04-22T11:25:23.131Z</time></trkpt><trkpt lat="43.4413717" lon="11.5592783"><ele>596.0</ele><time>2026-04-22T11:25:24.132Z</time></trkpt><trkpt lat="43.4413183" lon="11.5594217"><ele>596.0</ele><time>2026-04-22T11:25:25.137Z</time></trkpt><trkpt lat="43.44126" lon="11.5595717"><ele>596.0</ele><time>2026-04-22T11:25:26.135Z</time></trkpt><trkpt lat="43.4412083" lon="11.5597283"><ele>596.0</ele><time>2026-04-22T11:25:27.139Z</time></trkpt><trkpt lat="43.4411533" lon="11.5598767"><ele>595.25</ele><time>2026-04-22T11:25:28.137Z</time></trkpt><trkpt lat="43.4411033" lon="11.5600267"><ele>594.5</ele><time>2026-04-22T11:25:29.135Z</time></trkpt><trkpt lat="43.441055" lon="11.5601833"><ele>593.75</ele><time>2026-04-22T11:25:30.136Z</time></trkpt><trkpt lat="43.4410167" lon="11.56033"><ele>593.0</ele><time>2026-04-22T11:25:31.136Z</time></trkpt><trkpt lat="43.4409933" lon="11.5604683"><ele>593.0</ele><time>2026-04-22T11:25:32.138Z</time></trkpt><trkpt lat="43.4409883" lon="11.56061"><ele>593.0</ele><time>2026-04-22T11:25:33.135Z</time></trkpt><trkpt lat="43.4409783" lon="11.5607333"><ele>593.0</ele><time>2026-04-22T11:25:34.134Z</time></trkpt><trkpt lat="43.4409733" lon="11.5608433"><ele>593.0</ele><time>2026-04-22T11:25:35.135Z</time></trkpt><trkpt lat="43.440955" lon="11.56094"><ele>593.0</ele><time>2026-04-22T11:25:36.137Z</time></trkpt><trkpt lat="43.4409083" lon="11.5610133"><ele>593.0</ele><time>2026-04-22T11:25:37.138Z</time></trkpt><trkpt lat="43.440835" lon="11.561065"><ele>593.0</ele><time>2026-04-22T11:25:38.135Z</time></trkpt><trkpt lat="43.4407417" lon="11.5611"><ele>593.0</ele><time>2026-04-22T11:25:39.137Z</time></trkpt><trkpt lat="43.4406483" lon="11.5611067"><ele>593.0</ele><time>2026-04-22T11:25:40.137Z</time></trkpt><trkpt lat="43.44056" lon="11.5610783"><ele>593.0</ele><time>2026-04-22T11:25:41.137Z</time></trkpt><trkpt lat="43.4404733" lon="11.5610333"><ele>593.0</ele><time>2026-04-22T11:25:42.138Z</time></trkpt><trkpt lat="43.4403833" lon="11.5609483"><ele>594.6</ele><time>2026-04-22T11:25:43.132Z</time></trkpt><trkpt lat="43.440295" lon="11.5608233"><ele>596.1999999999999</ele><time>2026-04-22T11:25:44.137Z</time></trkpt><trkpt lat="43.4402217" lon="11.5607017"><ele>597.8</ele><time>2026-04-22T11:25:45.139Z</time></trkpt><trkpt lat="43.44016" lon="11.5605883"><ele>599.4</ele><time>2026-04-22T11:25:46.137Z</time></trkpt><trkpt lat="43.4400983" lon="11.5604817"><ele>601.0</ele><time>2026-04-22T11:25:47.138Z</time></trkpt><trkpt lat="43.4400267" lon="11.56039"><ele>600.0</ele><time>2026-04-22T11:25:48.133Z</time></trkpt><trkpt lat="43.4399467" lon="11.560315"><ele>599.0</ele><time>2026-04-22T11:25:49.137Z</time></trkpt><trkpt lat="43.4398567" lon="11.5602533"><ele>598.0</ele><time>2026-04-22T11:25:50.138Z</time></trkpt><trkpt lat="43.4397717" lon="11.560195"><ele>597.0</ele><time>2026-04-22T11:25:51.137Z</time></trkpt><trkpt lat="43.4397017" lon="11.56012"><ele>596.0</ele><time>2026-04-22T11:25:52.138Z</time></trkpt><trkpt lat="43.439645" lon="11.5600117"><ele>599.0</ele><time>2026-04-22T11:25:53.137Z</time></trkpt><trkpt lat="43.4395967" lon="11.5598883"><ele>602.0</ele><time>2026-04-22T11:25:54.137Z</time></trkpt><trkpt lat="43.4395583" lon="11.559765"><ele>605.0</ele><time>2026-04-22T11:25:55.138Z</time></trkpt><trkpt lat="43.43953" lon="11.5596683"><ele>608.0</ele><time>2026-04-22T11:25:56.137Z</time></trkpt><trkpt lat="43.43949" lon="11.55958"><ele>611.0</ele><time>2026-04-22T11:25:57.138Z</time></trkpt><trkpt lat="43.4394283" lon="11.5595067"><ele>614.0</ele><time>2026-04-22T11:25:58.138Z</time></trkpt><trkpt lat="43.43936" lon="11.5594283"><ele>614.1666666666666</ele><time>2026-04-22T11:25:59.137Z</time></trkpt><trkpt lat="43.4392883" lon="11.559355"><ele>614.3333333333333</ele><time>2026-04-22T11:26:00.136Z</time></trkpt><trkpt lat="43.4392083" lon="11.5592967"><ele>614.5</ele><time>2026-04-22T11:26:01.139Z</time></trkpt><trkpt lat="43.4391483" lon="11.5592333"><ele>614.6666666666666</ele><time>2026-04-22T11:26:02.138Z</time></trkpt><trkpt lat="43.4390967" lon="11.5591667"><ele>614.8333333333334</ele><time>2026-04-22T11:26:03.138Z</time></trkpt><trkpt lat="43.438995" lon="11.5591033"><ele>615.0</ele><time>2026-04-22T11:26:05.138Z</time></trkpt><trkpt lat="43.4388783" lon="11.55915"><ele>615.0</ele><time>2026-04-22T11:26:07.139Z</time></trkpt><trkpt lat="43.438805" lon="11.559175"><ele>615.0</ele><time>2026-04-22T11:26:08.139Z</time></trkpt><trkpt lat="43.4387317" lon="11.55918"><ele>615.0</ele><time>2026-04-22T11:26:09.139Z</time></trkpt><trkpt lat="43.4386583" lon="11.5591583"><ele>615.0</ele><time>2026-04-22T11:26:10.137Z</time></trkpt><trkpt lat="43.4385933" lon="11.559115"><ele>615.0</ele><time>2026-04-22T11:26:11.136Z</time></trkpt><trkpt lat="43.438535" lon="11.5590517"><ele>615.0</ele><time>2026-04-22T11:26:12.137Z</time></trkpt><trkpt lat="43.4384667" lon="11.5590033"><ele>615.0</ele><time>2026-04-22T11:26:13.136Z</time></trkpt><trkpt lat="43.4383867" lon="11.55897"><ele>613.8333333333334</ele><time>2026-04-22T11:26:14.137Z</time></trkpt><trkpt lat="43.4383033" lon="11.5589467"><ele>612.6666666666666</ele><time>2026-04-22T11:26:15.139Z</time></trkpt><trkpt lat="43.43822" lon="11.5589183"><ele>611.5</ele><time>2026-04-22T11:26:16.138Z</time></trkpt><trkpt lat="43.4381433" lon="11.5588767"><ele>610.3333333333333</ele><time>2026-04-22T11:26:17.137Z</time></trkpt><trkpt lat="43.4380733" lon="11.55883"><ele>609.1666666666666</ele><time>2026-04-22T11:26:18.138Z</time></trkpt><trkpt lat="43.4379933" lon="11.55879"><ele>608.0</ele><time>2026-04-22T11:26:19.137Z</time></trkpt><trkpt lat="43.4379067" lon="11.5587533"><ele>607.8333333333333</ele><time>2026-04-22T11:26:20.137Z</time></trkpt><trkpt lat="43.43783" lon="11.55872"><ele>607.6666666666666</ele><time>2026-04-22T11:26:21.139Z</time></trkpt><trkpt lat="43.437765" lon="11.5586833"><ele>607.5</ele><time>2026-04-22T11:26:22.138Z</time></trkpt><trkpt lat="43.4377017" lon="11.5586433"><ele>607.3333333333334</ele><time>2026-04-22T11:26:23.137Z</time></trkpt><trkpt lat="43.43761" lon="11.5585567"><ele>607.1666666666667</ele><time>2026-04-22T11:26:25.145Z</time></trkpt><trkpt lat="43.43756" lon="11.558495"><ele>607.0</ele><time>2026-04-22T11:26:27.139Z</time></trkpt><trkpt lat="43.437475" lon="11.5585983"><ele>607.0</ele><time>2026-04-22T11:26:30.138Z</time></trkpt><trkpt lat="43.43744" lon="11.558675"><ele>607.0</ele><time>2026-04-22T11:26:31.137Z</time></trkpt><trkpt lat="43.4373883" lon="11.5587517"><ele>607.0</ele><time>2026-04-22T11:26:32.139Z</time></trkpt><trkpt lat="43.43732" lon="11.558825"><ele>607.0</ele><time>2026-04-22T11:26:33.139Z</time></trkpt><trkpt lat="43.43725" lon="11.5588917"><ele>607.0</ele><time>2026-04-22T11:26:34.139Z</time></trkpt><trkpt lat="43.4371733" lon="11.5589517"><ele>607.0</ele><time>2026-04-22T11:26:35.139Z</time></trkpt><trkpt lat="43.4371" lon="11.5590083"><ele>606.3333333333334</ele><time>2026-04-22T11:26:36.137Z</time></trkpt><trkpt lat="43.4370317" lon="11.55906"><ele>605.6666666666667</ele><time>2026-04-22T11:26:37.133Z</time></trkpt><trkpt lat="43.4369633" lon="11.55911"><ele>605.0</ele><time>2026-04-22T11:26:38.137Z</time></trkpt><trkpt lat="43.4369033" lon="11.5591717"><ele>604.3333333333334</ele><time>2026-04-22T11:26:39.139Z</time></trkpt><trkpt lat="43.4368383" lon="11.559245"><ele>603.6666666666666</ele><time>2026-04-22T11:26:40.139Z</time></trkpt><trkpt lat="43.4367717" lon="11.5593083"><ele>603.0</ele><time>2026-04-22T11:26:41.137Z</time></trkpt><trkpt lat="43.4367017" lon="11.5593633"><ele>603.0</ele><time>2026-04-22T11:26:42.138Z</time></trkpt><trkpt lat="43.4366283" lon="11.5594033"><ele>603.0</ele><time>2026-04-22T11:26:43.141Z</time></trkpt><trkpt lat="43.4365567" lon="11.55943"><ele>603.0</ele><time>2026-04-22T11:26:44.139Z</time></trkpt><trkpt lat="43.4364867" lon="11.5594383"><ele>603.0</ele><time>2026-04-22T11:26:45.138Z</time></trkpt><trkpt lat="43.43641" lon="11.559425"><ele>603.0</ele><time>2026-04-22T11:26:46.139Z</time></trkpt><trkpt lat="43.4363383" lon="11.5593817"><ele>603.0</ele><time>2026-04-22T11:26:47.133Z</time></trkpt><trkpt lat="43.4362617" lon="11.5593283"><ele>602.8333333333334</ele><time>2026-04-22T11:26:48.138Z</time></trkpt><trkpt lat="43.436185" lon="11.5592617"><ele>602.6666666666666</ele><time>2026-04-22T11:26:49.136Z</time></trkpt><trkpt lat="43.4361067" lon="11.559195"><ele>602.5</ele><time>2026-04-22T11:26:50.137Z</time></trkpt><trkpt lat="43.4360333" lon="11.5591417"><ele>602.3333333333333</ele><time>2026-04-22T11:26:51.138Z</time></trkpt><trkpt lat="43.43597" lon="11.559085"><ele>602.1666666666666</ele><time>2026-04-22T11:26:52.138Z</time></trkpt><trkpt lat="43.4359017" lon="11.5589883"><ele>602.0</ele><time>2026-04-22T11:26:54.136Z</time></trkpt><trkpt lat="43.4358383" lon="11.5590017"><ele>602.0</ele><time>2026-04-22T11:26:56.138Z</time></trkpt><trkpt lat="43.4358083" lon="11.5591617"><ele>602.0</ele><time>2026-04-22T11:26:58.138Z</time></trkpt><trkpt lat="43.43581" lon="11.559275"><ele>602.0</ele><time>2026-04-22T11:26:59.138Z</time></trkpt><trkpt lat="43.4358183" lon="11.5594067"><ele>602.0</ele><time>2026-04-22T11:27:00.138Z</time></trkpt><trkpt lat="43.4358317" lon="11.5595317"><ele>602.0</ele><time>2026-04-22T11:27:01.138Z</time></trkpt><trkpt lat="43.4358267" lon="11.5596583"><ele>601.1666666666666</ele><time>2026-04-22T11:27:02.138Z</time></trkpt><trkpt lat="43.4358117" lon="11.5597783"><ele>600.3333333333333</ele><time>2026-04-22T11:27:03.14Z</time></trkpt><trkpt lat="43.4357833" lon="11.5598817"><ele>599.5</ele><time>2026-04-22T11:27:04.138Z</time></trkpt><trkpt lat="43.4357467" lon="11.5599583"><ele>598.6666666666666</ele><time>2026-04-22T11:27:05.137Z</time></trkpt><trkpt lat="43.43563" lon="11.5600267"><ele>597.8333333333334</ele><time>2026-04-22T11:27:07.137Z</time></trkpt><trkpt lat="43.435565" lon="11.5600417"><ele>597.0</ele><time>2026-04-22T11:27:08.138Z</time></trkpt><trkpt lat="43.4354883" lon="11.5601633"><ele>597.0</ele><time>2026-04-22T11:27:10.137Z</time></trkpt><trkpt lat="43.4354717" lon="11.56027"><ele>597.0</ele><time>2026-04-22T11:27:11.137Z</time></trkpt><trkpt lat="43.4354617" lon="11.5604"><ele>597.0</ele><time>2026-04-22T11:27:12.138Z</time></trkpt><trkpt lat="43.43544" lon="11.560545"><ele>597.0</ele><time>2026-04-22T11:27:13.138Z</time></trkpt><trkpt lat="43.4354283" lon="11.5606833"><ele>597.0</ele><time>2026-04-22T11:27:14.139Z</time></trkpt><trkpt lat="43.4354117" lon="11.560815"><ele>598.6666666666666</ele><time>2026-04-22T11:27:15.132Z</time></trkpt><trkpt lat="43.4353917" lon="11.560945"><ele>600.3333333333334</ele><time>2026-04-22T11:27:16.138Z</time></trkpt><trkpt lat="43.4353617" lon="11.5610583"><ele>602.0</ele><time>2026-04-22T11:27:17.138Z</time></trkpt><trkpt lat="43.4353117" lon="11.561145"><ele>603.6666666666667</ele><time>2026-04-22T11:27:18.138Z</time></trkpt><trkpt lat="43.4352683" lon="11.56123"><ele>605.3333333333334</ele><time>2026-04-22T11:27:19.138Z</time></trkpt><trkpt lat="43.43521" lon="11.5613017"><ele>607.0</ele><time>2026-04-22T11:27:20.137Z</time></trkpt><trkpt lat="43.43514" lon="11.5613683"><ele>607.0</ele><time>2026-04-22T11:27:21.137Z</time></trkpt><trkpt lat="43.4350483" lon="11.561435"><ele>607.0</ele><time>2026-04-22T11:27:22.138Z</time></trkpt><trkpt lat="43.4349717" lon="11.5614917"><ele>607.0</ele><time>2026-04-22T11:27:23.137Z</time></trkpt><trkpt lat="43.4348867" lon="11.561535"><ele>607.0</ele><time>2026-04-22T11:27:24.134Z</time></trkpt><trkpt lat="43.4347983" lon="11.5615617"><ele>607.0</ele><time>2026-04-22T11:27:25.137Z</time></trkpt><trkpt lat="43.4346967" lon="11.561565"><ele>607.6</ele><time>2026-04-22T11:27:26.139Z</time></trkpt><trkpt lat="43.4346" lon="11.56156"><ele>608.2</ele><time>2026-04-22T11:27:27.139Z</time></trkpt><trkpt lat="43.4345067" lon="11.561555"><ele>608.8</ele><time>2026-04-22T11:27:28.139Z</time></trkpt><trkpt lat="43.43441" lon="11.561585"><ele>609.4</ele><time>2026-04-22T11:27:29.138Z</time></trkpt><trkpt lat="43.4343167" lon="11.5616067"><ele>610.0</ele><time>2026-04-22T11:27:30.138Z</time></trkpt><trkpt lat="43.4342233" lon="11.5616183"><ele>610.0</ele><time>2026-04-22T11:27:31.136Z</time></trkpt><trkpt lat="43.434145" lon="11.5616117"><ele>610.0</ele><time>2026-04-22T11:27:32.136Z</time></trkpt><trkpt lat="43.43408" lon="11.5615983"><ele>610.0</ele><time>2026-04-22T11:27:33.137Z</time></trkpt><trkpt lat="43.4339517" lon="11.5616467"><ele>610.0</ele><time>2026-04-22T11:27:35.137Z</time></trkpt><trkpt lat="43.4338667" lon="11.5617167"><ele>610.0</ele><time>2026-04-22T11:27:36.138Z</time></trkpt><trkpt lat="43.4338033" lon="11.5617767"><ele>610.8</ele><time>2026-04-22T11:27:37.137Z</time></trkpt><trkpt lat="43.4337383" lon="11.5618983"><ele>611.6</ele><time>2026-04-22T11:27:39.137Z</time></trkpt><trkpt lat="43.4337183" lon="11.561985"><ele>612.4</ele><time>2026-04-22T11:27:40.137Z</time></trkpt><trkpt lat="43.4336917" lon="11.5620917"><ele>613.2</ele><time>2026-04-22T11:27:41.137Z</time></trkpt><trkpt lat="43.433665" lon="11.56222"><ele>614.0</ele><time>2026-04-22T11:27:42.138Z</time></trkpt><trkpt lat="43.43364" lon="11.5623533"><ele>614.2</ele><time>2026-04-22T11:27:43.137Z</time></trkpt><trkpt lat="43.4336183" lon="11.5624733"><ele>614.4</ele><time>2026-04-22T11:27:44.137Z</time></trkpt><trkpt lat="43.4335967" lon="11.5625967"><ele>614.6</ele><time>2026-04-22T11:27:45.137Z</time></trkpt><trkpt lat="43.4335717" lon="11.5627267"><ele>614.8</ele><time>2026-04-22T11:27:46.137Z</time></trkpt><trkpt lat="43.4335517" lon="11.5628767"><ele>615.0</ele><time>2026-04-22T11:27:47.142Z</time></trkpt><trkpt lat="43.4335367" lon="11.5630317"><ele>615.2</ele><time>2026-04-22T11:27:48.138Z</time></trkpt><trkpt lat="43.433525" lon="11.5631683"><ele>615.4</ele><time>2026-04-22T11:27:49.137Z</time></trkpt><trkpt lat="43.43352" lon="11.5632933"><ele>615.6</ele><time>2026-04-22T11:27:50.137Z</time></trkpt><trkpt lat="43.43354" lon="11.56341"><ele>615.8</ele><time>2026-04-22T11:27:51.139Z</time></trkpt><trkpt lat="43.433585" lon="11.5635233"><ele>616.0</ele><time>2026-04-22T11:27:52.136Z</time></trkpt><trkpt lat="43.4336367" lon="11.56363"><ele>616.6</ele><time>2026-04-22T11:27:53.138Z</time></trkpt><trkpt lat="43.4336833" lon="11.5637317"><ele>617.2</ele><time>2026-04-22T11:27:54.137Z</time></trkpt><trkpt lat="43.4337233" lon="11.5638467"><ele>617.8</ele><time>2026-04-22T11:27:55.139Z</time></trkpt><trkpt lat="43.43375" lon="11.5639717"><ele>618.4</ele><time>2026-04-22T11:27:56.138Z</time></trkpt><trkpt lat="43.4337683" lon="11.5641017"><ele>619.0</ele><time>2026-04-22T11:27:57.14Z</time></trkpt><trkpt lat="43.43379" lon="11.5642267"><ele>619.0</ele><time>2026-04-22T11:27:58.138Z</time></trkpt><trkpt lat="43.4337983" lon="11.5643467"><ele>619.0</ele><time>2026-04-22T11:27:59.136Z</time></trkpt><trkpt lat="43.4338017" lon="11.5644583"><ele>619.0</ele><time>2026-04-22T11:28:00.138Z</time></trkpt><trkpt lat="43.4338117" lon="11.5645567"><ele>619.0</ele><time>2026-04-22T11:28:01.139Z</time></trkpt><trkpt lat="43.433815" lon="11.56465"><ele>619.0</ele><time>2026-04-22T11:28:02.137Z</time></trkpt><trkpt lat="43.433795" lon="11.5647383"><ele>619.0</ele><time>2026-04-22T11:28:03.14Z</time></trkpt><trkpt lat="43.433755" lon="11.56482"><ele>619.0</ele><time>2026-04-22T11:28:04.138Z</time></trkpt><trkpt lat="43.4337067" lon="11.5649033"><ele>617.8571428571429</ele><time>2026-04-22T11:28:05.137Z</time></trkpt><trkpt lat="43.4336467" lon="11.564985"><ele>616.7142857142858</ele><time>2026-04-22T11:28:06.139Z</time></trkpt><trkpt lat="43.4335833" lon="11.56506"><ele>615.5714285714287</ele><time>2026-04-22T11:28:07.142Z</time></trkpt><trkpt lat="43.4335317" lon="11.5651283"><ele>614.4285714285714</ele><time>2026-04-22T11:28:08.139Z</time></trkpt><trkpt lat="43.4334783" lon="11.5651817"><ele>613.2857142857143</ele><time>2026-04-22T11:28:09.135Z</time></trkpt><trkpt lat="43.4334317" lon="11.5652483"><ele>612.1428571428572</ele><time>2026-04-22T11:28:10.139Z</time></trkpt><trkpt lat="43.43339" lon="11.565325"><ele>611.0</ele><time>2026-04-22T11:28:11.138Z</time></trkpt><trkpt lat="43.43335" lon="11.5654117"><ele>607.6666666666666</ele><time>2026-04-22T11:28:12.138Z</time></trkpt><trkpt lat="43.4333067" lon="11.5655067"><ele>604.3333333333333</ele><time>2026-04-22T11:28:13.139Z</time></trkpt><trkpt lat="43.43326" lon="11.5656017"><ele>601.0</ele><time>2026-04-22T11:28:14.139Z</time></trkpt><trkpt lat="43.4332167" lon="11.5656917"><ele>597.6666666666666</ele><time>2026-04-22T11:28:15.139Z</time></trkpt><trkpt lat="43.4331717" lon="11.5657867"><ele>594.3333333333334</ele><time>2026-04-22T11:28:16.139Z</time></trkpt><trkpt lat="43.43313" lon="11.5658983"><ele>591.0</ele><time>2026-04-22T11:28:17.138Z</time></trkpt><trkpt lat="43.4330867" lon="11.5660033"><ele>591.0</ele><time>2026-04-22T11:28:18.138Z</time></trkpt><trkpt lat="43.4330333" lon="11.5661267"><ele>591.0</ele><time>2026-04-22T11:28:19.138Z</time></trkpt><trkpt lat="43.4329733" lon="11.5662483"><ele>591.0</ele><time>2026-04-22T11:28:20.138Z</time></trkpt><trkpt lat="43.4329333" lon="11.56638"><ele>591.0</ele><time>2026-04-22T11:28:21.139Z</time></trkpt><trkpt lat="43.4328683" lon="11.5664767"><ele>591.0</ele><time>2026-04-22T11:28:22.138Z</time></trkpt><trkpt lat="43.4328217" lon="11.566585"><ele>592.6666666666666</ele><time>2026-04-22T11:28:23.137Z</time></trkpt><trkpt lat="43.432795" lon="11.5666967"><ele>594.3333333333334</ele><time>2026-04-22T11:28:24.138Z</time></trkpt><trkpt lat="43.432775" lon="11.566815"><ele>596.0</ele><time>2026-04-22T11:28:25.138Z</time></trkpt><trkpt lat="43.4327733" lon="11.5669317"><ele>597.6666666666667</ele><time>2026-04-22T11:28:26.139Z</time></trkpt><trkpt lat="43.4327683" lon="11.567035"><ele>599.3333333333334</ele><time>2026-04-22T11:28:27.138Z</time></trkpt><trkpt lat="43.4327533" lon="11.5671417"><ele>601.0</ele><time>2026-04-22T11:28:28.137Z</time></trkpt><trkpt lat="43.4327433" lon="11.5672717"><ele>601.6</ele><time>2026-04-22T11:28:29.137Z</time></trkpt><trkpt lat="43.432725" lon="11.5674083"><ele>602.2</ele><time>2026-04-22T11:28:30.138Z</time></trkpt><trkpt lat="43.4327133" lon="11.5675417"><ele>602.8</ele><time>2026-04-22T11:28:31.139Z</time></trkpt><trkpt lat="43.4326983" lon="11.5676583"><ele>603.4</ele><time>2026-04-22T11:28:32.138Z</time></trkpt><trkpt lat="43.4326833" lon="11.5677733"><ele>604.0</ele><time>2026-04-22T11:28:33.138Z</time></trkpt><trkpt lat="43.4326617" lon="11.5678833"><ele>604.5</ele><time>2026-04-22T11:28:34.139Z</time></trkpt><trkpt lat="43.432645" lon="11.567995"><ele>605.0</ele><time>2026-04-22T11:28:35.137Z</time></trkpt><trkpt lat="43.43263" lon="11.5681083"><ele>605.5</ele><time>2026-04-22T11:28:36.137Z</time></trkpt><trkpt lat="43.4326183" lon="11.5682183"><ele>606.0</ele><time>2026-04-22T11:28:37.138Z</time></trkpt><trkpt lat="43.4326117" lon="11.5683317"><ele>606.5</ele><time>2026-04-22T11:28:38.138Z</time></trkpt><trkpt lat="43.432605" lon="11.5684417"><ele>607.0</ele><time>2026-04-22T11:28:39.138Z</time></trkpt><trkpt lat="43.4326183" lon="11.5685517"><ele>607.0</ele><time>2026-04-22T11:28:40.138Z</time></trkpt><trkpt lat="43.4326383" lon="11.5686533"><ele>607.0</ele><time>2026-04-22T11:28:41.137Z</time></trkpt><trkpt lat="43.4326417" lon="11.5687533"><ele>607.0</ele><time>2026-04-22T11:28:42.136Z</time></trkpt><trkpt lat="43.43265" lon="11.5688667"><ele>607.0</ele><time>2026-04-22T11:28:43.136Z</time></trkpt><trkpt lat="43.43267" lon="11.569005"><ele>607.0</ele><time>2026-04-22T11:28:44.138Z</time></trkpt><trkpt lat="43.4327" lon="11.569135"><ele>607.0</ele><time>2026-04-22T11:28:45.137Z</time></trkpt><trkpt lat="43.432725" lon="11.569245"><ele>606.2</ele><time>2026-04-22T11:28:46.138Z</time></trkpt><trkpt lat="43.432735" lon="11.5693417"><ele>605.4000000000001</ele><time>2026-04-22T11:28:47.138Z</time></trkpt><trkpt lat="43.4327433" lon="11.5694283"><ele>604.5999999999999</ele><time>2026-04-22T11:28:48.137Z</time></trkpt><trkpt lat="43.4326983" lon="11.569515"><ele>603.8</ele><time>2026-04-22T11:28:50.136Z</time></trkpt><trkpt lat="43.4325567" lon="11.56951"><ele>603.0</ele><time>2026-04-22T11:28:52.136Z</time></trkpt><trkpt lat="43.4324583" lon="11.5694817"><ele>603.0</ele><time>2026-04-22T11:28:53.138Z</time></trkpt><trkpt lat="43.4323617" lon="11.5694417"><ele>603.0</ele><time>2026-04-22T11:28:54.137Z</time></trkpt><trkpt lat="43.432275" lon="11.5693983"><ele>603.0</ele><time>2026-04-22T11:28:55.137Z</time></trkpt><trkpt lat="43.4322083" lon="11.5693483"><ele>603.0</ele><time>2026-04-22T11:28:56.136Z</time></trkpt><trkpt lat="43.4321433" lon="11.5693183"><ele>603.0</ele><time>2026-04-22T11:28:57.141Z</time></trkpt><trkpt lat="43.432075" lon="11.569305"><ele>603.0</ele><time>2026-04-22T11:28:58.137Z</time></trkpt><trkpt lat="43.4320067" lon="11.5693283"><ele>605.4</ele><time>2026-04-22T11:28:59.136Z</time></trkpt><trkpt lat="43.4319433" lon="11.56936"><ele>607.8</ele><time>2026-04-22T11:29:00.136Z</time></trkpt><trkpt lat="43.4318733" lon="11.5693767"><ele>610.2</ele><time>2026-04-22T11:29:01.139Z</time></trkpt><trkpt lat="43.431785" lon="11.5693233"><ele>612.6</ele><time>2026-04-22T11:29:02.137Z</time></trkpt><trkpt lat="43.4316967" lon="11.5692383"><ele>615.0</ele><time>2026-04-22T11:29:03.138Z</time></trkpt><trkpt lat="43.4315967" lon="11.5691533"><ele>615.0</ele><time>2026-04-22T11:29:04.139Z</time></trkpt><trkpt lat="43.4314933" lon="11.5690667"><ele>615.0</ele><time>2026-04-22T11:29:05.137Z</time></trkpt><trkpt lat="43.431395" lon="11.5689867"><ele>615.0</ele><time>2026-04-22T11:29:06.137Z</time></trkpt><trkpt lat="43.4312967" lon="11.5689167"><ele>615.0</ele><time>2026-04-22T11:29:07.137Z</time></trkpt><trkpt lat="43.4312067" lon="11.5688617"><ele>615.0</ele><time>2026-04-22T11:29:08.137Z</time></trkpt><trkpt lat="43.431115" lon="11.5688267"><ele>614.2</ele><time>2026-04-22T11:29:09.137Z</time></trkpt><trkpt lat="43.431015" lon="11.5688233"><ele>613.4</ele><time>2026-04-22T11:29:10.138Z</time></trkpt><trkpt lat="43.4309133" lon="11.56884"><ele>612.6</ele><time>2026-04-22T11:29:11.137Z</time></trkpt><trkpt lat="43.4308183" lon="11.5688483"><ele>611.8</ele><time>2026-04-22T11:29:12.136Z</time></trkpt><trkpt lat="43.4307317" lon="11.56883"><ele>611.0</ele><time>2026-04-22T11:29:13.139Z</time></trkpt><trkpt lat="43.4306483" lon="11.5687967"><ele>611.0</ele><time>2026-04-22T11:29:14.136Z</time></trkpt><trkpt lat="43.4305633" lon="11.5687433"><ele>611.0</ele><time>2026-04-22T11:29:15.139Z</time></trkpt><trkpt lat="43.4304783" lon="11.568685"><ele>611.0</ele><time>2026-04-22T11:29:16.137Z</time></trkpt><trkpt lat="43.4304017" lon="11.568615"><ele>611.0</ele><time>2026-04-22T11:29:17.136Z</time></trkpt><trkpt lat="43.4303383" lon="11.568535"><ele>611.0</ele><time>2026-04-22T11:29:18.137Z</time></trkpt><trkpt lat="43.43028" lon="11.5684467"><ele>614.75</ele><time>2026-04-22T11:29:19.137Z</time></trkpt><trkpt lat="43.43022" lon="11.5683217"><ele>618.5</ele><time>2026-04-22T11:29:20.137Z</time></trkpt><trkpt lat="43.430145" lon="11.5681717"><ele>622.25</ele><time>2026-04-22T11:29:21.137Z</time></trkpt><trkpt lat="43.43007" lon="11.5680183"><ele>626.0</ele><time>2026-04-22T11:29:22.136Z</time></trkpt><trkpt lat="43.4300017" lon="11.5678717"><ele>628.0</ele><time>2026-04-22T11:29:23.136Z</time></trkpt><trkpt lat="43.4299383" lon="11.5677283"><ele>630.0</ele><time>2026-04-22T11:29:24.138Z</time></trkpt><trkpt lat="43.429875" lon="11.5675883"><ele>632.0</ele><time>2026-04-22T11:29:25.137Z</time></trkpt><trkpt lat="43.4298233" lon="11.5674667"><ele>634.0</ele><time>2026-04-22T11:29:26.137Z</time></trkpt><trkpt lat="43.4297717" lon="11.56736"><ele>636.0</ele><time>2026-04-22T11:29:27.138Z</time></trkpt><trkpt lat="43.42972" lon="11.5672517"><ele>636.0</ele><time>2026-04-22T11:29:28.136Z</time></trkpt><trkpt lat="43.429665" lon="11.56715"><ele>636.0</ele><time>2026-04-22T11:29:29.136Z</time></trkpt><trkpt lat="43.4296117" lon="11.5670517"><ele>636.0</ele><time>2026-04-22T11:29:30.136Z</time></trkpt><trkpt lat="43.4295633" lon="11.566955"><ele>636.0</ele><time>2026-04-22T11:29:31.137Z</time></trkpt><trkpt lat="43.4295367" lon="11.5668383"><ele>636.0</ele><time>2026-04-22T11:29:32.136Z</time></trkpt><trkpt lat="43.4295483" lon="11.5667117"><ele>636.0</ele><time>2026-04-22T11:29:33.137Z</time></trkpt><trkpt lat="43.429555" lon="11.5665983"><ele>632.6</ele><time>2026-04-22T11:29:34.137Z</time></trkpt><trkpt lat="43.429565" lon="11.5664883"><ele>629.2</ele><time>2026-04-22T11:29:35.137Z</time></trkpt><trkpt lat="43.4295617" lon="11.56637"><ele>625.8</ele><time>2026-04-22T11:29:36.136Z</time></trkpt><trkpt lat="43.4295117" lon="11.5662383"><ele>622.4</ele><time>2026-04-22T11:29:37.137Z</time></trkpt><trkpt lat="43.4294583" lon="11.5661"><ele>619.0</ele><time>2026-04-22T11:29:38.138Z</time></trkpt><trkpt lat="43.4294083" lon="11.5659733"><ele>619.0</ele><time>2026-04-22T11:29:39.137Z</time></trkpt><trkpt lat="43.42936" lon="11.565855"><ele>619.0</ele><time>2026-04-22T11:29:40.135Z</time></trkpt><trkpt lat="43.4293133" lon="11.565735"><ele>619.0</ele><time>2026-04-22T11:29:41.136Z</time></trkpt><trkpt lat="43.4292533" lon="11.56562"><ele>619.0</ele><time>2026-04-22T11:29:42.136Z</time></trkpt><trkpt lat="43.42919" lon="11.5655117"><ele>619.0</ele><time>2026-04-22T11:29:43.137Z</time></trkpt><trkpt lat="43.4291233" lon="11.5654083"><ele>619.0</ele><time>2026-04-22T11:29:44.135Z</time></trkpt><trkpt lat="43.4290567" lon="11.565315"><ele>619.0</ele><time>2026-04-22T11:29:45.138Z</time></trkpt><trkpt lat="43.4290033" lon="11.56524"><ele>619.0</ele><time>2026-04-22T11:29:46.137Z</time></trkpt><trkpt lat="43.4289567" lon="11.56512"><ele>619.0</ele><time>2026-04-22T11:29:48.137Z</time></trkpt><trkpt lat="43.4290317" lon="11.5650633"><ele>619.0</ele><time>2026-04-22T11:29:50.136Z</time></trkpt><trkpt lat="43.4291117" lon="11.5650733"><ele>619.0</ele><time>2026-04-22T11:29:51.139Z</time></trkpt><trkpt lat="43.4292133" lon="11.5650933"><ele>619.0</ele><time>2026-04-22T11:29:52.137Z</time></trkpt><trkpt lat="43.42934" lon="11.5651467"><ele>619.0</ele><time>2026-04-22T11:29:53.135Z</time></trkpt><trkpt lat="43.4294733" lon="11.565205"><ele>619.0</ele><time>2026-04-22T11:29:54.141Z</time></trkpt><trkpt lat="43.4296017" lon="11.565245"><ele>619.0</ele><time>2026-04-22T11:29:55.138Z</time></trkpt><trkpt lat="43.4297283" lon="11.5652783"><ele>619.2</ele><time>2026-04-22T11:29:56.136Z</time></trkpt><trkpt lat="43.429835" lon="11.56529"><ele>619.4</ele><time>2026-04-22T11:29:57.138Z</time></trkpt><trkpt lat="43.4299367" lon="11.5652767"><ele>619.6</ele><time>2026-04-22T11:29:58.136Z</time></trkpt><trkpt lat="43.430015" lon="11.5652333"><ele>619.8</ele><time>2026-04-22T11:29:59.135Z</time></trkpt><trkpt lat="43.4300883" lon="11.565175"><ele>620.0</ele><time>2026-04-22T11:30:00.137Z</time></trkpt><trkpt lat="43.4301483" lon="11.5651067"><ele>620.0</ele><time>2026-04-22T11:30:01.138Z</time></trkpt><trkpt lat="43.4301983" lon="11.5650333"><ele>620.0</ele><time>2026-04-22T11:30:02.136Z</time></trkpt><trkpt lat="43.4302533" lon="11.5649617"><ele>620.0</ele><time>2026-04-22T11:30:03.138Z</time></trkpt><trkpt lat="43.43032" lon="11.564905"><ele>620.0</ele><time>2026-04-22T11:30:04.138Z</time></trkpt><trkpt lat="43.4304017" lon="11.5648867"><ele>620.0</ele><time>2026-04-22T11:30:05.136Z</time></trkpt><trkpt lat="43.4304883" lon="11.5648867"><ele>620.0</ele><time>2026-04-22T11:30:06.136Z</time></trkpt><trkpt lat="43.4305983" lon="11.5649383"><ele>621.0</ele><time>2026-04-22T11:30:07.137Z</time></trkpt><trkpt lat="43.4307083" lon="11.5649817"><ele>622.0</ele><time>2026-04-22T11:30:08.137Z</time></trkpt><trkpt lat="43.4308167" lon="11.56501"><ele>623.0</ele><time>2026-04-22T11:30:09.138Z</time></trkpt><trkpt lat="43.4309133" lon="11.56503"><ele>624.0</ele><time>2026-04-22T11:30:10.138Z</time></trkpt><trkpt lat="43.4309933" lon="11.5650383"><ele>625.0</ele><time>2026-04-22T11:30:11.136Z</time></trkpt><trkpt lat="43.43107" lon="11.5650517"><ele>625.0</ele><time>2026-04-22T11:30:12.138Z</time></trkpt><trkpt lat="43.4311417" lon="11.5650483"><ele>625.0</ele><time>2026-04-22T11:30:13.137Z</time></trkpt><trkpt lat="43.4312083" lon="11.565025"><ele>625.0</ele><time>2026-04-22T11:30:14.137Z</time></trkpt><trkpt lat="43.4312867" lon="11.5649783"><ele>625.0</ele><time>2026-04-22T11:30:15.138Z</time></trkpt><trkpt lat="43.4313833" lon="11.5648733"><ele>625.0</ele><time>2026-04-22T11:30:16.138Z</time></trkpt><trkpt lat="43.4314783" lon="11.564765"><ele>625.5</ele><time>2026-04-22T11:30:17.138Z</time></trkpt><trkpt lat="43.4315767" lon="11.564645"><ele>626.0</ele><time>2026-04-22T11:30:18.137Z</time></trkpt><trkpt lat="43.431675" lon="11.5645217"><ele>626.5</ele><time>2026-04-22T11:30:19.138Z</time></trkpt><trkpt lat="43.4317683" lon="11.5644017"><ele>627.0</ele><time>2026-04-22T11:30:20.138Z</time></trkpt><trkpt lat="43.4318567" lon="11.56428"><ele>626.0</ele><time>2026-04-22T11:30:21.14Z</time></trkpt><trkpt lat="43.431935" lon="11.5641517"><ele>625.0</ele><time>2026-04-22T11:30:22.137Z</time></trkpt><trkpt lat="43.432005" lon="11.5640117"><ele>624.0</ele><time>2026-04-22T11:30:23.136Z</time></trkpt><trkpt lat="43.4320667" lon="11.5638517"><ele>623.0</ele><time>2026-04-22T11:30:24.137Z</time></trkpt><trkpt lat="43.4321217" lon="11.563685"><ele>623.6</ele><time>2026-04-22T11:30:25.135Z</time></trkpt><trkpt lat="43.43217" lon="11.5635283"><ele>624.1999999999999</ele><time>2026-04-22T11:30:26.136Z</time></trkpt><trkpt lat="43.432205" lon="11.5633867"><ele>624.8</ele><time>2026-04-22T11:30:27.137Z</time></trkpt><trkpt lat="43.432235" lon="11.5632633"><ele>625.4</ele><time>2026-04-22T11:30:28.137Z</time></trkpt><trkpt lat="43.4322583" lon="11.56315"><ele>626.0</ele><time>2026-04-22T11:30:29.136Z</time></trkpt><trkpt lat="43.4322883" lon="11.56304"><ele>626.0</ele><time>2026-04-22T11:30:30.139Z</time></trkpt><trkpt lat="43.4323333" lon="11.5629567"><ele>626.0</ele><time>2026-04-22T11:30:31.139Z</time></trkpt><trkpt lat="43.4323683" lon="11.562875"><ele>626.0</ele><time>2026-04-22T11:30:32.136Z</time></trkpt><trkpt lat="43.4323933" lon="11.562785"><ele>626.0</ele><time>2026-04-22T11:30:33.138Z</time></trkpt><trkpt lat="43.432415" lon="11.562695"><ele>626.0</ele><time>2026-04-22T11:30:34.138Z</time></trkpt><trkpt lat="43.4324517" lon="11.5626167"><ele>626.0</ele><time>2026-04-22T11:30:35.138Z</time></trkpt><trkpt lat="43.4324983" lon="11.5625567"><ele>626.0</ele><time>2026-04-22T11:30:36.139Z</time></trkpt><trkpt lat="43.432565" lon="11.5625283"><ele>625.6</ele><time>2026-04-22T11:30:37.138Z</time></trkpt><trkpt lat="43.4326967" lon="11.5625417"><ele>625.2</ele><time>2026-04-22T11:30:39.138Z</time></trkpt><trkpt lat="43.43277" lon="11.56254"><ele>624.8</ele><time>2026-04-22T11:30:40.139Z</time></trkpt><trkpt lat="43.4328617" lon="11.56252"><ele>624.4</ele><time>2026-04-22T11:30:41.137Z</time></trkpt><trkpt lat="43.43296" lon="11.5624783"><ele>624.0</ele><time>2026-04-22T11:30:42.138Z</time></trkpt><trkpt lat="43.4330617" lon="11.5624283"><ele>622.2</ele><time>2026-04-22T11:30:43.138Z</time></trkpt><trkpt lat="43.43316" lon="11.5623733"><ele>620.4</ele><time>2026-04-22T11:30:44.137Z</time></trkpt><trkpt lat="43.4332533" lon="11.5623067"><ele>618.6</ele><time>2026-04-22T11:30:45.137Z</time></trkpt><trkpt lat="43.4333517" lon="11.5622217"><ele>616.8</ele><time>2026-04-22T11:30:46.137Z</time></trkpt><trkpt lat="43.433445" lon="11.5621233"><ele>615.0</ele><time>2026-04-22T11:30:47.137Z</time></trkpt><trkpt lat="43.433535" lon="11.5620217"><ele>614.75</ele><time>2026-04-22T11:30:48.137Z</time></trkpt><trkpt lat="43.43363" lon="11.5619283"><ele>614.5</ele><time>2026-04-22T11:30:49.137Z</time></trkpt><trkpt lat="43.4337267" lon="11.561845"><ele>614.25</ele><time>2026-04-22T11:30:50.137Z</time></trkpt><trkpt lat="43.4338267" lon="11.561765"><ele>614.0</ele><time>2026-04-22T11:30:51.138Z</time></trkpt><trkpt lat="43.433925" lon="11.5616767"><ele>613.3333333333333</ele><time>2026-04-22T11:30:52.137Z</time></trkpt><trkpt lat="43.4340083" lon="11.5615983"><ele>612.6666666666666</ele><time>2026-04-22T11:30:53.137Z</time></trkpt><trkpt lat="43.43409" lon="11.5615483"><ele>612.0</ele><time>2026-04-22T11:30:54.137Z</time></trkpt><trkpt lat="43.4341783" lon="11.5615233"><ele>611.3333333333334</ele><time>2026-04-22T11:30:55.14Z</time></trkpt><trkpt lat="43.4342567" lon="11.5615067"><ele>610.6666666666667</ele><time>2026-04-22T11:30:56.137Z</time></trkpt><trkpt lat="43.4343217" lon="11.5614833"><ele>610.0</ele><time>2026-04-22T11:30:57.139Z</time></trkpt><trkpt lat="43.4344183" lon="11.5613767"><ele>610.0</ele><time>2026-04-22T11:30:59.137Z</time></trkpt><trkpt lat="43.4344917" lon="11.5612567"><ele>610.0</ele><time>2026-04-22T11:31:01.136Z</time></trkpt><trkpt lat="43.4346067" lon="11.5611967"><ele>610.0</ele><time>2026-04-22T11:31:03.139Z</time></trkpt><trkpt lat="43.434695" lon="11.5610933"><ele>610.0</ele><time>2026-04-22T11:31:05.137Z</time></trkpt><trkpt lat="43.4347283" lon="11.5610083"><ele>610.0</ele><time>2026-04-22T11:31:06.138Z</time></trkpt><trkpt lat="43.4347533" lon="11.5609133"><ele>611.6666666666667</ele><time>2026-04-22T11:31:07.139Z</time></trkpt><trkpt lat="43.434775" lon="11.5608217"><ele>613.3333333333334</ele><time>2026-04-22T11:31:08.138Z</time></trkpt><trkpt lat="43.4347917" lon="11.56073"><ele>615.0</ele><time>2026-04-22T11:31:09.138Z</time></trkpt><trkpt lat="43.4348017" lon="11.5606367"><ele>616.6666666666666</ele><time>2026-04-22T11:31:10.138Z</time></trkpt><trkpt lat="43.434815" lon="11.5605367"><ele>618.3333333333333</ele><time>2026-04-22T11:31:11.137Z</time></trkpt><trkpt lat="43.4348317" lon="11.5604417"><ele>620.0</ele><time>2026-04-22T11:31:12.137Z</time></trkpt><trkpt lat="43.4348333" lon="11.5602833"><ele>620.6666666666666</ele><time>2026-04-22T11:31:14.137Z</time></trkpt><trkpt lat="43.43477" lon="11.56012"><ele>621.3333333333333</ele><time>2026-04-22T11:31:16.137Z</time></trkpt><trkpt lat="43.4347283" lon="11.56004"><ele>622.0</ele><time>2026-04-22T11:31:17.138Z</time></trkpt><trkpt lat="43.4346967" lon="11.559955"><ele>622.6666666666666</ele><time>2026-04-22T11:31:18.138Z</time></trkpt><trkpt lat="43.43467" lon="11.559865"><ele>623.3333333333334</ele><time>2026-04-22T11:31:19.137Z</time></trkpt><trkpt lat="43.434635" lon="11.559765"><ele>624.0</ele><time>2026-04-22T11:31:20.139Z</time></trkpt><trkpt lat="43.4345933" lon="11.5596617"><ele>624.4</ele><time>2026-04-22T11:31:21.139Z</time></trkpt><trkpt lat="43.4345417" lon="11.5595567"><ele>624.8</ele><time>2026-04-22T11:31:22.136Z</time></trkpt><trkpt lat="43.43449" lon="11.5594467"><ele>625.2</ele><time>2026-04-22T11:31:23.136Z</time></trkpt><trkpt lat="43.434435" lon="11.5593317"><ele>625.6</ele><time>2026-04-22T11:31:24.138Z</time></trkpt><trkpt lat="43.4343833" lon="11.5592033"><ele>626.0</ele><time>2026-04-22T11:31:25.137Z</time></trkpt><trkpt lat="43.4343417" lon="11.559045"><ele>627.4</ele><time>2026-04-22T11:31:26.137Z</time></trkpt><trkpt lat="43.4343067" lon="11.55888"><ele>628.8</ele><time>2026-04-22T11:31:27.139Z</time></trkpt><trkpt lat="43.434275" lon="11.558725"><ele>630.1999999999999</ele><time>2026-04-22T11:31:28.138Z</time></trkpt><trkpt lat="43.4342383" lon="11.5585883"><ele>631.6</ele><time>2026-04-22T11:31:29.139Z</time></trkpt><trkpt lat="43.4342133" lon="11.5584567"><ele>633.0</ele><time>2026-04-22T11:31:30.138Z</time></trkpt><trkpt lat="43.434185" lon="11.5583233"><ele>633.0</ele><time>2026-04-22T11:31:31.138Z</time></trkpt><trkpt lat="43.434165" lon="11.5581917"><ele>633.0</ele><time>2026-04-22T11:31:32.138Z</time></trkpt><trkpt lat="43.4341533" lon="11.5580617"><ele>633.0</ele><time>2026-04-22T11:31:33.138Z</time></trkpt><trkpt lat="43.4341633" lon="11.557925"><ele>633.0</ele><time>2026-04-22T11:31:34.138Z</time></trkpt><trkpt lat="43.434185" lon="11.557785"><ele>633.0</ele><time>2026-04-22T11:31:35.137Z</time></trkpt><trkpt lat="43.4342183" lon="11.5576517"><ele>633.0</ele><time>2026-04-22T11:31:36.137Z</time></trkpt><trkpt lat="43.434265" lon="11.5575317"><ele>633.0</ele><time>2026-04-22T11:31:37.137Z</time></trkpt><trkpt lat="43.4343033" lon="11.5574067"><ele>633.0</ele><time>2026-04-22T11:31:38.137Z</time></trkpt><trkpt lat="43.43433" lon="11.5572667"><ele>633.0</ele><time>2026-04-22T11:31:39.138Z</time></trkpt><trkpt lat="43.434345" lon="11.55711"><ele>633.0</ele><time>2026-04-22T11:31:40.138Z</time></trkpt><trkpt lat="43.4343567" lon="11.5569567"><ele>632.4</ele><time>2026-04-22T11:31:41.138Z</time></trkpt><trkpt lat="43.434365" lon="11.55681"><ele>631.8</ele><time>2026-04-22T11:31:42.137Z</time></trkpt><trkpt lat="43.4343667" lon="11.5566683"><ele>631.2</ele><time>2026-04-22T11:31:43.138Z</time></trkpt><trkpt lat="43.43437" lon="11.5565267"><ele>630.6</ele><time>2026-04-22T11:31:44.137Z</time></trkpt><trkpt lat="43.4343817" lon="11.55639"><ele>630.0</ele><time>2026-04-22T11:31:45.139Z</time></trkpt><trkpt lat="43.434405" lon="11.5562583"><ele>629.0</ele><time>2026-04-22T11:31:46.138Z</time></trkpt><trkpt lat="43.4344417" lon="11.5561283"><ele>628.0</ele><time>2026-04-22T11:31:47.138Z</time></trkpt><trkpt lat="43.43448" lon="11.55601"><ele>627.0</ele><time>2026-04-22T11:31:48.137Z</time></trkpt><trkpt lat="43.4345233" lon="11.5559"><ele>626.0</ele><time>2026-04-22T11:31:49.137Z</time></trkpt><trkpt lat="43.4345767" lon="11.5557817"><ele>625.0</ele><time>2026-04-22T11:31:50.138Z</time></trkpt><trkpt lat="43.4346317" lon="11.5556567"><ele>627.3333333333334</ele><time>2026-04-22T11:31:51.139Z</time></trkpt><trkpt lat="43.4346817" lon="11.55554"><ele>629.6666666666667</ele><time>2026-04-22T11:31:52.137Z</time></trkpt><trkpt lat="43.4347233" lon="11.5554267"><ele>632.0</ele><time>2026-04-22T11:31:53.136Z</time></trkpt><trkpt lat="43.43477" lon="11.5553167"><ele>634.3333333333334</ele><time>2026-04-22T11:31:54.135Z</time></trkpt><trkpt lat="43.4348117" lon="11.5552167"><ele>636.6666666666666</ele><time>2026-04-22T11:31:55.138Z</time></trkpt><trkpt lat="43.4348483" lon="11.5551367"><ele>639.0</ele><time>2026-04-22T11:31:56.137Z</time></trkpt><trkpt lat="43.434895" lon="11.5550667"><ele>639.0</ele><time>2026-04-22T11:31:57.137Z</time></trkpt><trkpt lat="43.4349783" lon="11.55498"><ele>639.0</ele><time>2026-04-22T11:31:59.138Z</time></trkpt><trkpt lat="43.4350767" lon="11.5549817"><ele>639.0</ele><time>2026-04-22T11:32:01.138Z</time></trkpt><trkpt lat="43.4351517" lon="11.5550183"><ele>639.0</ele><time>2026-04-22T11:32:02.138Z</time></trkpt><trkpt lat="43.43524" lon="11.5550417"><ele>639.0</ele><time>2026-04-22T11:32:03.141Z</time></trkpt><trkpt lat="43.4353383" lon="11.5550567"><ele>639.0</ele><time>2026-04-22T11:32:04.138Z</time></trkpt><trkpt lat="43.4354483" lon="11.5550683"><ele>639.0</ele><time>2026-04-22T11:32:05.137Z</time></trkpt><trkpt lat="43.4355567" lon="11.5550933"><ele>639.0</ele><time>2026-04-22T11:32:06.137Z</time></trkpt><trkpt lat="43.4356517" lon="11.55512"><ele>639.0</ele><time>2026-04-22T11:32:07.137Z</time></trkpt><trkpt lat="43.435735" lon="11.555145"><ele>639.0</ele><time>2026-04-22T11:32:08.138Z</time></trkpt><trkpt lat="43.43581" lon="11.55517"><ele>639.6</ele><time>2026-04-22T11:32:09.138Z</time></trkpt><trkpt lat="43.4358917" lon="11.5552083"><ele>640.2</ele><time>2026-04-22T11:32:10.138Z</time></trkpt><trkpt lat="43.435985" lon="11.5552583"><ele>640.8000000000001</ele><time>2026-04-22T11:32:11.136Z</time></trkpt><trkpt lat="43.4360833" lon="11.555325"><ele>641.4</ele><time>2026-04-22T11:32:12.139Z</time></trkpt><trkpt lat="43.4361667" lon="11.555385"><ele>642.0</ele><time>2026-04-22T11:32:13.138Z</time></trkpt><trkpt lat="43.436245" lon="11.55544"><ele>642.5</ele><time>2026-04-22T11:32:14.14Z</time></trkpt><trkpt lat="43.4363283" lon="11.5555017"><ele>643.0</ele><time>2026-04-22T11:32:15.139Z</time></trkpt><trkpt lat="43.43641" lon="11.5555717"><ele>643.5</ele><time>2026-04-22T11:32:16.139Z</time></trkpt><trkpt lat="43.436485" lon="11.5556467"><ele>644.0</ele><time>2026-04-22T11:32:17.136Z</time></trkpt><trkpt lat="43.4365533" lon="11.5557133"><ele>644.5</ele><time>2026-04-22T11:32:18.139Z</time></trkpt><trkpt lat="43.4366233" lon="11.5557667"><ele>645.0</ele><time>2026-04-22T11:32:19.137Z</time></trkpt><trkpt lat="43.436705" lon="11.5558067"><ele>645.0</ele><time>2026-04-22T11:32:20.138Z</time></trkpt><trkpt lat="43.4368033" lon="11.555825"><ele>645.0</ele><time>2026-04-22T11:32:21.138Z</time></trkpt><trkpt lat="43.4369117" lon="11.5558233"><ele>645.0</ele><time>2026-04-22T11:32:22.139Z</time></trkpt><trkpt lat="43.4370067" lon="11.5558133"><ele>645.0</ele><time>2026-04-22T11:32:23.137Z</time></trkpt><trkpt lat="43.4370783" lon="11.5558017"><ele>645.0</ele><time>2026-04-22T11:32:24.138Z</time></trkpt><trkpt lat="43.437145" lon="11.5557983"><ele>645.0</ele><time>2026-04-22T11:32:25.138Z</time></trkpt><trkpt lat="43.4372683" lon="11.5558583"><ele>643.8571428571429</ele><time>2026-04-22T11:32:27.138Z</time></trkpt><trkpt lat="43.437325" lon="11.555915"><ele>642.7142857142857</ele><time>2026-04-22T11:32:28.137Z</time></trkpt><trkpt lat="43.43738" lon="11.5559717"><ele>641.5714285714286</ele><time>2026-04-22T11:32:29.136Z</time></trkpt><trkpt lat="43.43744" lon="11.5560283"><ele>640.4285714285714</ele><time>2026-04-22T11:32:30.138Z</time></trkpt><trkpt lat="43.4375033" lon="11.5560767"><ele>639.2857142857142</ele><time>2026-04-22T11:32:31.138Z</time></trkpt><trkpt lat="43.4375667" lon="11.5561133"><ele>638.1428571428571</ele><time>2026-04-22T11:32:32.137Z</time></trkpt><trkpt lat="43.4376317" lon="11.556145"><ele>637.0</ele><time>2026-04-22T11:32:33.139Z</time></trkpt><trkpt lat="43.4377367" lon="11.5562067"><ele>635.4</ele><time>2026-04-22T11:32:35.137Z</time></trkpt><trkpt lat="43.437835" lon="11.5562833"><ele>633.8000000000001</ele><time>2026-04-22T11:32:37.138Z</time></trkpt><trkpt lat="43.437925" lon="11.5563967"><ele>632.2</ele><time>2026-04-22T11:32:39.137Z</time></trkpt><trkpt lat="43.4379967" lon="11.556545"><ele>630.6</ele><time>2026-04-22T11:32:41.137Z</time></trkpt><trkpt lat="43.438035" lon="11.55663"><ele>629.0</ele><time>2026-04-22T11:32:42.139Z</time></trkpt><trkpt lat="43.4380717" lon="11.5567117"><ele>627.5</ele><time>2026-04-22T11:32:43.138Z</time></trkpt><trkpt lat="43.43811" lon="11.5567967"><ele>626.0</ele><time>2026-04-22T11:32:44.138Z</time></trkpt><trkpt lat="43.4381467" lon="11.5568833"><ele>624.5</ele><time>2026-04-22T11:32:45.139Z</time></trkpt><trkpt lat="43.43819" lon="11.5569733"><ele>623.0</ele><time>2026-04-22T11:32:46.137Z</time></trkpt><trkpt lat="43.4382333" lon="11.5570567"><ele>621.5</ele><time>2026-04-22T11:32:47.138Z</time></trkpt><trkpt lat="43.4382717" lon="11.5571417"><ele>620.0</ele><time>2026-04-22T11:32:48.136Z</time></trkpt><trkpt lat="43.43832" lon="11.5572383"><ele>619.8</ele><time>2026-04-22T11:32:49.137Z</time></trkpt><trkpt lat="43.43837" lon="11.5573433"><ele>619.6</ele><time>2026-04-22T11:32:50.138Z</time></trkpt><trkpt lat="43.4384167" lon="11.5574567"><ele>619.4</ele><time>2026-04-22T11:32:51.137Z</time></trkpt><trkpt lat="43.4384567" lon="11.5575967"><ele>619.2</ele><time>2026-04-22T11:32:52.136Z</time></trkpt><trkpt lat="43.438495" lon="11.5577533"><ele>619.0</ele><time>2026-04-22T11:32:53.137Z</time></trkpt><trkpt lat="43.4385317" lon="11.5579083"><ele>617.6</ele><time>2026-04-22T11:32:54.137Z</time></trkpt><trkpt lat="43.4385733" lon="11.5580567"><ele>616.2</ele><time>2026-04-22T11:32:55.139Z</time></trkpt><trkpt lat="43.4386133" lon="11.5581817"><ele>614.8000000000001</ele><time>2026-04-22T11:32:56.137Z</time></trkpt><trkpt lat="43.4386583" lon="11.5583"><ele>613.4</ele><time>2026-04-22T11:32:57.138Z</time></trkpt><trkpt lat="43.4387233" lon="11.5584217"><ele>612.0</ele><time>2026-04-22T11:32:58.138Z</time></trkpt><trkpt lat="43.4387967" lon="11.5585417"><ele>612.6</ele><time>2026-04-22T11:32:59.137Z</time></trkpt><trkpt lat="43.438865" lon="11.55865"><ele>613.2</ele><time>2026-04-22T11:33:00.139Z</time></trkpt><trkpt lat="43.4389217" lon="11.5587267"><ele>613.8</ele><time>2026-04-22T11:33:01.138Z</time></trkpt><trkpt lat="43.4390083" lon="11.558835"><ele>614.4</ele><time>2026-04-22T11:33:03.139Z</time></trkpt><trkpt lat="43.4390683" lon="11.5589367"><ele>615.0</ele><time>2026-04-22T11:33:05.137Z</time></trkpt><trkpt lat="43.43908" lon="11.5590283"><ele>615.0</ele><time>2026-04-22T11:33:07.138Z</time></trkpt><trkpt lat="43.43904" lon="11.55911"><ele>615.0</ele><time>2026-04-22T11:33:09.138Z</time></trkpt><trkpt lat="43.4389517" lon="11.5591667"><ele>615.0</ele><time>2026-04-22T11:33:11.136Z</time></trkpt><trkpt lat="43.43889" lon="11.5591867"><ele>615.0</ele><time>2026-04-22T11:33:12.139Z</time></trkpt><trkpt lat="43.438825" lon="11.5592033"><ele>615.0</ele><time>2026-04-22T11:33:13.141Z</time></trkpt><trkpt lat="43.43876" lon="11.5592017"><ele>615.0</ele><time>2026-04-22T11:33:14.138Z</time></trkpt><trkpt lat="43.4386967" lon="11.55918"><ele>615.0</ele><time>2026-04-22T11:33:15.138Z</time></trkpt><trkpt lat="43.4386283" lon="11.55914"><ele>613.8333333333334</ele><time>2026-04-22T11:33:16.137Z</time></trkpt><trkpt lat="43.4385617" lon="11.5591"><ele>612.6666666666666</ele><time>2026-04-22T11:33:17.136Z</time></trkpt><trkpt lat="43.43849" lon="11.5590567"><ele>611.5</ele><time>2026-04-22T11:33:18.136Z</time></trkpt><trkpt lat="43.4384167" lon="11.5590133"><ele>610.3333333333333</ele><time>2026-04-22T11:33:19.137Z</time></trkpt><trkpt lat="43.4383367" lon="11.55898"><ele>609.1666666666666</ele><time>2026-04-22T11:33:20.137Z</time></trkpt><trkpt lat="43.4382567" lon="11.5589483"><ele>608.0</ele><time>2026-04-22T11:33:21.138Z</time></trkpt><trkpt lat="43.4381817" lon="11.5589083"><ele>608.0</ele><time>2026-04-22T11:33:22.137Z</time></trkpt><trkpt lat="43.4381083" lon="11.5588567"><ele>608.0</ele><time>2026-04-22T11:33:23.137Z</time></trkpt><trkpt lat="43.4380333" lon="11.5588083"><ele>608.0</ele><time>2026-04-22T11:33:24.136Z</time></trkpt><trkpt lat="43.4379483" lon="11.5587617"><ele>608.0</ele><time>2026-04-22T11:33:25.138Z</time></trkpt><trkpt lat="43.4378667" lon="11.558725"><ele>608.0</ele><time>2026-04-22T11:33:26.137Z</time></trkpt><trkpt lat="43.43779" lon="11.5586817"><ele>608.0</ele><time>2026-04-22T11:33:27.136Z</time></trkpt><trkpt lat="43.4377233" lon="11.55864"><ele>607.8333333333333</ele><time>2026-04-22T11:33:28.135Z</time></trkpt><trkpt lat="43.4376583" lon="11.5585833"><ele>607.6666666666666</ele><time>2026-04-22T11:33:29.137Z</time></trkpt><trkpt lat="43.4376067" lon="11.55852"><ele>607.5</ele><time>2026-04-22T11:33:30.136Z</time></trkpt><trkpt lat="43.4375283" lon="11.55846"><ele>607.3333333333334</ele><time>2026-04-22T11:33:32.135Z</time></trkpt><trkpt lat="43.4374667" lon="11.5585483"><ele>607.1666666666667</ele><time>2026-04-22T11:33:34.138Z</time></trkpt><trkpt lat="43.4374333" lon="11.5586383"><ele>607.0</ele><time>2026-04-22T11:33:35.137Z</time></trkpt><trkpt lat="43.4373717" lon="11.558735"><ele>606.3333333333334</ele><time>2026-04-22T11:33:36.136Z</time></trkpt><trkpt lat="43.4373017" lon="11.558825"><ele>605.6666666666667</ele><time>2026-04-22T11:33:37.137Z</time></trkpt><trkpt lat="43.437235" lon="11.5588983"><ele>605.0</ele><time>2026-04-22T11:33:38.135Z</time></trkpt><trkpt lat="43.43718" lon="11.5589583"><ele>604.3333333333334</ele><time>2026-04-22T11:33:39.138Z</time></trkpt><trkpt lat="43.43711" lon="11.5590117"><ele>603.6666666666666</ele><time>2026-04-22T11:33:40.133Z</time></trkpt><trkpt lat="43.43704" lon="11.5590517"><ele>603.0</ele><time>2026-04-22T11:33:41.137Z</time></trkpt><trkpt lat="43.4369733" lon="11.5590933"><ele>603.0</ele><time>2026-04-22T11:33:42.138Z</time></trkpt><trkpt lat="43.4369183" lon="11.5591433"><ele>603.0</ele><time>2026-04-22T11:33:43.139Z</time></trkpt><trkpt lat="43.4368617" lon="11.5592067"><ele>603.0</ele><time>2026-04-22T11:33:44.139Z</time></trkpt><trkpt lat="43.436795" lon="11.55927"><ele>603.0</ele><time>2026-04-22T11:33:45.139Z</time></trkpt><trkpt lat="43.436735" lon="11.559335"><ele>603.0</ele><time>2026-04-22T11:33:46.138Z</time></trkpt><trkpt lat="43.43667" lon="11.5593833"><ele>603.0</ele><time>2026-04-22T11:33:47.138Z</time></trkpt><trkpt lat="43.4365983" lon="11.5594133"><ele>603.0</ele><time>2026-04-22T11:33:48.137Z</time></trkpt><trkpt lat="43.4365167" lon="11.5594283"><ele>603.0</ele><time>2026-04-22T11:33:49.138Z</time></trkpt><trkpt lat="43.4364367" lon="11.5594183"><ele>603.0</ele><time>2026-04-22T11:33:50.138Z</time></trkpt><trkpt lat="43.43636" lon="11.5593817"><ele>603.0</ele><time>2026-04-22T11:33:51.139Z</time></trkpt><trkpt lat="43.4362833" lon="11.559325"><ele>603.0</ele><time>2026-04-22T11:33:52.137Z</time></trkpt><trkpt lat="43.4362117" lon="11.5592533"><ele>603.0</ele><time>2026-04-22T11:33:53.137Z</time></trkpt><trkpt lat="43.4361417" lon="11.5591867"><ele>603.0</ele><time>2026-04-22T11:33:54.137Z</time></trkpt><trkpt lat="43.43607" lon="11.5591383"><ele>602.8333333333334</ele><time>2026-04-22T11:33:55.137Z</time></trkpt><trkpt lat="43.436" lon="11.5590883"><ele>602.6666666666666</ele><time>2026-04-22T11:33:56.137Z</time></trkpt><trkpt lat="43.435945" lon="11.55903"><ele>602.5</ele><time>2026-04-22T11:33:57.139Z</time></trkpt><trkpt lat="43.4358667" lon="11.5589383"><ele>602.3333333333333</ele><time>2026-04-22T11:33:59.136Z</time></trkpt><trkpt lat="43.435795" lon="11.5590117"><ele>602.1666666666666</ele><time>2026-04-22T11:34:02.138Z</time></trkpt><trkpt lat="43.435805" lon="11.5591283"><ele>602.0</ele><time>2026-04-22T11:34:03.138Z</time></trkpt><trkpt lat="43.4358233" lon="11.55925"><ele>602.0</ele><time>2026-04-22T11:34:04.137Z</time></trkpt><trkpt lat="43.4358367" lon="11.5593633"><ele>602.0</ele><time>2026-04-22T11:34:05.137Z</time></trkpt><trkpt lat="43.43584" lon="11.5594883"><ele>602.0</ele><time>2026-04-22T11:34:06.137Z</time></trkpt><trkpt lat="43.4358317" lon="11.5596217"><ele>602.0</ele><time>2026-04-22T11:34:07.137Z</time></trkpt><trkpt lat="43.43581" lon="11.5597517"><ele>602.0</ele><time>2026-04-22T11:34:08.137Z</time></trkpt><trkpt lat="43.4357917" lon="11.5598533"><ele>602.0</ele><time>2026-04-22T11:34:09.138Z</time></trkpt><trkpt lat="43.4357467" lon="11.5599183"><ele>601.0</ele><time>2026-04-22T11:34:10.137Z</time></trkpt><trkpt lat="43.435635" lon="11.56"><ele>600.0</ele><time>2026-04-22T11:34:12.136Z</time></trkpt><trkpt lat="43.4355717" lon="11.560025"><ele>599.0</ele><time>2026-04-22T11:34:13.14Z</time></trkpt><trkpt lat="43.4355117" lon="11.56006"><ele>598.0</ele><time>2026-04-22T11:34:14.138Z</time></trkpt><trkpt lat="43.43546" lon="11.5602167"><ele>597.0</ele><time>2026-04-22T11:34:16.138Z</time></trkpt><trkpt lat="43.43544" lon="11.5603317"><ele>601.6</ele><time>2026-04-22T11:34:17.136Z</time></trkpt><trkpt lat="43.4354217" lon="11.5604583"><ele>606.2</ele><time>2026-04-22T11:34:18.138Z</time></trkpt><trkpt lat="43.435405" lon="11.56059"><ele>610.8</ele><time>2026-04-22T11:34:19.137Z</time></trkpt><trkpt lat="43.4353867" lon="11.5607133"><ele>615.4</ele><time>2026-04-22T11:34:20.137Z</time></trkpt><trkpt lat="43.435375" lon="11.560845"><ele>620.0</ele><time>2026-04-22T11:34:21.139Z</time></trkpt><trkpt lat="43.435355" lon="11.5609783"><ele>620.0</ele><time>2026-04-22T11:34:22.138Z</time></trkpt><trkpt lat="43.435325" lon="11.5611"><ele>620.0</ele><time>2026-04-22T11:34:23.137Z</time></trkpt><trkpt lat="43.4352833" lon="11.5612033"><ele>620.0</ele><time>2026-04-22T11:34:24.137Z</time></trkpt><trkpt lat="43.4352217" lon="11.56128"><ele>620.0</ele><time>2026-04-22T11:34:25.138Z</time></trkpt><trkpt lat="43.43515" lon="11.5613467"><ele>620.0</ele><time>2026-04-22T11:34:26.137Z</time></trkpt><trkpt lat="43.4350767" lon="11.5614033"><ele>620.0</ele><time>2026-04-22T11:34:27.138Z</time></trkpt><trkpt lat="43.435015" lon="11.5614583"><ele>618.3333333333333</ele><time>2026-04-22T11:34:28.138Z</time></trkpt><trkpt lat="43.4349583" lon="11.561505"><ele>616.6666666666666</ele><time>2026-04-22T11:34:29.137Z</time></trkpt><trkpt lat="43.4348983" lon="11.5615317"><ele>615.0</ele><time>2026-04-22T11:34:30.138Z</time></trkpt><trkpt lat="43.4348283" lon="11.5615533"><ele>613.3333333333334</ele><time>2026-04-22T11:34:31.139Z</time></trkpt><trkpt lat="43.4347483" lon="11.5615783"><ele>611.6666666666667</ele><time>2026-04-22T11:34:32.139Z</time></trkpt><trkpt lat="43.4346567" lon="11.561585"><ele>610.0</ele><time>2026-04-22T11:34:33.138Z</time></trkpt><trkpt lat="43.4345633" lon="11.5615767"><ele>610.0</ele><time>2026-04-22T11:34:34.138Z</time></trkpt><trkpt lat="43.434475" lon="11.5615783"><ele>610.0</ele><time>2026-04-22T11:34:35.137Z</time></trkpt><trkpt lat="43.434375" lon="11.5616"><ele>610.0</ele><time>2026-04-22T11:34:36.138Z</time></trkpt><trkpt lat="43.4342683" lon="11.5616167"><ele>610.0</ele><time>2026-04-22T11:34:37.137Z</time></trkpt><trkpt lat="43.434175" lon="11.5616183"><ele>610.0</ele><time>2026-04-22T11:34:38.138Z</time></trkpt><trkpt lat="43.434105" lon="11.5616083"><ele>610.0</ele><time>2026-04-22T11:34:39.139Z</time></trkpt><trkpt lat="43.4339833" lon="11.5616067"><ele>610.0</ele><time>2026-04-22T11:34:41.136Z</time></trkpt><trkpt lat="43.43392" lon="11.561635"><ele>610.0</ele><time>2026-04-22T11:34:42.137Z</time></trkpt><trkpt lat="43.4338433" lon="11.5617067"><ele>610.0</ele><time>2026-04-22T11:34:43.138Z</time></trkpt><trkpt lat="43.4337817" lon="11.561775"><ele>610.0</ele><time>2026-04-22T11:34:44.137Z</time></trkpt><trkpt lat="43.43373" lon="11.561895"><ele>610.8</ele><time>2026-04-22T11:34:46.136Z</time></trkpt><trkpt lat="43.4337167" lon="11.561985"><ele>611.6</ele><time>2026-04-22T11:34:47.136Z</time></trkpt><trkpt lat="43.4336967" lon="11.5621083"><ele>612.4</ele><time>2026-04-22T11:34:48.137Z</time></trkpt><trkpt lat="43.433675" lon="11.56225"><ele>613.2</ele><time>2026-04-22T11:34:49.138Z</time></trkpt><trkpt lat="43.43365" lon="11.56238"><ele>614.0</ele><time>2026-04-22T11:34:50.138Z</time></trkpt><trkpt lat="43.43362" lon="11.5625133"><ele>614.2</ele><time>2026-04-22T11:34:51.139Z</time></trkpt><trkpt lat="43.43359" lon="11.5626517"><ele>614.4</ele><time>2026-04-22T11:34:52.139Z</time></trkpt><trkpt lat="43.4335717" lon="11.5627917"><ele>614.6</ele><time>2026-04-22T11:34:53.137Z</time></trkpt><trkpt lat="43.4335517" lon="11.56294"><ele>614.8</ele><time>2026-04-22T11:34:54.137Z</time></trkpt><trkpt lat="43.4335367" lon="11.56309"><ele>615.0</ele><time>2026-04-22T11:34:55.137Z</time></trkpt><trkpt lat="43.4335233" lon="11.5632167"><ele>615.2</ele><time>2026-04-22T11:34:56.136Z</time></trkpt><trkpt lat="43.4335283" lon="11.5633483"><ele>615.4</ele><time>2026-04-22T11:34:57.137Z</time></trkpt><trkpt lat="43.4335583" lon="11.563475"><ele>615.6</ele><time>2026-04-22T11:34:58.136Z</time></trkpt><trkpt lat="43.4335917" lon="11.5635867"><ele>615.8</ele><time>2026-04-22T11:34:59.137Z</time></trkpt><trkpt lat="43.433635" lon="11.5636933"><ele>616.0</ele><time>2026-04-22T11:35:00.138Z</time></trkpt><trkpt lat="43.4336783" lon="11.5637917"><ele>616.6</ele><time>2026-04-22T11:35:01.136Z</time></trkpt><trkpt lat="43.433715" lon="11.563905"><ele>617.2</ele><time>2026-04-22T11:35:02.138Z</time></trkpt><trkpt lat="43.43374" lon="11.5640333"><ele>617.8</ele><time>2026-04-22T11:35:03.139Z</time></trkpt><trkpt lat="43.4337583" lon="11.5641667"><ele>618.4</ele><time>2026-04-22T11:35:04.136Z</time></trkpt><trkpt lat="43.433775" lon="11.5642933"><ele>619.0</ele><time>2026-04-22T11:35:05.137Z</time></trkpt><trkpt lat="43.4337867" lon="11.5644083"><ele>619.0</ele><time>2026-04-22T11:35:06.138Z</time></trkpt><trkpt lat="43.4338033" lon="11.5645117"><ele>619.0</ele><time>2026-04-22T11:35:07.138Z</time></trkpt><trkpt lat="43.4338033" lon="11.5646033"><ele>619.0</ele><time>2026-04-22T11:35:08.137Z</time></trkpt><trkpt lat="43.433785" lon="11.5646867"><ele>619.0</ele><time>2026-04-22T11:35:09.138Z</time></trkpt><trkpt lat="43.4337533" lon="11.5647683"><ele>619.0</ele><time>2026-04-22T11:35:10.137Z</time></trkpt><trkpt lat="43.4337083" lon="11.5648483"><ele>619.0</ele><time>2026-04-22T11:35:11.136Z</time></trkpt><trkpt lat="43.4336583" lon="11.564925"><ele>619.0</ele><time>2026-04-22T11:35:12.138Z</time></trkpt><trkpt lat="43.4335983" lon="11.5649933"><ele>617.6666666666667</ele><time>2026-04-22T11:35:13.137Z</time></trkpt><trkpt lat="43.43354" lon="11.5650567"><ele>616.3333333333334</ele><time>2026-04-22T11:35:14.137Z</time></trkpt><trkpt lat="43.433485" lon="11.5651183"><ele>615.0</ele><time>2026-04-22T11:35:15.138Z</time></trkpt><trkpt lat="43.4333983" lon="11.56525"><ele>613.6666666666666</ele><time>2026-04-22T11:35:17.136Z</time></trkpt><trkpt lat="43.43335" lon="11.565325"><ele>612.3333333333333</ele><time>2026-04-22T11:35:18.139Z</time></trkpt><trkpt lat="43.4333067" lon="11.56541"><ele>611.0</ele><time>2026-04-22T11:35:19.137Z</time></trkpt><trkpt lat="43.433265" lon="11.5654983"><ele>607.6666666666666</ele><time>2026-04-22T11:35:20.137Z</time></trkpt><trkpt lat="43.4332233" lon="11.565585"><ele>604.3333333333333</ele><time>2026-04-22T11:35:21.138Z</time></trkpt><trkpt lat="43.433175" lon="11.5656733"><ele>601.0</ele><time>2026-04-22T11:35:22.136Z</time></trkpt><trkpt lat="43.4331267" lon="11.5657717"><ele>597.6666666666666</ele><time>2026-04-22T11:35:23.138Z</time></trkpt><trkpt lat="43.4330917" lon="11.5658833"><ele>594.3333333333334</ele><time>2026-04-22T11:35:24.138Z</time></trkpt><trkpt lat="43.4330633" lon="11.565985"><ele>591.0</ele><time>2026-04-22T11:35:25.138Z</time></trkpt><trkpt lat="43.4330233" lon="11.5660983"><ele>593.0</ele><time>2026-04-22T11:35:26.137Z</time></trkpt><trkpt lat="43.4329683" lon="11.56623"><ele>595.0</ele><time>2026-04-22T11:35:27.139Z</time></trkpt><trkpt lat="43.432915" lon="11.56636"><ele>597.0</ele><time>2026-04-22T11:35:28.136Z</time></trkpt><trkpt lat="43.432855" lon="11.566465"><ele>599.0</ele><time>2026-04-22T11:35:29.137Z</time></trkpt><trkpt lat="43.4328083" lon="11.56658"><ele>601.0</ele><time>2026-04-22T11:35:30.137Z</time></trkpt><trkpt lat="43.4327817" lon="11.5666933"><ele>601.0</ele><time>2026-04-22T11:35:31.138Z</time></trkpt><trkpt lat="43.432765" lon="11.5668067"><ele>601.0</ele><time>2026-04-22T11:35:32.138Z</time></trkpt><trkpt lat="43.4327583" lon="11.5669183"><ele>601.0</ele><time>2026-04-22T11:35:33.139Z</time></trkpt><trkpt lat="43.4327517" lon="11.567025"><ele>601.0</ele><time>2026-04-22T11:35:34.137Z</time></trkpt><trkpt lat="43.432735" lon="11.56714"><ele>601.0</ele><time>2026-04-22T11:35:35.137Z</time></trkpt><trkpt lat="43.432725" lon="11.56728"><ele>601.0</ele><time>2026-04-22T11:35:36.139Z</time></trkpt><trkpt lat="43.4327167" lon="11.5674267"><ele>601.6</ele><time>2026-04-22T11:35:37.138Z</time></trkpt><trkpt lat="43.4327117" lon="11.5675667"><ele>602.2</ele><time>2026-04-22T11:35:38.139Z</time></trkpt><trkpt lat="43.4327083" lon="11.5676983"><ele>602.8</ele><time>2026-04-22T11:35:39.138Z</time></trkpt><trkpt lat="43.4327033" lon="11.56782"><ele>603.4</ele><time>2026-04-22T11:35:40.138Z</time></trkpt><trkpt lat="43.4326833" lon="11.5679367"><ele>604.0</ele><time>2026-04-22T11:35:41.136Z</time></trkpt><trkpt lat="43.4326467" lon="11.56804"><ele>603.8333333333334</ele><time>2026-04-22T11:35:42.137Z</time></trkpt><trkpt lat="43.43262" lon="11.5681467"><ele>603.6666666666667</ele><time>2026-04-22T11:35:43.138Z</time></trkpt><trkpt lat="43.43261" lon="11.5682567"><ele>603.5</ele><time>2026-04-22T11:35:44.137Z</time></trkpt><trkpt lat="43.4326033" lon="11.568375"><ele>603.3333333333334</ele><time>2026-04-22T11:35:45.139Z</time></trkpt><trkpt lat="43.4326117" lon="11.5684933"><ele>603.1666666666666</ele><time>2026-04-22T11:35:46.137Z</time></trkpt><trkpt lat="43.4326283" lon="11.5686"><ele>603.0</ele><time>2026-04-22T11:35:47.137Z</time></trkpt><trkpt lat="43.43265" lon="11.568705"><ele>603.0</ele><time>2026-04-22T11:35:48.137Z</time></trkpt><trkpt lat="43.43265" lon="11.568825"><ele>603.0</ele><time>2026-04-22T11:35:49.138Z</time></trkpt><trkpt lat="43.4326633" lon="11.5689583"><ele>603.0</ele><time>2026-04-22T11:35:50.137Z</time></trkpt><trkpt lat="43.4326883" lon="11.5690917"><ele>603.0</ele><time>2026-04-22T11:35:51.138Z</time></trkpt><trkpt lat="43.4327233" lon="11.5692083"><ele>603.0</ele><time>2026-04-22T11:35:52.138Z</time></trkpt><trkpt lat="43.4327517" lon="11.5693133"><ele>603.0</ele><time>2026-04-22T11:35:53.137Z</time></trkpt><trkpt lat="43.4327583" lon="11.5694017"><ele>603.0</ele><time>2026-04-22T11:35:54.138Z</time></trkpt><trkpt lat="43.4327183" lon="11.569525"><ele>603.0</ele><time>2026-04-22T11:35:56.139Z</time></trkpt><trkpt lat="43.4325883" lon="11.569535"><ele>603.0</ele><time>2026-04-22T11:35:58.136Z</time></trkpt><trkpt lat="43.4325017" lon="11.5695167"><ele>603.0</ele><time>2026-04-22T11:35:59.137Z</time></trkpt><trkpt lat="43.4323967" lon="11.5694683"><ele>603.0</ele><time>2026-04-22T11:36:00.136Z</time></trkpt><trkpt lat="43.4323083" lon="11.569425"><ele>603.0</ele><time>2026-04-22T11:36:01.137Z</time></trkpt><trkpt lat="43.4322317" lon="11.5693767"><ele>603.0</ele><time>2026-04-22T11:36:02.139Z</time></trkpt><trkpt lat="43.4321683" lon="11.5693367"><ele>603.0</ele><time>2026-04-22T11:36:03.138Z</time></trkpt><trkpt lat="43.4320933" lon="11.5693283"><ele>603.0</ele><time>2026-04-22T11:36:04.137Z</time></trkpt><trkpt lat="43.4320233" lon="11.5693483"><ele>603.0</ele><time>2026-04-22T11:36:05.137Z</time></trkpt><trkpt lat="43.4319483" lon="11.5693733"><ele>605.4</ele><time>2026-04-22T11:36:06.137Z</time></trkpt><trkpt lat="43.4318717" lon="11.5693783"><ele>607.8</ele><time>2026-04-22T11:36:07.138Z</time></trkpt><trkpt lat="43.4317883" lon="11.5693333"><ele>610.2</ele><time>2026-04-22T11:36:08.139Z</time></trkpt><trkpt lat="43.431695" lon="11.5692367"><ele>612.6</ele><time>2026-04-22T11:36:09.137Z</time></trkpt><trkpt lat="43.4315933" lon="11.5691433"><ele>615.0</ele><time>2026-04-22T11:36:10.137Z</time></trkpt><trkpt lat="43.43149" lon="11.5690633"><ele>615.0</ele><time>2026-04-22T11:36:11.136Z</time></trkpt><trkpt lat="43.43139" lon="11.5689867"><ele>615.0</ele><time>2026-04-22T11:36:12.138Z</time></trkpt><trkpt lat="43.4312883" lon="11.5689133"><ele>615.0</ele><time>2026-04-22T11:36:13.137Z</time></trkpt><trkpt lat="43.4311967" lon="11.5688567"><ele>615.0</ele><time>2026-04-22T11:36:14.135Z</time></trkpt><trkpt lat="43.4311" lon="11.5688267"><ele>615.0</ele><time>2026-04-22T11:36:15.138Z</time></trkpt><trkpt lat="43.4309967" lon="11.5688283"><ele>614.2</ele><time>2026-04-22T11:36:16.137Z</time></trkpt><trkpt lat="43.4309" lon="11.5688467"><ele>613.4</ele><time>2026-04-22T11:36:17.137Z</time></trkpt><trkpt lat="43.4308083" lon="11.568845"><ele>612.6</ele><time>2026-04-22T11:36:18.137Z</time></trkpt><trkpt lat="43.430725" lon="11.5688183"><ele>611.8</ele><time>2026-04-22T11:36:19.137Z</time></trkpt><trkpt lat="43.430645" lon="11.5687783"><ele>611.0</ele><time>2026-04-22T11:36:20.137Z</time></trkpt><trkpt lat="43.43056" lon="11.5687233"><ele>614.0</ele><time>2026-04-22T11:36:21.138Z</time></trkpt><trkpt lat="43.43047" lon="11.5686533"><ele>617.0</ele><time>2026-04-22T11:36:22.137Z</time></trkpt><trkpt lat="43.4303883" lon="11.5685767"><ele>620.0</ele><time>2026-04-22T11:36:23.137Z</time></trkpt><trkpt lat="43.4303183" lon="11.568495"><ele>623.0</ele><time>2026-04-22T11:36:24.137Z</time></trkpt><trkpt lat="43.4302583" lon="11.568385"><ele>626.0</ele><time>2026-04-22T11:36:25.136Z</time></trkpt><trkpt lat="43.4301983" lon="11.5682567"><ele>626.0</ele><time>2026-04-22T11:36:26.136Z</time></trkpt><trkpt lat="43.43013" lon="11.5681167"><ele>626.0</ele><time>2026-04-22T11:36:27.138Z</time></trkpt><trkpt lat="43.4300633" lon="11.5679683"><ele>626.0</ele><time>2026-04-22T11:36:28.137Z</time></trkpt><trkpt lat="43.42999" lon="11.567815"><ele>626.0</ele><time>2026-04-22T11:36:29.136Z</time></trkpt><trkpt lat="43.4299233" lon="11.5676667"><ele>628.0</ele><time>2026-04-22T11:36:30.136Z</time></trkpt><trkpt lat="43.42986" lon="11.5675283"><ele>630.0</ele><time>2026-04-22T11:36:31.138Z</time></trkpt><trkpt lat="43.4298017" lon="11.5674067"><ele>632.0</ele><time>2026-04-22T11:36:32.136Z</time></trkpt><trkpt lat="43.4297467" lon="11.567295"><ele>634.0</ele><time>2026-04-22T11:36:33.138Z</time></trkpt><trkpt lat="43.4296917" lon="11.56719"><ele>636.0</ele><time>2026-04-22T11:36:34.137Z</time></trkpt><trkpt lat="43.42963" lon="11.5670917"><ele>632.0</ele><time>2026-04-22T11:36:35.137Z</time></trkpt><trkpt lat="43.42958" lon="11.5669917"><ele>628.0</ele><time>2026-04-22T11:36:36.138Z</time></trkpt><trkpt lat="43.4295533" lon="11.566885"><ele>624.0</ele><time>2026-04-22T11:36:37.139Z</time></trkpt><trkpt lat="43.4295417" lon="11.5667583"><ele>620.0</ele><time>2026-04-22T11:36:38.138Z</time></trkpt><trkpt lat="43.4295533" lon="11.56663"><ele>616.0</ele><time>2026-04-22T11:36:39.14Z</time></trkpt><trkpt lat="43.429565" lon="11.56651"><ele>612.0</ele><time>2026-04-22T11:36:40.137Z</time></trkpt><trkpt lat="43.4295733" lon="11.56639"><ele>612.0</ele><time>2026-04-22T11:36:41.137Z</time></trkpt><trkpt lat="43.4295633" lon="11.566265"><ele>612.0</ele><time>2026-04-22T11:36:42.137Z</time></trkpt><trkpt lat="43.4295167" lon="11.5661233"><ele>612.0</ele><time>2026-04-22T11:36:43.136Z</time></trkpt><trkpt lat="43.429465" lon="11.5659933"><ele>612.0</ele><time>2026-04-22T11:36:44.136Z</time></trkpt><trkpt lat="43.429415" lon="11.56588"><ele>612.0</ele><time>2026-04-22T11:36:45.138Z</time></trkpt><trkpt lat="43.4293667" lon="11.56577"><ele>613.4</ele><time>2026-04-22T11:36:46.135Z</time></trkpt><trkpt lat="43.4293183" lon="11.5656567"><ele>614.8000000000001</ele><time>2026-04-22T11:36:47.136Z</time></trkpt><trkpt lat="43.4292533" lon="11.5655417"><ele>616.2</ele><time>2026-04-22T11:36:48.137Z</time></trkpt><trkpt lat="43.4291833" lon="11.5654233"><ele>617.6</ele><time>2026-04-22T11:36:49.138Z</time></trkpt><trkpt lat="43.4291067" lon="11.5653183"><ele>619.0</ele><time>2026-04-22T11:36:50.138Z</time></trkpt><trkpt lat="43.4290333" lon="11.565225"><ele>619.0</ele><time>2026-04-22T11:36:51.138Z</time></trkpt><trkpt lat="43.4289783" lon="11.5651467"><ele>619.0</ele><time>2026-04-22T11:36:52.138Z</time></trkpt><trkpt lat="43.4289417" lon="11.5650733"><ele>619.0</ele><time>2026-04-22T11:36:53.137Z</time></trkpt><trkpt lat="43.4289383" lon="11.5649567"><ele>619.0</ele><time>2026-04-22T11:36:55.138Z</time></trkpt><trkpt lat="43.4290467" lon="11.5649867"><ele>619.0</ele><time>2026-04-22T11:36:57.14Z</time></trkpt><trkpt lat="43.4291333" lon="11.56502"><ele>619.0</ele><time>2026-04-22T11:36:58.136Z</time></trkpt><trkpt lat="43.4292733" lon="11.56509"><ele>619.0</ele><time>2026-04-22T11:36:59.138Z</time></trkpt><trkpt lat="43.42942" lon="11.5651533"><ele>619.0</ele><time>2026-04-22T11:37:00.136Z</time></trkpt><trkpt lat="43.4295583" lon="11.5652017"><ele>619.0</ele><time>2026-04-22T11:37:01.132Z</time></trkpt><trkpt lat="43.4296867" lon="11.5652483"><ele>619.0</ele><time>2026-04-22T11:37:02.138Z</time></trkpt><trkpt lat="43.4298067" lon="11.5652633"><ele>619.1666666666667</ele><time>2026-04-22T11:37:03.138Z</time></trkpt><trkpt lat="43.4299167" lon="11.5652517"><ele>619.3333333333334</ele><time>2026-04-22T11:37:04.138Z</time></trkpt><trkpt lat="43.4300033" lon="11.5652133"><ele>619.5</ele><time>2026-04-22T11:37:05.138Z</time></trkpt><trkpt lat="43.4300717" lon="11.5651667"><ele>619.6666666666666</ele><time>2026-04-22T11:37:06.137Z</time></trkpt><trkpt lat="43.4301267" lon="11.5651033"><ele>619.8333333333333</ele><time>2026-04-22T11:37:07.14Z</time></trkpt><trkpt lat="43.4301833" lon="11.5650383"><ele>620.0</ele><time>2026-04-22T11:37:08.139Z</time></trkpt><trkpt lat="43.430245" lon="11.5649783"><ele>620.0</ele><time>2026-04-22T11:37:09.139Z</time></trkpt><trkpt lat="43.430315" lon="11.564935"><ele>620.0</ele><time>2026-04-22T11:37:10.139Z</time></trkpt><trkpt lat="43.4303883" lon="11.56491"><ele>620.0</ele><time>2026-04-22T11:37:11.138Z</time></trkpt><trkpt lat="43.430465" lon="11.5649017"><ele>620.0</ele><time>2026-04-22T11:37:12.137Z</time></trkpt><trkpt lat="43.43055" lon="11.5649183"><ele>620.0</ele><time>2026-04-22T11:37:13.141Z</time></trkpt><trkpt lat="43.4306617" lon="11.5649583"><ele>620.0</ele><time>2026-04-22T11:37:14.136Z</time></trkpt><trkpt lat="43.430775" lon="11.5649883"><ele>621.0</ele><time>2026-04-22T11:37:15.137Z</time></trkpt><trkpt lat="43.4308867" lon="11.5650067"><ele>622.0</ele><time>2026-04-22T11:37:16.137Z</time></trkpt><trkpt lat="43.430985" lon="11.5650267"><ele>623.0</ele><time>2026-04-22T11:37:17.136Z</time></trkpt><trkpt lat="43.4310733" lon="11.565035"><ele>624.0</ele><time>2026-04-22T11:37:18.137Z</time></trkpt><trkpt lat="43.4311567" lon="11.5650283"><ele>625.0</ele><time>2026-04-22T11:37:19.138Z</time></trkpt><trkpt lat="43.431245" lon="11.5649967"><ele>625.5</ele><time>2026-04-22T11:37:20.138Z</time></trkpt><trkpt lat="43.4313433" lon="11.564925"><ele>626.0</ele><time>2026-04-22T11:37:21.138Z</time></trkpt><trkpt lat="43.4314483" lon="11.56481"><ele>626.5</ele><time>2026-04-22T11:37:22.136Z</time></trkpt><trkpt lat="43.43155" lon="11.5646867"><ele>627.0</ele><time>2026-04-22T11:37:23.137Z</time></trkpt><trkpt lat="43.4316483" lon="11.5645683"><ele>626.0</ele><time>2026-04-22T11:37:24.136Z</time></trkpt><trkpt lat="43.4317383" lon="11.5644583"><ele>625.0</ele><time>2026-04-22T11:37:25.143Z</time></trkpt><trkpt lat="43.43182" lon="11.564345"><ele>624.0</ele><time>2026-04-22T11:37:26.137Z</time></trkpt><trkpt lat="43.4319017" lon="11.5642217"><ele>623.0</ele><time>2026-04-22T11:37:27.137Z</time></trkpt><trkpt lat="43.4319733" lon="11.5640833"><ele>623.0</ele><time>2026-04-22T11:37:28.138Z</time></trkpt><trkpt lat="43.43204" lon="11.5639283"><ele>623.0</ele><time>2026-04-22T11:37:29.138Z</time></trkpt><trkpt lat="43.4320967" lon="11.563755"><ele>623.0</ele><time>2026-04-22T11:37:30.137Z</time></trkpt><trkpt lat="43.4321483" lon="11.5635833"><ele>623.0</ele><time>2026-04-22T11:37:31.137Z</time></trkpt><trkpt lat="43.43219" lon="11.5634317"><ele>623.1666666666666</ele><time>2026-04-22T11:37:32.137Z</time></trkpt><trkpt lat="43.4322217" lon="11.5633017"><ele>623.3333333333333</ele><time>2026-04-22T11:37:33.138Z</time></trkpt><trkpt lat="43.4322517" lon="11.5631917"><ele>623.5</ele><time>2026-04-22T11:37:34.135Z</time></trkpt><trkpt lat="43.4322833" lon="11.563095"><ele>623.6666666666666</ele><time>2026-04-22T11:37:35.137Z</time></trkpt><trkpt lat="43.43232" lon="11.5630167"><ele>623.8333333333334</ele><time>2026-04-22T11:37:36.137Z</time></trkpt><trkpt lat="43.4323617" lon="11.562945"><ele>624.0</ele><time>2026-04-22T11:37:37.138Z</time></trkpt><trkpt lat="43.4323983" lon="11.5628567"><ele>624.0</ele><time>2026-04-22T11:37:38.138Z</time></trkpt><trkpt lat="43.4324267" lon="11.56276"><ele>624.0</ele><time>2026-04-22T11:37:39.139Z</time></trkpt><trkpt lat="43.4324483" lon="11.5626683"><ele>624.0</ele><time>2026-04-22T11:37:40.139Z</time></trkpt><trkpt lat="43.4324817" lon="11.5625933"><ele>624.0</ele><time>2026-04-22T11:37:41.137Z</time></trkpt><trkpt lat="43.432545" lon="11.5625567"><ele>624.0</ele><time>2026-04-22T11:37:42.137Z</time></trkpt><trkpt lat="43.4326117" lon="11.5625483"><ele>624.0</ele><time>2026-04-22T11:37:43.138Z</time></trkpt><trkpt lat="43.432675" lon="11.5625717"><ele>624.0</ele><time>2026-04-22T11:37:44.137Z</time></trkpt><trkpt lat="43.4327983" lon="11.5625883"><ele>624.0</ele><time>2026-04-22T11:37:46.136Z</time></trkpt><trkpt lat="43.4328783" lon="11.5625617"><ele>624.0</ele><time>2026-04-22T11:37:47.137Z</time></trkpt><trkpt lat="43.4329667" lon="11.5625133"><ele>624.0</ele><time>2026-04-22T11:37:48.136Z</time></trkpt><trkpt lat="43.43306" lon="11.562455"><ele>624.0</ele><time>2026-04-22T11:37:49.138Z</time></trkpt><trkpt lat="43.4331517" lon="11.5624"><ele>624.0</ele><time>2026-04-22T11:37:50.136Z</time></trkpt><trkpt lat="43.433235" lon="11.5623317"><ele>622.2</ele><time>2026-04-22T11:37:51.136Z</time></trkpt><trkpt lat="43.4333183" lon="11.5622483"><ele>620.4</ele><time>2026-04-22T11:37:52.137Z</time></trkpt><trkpt lat="43.4334083" lon="11.5621533"><ele>618.6</ele><time>2026-04-22T11:37:53.137Z</time></trkpt><trkpt lat="43.433495" lon="11.5620517"><ele>616.8</ele><time>2026-04-22T11:37:54.137Z</time></trkpt><trkpt lat="43.4335817" lon="11.561955"><ele>615.0</ele><time>2026-04-22T11:37:55.138Z</time></trkpt><trkpt lat="43.4336733" lon="11.561875"><ele>614.8</ele><time>2026-04-22T11:37:56.138Z</time></trkpt><trkpt lat="43.4337717" lon="11.5618017"><ele>614.6</ele><time>2026-04-22T11:37:57.138Z</time></trkpt><trkpt lat="43.4338733" lon="11.561715"><ele>614.4</ele><time>2026-04-22T11:37:58.138Z</time></trkpt><trkpt lat="43.43397" lon="11.561625"><ele>614.2</ele><time>2026-04-22T11:37:59.138Z</time></trkpt><trkpt lat="43.4340517" lon="11.561555"><ele>614.0</ele><time>2026-04-22T11:38:00.137Z</time></trkpt><trkpt lat="43.43413" lon="11.561515"><ele>613.2</ele><time>2026-04-22T11:38:01.138Z</time></trkpt><trkpt lat="43.4342167" lon="11.5615"><ele>612.4</ele><time>2026-04-22T11:38:02.138Z</time></trkpt><trkpt lat="43.4342933" lon="11.5614833"><ele>611.6</ele><time>2026-04-22T11:38:03.137Z</time></trkpt><trkpt lat="43.4343517" lon="11.56145"><ele>610.8</ele><time>2026-04-22T11:38:04.138Z</time></trkpt><trkpt lat="43.4344283" lon="11.5613217"><ele>610.0</ele><time>2026-04-22T11:38:06.137Z</time></trkpt><trkpt lat="43.4345333" lon="11.56122"><ele>611.2</ele><time>2026-04-22T11:38:08.138Z</time></trkpt><trkpt lat="43.4345983" lon="11.56119"><ele>612.4</ele><time>2026-04-22T11:38:09.137Z</time></trkpt><trkpt lat="43.4346917" lon="11.5611117"><ele>613.6</ele><time>2026-04-22T11:38:11.136Z</time></trkpt><trkpt lat="43.43475" lon="11.5609517"><ele>614.8</ele><time>2026-04-22T11:38:13.138Z</time></trkpt><trkpt lat="43.4347717" lon="11.5608583"><ele>616.0</ele><time>2026-04-22T11:38:14.137Z</time></trkpt><trkpt lat="43.4347917" lon="11.5607633"><ele>616.5714285714286</ele><time>2026-04-22T11:38:15.139Z</time></trkpt><trkpt lat="43.4348033" lon="11.56066"><ele>617.1428571428571</ele><time>2026-04-22T11:38:16.136Z</time></trkpt><trkpt lat="43.4348133" lon="11.5605633"><ele>617.7142857142858</ele><time>2026-04-22T11:38:17.137Z</time></trkpt><trkpt lat="43.4348267" lon="11.5604767"><ele>618.2857142857142</ele><time>2026-04-22T11:38:18.138Z</time></trkpt><trkpt lat="43.4348367" lon="11.5603883"><ele>618.8571428571429</ele><time>2026-04-22T11:38:19.137Z</time></trkpt><trkpt lat="43.4348333" lon="11.5603017"><ele>619.4285714285714</ele><time>2026-04-22T11:38:20.138Z</time></trkpt><trkpt lat="43.4348117" lon="11.5602167"><ele>620.0</ele><time>2026-04-22T11:38:21.14Z</time></trkpt><trkpt lat="43.43477" lon="11.56013"><ele>620.6666666666666</ele><time>2026-04-22T11:38:22.137Z</time></trkpt><trkpt lat="43.4347333" lon="11.5600417"><ele>621.3333333333333</ele><time>2026-04-22T11:38:23.138Z</time></trkpt><trkpt lat="43.4346967" lon="11.559945"><ele>622.0</ele><time>2026-04-22T11:38:24.135Z</time></trkpt><trkpt lat="43.43466" lon="11.5598417"><ele>622.6666666666666</ele><time>2026-04-22T11:38:25.137Z</time></trkpt><trkpt lat="43.4346217" lon="11.5597367"><ele>623.3333333333334</ele><time>2026-04-22T11:38:26.137Z</time></trkpt><trkpt lat="43.4345767" lon="11.5596283"><ele>624.0</ele><time>2026-04-22T11:38:27.138Z</time></trkpt><trkpt lat="43.4345317" lon="11.5595217"><ele>625.8</ele><time>2026-04-22T11:38:28.136Z</time></trkpt><trkpt lat="43.43448" lon="11.5594067"><ele>627.5999999999999</ele><time>2026-04-22T11:38:29.137Z</time></trkpt><trkpt lat="43.434425" lon="11.55929"><ele>629.4</ele><time>2026-04-22T11:38:30.138Z</time></trkpt><trkpt lat="43.434375" lon="11.55916"><ele>631.1999999999999</ele><time>2026-04-22T11:38:31.137Z</time></trkpt><trkpt lat="43.4343283" lon="11.5590083"><ele>633.0</ele><time>2026-04-22T11:38:32.18Z</time></trkpt><trkpt lat="43.4342883" lon="11.5588517"><ele>633.25</ele><time>2026-04-22T11:38:33.138Z</time></trkpt><trkpt lat="43.43425" lon="11.5586983"><ele>633.5</ele><time>2026-04-22T11:38:34.138Z</time></trkpt><trkpt lat="43.434215" lon="11.5585483"><ele>633.75</ele><time>2026-04-22T11:38:35.137Z</time></trkpt><trkpt lat="43.434185" lon="11.558395"><ele>634.0</ele><time>2026-04-22T11:38:36.138Z</time></trkpt><trkpt lat="43.4341567" lon="11.5582433"><ele>634.0</ele><time>2026-04-22T11:38:37.138Z</time></trkpt><trkpt lat="43.4341367" lon="11.558105"><ele>634.0</ele><time>2026-04-22T11:38:38.137Z</time></trkpt><trkpt lat="43.4341383" lon="11.55797"><ele>634.0</ele><time>2026-04-22T11:38:39.138Z</time></trkpt><trkpt lat="43.434165" lon="11.55783"><ele>634.0</ele><time>2026-04-22T11:38:40.136Z</time></trkpt><trkpt lat="43.4342067" lon="11.5576833"><ele>634.0</ele><time>2026-04-22T11:38:41.139Z</time></trkpt><trkpt lat="43.4342483" lon="11.5575367"><ele>633.8</ele><time>2026-04-22T11:38:42.136Z</time></trkpt><trkpt lat="43.4342883" lon="11.5574067"><ele>633.5999999999999</ele><time>2026-04-22T11:38:43.133Z</time></trkpt><trkpt lat="43.4343183" lon="11.557275"><ele>633.4</ele><time>2026-04-22T11:38:44.133Z</time></trkpt><trkpt lat="43.434335" lon="11.5571267"><ele>633.1999999999999</ele><time>2026-04-22T11:38:45.136Z</time></trkpt><trkpt lat="43.4343483" lon="11.5569717"><ele>633.0</ele><time>2026-04-22T11:38:46.139Z</time></trkpt><trkpt lat="43.4343617" lon="11.556825"><ele>632.4</ele><time>2026-04-22T11:38:47.134Z</time></trkpt><trkpt lat="43.434365" lon="11.5566833"><ele>631.8</ele><time>2026-04-22T11:38:48.134Z</time></trkpt><trkpt lat="43.4343667" lon="11.556545"><ele>631.2</ele><time>2026-04-22T11:38:49.14Z</time></trkpt><trkpt lat="43.434375" lon="11.55641"><ele>630.6</ele><time>2026-04-22T11:38:50.14Z</time></trkpt><trkpt lat="43.434395" lon="11.5562783"><ele>630.0</ele><time>2026-04-22T11:38:51.145Z</time></trkpt><trkpt lat="43.4344283" lon="11.5561533"><ele>628.75</ele><time>2026-04-22T11:38:52.137Z</time></trkpt><trkpt lat="43.4344733" lon="11.5560333"><ele>627.5</ele><time>2026-04-22T11:38:53.132Z</time></trkpt><trkpt lat="43.4345317" lon="11.5558983"><ele>626.25</ele><time>2026-04-22T11:38:54.138Z</time></trkpt><trkpt lat="43.434595" lon="11.5557533"><ele>625.0</ele><time>2026-04-22T11:38:55.148Z</time></trkpt><trkpt lat="43.4346533" lon="11.5556133"><ele>627.3333333333334</ele><time>2026-04-22T11:38:56.137Z</time></trkpt><trkpt lat="43.4347017" lon="11.5554933"><ele>629.6666666666667</ele><time>2026-04-22T11:38:57.141Z</time></trkpt><trkpt lat="43.43475" lon="11.5553783"><ele>632.0</ele><time>2026-04-22T11:38:58.137Z</time></trkpt><trkpt lat="43.4347967" lon="11.5552667"><ele>634.3333333333334</ele><time>2026-04-22T11:38:59.137Z</time></trkpt><trkpt lat="43.43484" lon="11.5551817"><ele>636.6666666666666</ele><time>2026-04-22T11:39:00.137Z</time></trkpt><trkpt lat="43.434875" lon="11.5551083"><ele>639.0</ele><time>2026-04-22T11:39:01.137Z</time></trkpt><trkpt lat="43.43496" lon="11.5550233"><ele>639.0</ele><time>2026-04-22T11:39:03.139Z</time></trkpt><trkpt lat="43.43509" lon="11.5550167"><ele>639.0</ele><time>2026-04-22T11:39:05.138Z</time></trkpt><trkpt lat="43.4351633" lon="11.5550333"><ele>639.0</ele><time>2026-04-22T11:39:06.138Z</time></trkpt><trkpt lat="43.4352467" lon="11.5550467"><ele>639.0</ele><time>2026-04-22T11:39:07.138Z</time></trkpt><trkpt lat="43.4353383" lon="11.55506"><ele>639.0</ele><time>2026-04-22T11:39:08.138Z</time></trkpt><trkpt lat="43.43545" lon="11.5550733"><ele>639.6</ele><time>2026-04-22T11:39:09.14Z</time></trkpt><trkpt lat="43.4355617" lon="11.5550983"><ele>640.2</ele><time>2026-04-22T11:39:10.141Z</time></trkpt><trkpt lat="43.4356633" lon="11.5551283"><ele>640.8000000000001</ele><time>2026-04-22T11:39:11.135Z</time></trkpt><trkpt lat="43.435755" lon="11.55515"><ele>641.4</ele><time>2026-04-22T11:39:12.139Z</time></trkpt><trkpt lat="43.43584" lon="11.5551783"><ele>642.0</ele><time>2026-04-22T11:39:13.144Z</time></trkpt><trkpt lat="43.4359283" lon="11.55522"><ele>642.0</ele><time>2026-04-22T11:39:14.139Z</time></trkpt><trkpt lat="43.4360283" lon="11.5552733"><ele>642.0</ele><time>2026-04-22T11:39:15.14Z</time></trkpt><trkpt lat="43.436125" lon="11.5553383"><ele>642.0</ele><time>2026-04-22T11:39:16.137Z</time></trkpt><trkpt lat="43.4362083" lon="11.5554"><ele>642.0</ele><time>2026-04-22T11:39:17.138Z</time></trkpt><trkpt lat="43.43628" lon="11.5554517"><ele>642.0</ele><time>2026-04-22T11:39:18.136Z</time></trkpt><trkpt lat="43.4363567" lon="11.5555"><ele>642.5</ele><time>2026-04-22T11:39:19.137Z</time></trkpt><trkpt lat="43.4364333" lon="11.555565"><ele>643.0</ele><time>2026-04-22T11:39:20.138Z</time></trkpt><trkpt lat="43.4365017" lon="11.5556383"><ele>643.5</ele><time>2026-04-22T11:39:21.139Z</time></trkpt><trkpt lat="43.4365683" lon="11.5557067"><ele>644.0</ele><time>2026-04-22T11:39:22.138Z</time></trkpt><trkpt lat="43.4366383" lon="11.5557633"><ele>644.5</ele><time>2026-04-22T11:39:23.138Z</time></trkpt><trkpt lat="43.4367217" lon="11.5558033"><ele>645.0</ele><time>2026-04-22T11:39:24.138Z</time></trkpt><trkpt lat="43.436825" lon="11.5558233"><ele>645.0</ele><time>2026-04-22T11:39:25.138Z</time></trkpt><trkpt lat="43.4369367" lon="11.555825"><ele>645.0</ele><time>2026-04-22T11:39:26.139Z</time></trkpt><trkpt lat="43.4370333" lon="11.5558217"><ele>645.0</ele><time>2026-04-22T11:39:27.139Z</time></trkpt><trkpt lat="43.43711" lon="11.5558067"><ele>645.0</ele><time>2026-04-22T11:39:28.139Z</time></trkpt><trkpt lat="43.43718" lon="11.555805"><ele>645.0</ele><time>2026-04-22T11:39:29.138Z</time></trkpt><trkpt lat="43.437245" lon="11.55583"><ele>645.0</ele><time>2026-04-22T11:39:30.138Z</time></trkpt><trkpt lat="43.4373083" lon="11.5558717"><ele>643.8571428571429</ele><time>2026-04-22T11:39:31.138Z</time></trkpt><trkpt lat="43.4373667" lon="11.5559217"><ele>642.7142857142857</ele><time>2026-04-22T11:39:32.138Z</time></trkpt><trkpt lat="43.4374233" lon="11.5559783"><ele>641.5714285714286</ele><time>2026-04-22T11:39:33.137Z</time></trkpt><trkpt lat="43.437485" lon="11.55603"><ele>640.4285714285714</ele><time>2026-04-22T11:39:34.14Z</time></trkpt><trkpt lat="43.4375533" lon="11.5560733"><ele>639.2857142857142</ele><time>2026-04-22T11:39:35.145Z</time></trkpt><trkpt lat="43.4376167" lon="11.556115"><ele>638.1428571428571</ele><time>2026-04-22T11:39:36.138Z</time></trkpt><trkpt lat="43.4376783" lon="11.55615"><ele>637.0</ele><time>2026-04-22T11:39:37.137Z</time></trkpt><trkpt lat="43.4377883" lon="11.5562133"><ele>635.6666666666667</ele><time>2026-04-22T11:39:39.139Z</time></trkpt><trkpt lat="43.437885" lon="11.5563017"><ele>634.3333333333334</ele><time>2026-04-22T11:39:41.137Z</time></trkpt><trkpt lat="43.4379317" lon="11.5563717"><ele>633.0</ele><time>2026-04-22T11:39:42.136Z</time></trkpt><trkpt lat="43.43797" lon="11.5564467"><ele>631.6666666666666</ele><time>2026-04-22T11:39:43.137Z</time></trkpt><trkpt lat="43.4380083" lon="11.556535"><ele>630.3333333333333</ele><time>2026-04-22T11:39:44.138Z</time></trkpt><trkpt lat="43.4380467" lon="11.5566233"><ele>629.0</ele><time>2026-04-22T11:39:45.138Z</time></trkpt><trkpt lat="43.4380867" lon="11.55671"><ele>627.5</ele><time>2026-04-22T11:39:46.138Z</time></trkpt><trkpt lat="43.438125" lon="11.5568"><ele>626.0</ele><time>2026-04-22T11:39:47.137Z</time></trkpt><trkpt lat="43.4381617" lon="11.5568883"><ele>624.5</ele><time>2026-04-22T11:39:48.137Z</time></trkpt><trkpt lat="43.438205" lon="11.5569717"><ele>623.0</ele><time>2026-04-22T11:39:49.137Z</time></trkpt><trkpt lat="43.43825" lon="11.5570567"><ele>621.5</ele><time>2026-04-22T11:39:50.138Z</time></trkpt><trkpt lat="43.4382933" lon="11.55714"><ele>620.0</ele><time>2026-04-22T11:39:51.138Z</time></trkpt><trkpt lat="43.4383367" lon="11.5572283"><ele>619.8333333333333</ele><time>2026-04-22T11:39:52.138Z</time></trkpt><trkpt lat="43.43838" lon="11.55732"><ele>619.6666666666666</ele><time>2026-04-22T11:39:53.136Z</time></trkpt><trkpt lat="43.4384183" lon="11.557425"><ele>619.5</ele><time>2026-04-22T11:39:54.138Z</time></trkpt><trkpt lat="43.4384483" lon="11.55753"><ele>619.3333333333334</ele><time>2026-04-22T11:39:55.138Z</time></trkpt><trkpt lat="43.4384683" lon="11.55765"><ele>619.1666666666667</ele><time>2026-04-22T11:39:56.137Z</time></trkpt><trkpt lat="43.4384967" lon="11.557785"><ele>619.0</ele><time>2026-04-22T11:39:57.14Z</time></trkpt><trkpt lat="43.4385417" lon="11.557925"><ele>617.6</ele><time>2026-04-22T11:39:58.138Z</time></trkpt><trkpt lat="43.438575" lon="11.558055"><ele>616.2</ele><time>2026-04-22T11:39:59.137Z</time></trkpt><trkpt lat="43.4386133" lon="11.558175"><ele>614.8000000000001</ele><time>2026-04-22T11:40:00.138Z</time></trkpt><trkpt lat="43.4386533" lon="11.5582833"><ele>613.4</ele><time>2026-04-22T11:40:01.137Z</time></trkpt><trkpt lat="43.4387117" lon="11.5583917"><ele>612.0</ele><time>2026-04-22T11:40:02.139Z</time></trkpt><trkpt lat="43.4387833" lon="11.55851"><ele>612.6</ele><time>2026-04-22T11:40:03.142Z</time></trkpt><trkpt lat="43.4388533" lon="11.5586233"><ele>613.2</ele><time>2026-04-22T11:40:04.138Z</time></trkpt><trkpt lat="43.4389083" lon="11.55871"><ele>613.8</ele><time>2026-04-22T11:40:05.139Z</time></trkpt><trkpt lat="43.43896" lon="11.5587767"><ele>614.4</ele><time>2026-04-22T11:40:06.137Z</time></trkpt><trkpt lat="43.4390283" lon="11.5589033"><ele>615.0</ele><time>2026-04-22T11:40:08.138Z</time></trkpt><trkpt lat="43.439055" lon="11.559"><ele>615.0</ele><time>2026-04-22T11:40:10.138Z</time></trkpt><trkpt lat="43.4390283" lon="11.55909"><ele>615.0</ele><time>2026-04-22T11:40:12.135Z</time></trkpt><trkpt lat="43.4389667" lon="11.5591667"><ele>615.0</ele><time>2026-04-22T11:40:14.137Z</time></trkpt><trkpt lat="43.4388433" lon="11.5592"><ele>615.0</ele><time>2026-04-22T11:40:16.138Z</time></trkpt><trkpt lat="43.43877" lon="11.5591933"><ele>615.0</ele><time>2026-04-22T11:40:17.137Z</time></trkpt><trkpt lat="43.4386983" lon="11.5591683"><ele>615.0</ele><time>2026-04-22T11:40:18.137Z</time></trkpt><trkpt lat="43.43863" lon="11.5591317"><ele>613.8333333333334</ele><time>2026-04-22T11:40:19.139Z</time></trkpt><trkpt lat="43.4385617" lon="11.5590867"><ele>612.6666666666666</ele><time>2026-04-22T11:40:20.138Z</time></trkpt><trkpt lat="43.438485" lon="11.559045"><ele>611.5</ele><time>2026-04-22T11:40:21.14Z</time></trkpt><trkpt lat="43.4384067" lon="11.5590033"><ele>610.3333333333333</ele><time>2026-04-22T11:40:22.134Z</time></trkpt><trkpt lat="43.4383217" lon="11.5589667"><ele>609.1666666666666</ele><time>2026-04-22T11:40:23.138Z</time></trkpt><trkpt lat="43.4382317" lon="11.55893"><ele>608.0</ele><time>2026-04-22T11:40:24.138Z</time></trkpt><trkpt lat="43.438145" lon="11.558875"><ele>608.0</ele><time>2026-04-22T11:40:25.139Z</time></trkpt><trkpt lat="43.438065" lon="11.55882"><ele>608.0</ele><time>2026-04-22T11:40:26.137Z</time></trkpt><trkpt lat="43.4379817" lon="11.55877"><ele>608.0</ele><time>2026-04-22T11:40:27.139Z</time></trkpt><trkpt lat="43.43789" lon="11.5587333"><ele>608.0</ele><time>2026-04-22T11:40:28.136Z</time></trkpt><trkpt lat="43.4378067" lon="11.5586967"><ele>608.0</ele><time>2026-04-22T11:40:29.136Z</time></trkpt><trkpt lat="43.4377333" lon="11.55866"><ele>608.0</ele><time>2026-04-22T11:40:30.137Z</time></trkpt><trkpt lat="43.4376717" lon="11.5586183"><ele>607.8333333333333</ele><time>2026-04-22T11:40:31.137Z</time></trkpt><trkpt lat="43.4376233" lon="11.5585617"><ele>607.6666666666666</ele><time>2026-04-22T11:40:32.135Z</time></trkpt><trkpt lat="43.4375583" lon="11.5584767"><ele>607.5</ele><time>2026-04-22T11:40:34.137Z</time></trkpt><trkpt lat="43.4374917" lon="11.55849"><ele>607.3333333333334</ele><time>2026-04-22T11:40:36.138Z</time></trkpt><trkpt lat="43.4374383" lon="11.5585833"><ele>607.1666666666667</ele><time>2026-04-22T11:40:37.139Z</time></trkpt><trkpt lat="43.4373783" lon="11.5586783"><ele>607.0</ele><time>2026-04-22T11:40:38.137Z</time></trkpt><trkpt lat="43.4373183" lon="11.5587633"><ele>606.3333333333334</ele><time>2026-04-22T11:40:39.138Z</time></trkpt><trkpt lat="43.43725" lon="11.5588383"><ele>605.6666666666667</ele><time>2026-04-22T11:40:40.139Z</time></trkpt><trkpt lat="43.4371783" lon="11.55892"><ele>605.0</ele><time>2026-04-22T11:40:41.136Z</time></trkpt><trkpt lat="43.4371033" lon="11.558985"><ele>604.3333333333334</ele><time>2026-04-22T11:40:42.137Z</time></trkpt><trkpt lat="43.4370283" lon="11.5590383"><ele>603.6666666666666</ele><time>2026-04-22T11:40:43.138Z</time></trkpt><trkpt lat="43.4369617" lon="11.5590883"><ele>603.0</ele><time>2026-04-22T11:40:44.136Z</time></trkpt><trkpt lat="43.4368983" lon="11.5591433"><ele>603.0</ele><time>2026-04-22T11:40:45.138Z</time></trkpt><trkpt lat="43.436835" lon="11.559205"><ele>603.0</ele><time>2026-04-22T11:40:46.136Z</time></trkpt><trkpt lat="43.436775" lon="11.55928"><ele>603.0</ele><time>2026-04-22T11:40:47.136Z</time></trkpt><trkpt lat="43.436715" lon="11.5593467"><ele>603.0</ele><time>2026-04-22T11:40:48.137Z</time></trkpt><trkpt lat="43.436645" lon="11.5593967"><ele>603.0</ele><time>2026-04-22T11:40:49.137Z</time></trkpt><trkpt lat="43.4365633" lon="11.5594183"><ele>603.0</ele><time>2026-04-22T11:40:50.139Z</time></trkpt><trkpt lat="43.4364783" lon="11.559425"><ele>603.0</ele><time>2026-04-22T11:40:51.14Z</time></trkpt><trkpt lat="43.436395" lon="11.55941"><ele>603.0</ele><time>2026-04-22T11:40:52.138Z</time></trkpt><trkpt lat="43.4363133" lon="11.559355"><ele>603.0</ele><time>2026-04-22T11:40:53.136Z</time></trkpt><trkpt lat="43.4362417" lon="11.5592833"><ele>603.0</ele><time>2026-04-22T11:40:54.138Z</time></trkpt><trkpt lat="43.4361717" lon="11.5592083"><ele>603.0</ele><time>2026-04-22T11:40:55.138Z</time></trkpt><trkpt lat="43.4361" lon="11.5591433"><ele>603.0</ele><time>2026-04-22T11:40:56.136Z</time></trkpt><trkpt lat="43.4360283" lon="11.5590917"><ele>602.8333333333334</ele><time>2026-04-22T11:40:57.138Z</time></trkpt><trkpt lat="43.435965" lon="11.559035"><ele>602.6666666666666</ele><time>2026-04-22T11:40:58.136Z</time></trkpt><trkpt lat="43.4358783" lon="11.558945"><ele>602.5</ele><time>2026-04-22T11:41:00.136Z</time></trkpt><trkpt lat="43.4358183" lon="11.5590083"><ele>602.3333333333333</ele><time>2026-04-22T11:41:02.137Z</time></trkpt><trkpt lat="43.4358083" lon="11.5591"><ele>602.1666666666666</ele><time>2026-04-22T11:41:03.135Z</time></trkpt><trkpt lat="43.4358083" lon="11.55921"><ele>602.0</ele><time>2026-04-22T11:41:04.136Z</time></trkpt><trkpt lat="43.4358167" lon="11.5593267"><ele>602.0</ele><time>2026-04-22T11:41:05.137Z</time></trkpt><trkpt lat="43.43583" lon="11.559455"><ele>602.0</ele><time>2026-04-22T11:41:06.138Z</time></trkpt><trkpt lat="43.4358217" lon="11.5595917"><ele>602.0</ele><time>2026-04-22T11:41:07.138Z</time></trkpt><trkpt lat="43.435815" lon="11.559735"><ele>602.0</ele><time>2026-04-22T11:41:08.138Z</time></trkpt><trkpt lat="43.4357967" lon="11.5598583"><ele>602.0</ele><time>2026-04-22T11:41:09.139Z</time></trkpt><trkpt lat="43.435775" lon="11.5599683"><ele>601.1666666666666</ele><time>2026-04-22T11:41:10.138Z</time></trkpt><trkpt lat="43.4356633" lon="11.560015"><ele>600.3333333333333</ele><time>2026-04-22T11:41:12.137Z</time></trkpt><trkpt lat="43.4355967" lon="11.5600317"><ele>599.5</ele><time>2026-04-22T11:41:13.14Z</time></trkpt><trkpt lat="43.4355333" lon="11.56006"><ele>598.6666666666666</ele><time>2026-04-22T11:41:14.138Z</time></trkpt><trkpt lat="43.4354867" lon="11.5601233"><ele>597.8333333333334</ele><time>2026-04-22T11:41:15.137Z</time></trkpt><trkpt lat="43.4354583" lon="11.5602117"><ele>597.0</ele><time>2026-04-22T11:41:16.136Z</time></trkpt><trkpt lat="43.435445" lon="11.5603267"><ele>601.6</ele><time>2026-04-22T11:41:17.136Z</time></trkpt><trkpt lat="43.4354267" lon="11.5604667"><ele>606.2</ele><time>2026-04-22T11:41:18.138Z</time></trkpt><trkpt lat="43.435415" lon="11.5606"><ele>610.8</ele><time>2026-04-22T11:41:19.138Z</time></trkpt><trkpt lat="43.4354083" lon="11.5607283"><ele>615.4</ele><time>2026-04-22T11:41:20.138Z</time></trkpt><trkpt lat="43.4353983" lon="11.5608567"><ele>620.0</ele><time>2026-04-22T11:41:21.137Z</time></trkpt><trkpt lat="43.4353717" lon="11.5609883"><ele>620.0</ele><time>2026-04-22T11:41:22.136Z</time></trkpt><trkpt lat="43.4353317" lon="11.5610883"><ele>620.0</ele><time>2026-04-22T11:41:23.137Z</time></trkpt><trkpt lat="43.4352817" lon="11.5611767"><ele>620.0</ele><time>2026-04-22T11:41:24.139Z</time></trkpt><trkpt lat="43.435215" lon="11.5612617"><ele>620.0</ele><time>2026-04-22T11:41:25.138Z</time></trkpt><trkpt lat="43.4351333" lon="11.561325"><ele>620.0</ele><time>2026-04-22T11:41:26.138Z</time></trkpt><trkpt lat="43.4350533" lon="11.5613933"><ele>620.0</ele><time>2026-04-22T11:41:27.138Z</time></trkpt><trkpt lat="43.4349733" lon="11.5614567"><ele>618.0</ele><time>2026-04-22T11:41:28.137Z</time></trkpt><trkpt lat="43.4348933" lon="11.561515"><ele>616.0</ele><time>2026-04-22T11:41:29.137Z</time></trkpt><trkpt lat="43.43481" lon="11.5615517"><ele>614.0</ele><time>2026-04-22T11:41:30.137Z</time></trkpt><trkpt lat="43.4347167" lon="11.5615783"><ele>612.0</ele><time>2026-04-22T11:41:31.135Z</time></trkpt><trkpt lat="43.434625" lon="11.561585"><ele>610.0</ele><time>2026-04-22T11:41:32.136Z</time></trkpt><trkpt lat="43.4345217" lon="11.5615783"><ele>610.0</ele><time>2026-04-22T11:41:33.139Z</time></trkpt><trkpt lat="43.4344233" lon="11.5615867"><ele>610.0</ele><time>2026-04-22T11:41:34.137Z</time></trkpt><trkpt lat="43.4343267" lon="11.561605"><ele>610.0</ele><time>2026-04-22T11:41:35.138Z</time></trkpt><trkpt lat="43.4342283" lon="11.5616183"><ele>610.0</ele><time>2026-04-22T11:41:36.137Z</time></trkpt><trkpt lat="43.43414" lon="11.5616117"><ele>610.0</ele><time>2026-04-22T11:41:37.14Z</time></trkpt><trkpt lat="43.434065" lon="11.5616033"><ele>610.0</ele><time>2026-04-22T11:41:38.138Z</time></trkpt><trkpt lat="43.4340017" lon="11.5616133"><ele>610.0</ele><time>2026-04-22T11:41:39.14Z</time></trkpt><trkpt lat="43.433925" lon="11.5616567"><ele>610.0</ele><time>2026-04-22T11:41:40.137Z</time></trkpt><trkpt lat="43.4338467" lon="11.5617217"><ele>610.0</ele><time>2026-04-22T11:41:41.138Z</time></trkpt><trkpt lat="43.433785" lon="11.561785"><ele>610.0</ele><time>2026-04-22T11:41:42.137Z</time></trkpt><trkpt lat="43.43372" lon="11.5619217"><ele>610.0</ele><time>2026-04-22T11:41:44.138Z</time></trkpt><trkpt lat="43.4337017" lon="11.562015"><ele>611.0</ele><time>2026-04-22T11:41:45.138Z</time></trkpt><trkpt lat="43.4336767" lon="11.562155"><ele>612.0</ele><time>2026-04-22T11:41:46.138Z</time></trkpt><trkpt lat="43.433655" lon="11.5622867"><ele>613.0</ele><time>2026-04-22T11:41:47.137Z</time></trkpt><trkpt lat="43.43363" lon="11.562415"><ele>614.0</ele><time>2026-04-22T11:41:48.137Z</time></trkpt><trkpt lat="43.4335983" lon="11.5625417"><ele>615.0</ele><time>2026-04-22T11:41:49.138Z</time></trkpt><trkpt lat="43.4335683" lon="11.5626783"><ele>615.0</ele><time>2026-04-22T11:41:50.139Z</time></trkpt><trkpt lat="43.433545" lon="11.56283"><ele>615.0</ele><time>2026-04-22T11:41:51.14Z</time></trkpt><trkpt lat="43.43353" lon="11.5629967"><ele>615.0</ele><time>2026-04-22T11:41:52.139Z</time></trkpt><trkpt lat="43.43352" lon="11.56315"><ele>615.0</ele><time>2026-04-22T11:41:53.137Z</time></trkpt><trkpt lat="43.4335167" lon="11.5632733"><ele>615.0</ele><time>2026-04-22T11:41:54.138Z</time></trkpt><trkpt lat="43.4335283" lon="11.5633833"><ele>615.2</ele><time>2026-04-22T11:41:55.138Z</time></trkpt><trkpt lat="43.4335683" lon="11.5635017"><ele>615.4</ele><time>2026-04-22T11:41:56.138Z</time></trkpt><trkpt lat="43.433605" lon="11.5636183"><ele>615.6</ele><time>2026-04-22T11:41:57.138Z</time></trkpt><trkpt lat="43.4336433" lon="11.5637283"><ele>615.8</ele><time>2026-04-22T11:41:58.138Z</time></trkpt><trkpt lat="43.4336783" lon="11.56384"><ele>616.0</ele><time>2026-04-22T11:41:59.138Z</time></trkpt><trkpt lat="43.4337117" lon="11.5639633"><ele>616.6</ele><time>2026-04-22T11:42:00.136Z</time></trkpt><trkpt lat="43.433745" lon="11.5640917"><ele>617.2</ele><time>2026-04-22T11:42:01.138Z</time></trkpt><trkpt lat="43.4337667" lon="11.5642233"><ele>617.8</ele><time>2026-04-22T11:42:02.136Z</time></trkpt><trkpt lat="43.4337783" lon="11.5643517"><ele>618.4</ele><time>2026-04-22T11:42:03.14Z</time></trkpt><trkpt lat="43.4337867" lon="11.564475"><ele>619.0</ele><time>2026-04-22T11:42:04.138Z</time></trkpt><trkpt lat="43.4337867" lon="11.564585"><ele>617.8571428571429</ele><time>2026-04-22T11:42:05.137Z</time></trkpt><trkpt lat="43.433775" lon="11.56468"><ele>616.7142857142858</ele><time>2026-04-22T11:42:06.138Z</time></trkpt><trkpt lat="43.43375" lon="11.564765"><ele>615.5714285714287</ele><time>2026-04-22T11:42:07.14Z</time></trkpt><trkpt lat="43.4337017" lon="11.5648467"><ele>614.4285714285714</ele><time>2026-04-22T11:42:08.138Z</time></trkpt><trkpt lat="43.4336517" lon="11.5649283"><ele>613.2857142857143</ele><time>2026-04-22T11:42:09.139Z</time></trkpt><trkpt lat="43.4335883" lon="11.5649967"><ele>612.1428571428572</ele><time>2026-04-22T11:42:10.138Z</time></trkpt><trkpt lat="43.4335367" lon="11.5650683"><ele>611.0</ele><time>2026-04-22T11:42:11.137Z</time></trkpt><trkpt lat="43.4334833" lon="11.56514"><ele>611.0</ele><time>2026-04-22T11:42:12.138Z</time></trkpt><trkpt lat="43.4334383" lon="11.56521"><ele>611.0</ele><time>2026-04-22T11:42:13.137Z</time></trkpt><trkpt lat="43.4333833" lon="11.565285"><ele>611.0</ele><time>2026-04-22T11:42:14.134Z</time></trkpt><trkpt lat="43.433335" lon="11.565375"><ele>611.0</ele><time>2026-04-22T11:42:15.14Z</time></trkpt><trkpt lat="43.4332933" lon="11.56547"><ele>611.0</ele><time>2026-04-22T11:42:16.137Z</time></trkpt><trkpt lat="43.4332533" lon="11.5655717"><ele>611.0</ele><time>2026-04-22T11:42:17.137Z</time></trkpt><trkpt lat="43.4332183" lon="11.5656683"><ele>609.0</ele><time>2026-04-22T11:42:18.138Z</time></trkpt><trkpt lat="43.4331783" lon="11.5657783"><ele>607.0</ele><time>2026-04-22T11:42:19.137Z</time></trkpt><trkpt lat="43.4331383" lon="11.5658883"><ele>605.0</ele><time>2026-04-22T11:42:20.139Z</time></trkpt><trkpt lat="43.4330833" lon="11.5660067"><ele>603.0</ele><time>2026-04-22T11:42:21.139Z</time></trkpt><trkpt lat="43.4330267" lon="11.566135"><ele>601.0</ele><time>2026-04-22T11:42:22.138Z</time></trkpt><trkpt lat="43.4329717" lon="11.5662733"><ele>601.0</ele><time>2026-04-22T11:42:23.137Z</time></trkpt><trkpt lat="43.432915" lon="11.5664033"><ele>601.0</ele><time>2026-04-22T11:42:24.138Z</time></trkpt><trkpt lat="43.4328567" lon="11.5665117"><ele>601.0</ele><time>2026-04-22T11:42:25.138Z</time></trkpt><trkpt lat="43.4328133" lon="11.5666183"><ele>601.0</ele><time>2026-04-22T11:42:26.137Z</time></trkpt><trkpt lat="43.43278" lon="11.5667233"><ele>601.0</ele><time>2026-04-22T11:42:27.137Z</time></trkpt><trkpt lat="43.432755" lon="11.566825"><ele>601.0</ele><time>2026-04-22T11:42:28.138Z</time></trkpt><trkpt lat="43.4327417" lon="11.5669283"><ele>601.0</ele><time>2026-04-22T11:42:29.137Z</time></trkpt><trkpt lat="43.432735" lon="11.5670217"><ele>601.0</ele><time>2026-04-22T11:42:30.137Z</time></trkpt><trkpt lat="43.432705" lon="11.5671933"><ele>601.0</ele><time>2026-04-22T11:42:32.138Z</time></trkpt><trkpt lat="43.4327" lon="11.5673117"><ele>601.0</ele><time>2026-04-22T11:42:33.139Z</time></trkpt><trkpt lat="43.4326983" lon="11.5674417"><ele>601.5</ele><time>2026-04-22T11:42:34.137Z</time></trkpt><trkpt lat="43.432695" lon="11.5675667"><ele>602.0</ele><time>2026-04-22T11:42:35.137Z</time></trkpt><trkpt lat="43.4326883" lon="11.56769"><ele>602.5</ele><time>2026-04-22T11:42:36.137Z</time></trkpt><trkpt lat="43.4326733" lon="11.5678083"><ele>603.0</ele><time>2026-04-22T11:42:37.137Z</time></trkpt><trkpt lat="43.43265" lon="11.567925"><ele>603.5</ele><time>2026-04-22T11:42:38.136Z</time></trkpt><trkpt lat="43.4326217" lon="11.5680417"><ele>604.0</ele><time>2026-04-22T11:42:39.139Z</time></trkpt><trkpt lat="43.4326" lon="11.5681517"><ele>603.8333333333334</ele><time>2026-04-22T11:42:40.136Z</time></trkpt><trkpt lat="43.4325883" lon="11.5682567"><ele>603.6666666666667</ele><time>2026-04-22T11:42:41.139Z</time></trkpt><trkpt lat="43.4325717" lon="11.5683667"><ele>603.5</ele><time>2026-04-22T11:42:42.137Z</time></trkpt><trkpt lat="43.4325733" lon="11.5684817"><ele>603.3333333333334</ele><time>2026-04-22T11:42:43.138Z</time></trkpt><trkpt lat="43.432585" lon="11.5685833"><ele>603.1666666666666</ele><time>2026-04-22T11:42:44.139Z</time></trkpt><trkpt lat="43.4326067" lon="11.5686767"><ele>603.0</ele><time>2026-04-22T11:42:45.139Z</time></trkpt><trkpt lat="43.43262" lon="11.5687983"><ele>603.0</ele><time>2026-04-22T11:42:46.139Z</time></trkpt><trkpt lat="43.4326433" lon="11.568935"><ele>603.0</ele><time>2026-04-22T11:42:47.138Z</time></trkpt><trkpt lat="43.4326717" lon="11.5690783"><ele>603.0</ele><time>2026-04-22T11:42:48.138Z</time></trkpt><trkpt lat="43.4327" lon="11.569205"><ele>603.0</ele><time>2026-04-22T11:42:49.137Z</time></trkpt><trkpt lat="43.4327217" lon="11.5693233"><ele>603.0</ele><time>2026-04-22T11:42:50.138Z</time></trkpt><trkpt lat="43.4327467" lon="11.5694217"><ele>602.1666666666666</ele><time>2026-04-22T11:42:51.139Z</time></trkpt><trkpt lat="43.432815" lon="11.569545"><ele>601.3333333333334</ele><time>2026-04-22T11:42:53.137Z</time></trkpt><trkpt lat="43.4328667" lon="11.5695967"><ele>600.5</ele><time>2026-04-22T11:42:54.138Z</time></trkpt><trkpt lat="43.4329333" lon="11.569655"><ele>599.6666666666667</ele><time>2026-04-22T11:42:55.14Z</time></trkpt><trkpt lat="43.4330017" lon="11.5697217"><ele>598.8333333333334</ele><time>2026-04-22T11:42:56.139Z</time></trkpt><trkpt lat="43.4330717" lon="11.5697817"><ele>598.0</ele><time>2026-04-22T11:42:57.14Z</time></trkpt><trkpt lat="43.43314" lon="11.56982"><ele>596.4</ele><time>2026-04-22T11:42:58.137Z</time></trkpt><trkpt lat="43.433225" lon="11.5698333"><ele>594.8</ele><time>2026-04-22T11:42:59.139Z</time></trkpt><trkpt lat="43.433325" lon="11.5698183"><ele>593.2</ele><time>2026-04-22T11:43:00.138Z</time></trkpt><trkpt lat="43.433445" lon="11.5697767"><ele>591.6</ele><time>2026-04-22T11:43:01.137Z</time></trkpt><trkpt lat="43.43357" lon="11.569765"><ele>590.0</ele><time>2026-04-22T11:43:02.138Z</time></trkpt><trkpt lat="43.43371" lon="11.56976"><ele>590.0</ele><time>2026-04-22T11:43:03.138Z</time></trkpt><trkpt lat="43.43386" lon="11.56977"><ele>590.0</ele><time>2026-04-22T11:43:04.137Z</time></trkpt><trkpt lat="43.4340083" lon="11.569785"><ele>590.0</ele><time>2026-04-22T11:43:05.137Z</time></trkpt><trkpt lat="43.434145" lon="11.569795"><ele>590.0</ele><time>2026-04-22T11:43:06.137Z</time></trkpt><trkpt lat="43.4342733" lon="11.5697967"><ele>590.0</ele><time>2026-04-22T11:43:07.139Z</time></trkpt><trkpt lat="43.4343883" lon="11.5697933"><ele>590.0</ele><time>2026-04-22T11:43:08.137Z</time></trkpt><trkpt lat="43.4344967" lon="11.5698033"><ele>590.0</ele><time>2026-04-22T11:43:09.139Z</time></trkpt><trkpt lat="43.4346033" lon="11.569835"><ele>590.0</ele><time>2026-04-22T11:43:10.138Z</time></trkpt><trkpt lat="43.4347167" lon="11.5698933"><ele>590.5</ele><time>2026-04-22T11:43:11.138Z</time></trkpt><trkpt lat="43.4348317" lon="11.569965"><ele>591.0</ele><time>2026-04-22T11:43:12.138Z</time></trkpt><trkpt lat="43.434935" lon="11.5700483"><ele>591.5</ele><time>2026-04-22T11:43:13.137Z</time></trkpt><trkpt lat="43.4350333" lon="11.5701433"><ele>592.0</ele><time>2026-04-22T11:43:14.134Z</time></trkpt><trkpt lat="43.4351317" lon="11.5702483"><ele>590.0</ele><time>2026-04-22T11:43:15.142Z</time></trkpt><trkpt lat="43.4352367" lon="11.5703617"><ele>588.0</ele><time>2026-04-22T11:43:16.138Z</time></trkpt><trkpt lat="43.43534" lon="11.570465"><ele>586.0</ele><time>2026-04-22T11:43:17.137Z</time></trkpt><trkpt lat="43.4354383" lon="11.5705633"><ele>584.0</ele><time>2026-04-22T11:43:18.138Z</time></trkpt><trkpt lat="43.4355217" lon="11.5706467"><ele>584.0</ele><time>2026-04-22T11:43:19.138Z</time></trkpt><trkpt lat="43.4355967" lon="11.5707233"><ele>584.0</ele><time>2026-04-22T11:43:20.137Z</time></trkpt><trkpt lat="43.4356767" lon="11.5707867"><ele>584.0</ele><time>2026-04-22T11:43:21.139Z</time></trkpt><trkpt lat="43.4357717" lon="11.57084"><ele>584.0</ele><time>2026-04-22T11:43:22.136Z</time></trkpt><trkpt lat="43.43587" lon="11.5708833"><ele>584.0</ele><time>2026-04-22T11:43:23.137Z</time></trkpt><trkpt lat="43.4359733" lon="11.5709167"><ele>584.0</ele><time>2026-04-22T11:43:24.136Z</time></trkpt><trkpt lat="43.43607" lon="11.5709533"><ele>584.0</ele><time>2026-04-22T11:43:25.137Z</time></trkpt><trkpt lat="43.4361617" lon="11.57103"><ele>584.0</ele><time>2026-04-22T11:43:26.136Z</time></trkpt><trkpt lat="43.4362383" lon="11.5711367"><ele>584.0</ele><time>2026-04-22T11:43:27.139Z</time></trkpt><trkpt lat="43.436295" lon="11.5712667"><ele>584.0</ele><time>2026-04-22T11:43:28.137Z</time></trkpt><trkpt lat="43.4363367" lon="11.5714167"><ele>583.75</ele><time>2026-04-22T11:43:29.135Z</time></trkpt><trkpt lat="43.4363633" lon="11.571575"><ele>583.5</ele><time>2026-04-22T11:43:30.138Z</time></trkpt><trkpt lat="43.436395" lon="11.57173"><ele>583.25</ele><time>2026-04-22T11:43:31.136Z</time></trkpt><trkpt lat="43.4364367" lon="11.5718783"><ele>583.0</ele><time>2026-04-22T11:43:32.137Z</time></trkpt><trkpt lat="43.4364883" lon="11.57202"><ele>578.5</ele><time>2026-04-22T11:43:33.139Z</time></trkpt><trkpt lat="43.4365517" lon="11.5721483"><ele>574.0</ele><time>2026-04-22T11:43:34.137Z</time></trkpt><trkpt lat="43.4366217" lon="11.5722783"><ele>569.5</ele><time>2026-04-22T11:43:35.136Z</time></trkpt><trkpt lat="43.4366967" lon="11.572435"><ele>565.0</ele><time>2026-04-22T11:43:36.137Z</time></trkpt><trkpt lat="43.436775" lon="11.5726167"><ele>565.0</ele><time>2026-04-22T11:43:37.138Z</time></trkpt><trkpt lat="43.4368517" lon="11.5727983"><ele>565.0</ele><time>2026-04-22T11:43:38.139Z</time></trkpt><trkpt lat="43.436915" lon="11.572965"><ele>565.0</ele><time>2026-04-22T11:43:39.139Z</time></trkpt><trkpt lat="43.4369517" lon="11.5731133"><ele>565.0</ele><time>2026-04-22T11:43:40.138Z</time></trkpt><trkpt lat="43.4369667" lon="11.5732483"><ele>563.6</ele><time>2026-04-22T11:43:41.137Z</time></trkpt><trkpt lat="43.4369917" lon="11.573365"><ele>562.2</ele><time>2026-04-22T11:43:42.136Z</time></trkpt><trkpt lat="43.4370217" lon="11.5734617"><ele>560.8</ele><time>2026-04-22T11:43:43.138Z</time></trkpt><trkpt lat="43.437075" lon="11.573545"><ele>559.4</ele><time>2026-04-22T11:43:44.139Z</time></trkpt><trkpt lat="43.4371517" lon="11.5736217"><ele>558.0</ele><time>2026-04-22T11:43:45.137Z</time></trkpt><trkpt lat="43.4372517" lon="11.573705"><ele>558.0</ele><time>2026-04-22T11:43:46.137Z</time></trkpt><trkpt lat="43.4373633" lon="11.5737983"><ele>558.0</ele><time>2026-04-22T11:43:47.137Z</time></trkpt><trkpt lat="43.43747" lon="11.573895"><ele>558.0</ele><time>2026-04-22T11:43:48.137Z</time></trkpt><trkpt lat="43.4375467" lon="11.5739883"><ele>558.0</ele><time>2026-04-22T11:43:49.136Z</time></trkpt><trkpt lat="43.4375967" lon="11.5740833"><ele>558.0</ele><time>2026-04-22T11:43:50.138Z</time></trkpt><trkpt lat="43.4376267" lon="11.5741933"><ele>558.0</ele><time>2026-04-22T11:43:51.137Z</time></trkpt><trkpt lat="43.437635" lon="11.5743417"><ele>558.0</ele><time>2026-04-22T11:43:52.137Z</time></trkpt><trkpt lat="43.4376483" lon="11.5744883"><ele>558.0</ele><time>2026-04-22T11:43:53.135Z</time></trkpt><trkpt lat="43.437655" lon="11.5746167"><ele>558.0</ele><time>2026-04-22T11:43:54.137Z</time></trkpt><trkpt lat="43.4376733" lon="11.5747217"><ele>558.0</ele><time>2026-04-22T11:43:55.137Z</time></trkpt><trkpt lat="43.437715" lon="11.57481"><ele>559.1666666666666</ele><time>2026-04-22T11:43:56.137Z</time></trkpt><trkpt lat="43.4377733" lon="11.57488"><ele>560.3333333333334</ele><time>2026-04-22T11:43:57.138Z</time></trkpt><trkpt lat="43.4378417" lon="11.5749267"><ele>561.5</ele><time>2026-04-22T11:43:58.136Z</time></trkpt><trkpt lat="43.4379267" lon="11.5749583"><ele>562.6666666666667</ele><time>2026-04-22T11:43:59.136Z</time></trkpt><trkpt lat="43.4380133" lon="11.5749917"><ele>563.8333333333334</ele><time>2026-04-22T11:44:00.136Z</time></trkpt><trkpt lat="43.4380967" lon="11.5750383"><ele>565.0</ele><time>2026-04-22T11:44:01.137Z</time></trkpt><trkpt lat="43.4381783" lon="11.5751483"><ele>565.0</ele><time>2026-04-22T11:44:02.136Z</time></trkpt><trkpt lat="43.4382433" lon="11.5752783"><ele>565.0</ele><time>2026-04-22T11:44:03.137Z</time></trkpt><trkpt lat="43.438315" lon="11.5754217"><ele>565.0</ele><time>2026-04-22T11:44:04.136Z</time></trkpt><trkpt lat="43.43839" lon="11.57556"><ele>565.0</ele><time>2026-04-22T11:44:05.135Z</time></trkpt><trkpt lat="43.4384467" lon="11.57569"><ele>561.8333333333334</ele><time>2026-04-22T11:44:06.137Z</time></trkpt><trkpt lat="43.43848" lon="11.575805"><ele>558.6666666666667</ele><time>2026-04-22T11:44:07.137Z</time></trkpt><trkpt lat="43.4384917" lon="11.575915"><ele>555.5</ele><time>2026-04-22T11:44:08.137Z</time></trkpt><trkpt lat="43.4384917" lon="11.5760233"><ele>552.3333333333334</ele><time>2026-04-22T11:44:09.137Z</time></trkpt><trkpt lat="43.438485" lon="11.5761333"><ele>549.1666666666666</ele><time>2026-04-22T11:44:10.137Z</time></trkpt><trkpt lat="43.4384833" lon="11.576245"><ele>546.0</ele><time>2026-04-22T11:44:11.136Z</time></trkpt><trkpt lat="43.4384983" lon="11.57635"><ele>541.0</ele><time>2026-04-22T11:44:12.137Z</time></trkpt><trkpt lat="43.4385367" lon="11.5764517"><ele>536.0</ele><time>2026-04-22T11:44:13.136Z</time></trkpt><trkpt lat="43.4386067" lon="11.5765617"><ele>531.0</ele><time>2026-04-22T11:44:14.136Z</time></trkpt><trkpt lat="43.4387033" lon="11.5766933"><ele>526.0</ele><time>2026-04-22T11:44:15.137Z</time></trkpt><trkpt lat="43.4387967" lon="11.57683"><ele>526.25</ele><time>2026-04-22T11:44:16.136Z</time></trkpt><trkpt lat="43.4388867" lon="11.5769667"><ele>526.5</ele><time>2026-04-22T11:44:17.136Z</time></trkpt><trkpt lat="43.438965" lon="11.5770983"><ele>526.75</ele><time>2026-04-22T11:44:18.136Z</time></trkpt><trkpt lat="43.4390433" lon="11.577215"><ele>527.0</ele><time>2026-04-22T11:44:19.136Z</time></trkpt><trkpt lat="43.4391017" lon="11.5773117"><ele>527.0</ele><time>2026-04-22T11:44:20.136Z</time></trkpt><trkpt lat="43.4391367" lon="11.5774033"><ele>527.0</ele><time>2026-04-22T11:44:21.137Z</time></trkpt><trkpt lat="43.4391533" lon="11.5774983"><ele>527.0</ele><time>2026-04-22T11:44:22.137Z</time></trkpt><trkpt lat="43.4391433" lon="11.5776167"><ele>527.0</ele><time>2026-04-22T11:44:23.138Z</time></trkpt><trkpt lat="43.4391183" lon="11.5777383"><ele>527.0</ele><time>2026-04-22T11:44:24.137Z</time></trkpt><trkpt lat="43.4391067" lon="11.5778617"><ele>527.0</ele><time>2026-04-22T11:44:25.137Z</time></trkpt><trkpt lat="43.4391117" lon="11.578005"><ele>526.4</ele><time>2026-04-22T11:44:26.132Z</time></trkpt><trkpt lat="43.4391133" lon="11.5781567"><ele>525.8000000000001</ele><time>2026-04-22T11:44:27.138Z</time></trkpt><trkpt lat="43.4391017" lon="11.578295"><ele>525.2</ele><time>2026-04-22T11:44:28.138Z</time></trkpt><trkpt lat="43.4390883" lon="11.5784333"><ele>524.6</ele><time>2026-04-22T11:44:29.135Z</time></trkpt><trkpt lat="43.43909" lon="11.57855"><ele>524.0</ele><time>2026-04-22T11:44:30.139Z</time></trkpt><trkpt lat="43.4391033" lon="11.5786433"><ele>524.4</ele><time>2026-04-22T11:44:31.137Z</time></trkpt><trkpt lat="43.4391667" lon="11.578765"><ele>524.8</ele><time>2026-04-22T11:44:33.138Z</time></trkpt><trkpt lat="43.439205" lon="11.57885"><ele>525.2</ele><time>2026-04-22T11:44:34.134Z</time></trkpt><trkpt lat="43.4392317" lon="11.578965"><ele>525.6</ele><time>2026-04-22T11:44:35.137Z</time></trkpt><trkpt lat="43.4392367" lon="11.5790967"><ele>526.0</ele><time>2026-04-22T11:44:36.137Z</time></trkpt><trkpt lat="43.4392333" lon="11.5792333"><ele>526.0</ele><time>2026-04-22T11:44:37.138Z</time></trkpt><trkpt lat="43.43924" lon="11.57936"><ele>526.0</ele><time>2026-04-22T11:44:38.14Z</time></trkpt><trkpt lat="43.4392733" lon="11.5794817"><ele>526.0</ele><time>2026-04-22T11:44:39.138Z</time></trkpt><trkpt lat="43.4393283" lon="11.5795967"><ele>526.0</ele><time>2026-04-22T11:44:40.137Z</time></trkpt><trkpt lat="43.439395" lon="11.5797033"><ele>526.0</ele><time>2026-04-22T11:44:41.14Z</time></trkpt><trkpt lat="43.4394733" lon="11.5797967"><ele>525.0</ele><time>2026-04-22T11:44:42.137Z</time></trkpt><trkpt lat="43.439565" lon="11.5798817"><ele>524.0</ele><time>2026-04-22T11:44:43.137Z</time></trkpt><trkpt lat="43.4396717" lon="11.5799583"><ele>523.0</ele><time>2026-04-22T11:44:44.138Z</time></trkpt><trkpt lat="43.43978" lon="11.5800317"><ele>522.0</ele><time>2026-04-22T11:44:45.138Z</time></trkpt><trkpt lat="43.4398783" lon="11.5801017"><ele>521.0</ele><time>2026-04-22T11:44:46.138Z</time></trkpt><trkpt lat="43.43997" lon="11.5801617"><ele>520.0</ele><time>2026-04-22T11:44:47.137Z</time></trkpt><trkpt lat="43.4400617" lon="11.5802183"><ele>519.0</ele><time>2026-04-22T11:44:48.138Z</time></trkpt><trkpt lat="43.4401517" lon="11.5802817"><ele>518.0</ele><time>2026-04-22T11:44:49.137Z</time></trkpt><trkpt lat="43.44024" lon="11.5803483"><ele>517.0</ele><time>2026-04-22T11:44:50.137Z</time></trkpt><trkpt lat="43.4403267" lon="11.580415"><ele>516.4</ele><time>2026-04-22T11:44:51.138Z</time></trkpt><trkpt lat="43.440405" lon="11.5804867"><ele>515.8000000000001</ele><time>2026-04-22T11:44:52.138Z</time></trkpt><trkpt lat="43.4404783" lon="11.580575"><ele>515.2</ele><time>2026-04-22T11:44:53.133Z</time></trkpt><trkpt lat="43.4405433" lon="11.5806783"><ele>514.6</ele><time>2026-04-22T11:44:54.138Z</time></trkpt><trkpt lat="43.4406033" lon="11.58078"><ele>514.0</ele><time>2026-04-22T11:44:55.136Z</time></trkpt><trkpt lat="43.4406633" lon="11.5808733"><ele>511.6666666666667</ele><time>2026-04-22T11:44:56.136Z</time></trkpt><trkpt lat="43.44073" lon="11.5809567"><ele>509.33333333333337</ele><time>2026-04-22T11:44:57.138Z</time></trkpt><trkpt lat="43.4408" lon="11.5810267"><ele>507.0</ele><time>2026-04-22T11:44:58.138Z</time></trkpt><trkpt lat="43.4408667" lon="11.5810867"><ele>504.66666666666663</ele><time>2026-04-22T11:44:59.138Z</time></trkpt><trkpt lat="43.4409217" lon="11.581145"><ele>502.3333333333333</ele><time>2026-04-22T11:45:00.137Z</time></trkpt><trkpt lat="43.440975" lon="11.5812983"><ele>500.0</ele><time>2026-04-22T11:45:02.136Z</time></trkpt><trkpt lat="43.4409917" lon="11.5814133"><ele>499.66666666666663</ele><time>2026-04-22T11:45:03.139Z</time></trkpt><trkpt lat="43.441005" lon="11.5815367"><ele>499.3333333333333</ele><time>2026-04-22T11:45:04.138Z</time></trkpt><trkpt lat="43.4410217" lon="11.5816633"><ele>499.0</ele><time>2026-04-22T11:45:05.137Z</time></trkpt><trkpt lat="43.44104" lon="11.5817867"><ele>498.66666666666663</ele><time>2026-04-22T11:45:06.135Z</time></trkpt><trkpt lat="43.4410517" lon="11.5819017"><ele>498.3333333333333</ele><time>2026-04-22T11:45:07.135Z</time></trkpt><trkpt lat="43.4410633" lon="11.5820017"><ele>498.0</ele><time>2026-04-22T11:45:08.136Z</time></trkpt><trkpt lat="43.4410667" lon="11.5821067"><ele>496.6666666666667</ele><time>2026-04-22T11:45:09.137Z</time></trkpt><trkpt lat="43.4410517" lon="11.5822133"><ele>495.33333333333337</ele><time>2026-04-22T11:45:10.136Z</time></trkpt><trkpt lat="43.44103" lon="11.5823167"><ele>494.0</ele><time>2026-04-22T11:45:11.137Z</time></trkpt><trkpt lat="43.4410117" lon="11.582425"><ele>492.6666666666667</ele><time>2026-04-22T11:45:12.137Z</time></trkpt><trkpt lat="43.4410133" lon="11.58255"><ele>491.33333333333337</ele><time>2026-04-22T11:45:13.136Z</time></trkpt><trkpt lat="43.441035" lon="11.582685"><ele>490.0</ele><time>2026-04-22T11:45:14.137Z</time></trkpt><trkpt lat="43.4410617" lon="11.582815"><ele>487.6666666666667</ele><time>2026-04-22T11:45:15.138Z</time></trkpt><trkpt lat="43.4410867" lon="11.5829317"><ele>485.33333333333337</ele><time>2026-04-22T11:45:16.137Z</time></trkpt><trkpt lat="43.44112" lon="11.583025"><ele>483.0</ele><time>2026-04-22T11:45:17.137Z</time></trkpt><trkpt lat="43.4411583" lon="11.5830967"><ele>480.66666666666663</ele><time>2026-04-22T11:45:18.136Z</time></trkpt><trkpt lat="43.4412167" lon="11.583195"><ele>478.3333333333333</ele><time>2026-04-22T11:45:20.139Z</time></trkpt><trkpt lat="43.4412167" lon="11.5832833"><ele>476.0</ele><time>2026-04-22T11:45:22.138Z</time></trkpt><trkpt lat="43.4411383" lon="11.5833067"><ele>476.0</ele><time>2026-04-22T11:45:24.135Z</time></trkpt><trkpt lat="43.441035" lon="11.5832267"><ele>476.0</ele><time>2026-04-22T11:45:26.136Z</time></trkpt><trkpt lat="43.4409867" lon="11.58317"><ele>476.0</ele><time>2026-04-22T11:45:27.137Z</time></trkpt><trkpt lat="43.4409117" lon="11.5831067"><ele>476.0</ele><time>2026-04-22T11:45:29.135Z</time></trkpt><trkpt lat="43.4409217" lon="11.58322"><ele>476.0</ele><time>2026-04-22T11:45:34.137Z</time></trkpt><trkpt lat="43.4410233" lon="11.583355"><ele>476.0</ele><time>2026-04-22T11:45:36.137Z</time></trkpt><trkpt lat="43.44112" lon="11.5834267"><ele>476.0</ele><time>2026-04-22T11:45:37.135Z</time></trkpt><trkpt lat="43.4412383" lon="11.58348"><ele>476.0</ele><time>2026-04-22T11:45:38.137Z</time></trkpt><trkpt lat="43.44134" lon="11.5835217"><ele>476.0</ele><time>2026-04-22T11:45:39.138Z</time></trkpt><trkpt lat="43.441425" lon="11.5835383"><ele>476.0</ele><time>2026-04-22T11:45:40.136Z</time></trkpt><trkpt lat="43.4415067" lon="11.5835117"><ele>477.8</ele><time>2026-04-22T11:45:41.138Z</time></trkpt><trkpt lat="43.4416067" lon="11.58345"><ele>479.6</ele><time>2026-04-22T11:45:42.137Z</time></trkpt><trkpt lat="43.4417067" lon="11.58339"><ele>481.4</ele><time>2026-04-22T11:45:43.137Z</time></trkpt><trkpt lat="43.4418083" lon="11.5833467"><ele>483.2</ele><time>2026-04-22T11:45:44.139Z</time></trkpt><trkpt lat="43.441905" lon="11.5833383"><ele>485.0</ele><time>2026-04-22T11:45:45.137Z</time></trkpt><trkpt lat="43.4419983" lon="11.5833833"><ele>485.0</ele><time>2026-04-22T11:45:46.137Z</time></trkpt><trkpt lat="43.442085" lon="11.5834517"><ele>485.0</ele><time>2026-04-22T11:45:47.136Z</time></trkpt><trkpt lat="43.4421733" lon="11.5835117"><ele>485.0</ele><time>2026-04-22T11:45:48.138Z</time></trkpt><trkpt lat="43.4422583" lon="11.583565"><ele>485.0</ele><time>2026-04-22T11:45:49.136Z</time></trkpt><trkpt lat="43.44234" lon="11.5836067"><ele>485.0</ele><time>2026-04-22T11:45:50.137Z</time></trkpt><trkpt lat="43.442415" lon="11.5836283"><ele>486.4</ele><time>2026-04-22T11:45:51.137Z</time></trkpt><trkpt lat="43.4424983" lon="11.583615"><ele>487.8</ele><time>2026-04-22T11:45:52.138Z</time></trkpt><trkpt lat="43.442595" lon="11.5835883"><ele>489.20000000000005</ele><time>2026-04-22T11:45:53.137Z</time></trkpt><trkpt lat="43.4426967" lon="11.5835733"><ele>490.6</ele><time>2026-04-22T11:45:54.138Z</time></trkpt><trkpt lat="43.4428" lon="11.5835767"><ele>492.0</ele><time>2026-04-22T11:45:55.136Z</time></trkpt><trkpt lat="43.4429117" lon="11.5835917"><ele>493.5</ele><time>2026-04-22T11:45:56.137Z</time></trkpt><trkpt lat="43.4430283" lon="11.5836067"><ele>495.0</ele><time>2026-04-22T11:45:57.136Z</time></trkpt><trkpt lat="43.4431417" lon="11.5836133"><ele>496.5</ele><time>2026-04-22T11:45:58.136Z</time></trkpt><trkpt lat="43.443255" lon="11.5836133"><ele>498.0</ele><time>2026-04-22T11:45:59.133Z</time></trkpt><trkpt lat="43.4433717" lon="11.5836"><ele>498.0</ele><time>2026-04-22T11:46:00.136Z</time></trkpt><trkpt lat="43.44349" lon="11.5835833"><ele>497.99999999999994</ele><time>2026-04-22T11:46:01.139Z</time></trkpt><trkpt lat="43.4436" lon="11.5835767"><ele>497.99999999999994</ele><time>2026-04-22T11:46:02.135Z</time></trkpt><trkpt lat="43.4437017" lon="11.5835767"><ele>498.0</ele><time>2026-04-22T11:46:03.138Z</time></trkpt><trkpt lat="43.4437933" lon="11.5835967"><ele>498.0</ele><time>2026-04-22T11:46:04.139Z</time></trkpt><trkpt lat="43.4438917" lon="11.5835983"><ele>497.2</ele><time>2026-04-22T11:46:05.137Z</time></trkpt><trkpt lat="43.444" lon="11.5835883"><ele>496.4</ele><time>2026-04-22T11:46:06.137Z</time></trkpt><trkpt lat="43.4441083" lon="11.5835817"><ele>495.59999999999997</ele><time>2026-04-22T11:46:07.136Z</time></trkpt><trkpt lat="43.4442183" lon="11.5835817"><ele>494.79999999999995</ele><time>2026-04-22T11:46:08.137Z</time></trkpt><trkpt lat="43.4443233" lon="11.5835983"><ele>494.0</ele><time>2026-04-22T11:46:09.137Z</time></trkpt><trkpt lat="43.44443" lon="11.583615"><ele>493.99999999999994</ele><time>2026-04-22T11:46:10.136Z</time></trkpt><trkpt lat="43.4445133" lon="11.5836283"><ele>494.0</ele><time>2026-04-22T11:46:11.136Z</time></trkpt><trkpt lat="43.44458" lon="11.583625"><ele>494.0</ele><time>2026-04-22T11:46:12.137Z</time></trkpt><trkpt lat="43.4446483" lon="11.5836083"><ele>494.0</ele><time>2026-04-22T11:46:13.137Z</time></trkpt><trkpt lat="43.4447267" lon="11.5835617"><ele>493.99999999999994</ele><time>2026-04-22T11:46:14.137Z</time></trkpt><trkpt lat="43.44482" lon="11.583485"><ele>494.0</ele><time>2026-04-22T11:46:15.139Z</time></trkpt><trkpt lat="43.4449017" lon="11.5834217"><ele>492.49999999999994</ele><time>2026-04-22T11:46:16.132Z</time></trkpt><trkpt lat="43.44498" lon="11.583355"><ele>491.0</ele><time>2026-04-22T11:46:17.138Z</time></trkpt><trkpt lat="43.44506" lon="11.5832817"><ele>489.5</ele><time>2026-04-22T11:46:18.136Z</time></trkpt><trkpt lat="43.445135" lon="11.5832283"><ele>488.0</ele><time>2026-04-22T11:46:19.131Z</time></trkpt><trkpt lat="43.4452083" lon="11.5831933"><ele>486.49999999999994</ele><time>2026-04-22T11:46:20.132Z</time></trkpt><trkpt lat="43.4452833" lon="11.5831867"><ele>485.0</ele><time>2026-04-22T11:46:21.133Z</time></trkpt><trkpt lat="43.4453767" lon="11.58325"><ele>485.6</ele><time>2026-04-22T11:46:22.137Z</time></trkpt><trkpt lat="43.4454733" lon="11.5833333"><ele>486.2</ele><time>2026-04-22T11:46:23.138Z</time></trkpt><trkpt lat="43.4455633" lon="11.583415"><ele>486.79999999999995</ele><time>2026-04-22T11:46:24.139Z</time></trkpt><trkpt lat="43.445655" lon="11.5834867"><ele>487.4</ele><time>2026-04-22T11:46:25.137Z</time></trkpt><trkpt lat="43.4457517" lon="11.5835533"><ele>488.0</ele><time>2026-04-22T11:46:26.136Z</time></trkpt><trkpt lat="43.4458583" lon="11.5836117"><ele>488.0</ele><time>2026-04-22T11:46:27.139Z</time></trkpt><trkpt lat="43.4459717" lon="11.5836667"><ele>488.0</ele><time>2026-04-22T11:46:28.136Z</time></trkpt><trkpt lat="43.4460867" lon="11.5837167"><ele>488.0</ele><time>2026-04-22T11:46:29.136Z</time></trkpt><trkpt lat="43.446195" lon="11.5837667"><ele>488.0</ele><time>2026-04-22T11:46:30.135Z</time></trkpt><trkpt lat="43.4462933" lon="11.5838267"><ele>486.3333333333333</ele><time>2026-04-22T11:46:31.135Z</time></trkpt><trkpt lat="43.4463817" lon="11.58388"><ele>484.66666666666663</ele><time>2026-04-22T11:46:32.137Z</time></trkpt><trkpt lat="43.4464667" lon="11.5839117"><ele>483.0</ele><time>2026-04-22T11:46:33.138Z</time></trkpt><trkpt lat="43.4465467" lon="11.5839217"><ele>481.33333333333337</ele><time>2026-04-22T11:46:34.138Z</time></trkpt><trkpt lat="43.4466267" lon="11.5839067"><ele>479.6666666666667</ele><time>2026-04-22T11:46:35.137Z</time></trkpt><trkpt lat="43.446705" lon="11.5838683"><ele>478.0</ele><time>2026-04-22T11:46:36.136Z</time></trkpt><trkpt lat="43.4467867" lon="11.583835"><ele>478.0</ele><time>2026-04-22T11:46:37.137Z</time></trkpt><trkpt lat="43.44688" lon="11.583825"><ele>477.99999999999994</ele><time>2026-04-22T11:46:38.135Z</time></trkpt><trkpt lat="43.4469733" lon="11.5838117"><ele>477.99999999999994</ele><time>2026-04-22T11:46:39.138Z</time></trkpt><trkpt lat="43.44706" lon="11.5837867"><ele>478.0</ele><time>2026-04-22T11:46:40.136Z</time></trkpt><trkpt lat="43.447155" lon="11.5837383"><ele>478.0</ele><time>2026-04-22T11:46:41.136Z</time></trkpt><trkpt lat="43.4472583" lon="11.5836817"><ele>480.79999999999995</ele><time>2026-04-22T11:46:42.138Z</time></trkpt><trkpt lat="43.4473717" lon="11.5836283"><ele>483.59999999999997</ele><time>2026-04-22T11:46:43.137Z</time></trkpt><trkpt lat="43.447485" lon="11.58359"><ele>486.40000000000003</ele><time>2026-04-22T11:46:44.138Z</time></trkpt><trkpt lat="43.4475883" lon="11.5835667"><ele>489.20000000000005</ele><time>2026-04-22T11:46:45.138Z</time></trkpt><trkpt lat="43.4476817" lon="11.5835517"><ele>492.0</ele><time>2026-04-22T11:46:46.137Z</time></trkpt><trkpt lat="43.44776" lon="11.583535"><ele>492.0</ele><time>2026-04-22T11:46:47.138Z</time></trkpt><trkpt lat="43.447835" lon="11.5835"><ele>492.0</ele><time>2026-04-22T11:46:48.138Z</time></trkpt><trkpt lat="43.4478967" lon="11.58345"><ele>492.0</ele><time>2026-04-22T11:46:49.137Z</time></trkpt><trkpt lat="43.4479633" lon="11.5833983"><ele>492.0</ele><time>2026-04-22T11:46:50.138Z</time></trkpt><trkpt lat="43.4480383" lon="11.5833517"><ele>492.0</ele><time>2026-04-22T11:46:51.139Z</time></trkpt><trkpt lat="43.4481067" lon="11.5833067"><ele>492.0</ele><time>2026-04-22T11:46:52.136Z</time></trkpt><trkpt lat="43.4481683" lon="11.5832683"><ele>490.0</ele><time>2026-04-22T11:46:53.137Z</time></trkpt><trkpt lat="43.4482317" lon="11.5832417"><ele>488.0</ele><time>2026-04-22T11:46:54.137Z</time></trkpt><trkpt lat="43.44835" lon="11.5832183"><ele>486.0</ele><time>2026-04-22T11:46:56.138Z</time></trkpt><trkpt lat="43.4484667" lon="11.5831983"><ele>484.0</ele><time>2026-04-22T11:46:58.137Z</time></trkpt><trkpt lat="43.44853" lon="11.5831783"><ele>482.0</ele><time>2026-04-22T11:46:59.137Z</time></trkpt><trkpt lat="43.4485967" lon="11.5831533"><ele>480.0</ele><time>2026-04-22T11:47:00.137Z</time></trkpt><trkpt lat="43.4486683" lon="11.583135"><ele>480.0</ele><time>2026-04-22T11:47:01.139Z</time></trkpt><trkpt lat="43.4487417" lon="11.5831117"><ele>480.0</ele><time>2026-04-22T11:47:02.137Z</time></trkpt><trkpt lat="43.448815" lon="11.5830833"><ele>480.0</ele><time>2026-04-22T11:47:03.139Z</time></trkpt><trkpt lat="43.4488783" lon="11.5830483"><ele>480.0</ele><time>2026-04-22T11:47:04.137Z</time></trkpt><trkpt lat="43.4489383" lon="11.5830117"><ele>480.0</ele><time>2026-04-22T11:47:05.138Z</time></trkpt><trkpt lat="43.4490617" lon="11.582995"><ele>480.0</ele><time>2026-04-22T11:47:07.137Z</time></trkpt><trkpt lat="43.4491667" lon="11.5829583"><ele>476.75</ele><time>2026-04-22T11:47:09.138Z</time></trkpt><trkpt lat="43.44922" lon="11.5827683"><ele>473.5</ele><time>2026-04-22T11:47:11.137Z</time></trkpt><trkpt lat="43.4492483" lon="11.58261"><ele>470.25</ele><time>2026-04-22T11:47:12.137Z</time></trkpt><trkpt lat="43.4492983" lon="11.582475"><ele>467.0</ele><time>2026-04-22T11:47:13.138Z</time></trkpt><trkpt lat="43.4493567" lon="11.582345"><ele>467.0</ele><time>2026-04-22T11:47:14.138Z</time></trkpt><trkpt lat="43.4494233" lon="11.5822417"><ele>467.0</ele><time>2026-04-22T11:47:15.139Z</time></trkpt><trkpt lat="43.4495167" lon="11.582155"><ele>467.0</ele><time>2026-04-22T11:47:16.136Z</time></trkpt><trkpt lat="43.449635" lon="11.5820767"><ele>467.0</ele><time>2026-04-22T11:47:17.136Z</time></trkpt><trkpt lat="43.4497533" lon="11.5820083"><ele>466.75</ele><time>2026-04-22T11:47:18.136Z</time></trkpt><trkpt lat="43.4498667" lon="11.5819433"><ele>466.5</ele><time>2026-04-22T11:47:19.137Z</time></trkpt><trkpt lat="43.4499633" lon="11.5818883"><ele>466.25</ele><time>2026-04-22T11:47:20.137Z</time></trkpt><trkpt lat="43.4500683" lon="11.5818567"><ele>466.0</ele><time>2026-04-22T11:47:21.138Z</time></trkpt><trkpt lat="43.450185" lon="11.5818417"><ele>466.0</ele><time>2026-04-22T11:47:22.137Z</time></trkpt><trkpt lat="43.4503" lon="11.5818333"><ele>466.0</ele><time>2026-04-22T11:47:23.137Z</time></trkpt><trkpt lat="43.4504167" lon="11.58182"><ele>466.0</ele><time>2026-04-22T11:47:24.138Z</time></trkpt><trkpt lat="43.4505283" lon="11.5817967"><ele>466.0</ele><time>2026-04-22T11:47:25.138Z</time></trkpt><trkpt lat="43.450625" lon="11.5817717"><ele>466.0</ele><time>2026-04-22T11:47:26.138Z</time></trkpt><trkpt lat="43.45071" lon="11.5817583"><ele>465.33333333333337</ele><time>2026-04-22T11:47:27.138Z</time></trkpt><trkpt lat="43.45079" lon="11.5817567"><ele>464.6666666666667</ele><time>2026-04-22T11:47:28.137Z</time></trkpt><trkpt lat="43.4508633" lon="11.581775"><ele>464.0</ele><time>2026-04-22T11:47:29.137Z</time></trkpt><trkpt lat="43.4509333" lon="11.5818067"><ele>463.33333333333337</ele><time>2026-04-22T11:47:30.138Z</time></trkpt><trkpt lat="43.450995" lon="11.5818583"><ele>462.6666666666667</ele><time>2026-04-22T11:47:31.138Z</time></trkpt><trkpt lat="43.4510483" lon="11.5819167"><ele>462.0</ele><time>2026-04-22T11:47:32.137Z</time></trkpt><trkpt lat="43.451135" lon="11.5820033"><ele>462.0</ele><time>2026-04-22T11:47:34.137Z</time></trkpt><trkpt lat="43.4512167" lon="11.581955"><ele>462.00000000000006</ele><time>2026-04-22T11:47:36.137Z</time></trkpt><trkpt lat="43.4512383" lon="11.5817883"><ele>462.00000000000006</ele><time>2026-04-22T11:47:38.138Z</time></trkpt><trkpt lat="43.45121" lon="11.5816767"><ele>462.0</ele><time>2026-04-22T11:47:39.138Z</time></trkpt><trkpt lat="43.4511867" lon="11.58157"><ele>462.0</ele><time>2026-04-22T11:47:40.137Z</time></trkpt><trkpt lat="43.4511633" lon="11.581465"><ele>462.0</ele><time>2026-04-22T11:47:41.136Z</time></trkpt><trkpt lat="43.4511533" lon="11.58136"><ele>462.0</ele><time>2026-04-22T11:47:42.138Z</time></trkpt><trkpt lat="43.4511617" lon="11.5812617"><ele>462.0</ele><time>2026-04-22T11:47:43.139Z</time></trkpt><trkpt lat="43.4511883" lon="11.5811633"><ele>462.0</ele><time>2026-04-22T11:47:44.138Z</time></trkpt><trkpt lat="43.4512367" lon="11.5810717"><ele>462.0</ele><time>2026-04-22T11:47:45.141Z</time></trkpt><trkpt lat="43.4512983" lon="11.5809817"><ele>462.0</ele><time>2026-04-22T11:47:46.139Z</time></trkpt><trkpt lat="43.45139" lon="11.5809"><ele>459.0</ele><time>2026-04-22T11:47:47.138Z</time></trkpt><trkpt lat="43.4514867" lon="11.580815"><ele>456.00000000000006</ele><time>2026-04-22T11:47:48.138Z</time></trkpt><trkpt lat="43.451585" lon="11.580735"><ele>453.00000000000006</ele><time>2026-04-22T11:47:49.139Z</time></trkpt><trkpt lat="43.4516867" lon="11.5806667"><ele>450.0</ele><time>2026-04-22T11:47:50.138Z</time></trkpt><trkpt lat="43.4517867" lon="11.5806183"><ele>447.0</ele><time>2026-04-22T11:47:51.138Z</time></trkpt><trkpt lat="43.4518833" lon="11.5805817"><ele>447.0</ele><time>2026-04-22T11:47:52.137Z</time></trkpt><trkpt lat="43.4519733" lon="11.5805567"><ele>447.0</ele><time>2026-04-22T11:47:53.139Z</time></trkpt><trkpt lat="43.4520583" lon="11.58055"><ele>447.0</ele><time>2026-04-22T11:47:54.139Z</time></trkpt><trkpt lat="43.4521333" lon="11.580565"><ele>447.0</ele><time>2026-04-22T11:47:55.138Z</time></trkpt><trkpt lat="43.4522067" lon="11.5805833"><ele>447.0</ele><time>2026-04-22T11:47:56.138Z</time></trkpt><trkpt lat="43.4522817" lon="11.5806033"><ele>447.0</ele><time>2026-04-22T11:47:57.137Z</time></trkpt><trkpt lat="43.4523617" lon="11.5806067"><ele>445.40000000000003</ele><time>2026-04-22T11:47:58.138Z</time></trkpt><trkpt lat="43.4524467" lon="11.5805867"><ele>443.80000000000007</ele><time>2026-04-22T11:47:59.136Z</time></trkpt><trkpt lat="43.4525417" lon="11.5805567"><ele>442.2</ele><time>2026-04-22T11:48:00.137Z</time></trkpt><trkpt lat="43.452635" lon="11.58052"><ele>440.6</ele><time>2026-04-22T11:48:01.136Z</time></trkpt><trkpt lat="43.45273" lon="11.5804933"><ele>439.0</ele><time>2026-04-22T11:48:02.138Z</time></trkpt><trkpt lat="43.452825" lon="11.5804767"><ele>439.0</ele><time>2026-04-22T11:48:03.138Z</time></trkpt><trkpt lat="43.45292" lon="11.5804667"><ele>439.0</ele><time>2026-04-22T11:48:04.138Z</time></trkpt><trkpt lat="43.4530217" lon="11.580465"><ele>439.0</ele><time>2026-04-22T11:48:05.136Z</time></trkpt><trkpt lat="43.4531233" lon="11.5804767"><ele>439.0</ele><time>2026-04-22T11:48:06.138Z</time></trkpt><trkpt lat="43.4532267" lon="11.580505"><ele>439.0</ele><time>2026-04-22T11:48:07.137Z</time></trkpt><trkpt lat="43.453325" lon="11.5805567"><ele>437.0</ele><time>2026-04-22T11:48:08.137Z</time></trkpt><trkpt lat="43.4534183" lon="11.58063"><ele>435.0</ele><time>2026-04-22T11:48:09.133Z</time></trkpt><trkpt lat="43.453505" lon="11.5807217"><ele>433.0</ele><time>2026-04-22T11:48:10.136Z</time></trkpt><trkpt lat="43.453585" lon="11.5808167"><ele>431.0</ele><time>2026-04-22T11:48:11.137Z</time></trkpt><trkpt lat="43.4536533" lon="11.5809067"><ele>429.0</ele><time>2026-04-22T11:48:12.136Z</time></trkpt><trkpt lat="43.4537133" lon="11.5810017"><ele>429.0</ele><time>2026-04-22T11:48:13.138Z</time></trkpt><trkpt lat="43.4537717" lon="11.5810967"><ele>429.0</ele><time>2026-04-22T11:48:14.137Z</time></trkpt><trkpt lat="43.4538267" lon="11.5811833"><ele>429.0</ele><time>2026-04-22T11:48:15.138Z</time></trkpt><trkpt lat="43.4538867" lon="11.581265"><ele>429.0</ele><time>2026-04-22T11:48:16.136Z</time></trkpt><trkpt lat="43.4539567" lon="11.5813417"><ele>429.0</ele><time>2026-04-22T11:48:17.136Z</time></trkpt><trkpt lat="43.454025" lon="11.5814133"><ele>429.0</ele><time>2026-04-22T11:48:18.138Z</time></trkpt><trkpt lat="43.4540883" lon="11.5814783"><ele>427.0</ele><time>2026-04-22T11:48:19.137Z</time></trkpt><trkpt lat="43.4541533" lon="11.5815217"><ele>425.0</ele><time>2026-04-22T11:48:20.139Z</time></trkpt><trkpt lat="43.454225" lon="11.5815483"><ele>423.0</ele><time>2026-04-22T11:48:21.139Z</time></trkpt><trkpt lat="43.4543017" lon="11.5815533"><ele>421.0</ele><time>2026-04-22T11:48:22.138Z</time></trkpt><trkpt lat="43.4543733" lon="11.5815467"><ele>419.0</ele><time>2026-04-22T11:48:23.137Z</time></trkpt><trkpt lat="43.4544383" lon="11.5815333"><ele>417.0</ele><time>2026-04-22T11:48:24.139Z</time></trkpt><trkpt lat="43.45454" lon="11.5814867"><ele>417.0</ele><time>2026-04-22T11:48:26.136Z</time></trkpt><trkpt lat="43.45462" lon="11.5813817"><ele>417.0</ele><time>2026-04-22T11:48:28.136Z</time></trkpt><trkpt lat="43.4546667" lon="11.5812933"><ele>417.0</ele><time>2026-04-22T11:48:29.137Z</time></trkpt><trkpt lat="43.45471" lon="11.5811967"><ele>417.0</ele><time>2026-04-22T11:48:30.137Z</time></trkpt><trkpt lat="43.4547433" lon="11.5811017"><ele>417.0</ele><time>2026-04-22T11:48:31.139Z</time></trkpt><trkpt lat="43.4547683" lon="11.5809967"><ele>417.0</ele><time>2026-04-22T11:48:32.136Z</time></trkpt><trkpt lat="43.4547817" lon="11.5808917"><ele>418.42857142857144</ele><time>2026-04-22T11:48:33.137Z</time></trkpt><trkpt lat="43.4547917" lon="11.58079"><ele>419.85714285714283</ele><time>2026-04-22T11:48:34.138Z</time></trkpt><trkpt lat="43.4548083" lon="11.580695"><ele>421.2857142857143</ele><time>2026-04-22T11:48:35.137Z</time></trkpt><trkpt lat="43.45484" lon="11.5806033"><ele>422.7142857142857</ele><time>2026-04-22T11:48:36.136Z</time></trkpt><trkpt lat="43.4548933" lon="11.580525"><ele>424.1428571428571</ele><time>2026-04-22T11:48:37.137Z</time></trkpt><trkpt lat="43.454955" lon="11.5804567"><ele>425.57142857142856</ele><time>2026-04-22T11:48:38.136Z</time></trkpt><trkpt lat="43.4550083" lon="11.5803967"><ele>427.0</ele><time>2026-04-22T11:48:39.139Z</time></trkpt><trkpt lat="43.45507" lon="11.5803433"><ele>429.1666666666667</ele><time>2026-04-22T11:48:40.138Z</time></trkpt><trkpt lat="43.4551367" lon="11.5803017"><ele>431.33333333333337</ele><time>2026-04-22T11:48:41.137Z</time></trkpt><trkpt lat="43.4552" lon="11.5802683"><ele>433.5</ele><time>2026-04-22T11:48:42.139Z</time></trkpt><trkpt lat="43.4552517" lon="11.58021"><ele>435.66666666666663</ele><time>2026-04-22T11:48:43.138Z</time></trkpt><trkpt lat="43.45531" lon="11.5800717"><ele>437.8333333333333</ele><time>2026-04-22T11:48:45.139Z</time></trkpt><trkpt lat="43.4553283" lon="11.5799783"><ele>440.0</ele><time>2026-04-22T11:48:46.137Z</time></trkpt><trkpt lat="43.4553467" lon="11.5798717"><ele>439.99999999999994</ele><time>2026-04-22T11:48:47.137Z</time></trkpt><trkpt lat="43.4553717" lon="11.5797567"><ele>440.0</ele><time>2026-04-22T11:48:48.14Z</time></trkpt><trkpt lat="43.4553967" lon="11.57964"><ele>440.0</ele><time>2026-04-22T11:48:49.14Z</time></trkpt><trkpt lat="43.4554067" lon="11.5795283"><ele>440.0</ele><time>2026-04-22T11:48:50.139Z</time></trkpt><trkpt lat="43.455415" lon="11.57942"><ele>439.99999999999994</ele><time>2026-04-22T11:48:51.139Z</time></trkpt><trkpt lat="43.4554267" lon="11.5793183"><ele>440.0</ele><time>2026-04-22T11:48:52.14Z</time></trkpt><trkpt lat="43.4554333" lon="11.5791917"><ele>440.4</ele><time>2026-04-22T11:48:53.138Z</time></trkpt><trkpt lat="43.45545" lon="11.57906"><ele>440.8</ele><time>2026-04-22T11:48:54.137Z</time></trkpt><trkpt lat="43.4554767" lon="11.5789383"><ele>441.20000000000005</ele><time>2026-04-22T11:48:55.137Z</time></trkpt><trkpt lat="43.4555083" lon="11.5788283"><ele>441.6</ele><time>2026-04-22T11:48:56.136Z</time></trkpt><trkpt lat="43.4555567" lon="11.5787383"><ele>442.0</ele><time>2026-04-22T11:48:57.137Z</time></trkpt><trkpt lat="43.45563" lon="11.5786483"><ele>444.8</ele><time>2026-04-22T11:48:58.135Z</time></trkpt><trkpt lat="43.4557083" lon="11.5785617"><ele>447.6</ele><time>2026-04-22T11:48:59.136Z</time></trkpt><trkpt lat="43.4557817" lon="11.5784683"><ele>450.40000000000003</ele><time>2026-04-22T11:49:00.138Z</time></trkpt><trkpt lat="43.4558483" lon="11.5783717"><ele>453.20000000000005</ele><time>2026-04-22T11:49:01.137Z</time></trkpt><trkpt lat="43.4559117" lon="11.57829"><ele>456.0</ele><time>2026-04-22T11:49:02.137Z</time></trkpt><trkpt lat="43.455965" lon="11.5782117"><ele>456.0</ele><time>2026-04-22T11:49:03.137Z</time></trkpt><trkpt lat="43.4560167" lon="11.5781233"><ele>456.0</ele><time>2026-04-22T11:49:04.138Z</time></trkpt><trkpt lat="43.4560617" lon="11.5780117"><ele>456.0</ele><time>2026-04-22T11:49:05.137Z</time></trkpt><trkpt lat="43.4561033" lon="11.5779117"><ele>456.0</ele><time>2026-04-22T11:49:06.138Z</time></trkpt><trkpt lat="43.456135" lon="11.5778267"><ele>456.0</ele><time>2026-04-22T11:49:07.136Z</time></trkpt><trkpt lat="43.4561567" lon="11.5777283"><ele>456.0</ele><time>2026-04-22T11:49:08.136Z</time></trkpt><trkpt lat="43.4561583" lon="11.5776083"><ele>456.0</ele><time>2026-04-22T11:49:09.137Z</time></trkpt><trkpt lat="43.4561533" lon="11.5774917"><ele>456.0</ele><time>2026-04-22T11:49:10.137Z</time></trkpt><trkpt lat="43.4561567" lon="11.5773917"><ele>456.0</ele><time>2026-04-22T11:49:11.136Z</time></trkpt><trkpt lat="43.456185" lon="11.57731"><ele>456.0</ele><time>2026-04-22T11:49:12.137Z</time></trkpt><trkpt lat="43.4562383" lon="11.5772317"><ele>456.0</ele><time>2026-04-22T11:49:13.137Z</time></trkpt><trkpt lat="43.45629" lon="11.5771533"><ele>456.0</ele><time>2026-04-22T11:49:14.137Z</time></trkpt><trkpt lat="43.456335" lon="11.57707"><ele>457.1666666666667</ele><time>2026-04-22T11:49:15.14Z</time></trkpt><trkpt lat="43.4563817" lon="11.5769767"><ele>458.33333333333337</ele><time>2026-04-22T11:49:16.137Z</time></trkpt><trkpt lat="43.4564217" lon="11.5768683"><ele>459.5</ele><time>2026-04-22T11:49:17.136Z</time></trkpt><trkpt lat="43.456455" lon="11.57676"><ele>460.6666666666667</ele><time>2026-04-22T11:49:18.138Z</time></trkpt><trkpt lat="43.4564917" lon="11.5766567"><ele>461.83333333333337</ele><time>2026-04-22T11:49:19.137Z</time></trkpt><trkpt lat="43.4565317" lon="11.5765633"><ele>463.0</ele><time>2026-04-22T11:49:20.137Z</time></trkpt><trkpt lat="43.4565767" lon="11.57648"><ele>463.00000000000006</ele><time>2026-04-22T11:49:21.138Z</time></trkpt><trkpt lat="43.45662" lon="11.5764"><ele>463.0</ele><time>2026-04-22T11:49:22.139Z</time></trkpt><trkpt lat="43.4566667" lon="11.576315"><ele>463.0</ele><time>2026-04-22T11:49:23.136Z</time></trkpt><trkpt lat="43.456715" lon="11.5762233"><ele>463.0</ele><time>2026-04-22T11:49:24.138Z</time></trkpt><trkpt lat="43.4567683" lon="11.5761267"><ele>463.00000000000006</ele><time>2026-04-22T11:49:25.137Z</time></trkpt><trkpt lat="43.4568283" lon="11.576035"><ele>463.0</ele><time>2026-04-22T11:49:26.136Z</time></trkpt><trkpt lat="43.456885" lon="11.5759583"><ele>463.00000000000006</ele><time>2026-04-22T11:49:27.138Z</time></trkpt><trkpt lat="43.4569517" lon="11.5759117"><ele>463.0</ele><time>2026-04-22T11:49:28.138Z</time></trkpt><trkpt lat="43.4570283" lon="11.5758867"><ele>463.0</ele><time>2026-04-22T11:49:29.137Z</time></trkpt><trkpt lat="43.4571083" lon="11.57586"><ele>463.0</ele><time>2026-04-22T11:49:30.137Z</time></trkpt><trkpt lat="43.4571883" lon="11.575835"><ele>463.00000000000006</ele><time>2026-04-22T11:49:31.138Z</time></trkpt><trkpt lat="43.4572583" lon="11.5758"><ele>463.0</ele><time>2026-04-22T11:49:32.138Z</time></trkpt><trkpt lat="43.4573283" lon="11.5757617"><ele>463.6666666666667</ele><time>2026-04-22T11:49:33.138Z</time></trkpt><trkpt lat="43.4573983" lon="11.5757217"><ele>464.33333333333337</ele><time>2026-04-22T11:49:34.136Z</time></trkpt><trkpt lat="43.457475" lon="11.5756933"><ele>465.0</ele><time>2026-04-22T11:49:35.134Z</time></trkpt><trkpt lat="43.45756" lon="11.5756733"><ele>465.66666666666663</ele><time>2026-04-22T11:49:36.137Z</time></trkpt><trkpt lat="43.4576433" lon="11.5756733"><ele>466.3333333333333</ele><time>2026-04-22T11:49:37.138Z</time></trkpt><trkpt lat="43.45771" lon="11.5756817"><ele>467.0</ele><time>2026-04-22T11:49:38.137Z</time></trkpt><trkpt lat="43.4577783" lon="11.5756817"><ele>466.99999999999994</ele><time>2026-04-22T11:49:39.137Z</time></trkpt><trkpt lat="43.4578417" lon="11.5756683"><ele>467.0</ele><time>2026-04-22T11:49:40.137Z</time></trkpt><trkpt lat="43.4579017" lon="11.575635"><ele>466.99999999999994</ele><time>2026-04-22T11:49:41.136Z</time></trkpt><trkpt lat="43.457955" lon="11.57558"><ele>466.99999999999994</ele><time>2026-04-22T11:49:42.137Z</time></trkpt><trkpt lat="43.4580033" lon="11.5755033"><ele>467.0</ele><time>2026-04-22T11:49:43.137Z</time></trkpt><trkpt lat="43.4580383" lon="11.575395"><ele>466.99999999999994</ele><time>2026-04-22T11:49:44.137Z</time></trkpt><trkpt lat="43.458065" lon="11.57529"><ele>466.99999999999994</ele><time>2026-04-22T11:49:45.139Z</time></trkpt><trkpt lat="43.4581" lon="11.575195"><ele>464.66666666666663</ele><time>2026-04-22T11:49:46.136Z</time></trkpt><trkpt lat="43.458125" lon="11.5751017"><ele>462.3333333333333</ele><time>2026-04-22T11:49:47.137Z</time></trkpt><trkpt lat="43.4581533" lon="11.57502"><ele>460.0</ele><time>2026-04-22T11:49:48.137Z</time></trkpt><trkpt lat="43.4581817" lon="11.5749417"><ele>457.66666666666663</ele><time>2026-04-22T11:49:49.136Z</time></trkpt><trkpt lat="43.4582433" lon="11.5748033"><ele>455.3333333333333</ele><time>2026-04-22T11:49:51.139Z</time></trkpt><trkpt lat="43.45836" lon="11.5747317"><ele>453.0</ele><time>2026-04-22T11:49:53.135Z</time></trkpt><trkpt lat="43.45844" lon="11.5747417"><ele>453.0</ele><time>2026-04-22T11:49:54.136Z</time></trkpt><trkpt lat="43.458535" lon="11.5747733"><ele>452.99999999999994</ele><time>2026-04-22T11:49:55.138Z</time></trkpt><trkpt lat="43.4586333" lon="11.574815"><ele>452.99999999999994</ele><time>2026-04-22T11:49:56.138Z</time></trkpt><trkpt lat="43.458735" lon="11.5748567"><ele>453.0</ele><time>2026-04-22T11:49:57.137Z</time></trkpt><trkpt lat="43.4588417" lon="11.574885"><ele>453.0</ele><time>2026-04-22T11:49:58.137Z</time></trkpt><trkpt lat="43.4589467" lon="11.574905"><ele>451.59999999999997</ele><time>2026-04-22T11:49:59.137Z</time></trkpt><trkpt lat="43.4590533" lon="11.5749183"><ele>450.19999999999993</ele><time>2026-04-22T11:50:00.137Z</time></trkpt><trkpt lat="43.4591517" lon="11.57493"><ele>448.8</ele><time>2026-04-22T11:50:01.137Z</time></trkpt><trkpt lat="43.4592533" lon="11.5749433"><ele>447.4</ele><time>2026-04-22T11:50:02.138Z</time></trkpt><trkpt lat="43.45935" lon="11.574945"><ele>446.0</ele><time>2026-04-22T11:50:03.14Z</time></trkpt><trkpt lat="43.4594417" lon="11.5749083"><ele>446.0</ele><time>2026-04-22T11:50:04.136Z</time></trkpt><trkpt lat="43.459525" lon="11.574845"><ele>446.0</ele><time>2026-04-22T11:50:05.136Z</time></trkpt><trkpt lat="43.459605" lon="11.5747733"><ele>446.0</ele><time>2026-04-22T11:50:06.138Z</time></trkpt><trkpt lat="43.4596983" lon="11.57471"><ele>446.0</ele><time>2026-04-22T11:50:07.138Z</time></trkpt><trkpt lat="43.4597917" lon="11.574645"><ele>446.0</ele><time>2026-04-22T11:50:08.137Z</time></trkpt><trkpt lat="43.45987" lon="11.5745883"><ele>444.0</ele><time>2026-04-22T11:50:09.138Z</time></trkpt><trkpt lat="43.4599367" lon="11.5745383"><ele>442.0</ele><time>2026-04-22T11:50:10.137Z</time></trkpt><trkpt lat="43.4600533" lon="11.5745017"><ele>440.0</ele><time>2026-04-22T11:50:12.136Z</time></trkpt><trkpt lat="43.4601317" lon="11.57452"><ele>438.0</ele><time>2026-04-22T11:50:13.137Z</time></trkpt><trkpt lat="43.4602433" lon="11.574535"><ele>436.0</ele><time>2026-04-22T11:50:14.136Z</time></trkpt><trkpt lat="43.4603683" lon="11.5745333"><ele>436.0</ele><time>2026-04-22T11:50:15.138Z</time></trkpt><trkpt lat="43.4604917" lon="11.5745267"><ele>436.0</ele><time>2026-04-22T11:50:16.137Z</time></trkpt><trkpt lat="43.4606033" lon="11.5745133"><ele>436.0</ele><time>2026-04-22T11:50:17.137Z</time></trkpt><trkpt lat="43.4606983" lon="11.5744983"><ele>436.0</ele><time>2026-04-22T11:50:18.145Z</time></trkpt><trkpt lat="43.4607883" lon="11.574485"><ele>436.0</ele><time>2026-04-22T11:50:19.137Z</time></trkpt><trkpt lat="43.4608733" lon="11.5744617"><ele>436.00000000000006</ele><time>2026-04-22T11:50:20.136Z</time></trkpt><trkpt lat="43.4609483" lon="11.57441"><ele>436.0</ele><time>2026-04-22T11:50:21.137Z</time></trkpt><trkpt lat="43.4609983" lon="11.574315"><ele>436.0</ele><time>2026-04-22T11:50:22.136Z</time></trkpt><trkpt lat="43.4610383" lon="11.574215"><ele>436.0</ele><time>2026-04-22T11:50:23.137Z</time></trkpt><trkpt lat="43.46108" lon="11.5741283"><ele>436.00000000000006</ele><time>2026-04-22T11:50:24.136Z</time></trkpt><trkpt lat="43.4611333" lon="11.5740633"><ele>436.0</ele><time>2026-04-22T11:50:25.137Z</time></trkpt><trkpt lat="43.4612" lon="11.5740233"><ele>436.0</ele><time>2026-04-22T11:50:26.136Z</time></trkpt><trkpt lat="43.46126" lon="11.57398"><ele>436.0</ele><time>2026-04-22T11:50:27.138Z</time></trkpt><trkpt lat="43.46132" lon="11.5739233"><ele>436.0</ele><time>2026-04-22T11:50:28.137Z</time></trkpt><trkpt lat="43.4613833" lon="11.5738617"><ele>436.0</ele><time>2026-04-22T11:50:29.137Z</time></trkpt><trkpt lat="43.4614433" lon="11.5738"><ele>436.0</ele><time>2026-04-22T11:50:30.137Z</time></trkpt><trkpt lat="43.4615017" lon="11.5737433"><ele>436.0</ele><time>2026-04-22T11:50:31.138Z</time></trkpt><trkpt lat="43.461565" lon="11.5736933"><ele>436.0</ele><time>2026-04-22T11:50:32.138Z</time></trkpt><trkpt lat="43.4616383" lon="11.573655"><ele>437.50000000000006</ele><time>2026-04-22T11:50:33.139Z</time></trkpt><trkpt lat="43.46171" lon="11.5736233"><ele>439.0</ele><time>2026-04-22T11:50:34.137Z</time></trkpt><trkpt lat="43.461785" lon="11.5735917"><ele>440.5</ele><time>2026-04-22T11:50:36.137Z</time></trkpt><trkpt lat="43.461855" lon="11.5736983"><ele>442.0</ele><time>2026-04-22T11:50:39.137Z</time></trkpt><trkpt lat="43.4618767" lon="11.573795"><ele>443.50000000000006</ele><time>2026-04-22T11:50:40.137Z</time></trkpt><trkpt lat="43.4619117" lon="11.5739017"><ele>445.0</ele><time>2026-04-22T11:50:41.136Z</time></trkpt><trkpt lat="43.4619633" lon="11.573995"><ele>445.0</ele><time>2026-04-22T11:50:42.136Z</time></trkpt><trkpt lat="43.46202" lon="11.574085"><ele>445.0</ele><time>2026-04-22T11:50:43.138Z</time></trkpt><trkpt lat="43.4620883" lon="11.574175"><ele>445.0</ele><time>2026-04-22T11:50:44.138Z</time></trkpt><trkpt lat="43.46216" lon="11.57427"><ele>445.0</ele><time>2026-04-22T11:50:45.139Z</time></trkpt><trkpt lat="43.4622283" lon="11.5743583"><ele>445.0</ele><time>2026-04-22T11:50:46.138Z</time></trkpt><trkpt lat="43.4622833" lon="11.5744367"><ele>445.7142857142857</ele><time>2026-04-22T11:50:47.136Z</time></trkpt><trkpt lat="43.4623383" lon="11.5744933"><ele>446.42857142857144</ele><time>2026-04-22T11:50:48.136Z</time></trkpt><trkpt lat="43.4623967" lon="11.5745383"><ele>447.14285714285717</ele><time>2026-04-22T11:50:49.137Z</time></trkpt><trkpt lat="43.4624667" lon="11.5745583"><ele>447.8571428571429</ele><time>2026-04-22T11:50:50.137Z</time></trkpt><trkpt lat="43.4625483" lon="11.5745533"><ele>448.57142857142856</ele><time>2026-04-22T11:50:51.139Z</time></trkpt><trkpt lat="43.4626317" lon="11.57454"><ele>449.28571428571433</ele><time>2026-04-22T11:50:52.136Z</time></trkpt><trkpt lat="43.462705" lon="11.5745133"><ele>450.00000000000006</ele><time>2026-04-22T11:50:53.137Z</time></trkpt><trkpt lat="43.46277" lon="11.5744583"><ele>450.0</ele><time>2026-04-22T11:50:54.137Z</time></trkpt><trkpt lat="43.462835" lon="11.5743883"><ele>450.0</ele><time>2026-04-22T11:50:55.137Z</time></trkpt><trkpt lat="43.4629017" lon="11.5743117"><ele>450.0</ele><time>2026-04-22T11:50:56.137Z</time></trkpt><trkpt lat="43.4629717" lon="11.5742417"><ele>450.0</ele><time>2026-04-22T11:50:57.138Z</time></trkpt><trkpt lat="43.463045" lon="11.5741717"><ele>450.0</ele><time>2026-04-22T11:50:58.137Z</time></trkpt><trkpt lat="43.463125" lon="11.5741033"><ele>450.0</ele><time>2026-04-22T11:50:59.136Z</time></trkpt><trkpt lat="43.4632" lon="11.5740417"><ele>448.7142857142858</ele><time>2026-04-22T11:51:00.136Z</time></trkpt><trkpt lat="43.4632667" lon="11.573985"><ele>447.42857142857144</ele><time>2026-04-22T11:51:01.135Z</time></trkpt><trkpt lat="43.4633233" lon="11.5739467"><ele>446.14285714285717</ele><time>2026-04-22T11:51:02.136Z</time></trkpt><trkpt lat="43.4633883" lon="11.5739267"><ele>444.8571428571429</ele><time>2026-04-22T11:51:03.138Z</time></trkpt><trkpt lat="43.4634683" lon="11.573935"><ele>443.57142857142856</ele><time>2026-04-22T11:51:04.138Z</time></trkpt><trkpt lat="43.46355" lon="11.57396"><ele>442.2857142857143</ele><time>2026-04-22T11:51:05.137Z</time></trkpt><trkpt lat="43.4636217" lon="11.57399"><ele>441.0</ele><time>2026-04-22T11:51:06.137Z</time></trkpt><trkpt lat="43.4636883" lon="11.574025"><ele>441.0</ele><time>2026-04-22T11:51:07.137Z</time></trkpt><trkpt lat="43.4637533" lon="11.5740667"><ele>441.0</ele><time>2026-04-22T11:51:08.139Z</time></trkpt><trkpt lat="43.4638217" lon="11.5741267"><ele>441.0</ele><time>2026-04-22T11:51:09.139Z</time></trkpt><trkpt lat="43.4638883" lon="11.5741883"><ele>441.0</ele><time>2026-04-22T11:51:10.135Z</time></trkpt><trkpt lat="43.4639383" lon="11.5742433"><ele>441.0</ele><time>2026-04-22T11:51:11.136Z</time></trkpt><trkpt lat="43.46405" lon="11.5743"><ele>441.0</ele><time>2026-04-22T11:51:13.138Z</time></trkpt><trkpt lat="43.4641183" lon="11.57432"><ele>439.6666666666667</ele><time>2026-04-22T11:51:14.14Z</time></trkpt><trkpt lat="43.4641867" lon="11.57434"><ele>438.33333333333337</ele><time>2026-04-22T11:51:15.138Z</time></trkpt><trkpt lat="43.46427" lon="11.57437"><ele>437.0</ele><time>2026-04-22T11:51:17.136Z</time></trkpt><trkpt lat="43.4643633" lon="11.57445"><ele>435.6666666666667</ele><time>2026-04-22T11:51:20.138Z</time></trkpt><trkpt lat="43.464435" lon="11.5744983"><ele>434.33333333333337</ele><time>2026-04-22T11:51:21.138Z</time></trkpt><trkpt lat="43.464505" lon="11.574545"><ele>433.0</ele><time>2026-04-22T11:51:22.139Z</time></trkpt><trkpt lat="43.4645817" lon="11.574595"><ele>430.33333333333337</ele><time>2026-04-22T11:51:23.135Z</time></trkpt><trkpt lat="43.4646533" lon="11.5746417"><ele>427.6666666666667</ele><time>2026-04-22T11:51:24.138Z</time></trkpt><trkpt lat="43.4647183" lon="11.5746883"><ele>425.0</ele><time>2026-04-22T11:51:25.137Z</time></trkpt><trkpt lat="43.46478" lon="11.5747317"><ele>422.33333333333337</ele><time>2026-04-22T11:51:26.138Z</time></trkpt><trkpt lat="43.46484" lon="11.5747733"><ele>419.6666666666667</ele><time>2026-04-22T11:51:27.139Z</time></trkpt><trkpt lat="43.4649433" lon="11.57485"><ele>417.0</ele><time>2026-04-22T11:51:29.136Z</time></trkpt><trkpt lat="43.4650483" lon="11.5749317"><ele>417.0</ele><time>2026-04-22T11:51:31.135Z</time></trkpt><trkpt lat="43.465105" lon="11.57498"><ele>417.0</ele><time>2026-04-22T11:51:32.136Z</time></trkpt><trkpt lat="43.46516" lon="11.5750233"><ele>417.0</ele><time>2026-04-22T11:51:33.138Z</time></trkpt><trkpt lat="43.46526" lon="11.5751083"><ele>417.0</ele><time>2026-04-22T11:51:35.136Z</time></trkpt><trkpt lat="43.4653333" lon="11.5751583"><ele>417.0</ele><time>2026-04-22T11:51:37.136Z</time></trkpt><trkpt lat="43.4653933" lon="11.5752067"><ele>417.0</ele><time>2026-04-22T11:51:41.137Z</time></trkpt><trkpt lat="43.46531" lon="11.5751567"><ele>417.0</ele><time>2026-04-22T11:51:45.139Z</time></trkpt><trkpt lat="43.4652417" lon="11.5750933"><ele>417.0</ele><time>2026-04-22T11:51:46.138Z</time></trkpt><trkpt lat="43.46518" lon="11.5750333"><ele>417.0</ele><time>2026-04-22T11:51:47.136Z</time></trkpt><trkpt lat="43.465115" lon="11.574985"><ele>417.0</ele><time>2026-04-22T11:51:48.137Z</time></trkpt><trkpt lat="43.4650583" lon="11.5749433"><ele>417.0</ele><time>2026-04-22T11:51:49.137Z</time></trkpt><trkpt lat="43.465005" lon="11.574895"><ele>417.0</ele><time>2026-04-22T11:51:50.136Z</time></trkpt><trkpt lat="43.4649517" lon="11.57484"><ele>417.0</ele><time>2026-04-22T11:51:51.138Z</time></trkpt><trkpt lat="43.464895" lon="11.5747933"><ele>417.0</ele><time>2026-04-22T11:51:52.136Z</time></trkpt><trkpt lat="43.4648333" lon="11.5747533"><ele>417.0</ele><time>2026-04-22T11:51:53.137Z</time></trkpt><trkpt lat="43.4647667" lon="11.5747033"><ele>417.0</ele><time>2026-04-22T11:51:54.138Z</time></trkpt><trkpt lat="43.4647017" lon="11.57465"><ele>417.0</ele><time>2026-04-22T11:51:55.139Z</time></trkpt><trkpt lat="43.4646283" lon="11.574605"><ele>417.0</ele><time>2026-04-22T11:51:56.138Z</time></trkpt><trkpt lat="43.4645517" lon="11.574565"><ele>417.0</ele><time>2026-04-22T11:51:57.138Z</time></trkpt><trkpt lat="43.464475" lon="11.5745183"><ele>419.6666666666667</ele><time>2026-04-22T11:51:58.137Z</time></trkpt><trkpt lat="43.4643883" lon="11.5744617"><ele>422.33333333333337</ele><time>2026-04-22T11:51:59.137Z</time></trkpt><trkpt lat="43.4642967" lon="11.5744017"><ele>425.0</ele><time>2026-04-22T11:52:00.138Z</time></trkpt><trkpt lat="43.464215" lon="11.57435"><ele>427.6666666666667</ele><time>2026-04-22T11:52:01.138Z</time></trkpt><trkpt lat="43.464145" lon="11.57431"><ele>430.33333333333337</ele><time>2026-04-22T11:52:02.137Z</time></trkpt><trkpt lat="43.4640783" lon="11.574285"><ele>433.0</ele><time>2026-04-22T11:52:03.138Z</time></trkpt><trkpt lat="43.4640117" lon="11.574275"><ele>433.00000000000006</ele><time>2026-04-22T11:52:04.137Z</time></trkpt><trkpt lat="43.4639467" lon="11.5742567"><ele>433.0</ele><time>2026-04-22T11:52:05.136Z</time></trkpt><trkpt lat="43.4638867" lon="11.5742167"><ele>433.0</ele><time>2026-04-22T11:52:06.136Z</time></trkpt><trkpt lat="43.46383" lon="11.5741383"><ele>433.0</ele><time>2026-04-22T11:52:07.136Z</time></trkpt><trkpt lat="43.4637633" lon="11.57407"><ele>433.00000000000006</ele><time>2026-04-22T11:52:08.137Z</time></trkpt><trkpt lat="43.4636867" lon="11.574015"><ele>433.0</ele><time>2026-04-22T11:52:09.137Z</time></trkpt><trkpt lat="43.4635967" lon="11.573975"><ele>434.59999999999997</ele><time>2026-04-22T11:52:10.137Z</time></trkpt><trkpt lat="43.4634983" lon="11.573945"><ele>436.19999999999993</ele><time>2026-04-22T11:52:11.137Z</time></trkpt><trkpt lat="43.4634017" lon="11.5739267"><ele>437.8</ele><time>2026-04-22T11:52:12.138Z</time></trkpt><trkpt lat="43.4633067" lon="11.573935"><ele>439.4</ele><time>2026-04-22T11:52:13.139Z</time></trkpt><trkpt lat="43.4632217" lon="11.5739767"><ele>441.0</ele><time>2026-04-22T11:52:14.136Z</time></trkpt><trkpt lat="43.4631433" lon="11.574045"><ele>441.0</ele><time>2026-04-22T11:52:15.138Z</time></trkpt><trkpt lat="43.4630567" lon="11.5741133"><ele>441.0</ele><time>2026-04-22T11:52:16.138Z</time></trkpt><trkpt lat="43.462975" lon="11.5741883"><ele>441.0</ele><time>2026-04-22T11:52:17.137Z</time></trkpt><trkpt lat="43.46289" lon="11.5742717"><ele>441.0</ele><time>2026-04-22T11:52:18.135Z</time></trkpt><trkpt lat="43.46281" lon="11.574355"><ele>441.0</ele><time>2026-04-22T11:52:19.14Z</time></trkpt><trkpt lat="43.46274" lon="11.5744333"><ele>440.3333333333333</ele><time>2026-04-22T11:52:20.136Z</time></trkpt><trkpt lat="43.4626733" lon="11.574495"><ele>439.66666666666663</ele><time>2026-04-22T11:52:21.137Z</time></trkpt><trkpt lat="43.4626017" lon="11.5745383"><ele>439.0</ele><time>2026-04-22T11:52:22.138Z</time></trkpt><trkpt lat="43.4625233" lon="11.5745683"><ele>438.3333333333333</ele><time>2026-04-22T11:52:23.136Z</time></trkpt><trkpt lat="43.4624383" lon="11.5745767"><ele>437.66666666666663</ele><time>2026-04-22T11:52:24.138Z</time></trkpt><trkpt lat="43.4623617" lon="11.5745583"><ele>437.0</ele><time>2026-04-22T11:52:25.137Z</time></trkpt><trkpt lat="43.4622917" lon="11.574515"><ele>438.6</ele><time>2026-04-22T11:52:26.139Z</time></trkpt><trkpt lat="43.4622317" lon="11.5744367"><ele>440.20000000000005</ele><time>2026-04-22T11:52:27.138Z</time></trkpt><trkpt lat="43.46217" lon="11.5743433"><ele>441.8</ele><time>2026-04-22T11:52:28.138Z</time></trkpt><trkpt lat="43.4620983" lon="11.5742417"><ele>443.4</ele><time>2026-04-22T11:52:29.136Z</time></trkpt><trkpt lat="43.4620283" lon="11.574145"><ele>445.0</ele><time>2026-04-22T11:52:30.137Z</time></trkpt><trkpt lat="43.4619633" lon="11.574055"><ele>445.00000000000006</ele><time>2026-04-22T11:52:31.136Z</time></trkpt><trkpt lat="43.4619067" lon="11.573965"><ele>445.0</ele><time>2026-04-22T11:52:32.136Z</time></trkpt><trkpt lat="43.4618533" lon="11.5738633"><ele>445.0</ele><time>2026-04-22T11:52:33.138Z</time></trkpt><trkpt lat="43.4618133" lon="11.5737683"><ele>445.0</ele><time>2026-04-22T11:52:34.136Z</time></trkpt><trkpt lat="43.4617767" lon="11.5736933"><ele>445.00000000000006</ele><time>2026-04-22T11:52:35.138Z</time></trkpt><trkpt lat="43.461745" lon="11.57361"><ele>445.0</ele><time>2026-04-22T11:52:37.136Z</time></trkpt><trkpt lat="43.4616733" lon="11.57362"><ele>445.00000000000006</ele><time>2026-04-22T11:52:40.137Z</time></trkpt><trkpt lat="43.461555" lon="11.5737067"><ele>445.0</ele><time>2026-04-22T11:52:42.135Z</time></trkpt><trkpt lat="43.4614917" lon="11.5737617"><ele>445.0</ele><time>2026-04-22T11:52:43.136Z</time></trkpt><trkpt lat="43.46143" lon="11.573815"><ele>445.0</ele><time>2026-04-22T11:52:44.136Z</time></trkpt><trkpt lat="43.461365" lon="11.5738667"><ele>445.00000000000006</ele><time>2026-04-22T11:52:45.138Z</time></trkpt><trkpt lat="43.4613117" lon="11.573925"><ele>445.0</ele><time>2026-04-22T11:52:46.136Z</time></trkpt><trkpt lat="43.46126" lon="11.5739883"><ele>443.50000000000006</ele><time>2026-04-22T11:52:47.137Z</time></trkpt><trkpt lat="43.4612067" lon="11.5740433"><ele>442.0</ele><time>2026-04-22T11:52:48.137Z</time></trkpt><trkpt lat="43.4611467" lon="11.57407"><ele>440.5</ele><time>2026-04-22T11:52:49.137Z</time></trkpt><trkpt lat="43.46103" lon="11.5741283"><ele>439.0</ele><time>2026-04-22T11:52:51.137Z</time></trkpt><trkpt lat="43.4609817" lon="11.5742"><ele>437.50000000000006</ele><time>2026-04-22T11:52:52.137Z</time></trkpt><trkpt lat="43.4609417" lon="11.5743"><ele>436.0</ele><time>2026-04-22T11:52:53.136Z</time></trkpt><trkpt lat="43.4608967" lon="11.574395"><ele>436.00000000000006</ele><time>2026-04-22T11:52:54.138Z</time></trkpt><trkpt lat="43.4608467" lon="11.5744733"><ele>436.0</ele><time>2026-04-22T11:52:55.137Z</time></trkpt><trkpt lat="43.4607783" lon="11.5744983"><ele>436.0</ele><time>2026-04-22T11:52:56.137Z</time></trkpt><trkpt lat="43.4606883" lon="11.574475"><ele>436.0</ele><time>2026-04-22T11:52:58.137Z</time></trkpt><trkpt lat="43.4606083" lon="11.5745067"><ele>436.00000000000006</ele><time>2026-04-22T11:53:36.138Z</time></trkpt><trkpt lat="43.46054" lon="11.5745083"><ele>436.0</ele><time>2026-04-22T11:53:37.136Z</time></trkpt><trkpt lat="43.460465" lon="11.57451"><ele>436.0</ele><time>2026-04-22T11:53:38.137Z</time></trkpt><trkpt lat="43.4603533" lon="11.5745233"><ele>436.0</ele><time>2026-04-22T11:53:39.136Z</time></trkpt><trkpt lat="43.4602317" lon="11.57453"><ele>436.0</ele><time>2026-04-22T11:53:40.136Z</time></trkpt><trkpt lat="43.4601183" lon="11.57454"><ele>436.0</ele><time>2026-04-22T11:53:41.137Z</time></trkpt><trkpt lat="43.4600133" lon="11.5745567"><ele>436.0</ele><time>2026-04-22T11:53:42.137Z</time></trkpt><trkpt lat="43.4599133" lon="11.5745767"><ele>436.0</ele><time>2026-04-22T11:53:43.14Z</time></trkpt><trkpt lat="43.4598217" lon="11.5746183"><ele>436.0</ele><time>2026-04-22T11:53:44.137Z</time></trkpt><trkpt lat="43.45973" lon="11.5746783"><ele>436.0</ele><time>2026-04-22T11:53:45.136Z</time></trkpt><trkpt lat="43.4596433" lon="11.5747383"><ele>436.0</ele><time>2026-04-22T11:53:46.137Z</time></trkpt><trkpt lat="43.4595667" lon="11.574795"><ele>438.0</ele><time>2026-04-22T11:53:47.137Z</time></trkpt><trkpt lat="43.4594867" lon="11.574855"><ele>440.0</ele><time>2026-04-22T11:53:48.137Z</time></trkpt><trkpt lat="43.459395" lon="11.5749117"><ele>442.0</ele><time>2026-04-22T11:53:49.138Z</time></trkpt><trkpt lat="43.459305" lon="11.57495"><ele>444.0</ele><time>2026-04-22T11:53:50.138Z</time></trkpt><trkpt lat="43.459215" lon="11.57495"><ele>446.0</ele><time>2026-04-22T11:53:51.139Z</time></trkpt><trkpt lat="43.4591233" lon="11.5749417"><ele>446.0</ele><time>2026-04-22T11:53:52.138Z</time></trkpt><trkpt lat="43.4590317" lon="11.574935"><ele>446.0</ele><time>2026-04-22T11:53:53.137Z</time></trkpt><trkpt lat="43.4589367" lon="11.5749233"><ele>446.0</ele><time>2026-04-22T11:53:54.141Z</time></trkpt><trkpt lat="43.458835" lon="11.5749033"><ele>446.0</ele><time>2026-04-22T11:53:55.138Z</time></trkpt><trkpt lat="43.4587267" lon="11.5748767"><ele>446.0</ele><time>2026-04-22T11:53:56.137Z</time></trkpt><trkpt lat="43.4586233" lon="11.574845"><ele>447.16666666666663</ele><time>2026-04-22T11:53:57.138Z</time></trkpt><trkpt lat="43.45853" lon="11.574805"><ele>448.3333333333333</ele><time>2026-04-22T11:53:58.137Z</time></trkpt><trkpt lat="43.45845" lon="11.5747633"><ele>449.5</ele><time>2026-04-22T11:53:59.138Z</time></trkpt><trkpt lat="43.4583767" lon="11.5747367"><ele>450.66666666666663</ele><time>2026-04-22T11:54:00.137Z</time></trkpt><trkpt lat="43.4583033" lon="11.57474"><ele>451.8333333333333</ele><time>2026-04-22T11:54:01.138Z</time></trkpt><trkpt lat="43.4582417" lon="11.574795"><ele>453.0</ele><time>2026-04-22T11:54:02.137Z</time></trkpt><trkpt lat="43.4581933" lon="11.5748833"><ele>453.0</ele><time>2026-04-22T11:54:03.138Z</time></trkpt><trkpt lat="43.4581567" lon="11.5749883"><ele>452.99999999999994</ele><time>2026-04-22T11:54:04.137Z</time></trkpt><trkpt lat="43.4581183" lon="11.5751067"><ele>452.99999999999994</ele><time>2026-04-22T11:54:05.137Z</time></trkpt><trkpt lat="43.4580817" lon="11.5752333"><ele>453.0</ele><time>2026-04-22T11:54:06.138Z</time></trkpt><trkpt lat="43.458035" lon="11.5753517"><ele>453.0</ele><time>2026-04-22T11:54:07.138Z</time></trkpt><trkpt lat="43.4579867" lon="11.5754733"><ele>455.3333333333333</ele><time>2026-04-22T11:54:08.137Z</time></trkpt><trkpt lat="43.4579433" lon="11.5755833"><ele>457.66666666666663</ele><time>2026-04-22T11:54:09.139Z</time></trkpt><trkpt lat="43.4579" lon="11.57568"><ele>460.0</ele><time>2026-04-22T11:54:10.137Z</time></trkpt><trkpt lat="43.4578483" lon="11.5757433"><ele>462.3333333333333</ele><time>2026-04-22T11:54:11.138Z</time></trkpt><trkpt lat="43.4577833" lon="11.5757567"><ele>464.66666666666663</ele><time>2026-04-22T11:54:12.138Z</time></trkpt><trkpt lat="43.4576467" lon="11.5757333"><ele>467.0</ele><time>2026-04-22T11:54:14.138Z</time></trkpt><trkpt lat="43.4575733" lon="11.5757133"><ele>466.99999999999994</ele><time>2026-04-22T11:54:15.138Z</time></trkpt><trkpt lat="43.4574983" lon="11.5757083"><ele>467.0</ele><time>2026-04-22T11:54:16.137Z</time></trkpt><trkpt lat="43.4574167" lon="11.5757317"><ele>467.0</ele><time>2026-04-22T11:54:17.137Z</time></trkpt><trkpt lat="43.457335" lon="11.5757783"><ele>467.0</ele><time>2026-04-22T11:54:18.138Z</time></trkpt><trkpt lat="43.457255" lon="11.575825"><ele>466.99999999999994</ele><time>2026-04-22T11:54:19.135Z</time></trkpt><trkpt lat="43.4571683" lon="11.575865"><ele>467.0</ele><time>2026-04-22T11:54:20.136Z</time></trkpt><trkpt lat="43.45708" lon="11.5758967"><ele>466.3333333333333</ele><time>2026-04-22T11:54:21.136Z</time></trkpt><trkpt lat="43.4569917" lon="11.5759233"><ele>465.66666666666663</ele><time>2026-04-22T11:54:22.137Z</time></trkpt><trkpt lat="43.4569167" lon="11.5759467"><ele>465.0</ele><time>2026-04-22T11:54:23.136Z</time></trkpt><trkpt lat="43.4568433" lon="11.575985"><ele>464.33333333333337</ele><time>2026-04-22T11:54:24.136Z</time></trkpt><trkpt lat="43.4567717" lon="11.5760617"><ele>463.6666666666667</ele><time>2026-04-22T11:54:25.137Z</time></trkpt><trkpt lat="43.4567117" lon="11.5761567"><ele>463.0</ele><time>2026-04-22T11:54:26.137Z</time></trkpt><trkpt lat="43.4566567" lon="11.576245"><ele>463.0</ele><time>2026-04-22T11:54:27.138Z</time></trkpt><trkpt lat="43.4566" lon="11.57634"><ele>462.99999999999994</ele><time>2026-04-22T11:54:28.139Z</time></trkpt><trkpt lat="43.4565417" lon="11.5764317"><ele>462.99999999999994</ele><time>2026-04-22T11:54:29.137Z</time></trkpt><trkpt lat="43.4564917" lon="11.5765283"><ele>463.0</ele><time>2026-04-22T11:54:30.137Z</time></trkpt><trkpt lat="43.45644" lon="11.5766333"><ele>463.0</ele><time>2026-04-22T11:54:31.137Z</time></trkpt><trkpt lat="43.4563817" lon="11.5767567"><ele>463.0</ele><time>2026-04-22T11:54:32.138Z</time></trkpt><trkpt lat="43.4563333" lon="11.5769017"><ele>462.99999999999994</ele><time>2026-04-22T11:54:33.137Z</time></trkpt><trkpt lat="43.4562767" lon="11.5770317"><ele>462.99999999999994</ele><time>2026-04-22T11:54:34.137Z</time></trkpt><trkpt lat="43.4562217" lon="11.57714"><ele>463.0</ele><time>2026-04-22T11:54:35.137Z</time></trkpt><trkpt lat="43.4561733" lon="11.5772367"><ele>463.0</ele><time>2026-04-22T11:54:36.137Z</time></trkpt><trkpt lat="43.456125" lon="11.5773117"><ele>462.83333333333337</ele><time>2026-04-22T11:54:37.135Z</time></trkpt><trkpt lat="43.45607" lon="11.5773617"><ele>462.6666666666667</ele><time>2026-04-22T11:54:38.137Z</time></trkpt><trkpt lat="43.4560017" lon="11.5773917"><ele>462.5</ele><time>2026-04-22T11:54:39.137Z</time></trkpt><trkpt lat="43.4559183" lon="11.57741"><ele>462.33333333333337</ele><time>2026-04-22T11:54:40.137Z</time></trkpt><trkpt lat="43.45584" lon="11.5774367"><ele>462.1666666666667</ele><time>2026-04-22T11:54:41.136Z</time></trkpt><trkpt lat="43.4557667" lon="11.5774683"><ele>462.0</ele><time>2026-04-22T11:54:42.136Z</time></trkpt><trkpt lat="43.4556933" lon="11.5775133"><ele>462.0</ele><time>2026-04-22T11:54:43.137Z</time></trkpt><trkpt lat="43.4556183" lon="11.5775533"><ele>462.0</ele><time>2026-04-22T11:54:44.138Z</time></trkpt><trkpt lat="43.4555517" lon="11.5775833"><ele>462.0</ele><time>2026-04-22T11:54:45.139Z</time></trkpt><trkpt lat="43.4554833" lon="11.5775883"><ele>462.0</ele><time>2026-04-22T11:54:46.137Z</time></trkpt><trkpt lat="43.4554167" lon="11.57758"><ele>462.0</ele><time>2026-04-22T11:54:47.136Z</time></trkpt><trkpt lat="43.4553167" lon="11.5776233"><ele>462.0</ele><time>2026-04-22T11:54:49.137Z</time></trkpt><trkpt lat="43.4552433" lon="11.5777133"><ele>462.1666666666667</ele><time>2026-04-22T11:54:51.138Z</time></trkpt><trkpt lat="43.4551383" lon="11.5778233"><ele>462.33333333333337</ele><time>2026-04-22T11:54:53.136Z</time></trkpt><trkpt lat="43.45508" lon="11.5778833"><ele>462.5</ele><time>2026-04-22T11:54:54.138Z</time></trkpt><trkpt lat="43.4550317" lon="11.5779533"><ele>462.6666666666667</ele><time>2026-04-22T11:54:55.138Z</time></trkpt><trkpt lat="43.4549867" lon="11.578025"><ele>462.83333333333337</ele><time>2026-04-22T11:54:56.139Z</time></trkpt><trkpt lat="43.4549383" lon="11.5780983"><ele>463.0</ele><time>2026-04-22T11:54:57.138Z</time></trkpt><trkpt lat="43.4548933" lon="11.578175"><ele>463.00000000000006</ele><time>2026-04-22T11:54:58.137Z</time></trkpt><trkpt lat="43.4548483" lon="11.5782483"><ele>463.0</ele><time>2026-04-22T11:54:59.137Z</time></trkpt><trkpt lat="43.454805" lon="11.578315"><ele>463.0</ele><time>2026-04-22T11:55:00.137Z</time></trkpt><trkpt lat="43.4547533" lon="11.578365"><ele>463.0</ele><time>2026-04-22T11:55:01.138Z</time></trkpt><trkpt lat="43.4546383" lon="11.5783967"><ele>463.00000000000006</ele><time>2026-04-22T11:55:03.137Z</time></trkpt><trkpt lat="43.4545233" lon="11.5784317"><ele>463.0</ele><time>2026-04-22T11:55:05.136Z</time></trkpt><trkpt lat="43.454465" lon="11.578485"><ele>462.0</ele><time>2026-04-22T11:55:06.136Z</time></trkpt><trkpt lat="43.45437" lon="11.5785317"><ele>460.99999999999994</ele><time>2026-04-22T11:55:08.137Z</time></trkpt><trkpt lat="43.454295" lon="11.5786183"><ele>459.99999999999994</ele><time>2026-04-22T11:55:10.136Z</time></trkpt><trkpt lat="43.4541767" lon="11.5787233"><ele>459.0</ele><time>2026-04-22T11:55:12.136Z</time></trkpt><trkpt lat="43.4541033" lon="11.5787767"><ele>458.0</ele><time>2026-04-22T11:55:13.136Z</time></trkpt><trkpt lat="43.45404" lon="11.5788233"><ele>457.99999999999994</ele><time>2026-04-22T11:55:14.137Z</time></trkpt><trkpt lat="43.4539683" lon="11.578855"><ele>458.0</ele><time>2026-04-22T11:55:16.137Z</time></trkpt><trkpt lat="43.45405" lon="11.578755"><ele>458.0</ele><time>2026-04-22T11:55:20.136Z</time></trkpt><trkpt lat="43.4541283" lon="11.5787233"><ele>458.0</ele><time>2026-04-22T11:55:21.138Z</time></trkpt><trkpt lat="43.4542033" lon="11.5786767"><ele>457.99999999999994</ele><time>2026-04-22T11:55:22.137Z</time></trkpt><trkpt lat="43.4542767" lon="11.57862"><ele>458.0</ele><time>2026-04-22T11:55:23.136Z</time></trkpt><trkpt lat="43.4543567" lon="11.5785617"><ele>457.99999999999994</ele><time>2026-04-22T11:55:24.136Z</time></trkpt><trkpt lat="43.454435" lon="11.5785083"><ele>458.0</ele><time>2026-04-22T11:55:25.138Z</time></trkpt><trkpt lat="43.454515" lon="11.5784583"><ele>458.0</ele><time>2026-04-22T11:55:26.137Z</time></trkpt><trkpt lat="43.4545933" lon="11.5784217"><ele>458.0</ele><time>2026-04-22T11:55:27.138Z</time></trkpt><trkpt lat="43.45467" lon="11.5783933"><ele>457.99999999999994</ele><time>2026-04-22T11:55:28.136Z</time></trkpt><trkpt lat="43.45474" lon="11.5783683"><ele>458.0</ele><time>2026-04-22T11:55:29.137Z</time></trkpt><trkpt lat="43.4547983" lon="11.5783267"><ele>458.8333333333333</ele><time>2026-04-22T11:55:30.137Z</time></trkpt><trkpt lat="43.45485" lon="11.57826"><ele>459.66666666666663</ele><time>2026-04-22T11:55:31.137Z</time></trkpt><trkpt lat="43.4549" lon="11.5781817"><ele>460.5</ele><time>2026-04-22T11:55:32.138Z</time></trkpt><trkpt lat="43.4549517" lon="11.5780983"><ele>461.33333333333337</ele><time>2026-04-22T11:55:33.138Z</time></trkpt><trkpt lat="43.4550083" lon="11.5780083"><ele>462.1666666666667</ele><time>2026-04-22T11:55:34.137Z</time></trkpt><trkpt lat="43.45507" lon="11.5779317"><ele>463.0</ele><time>2026-04-22T11:55:35.137Z</time></trkpt><trkpt lat="43.4551283" lon="11.5778683"><ele>462.83333333333337</ele><time>2026-04-22T11:55:36.137Z</time></trkpt><trkpt lat="43.4551883" lon="11.5778117"><ele>462.6666666666667</ele><time>2026-04-22T11:55:37.137Z</time></trkpt><trkpt lat="43.4552517" lon="11.5777633"><ele>462.5</ele><time>2026-04-22T11:55:38.137Z</time></trkpt><trkpt lat="43.4553067" lon="11.5777067"><ele>462.33333333333337</ele><time>2026-04-22T11:55:39.138Z</time></trkpt><trkpt lat="43.455355" lon="11.5776467"><ele>462.1666666666667</ele><time>2026-04-22T11:55:40.139Z</time></trkpt><trkpt lat="43.45546" lon="11.5775683"><ele>462.0</ele><time>2026-04-22T11:55:42.136Z</time></trkpt><trkpt lat="43.4555717" lon="11.577595"><ele>462.0</ele><time>2026-04-22T11:55:44.137Z</time></trkpt><trkpt lat="43.4556917" lon="11.577575"><ele>462.0</ele><time>2026-04-22T11:55:46.136Z</time></trkpt><trkpt lat="43.4557617" lon="11.5775233"><ele>462.0</ele><time>2026-04-22T11:55:47.136Z</time></trkpt><trkpt lat="43.4558283" lon="11.57747"><ele>462.0</ele><time>2026-04-22T11:55:48.137Z</time></trkpt><trkpt lat="43.4558883" lon="11.577425"><ele>462.0</ele><time>2026-04-22T11:55:49.138Z</time></trkpt><trkpt lat="43.4559883" lon="11.577405"><ele>462.0</ele><time>2026-04-22T11:55:51.137Z</time></trkpt><trkpt lat="43.45609" lon="11.5774467"><ele>462.0</ele><time>2026-04-22T11:55:53.136Z</time></trkpt><trkpt lat="43.45616" lon="11.5775533"><ele>462.0</ele><time>2026-04-22T11:55:55.137Z</time></trkpt><trkpt lat="43.456175" lon="11.5776433"><ele>462.0</ele><time>2026-04-22T11:55:56.138Z</time></trkpt><trkpt lat="43.4561817" lon="11.5777333"><ele>462.0</ele><time>2026-04-22T11:55:57.137Z</time></trkpt><trkpt lat="43.4561633" lon="11.57783"><ele>462.0</ele><time>2026-04-22T11:55:58.137Z</time></trkpt><trkpt lat="43.45613" lon="11.5779183"><ele>462.0</ele><time>2026-04-22T11:55:59.137Z</time></trkpt><trkpt lat="43.45609" lon="11.578"><ele>461.1428571428571</ele><time>2026-04-22T11:56:00.137Z</time></trkpt><trkpt lat="43.4560517" lon="11.5780817"><ele>460.2857142857143</ele><time>2026-04-22T11:56:01.137Z</time></trkpt><trkpt lat="43.45602" lon="11.5781683"><ele>459.42857142857144</ele><time>2026-04-22T11:56:02.136Z</time></trkpt><trkpt lat="43.455985" lon="11.5782467"><ele>458.57142857142856</ele><time>2026-04-22T11:56:03.138Z</time></trkpt><trkpt lat="43.4559383" lon="11.5783283"><ele>457.71428571428567</ele><time>2026-04-22T11:56:04.137Z</time></trkpt><trkpt lat="43.4558867" lon="11.5784083"><ele>456.85714285714283</ele><time>2026-04-22T11:56:05.135Z</time></trkpt><trkpt lat="43.4558267" lon="11.5784883"><ele>456.0</ele><time>2026-04-22T11:56:06.137Z</time></trkpt><trkpt lat="43.4557667" lon="11.578565"><ele>456.0</ele><time>2026-04-22T11:56:07.137Z</time></trkpt><trkpt lat="43.4557067" lon="11.5786333"><ele>455.99999999999994</ele><time>2026-04-22T11:56:08.136Z</time></trkpt><trkpt lat="43.4556533" lon="11.5786917"><ele>456.0</ele><time>2026-04-22T11:56:09.137Z</time></trkpt><trkpt lat="43.455605" lon="11.5787517"><ele>456.0</ele><time>2026-04-22T11:56:10.138Z</time></trkpt><trkpt lat="43.4555533" lon="11.5788133"><ele>455.99999999999994</ele><time>2026-04-22T11:56:11.137Z</time></trkpt><trkpt lat="43.455505" lon="11.5788883"><ele>456.0</ele><time>2026-04-22T11:56:12.137Z</time></trkpt><trkpt lat="43.455465" lon="11.578995"><ele>456.0</ele><time>2026-04-22T11:56:13.137Z</time></trkpt><trkpt lat="43.4554417" lon="11.5791233"><ele>455.5</ele><time>2026-04-22T11:56:14.139Z</time></trkpt><trkpt lat="43.4554233" lon="11.5792517"><ele>455.0</ele><time>2026-04-22T11:56:15.137Z</time></trkpt><trkpt lat="43.4554117" lon="11.5793683"><ele>454.5</ele><time>2026-04-22T11:56:16.136Z</time></trkpt><trkpt lat="43.4554017" lon="11.579475"><ele>454.0</ele><time>2026-04-22T11:56:17.137Z</time></trkpt><trkpt lat="43.4553967" lon="11.5795667"><ele>453.5</ele><time>2026-04-22T11:56:18.14Z</time></trkpt><trkpt lat="43.45539" lon="11.57966"><ele>453.0</ele><time>2026-04-22T11:56:19.141Z</time></trkpt><trkpt lat="43.455375" lon="11.5797517"><ele>450.8333333333333</ele><time>2026-04-22T11:56:20.137Z</time></trkpt><trkpt lat="43.45536" lon="11.5798417"><ele>448.66666666666663</ele><time>2026-04-22T11:56:21.138Z</time></trkpt><trkpt lat="43.45534" lon="11.579925"><ele>446.5</ele><time>2026-04-22T11:56:22.139Z</time></trkpt><trkpt lat="43.4553033" lon="11.5800667"><ele>444.3333333333333</ele><time>2026-04-22T11:56:24.136Z</time></trkpt><trkpt lat="43.4552667" lon="11.580195"><ele>442.16666666666663</ele><time>2026-04-22T11:56:26.138Z</time></trkpt><trkpt lat="43.4552233" lon="11.58031"><ele>440.0</ele><time>2026-04-22T11:56:28.136Z</time></trkpt><trkpt lat="43.455135" lon="11.5803833"><ele>437.4</ele><time>2026-04-22T11:56:30.137Z</time></trkpt><trkpt lat="43.4550483" lon="11.5804217"><ele>434.8</ele><time>2026-04-22T11:56:32.137Z</time></trkpt><trkpt lat="43.454965" lon="11.5804917"><ele>432.20000000000005</ele><time>2026-04-22T11:56:34.137Z</time></trkpt><trkpt lat="43.4548783" lon="11.5805883"><ele>429.6</ele><time>2026-04-22T11:56:36.137Z</time></trkpt><trkpt lat="43.4548033" lon="11.5807167"><ele>427.0</ele><time>2026-04-22T11:56:38.135Z</time></trkpt><trkpt lat="43.4547567" lon="11.5808733"><ele>427.0</ele><time>2026-04-22T11:56:40.137Z</time></trkpt><trkpt lat="43.4547417" lon="11.5809583"><ele>427.0</ele><time>2026-04-22T11:56:41.138Z</time></trkpt><trkpt lat="43.454725" lon="11.5810467"><ele>427.0</ele><time>2026-04-22T11:56:42.137Z</time></trkpt><trkpt lat="43.454705" lon="11.581135"><ele>427.0</ele><time>2026-04-22T11:56:43.138Z</time></trkpt><trkpt lat="43.4546767" lon="11.5812183"><ele>427.0</ele><time>2026-04-22T11:56:44.137Z</time></trkpt><trkpt lat="43.4546367" lon="11.58129"><ele>427.0</ele><time>2026-04-22T11:56:45.138Z</time></trkpt><trkpt lat="43.4545767" lon="11.581405"><ele>427.0</ele><time>2026-04-22T11:56:47.136Z</time></trkpt><trkpt lat="43.4546383" lon="11.58135"><ele>427.0</ele><time>2026-04-22T11:57:09.138Z</time></trkpt><trkpt lat="43.4546917" lon="11.5812383"><ele>427.0</ele><time>2026-04-22T11:57:11.138Z</time></trkpt><trkpt lat="43.4547217" lon="11.58116"><ele>427.0</ele><time>2026-04-22T11:57:12.137Z</time></trkpt><trkpt lat="43.4547467" lon="11.58107"><ele>427.0</ele><time>2026-04-22T11:57:13.139Z</time></trkpt><trkpt lat="43.4547667" lon="11.5809767"><ele>427.0</ele><time>2026-04-22T11:57:14.137Z</time></trkpt><trkpt lat="43.4547817" lon="11.5808817"><ele>427.0</ele><time>2026-04-22T11:57:15.138Z</time></trkpt><trkpt lat="43.4547883" lon="11.5807917"><ele>427.0</ele><time>2026-04-22T11:57:16.138Z</time></trkpt><trkpt lat="43.45485" lon="11.5806467"><ele>427.00000000000006</ele><time>2026-04-22T11:57:18.137Z</time></trkpt><trkpt lat="43.4548967" lon="11.58058"><ele>427.0</ele><time>2026-04-22T11:57:19.139Z</time></trkpt><trkpt lat="43.4549783" lon="11.58046"><ele>427.0</ele><time>2026-04-22T11:57:21.138Z</time></trkpt><trkpt lat="43.4550867" lon="11.5803817"><ele>427.0</ele><time>2026-04-22T11:57:23.138Z</time></trkpt><trkpt lat="43.4551483" lon="11.5803533"><ele>427.00000000000006</ele><time>2026-04-22T11:57:24.136Z</time></trkpt><trkpt lat="43.4552117" lon="11.5803183"><ele>427.0</ele><time>2026-04-22T11:57:25.138Z</time></trkpt><trkpt lat="43.4552667" lon="11.5802617"><ele>429.1666666666667</ele><time>2026-04-22T11:57:26.137Z</time></trkpt><trkpt lat="43.45531" lon="11.580185"><ele>431.33333333333337</ele><time>2026-04-22T11:57:27.139Z</time></trkpt><trkpt lat="43.4553367" lon="11.5801"><ele>433.5</ele><time>2026-04-22T11:57:28.137Z</time></trkpt><trkpt lat="43.4553567" lon="11.5800033"><ele>435.66666666666663</ele><time>2026-04-22T11:57:29.136Z</time></trkpt><trkpt lat="43.45538" lon="11.5798967"><ele>437.8333333333333</ele><time>2026-04-22T11:57:30.137Z</time></trkpt><trkpt lat="43.4554083" lon="11.5797817"><ele>440.0</ele><time>2026-04-22T11:57:31.137Z</time></trkpt><trkpt lat="43.4554283" lon="11.5796617"><ele>439.99999999999994</ele><time>2026-04-22T11:57:32.137Z</time></trkpt><trkpt lat="43.4554383" lon="11.5795433"><ele>440.0</ele><time>2026-04-22T11:57:33.139Z</time></trkpt><trkpt lat="43.455435" lon="11.5794267"><ele>440.0</ele><time>2026-04-22T11:57:34.137Z</time></trkpt><trkpt lat="43.4554283" lon="11.5793083"><ele>440.0</ele><time>2026-04-22T11:57:35.137Z</time></trkpt><trkpt lat="43.4554433" lon="11.5791883"><ele>439.99999999999994</ele><time>2026-04-22T11:57:36.138Z</time></trkpt><trkpt lat="43.455465" lon="11.579065"><ele>440.0</ele><time>2026-04-22T11:57:37.138Z</time></trkpt><trkpt lat="43.4554933" lon="11.5789533"><ele>440.3333333333333</ele><time>2026-04-22T11:57:38.139Z</time></trkpt><trkpt lat="43.4555283" lon="11.578855"><ele>440.66666666666663</ele><time>2026-04-22T11:57:39.14Z</time></trkpt><trkpt lat="43.4555633" lon="11.5787633"><ele>441.0</ele><time>2026-04-22T11:57:40.14Z</time></trkpt><trkpt lat="43.455625" lon="11.5786883"><ele>441.33333333333337</ele><time>2026-04-22T11:57:41.14Z</time></trkpt><trkpt lat="43.4556933" lon="11.578615"><ele>441.6666666666667</ele><time>2026-04-22T11:57:42.141Z</time></trkpt><trkpt lat="43.4557783" lon="11.5785433"><ele>442.0</ele><time>2026-04-22T11:57:43.142Z</time></trkpt><trkpt lat="43.45585" lon="11.5784633"><ele>444.0</ele><time>2026-04-22T11:57:44.141Z</time></trkpt><trkpt lat="43.4559167" lon="11.5783833"><ele>446.0</ele><time>2026-04-22T11:57:45.14Z</time></trkpt><trkpt lat="43.455965" lon="11.57831"><ele>448.0</ele><time>2026-04-22T11:57:46.14Z</time></trkpt><trkpt lat="43.456015" lon="11.5782367"><ele>450.0</ele><time>2026-04-22T11:57:47.14Z</time></trkpt><trkpt lat="43.4560533" lon="11.5781633"><ele>451.99999999999994</ele><time>2026-04-22T11:57:48.141Z</time></trkpt><trkpt lat="43.4560867" lon="11.578075"><ele>454.0</ele><time>2026-04-22T11:57:49.142Z</time></trkpt><trkpt lat="43.4561217" lon="11.5779983"><ele>456.0</ele><time>2026-04-22T11:57:50.137Z</time></trkpt><trkpt lat="43.4561783" lon="11.5778583"><ele>457.0</ele><time>2026-04-22T11:57:52.137Z</time></trkpt><trkpt lat="43.4561883" lon="11.5777517"><ele>458.0</ele><time>2026-04-22T11:57:53.137Z</time></trkpt><trkpt lat="43.4561817" lon="11.5776417"><ele>459.0</ele><time>2026-04-22T11:57:54.137Z</time></trkpt><trkpt lat="43.456165" lon="11.5775433"><ele>460.0</ele><time>2026-04-22T11:57:55.137Z</time></trkpt><trkpt lat="43.4561283" lon="11.5774217"><ele>461.0</ele><time>2026-04-22T11:57:57.137Z</time></trkpt><trkpt lat="43.4560483" lon="11.5774017"><ele>462.0</ele><time>2026-04-22T11:57:59.138Z</time></trkpt><trkpt lat="43.4559517" lon="11.5774167"><ele>462.0</ele><time>2026-04-22T11:58:01.138Z</time></trkpt><trkpt lat="43.455825" lon="11.5774717"><ele>462.0</ele><time>2026-04-22T11:58:03.14Z</time></trkpt><trkpt lat="43.4557483" lon="11.5775217"><ele>462.0</ele><time>2026-04-22T11:58:04.138Z</time></trkpt><trkpt lat="43.4556767" lon="11.57757"><ele>462.0</ele><time>2026-04-22T11:58:05.139Z</time></trkpt><trkpt lat="43.4556083" lon="11.5776067"><ele>462.0</ele><time>2026-04-22T11:58:06.138Z</time></trkpt><trkpt lat="43.455545" lon="11.5776167"><ele>462.0</ele><time>2026-04-22T11:58:07.136Z</time></trkpt><trkpt lat="43.4554783" lon="11.5776033"><ele>462.20000000000005</ele><time>2026-04-22T11:58:08.137Z</time></trkpt><trkpt lat="43.4553583" lon="11.5776317"><ele>462.40000000000003</ele><time>2026-04-22T11:58:10.138Z</time></trkpt><trkpt lat="43.455255" lon="11.57773"><ele>462.59999999999997</ele><time>2026-04-22T11:58:12.138Z</time></trkpt><trkpt lat="43.4551583" lon="11.5778333"><ele>462.79999999999995</ele><time>2026-04-22T11:58:14.137Z</time></trkpt><trkpt lat="43.4551083" lon="11.57789"><ele>463.0</ele><time>2026-04-22T11:58:15.137Z</time></trkpt><trkpt lat="43.4550617" lon="11.5779533"><ele>463.0</ele><time>2026-04-22T11:58:16.138Z</time></trkpt><trkpt lat="43.4550133" lon="11.57801"><ele>462.99999999999994</ele><time>2026-04-22T11:58:17.137Z</time></trkpt><trkpt lat="43.454965" lon="11.578075"><ele>463.0</ele><time>2026-04-22T11:58:18.137Z</time></trkpt><trkpt lat="43.4549167" lon="11.578145"><ele>463.0</ele><time>2026-04-22T11:58:19.139Z</time></trkpt><trkpt lat="43.4548717" lon="11.578215"><ele>462.99999999999994</ele><time>2026-04-22T11:58:20.138Z</time></trkpt><trkpt lat="43.4548283" lon="11.5782817"><ele>463.0</ele><time>2026-04-22T11:58:21.141Z</time></trkpt><trkpt lat="43.4547767" lon="11.5783383"><ele>463.0</ele><time>2026-04-22T11:58:22.139Z</time></trkpt><trkpt lat="43.45472" lon="11.5783783"><ele>462.0</ele><time>2026-04-22T11:58:23.137Z</time></trkpt><trkpt lat="43.4546067" lon="11.5784083"><ele>460.99999999999994</ele><time>2026-04-22T11:58:25.138Z</time></trkpt><trkpt lat="43.4544883" lon="11.5784783"><ele>459.99999999999994</ele><time>2026-04-22T11:58:27.138Z</time></trkpt><trkpt lat="43.454425" lon="11.57852"><ele>459.0</ele><time>2026-04-22T11:58:28.137Z</time></trkpt><trkpt lat="43.45432" lon="11.57862"><ele>458.0</ele><time>2026-04-22T11:58:30.138Z</time></trkpt><trkpt lat="43.4542617" lon="11.5786717"><ele>456.99999999999994</ele><time>2026-04-22T11:58:31.138Z</time></trkpt><trkpt lat="43.4541983" lon="11.5787133"><ele>456.0</ele><time>2026-04-22T11:58:32.137Z</time></trkpt><trkpt lat="43.4541383" lon="11.5787517"><ele>455.0</ele><time>2026-04-22T11:58:33.139Z</time></trkpt><trkpt lat="43.4540383" lon="11.5788283"><ele>454.0</ele><time>2026-04-22T11:58:35.139Z</time></trkpt><trkpt lat="43.45398" lon="11.5788817"><ele>452.99999999999994</ele><time>2026-04-22T11:58:37.137Z</time></trkpt><trkpt lat="43.4539967" lon="11.5787733"><ele>452.0</ele><time>2026-04-22T11:58:42.138Z</time></trkpt><trkpt lat="43.454075" lon="11.5787333"><ele>452.0</ele><time>2026-04-22T11:58:43.138Z</time></trkpt><trkpt lat="43.45417" lon="11.5786867"><ele>452.00000000000006</ele><time>2026-04-22T11:58:44.141Z</time></trkpt><trkpt lat="43.4542533" lon="11.5786317"><ele>452.00000000000006</ele><time>2026-04-22T11:58:45.139Z</time></trkpt><trkpt lat="43.45433" lon="11.5785717"><ele>452.0</ele><time>2026-04-22T11:58:46.139Z</time></trkpt><trkpt lat="43.454415" lon="11.5785133"><ele>452.0</ele><time>2026-04-22T11:58:47.138Z</time></trkpt><trkpt lat="43.4544983" lon="11.5784617"><ele>452.8571428571429</ele><time>2026-04-22T11:58:48.137Z</time></trkpt><trkpt lat="43.454575" lon="11.578415"><ele>453.71428571428567</ele><time>2026-04-22T11:58:49.137Z</time></trkpt><trkpt lat="43.4546483" lon="11.5783867"><ele>454.57142857142856</ele><time>2026-04-22T11:58:50.138Z</time></trkpt><trkpt lat="43.454715" lon="11.57837"><ele>455.42857142857144</ele><time>2026-04-22T11:58:51.14Z</time></trkpt><trkpt lat="43.4547767" lon="11.5783467"><ele>456.28571428571433</ele><time>2026-04-22T11:58:52.138Z</time></trkpt><trkpt lat="43.4548333" lon="11.578295"><ele>457.1428571428571</ele><time>2026-04-22T11:58:53.137Z</time></trkpt><trkpt lat="43.454885" lon="11.5782233"><ele>458.0</ele><time>2026-04-22T11:58:54.139Z</time></trkpt><trkpt lat="43.4549367" lon="11.5781383"><ele>458.8333333333333</ele><time>2026-04-22T11:58:55.14Z</time></trkpt><trkpt lat="43.454995" lon="11.5780483"><ele>459.66666666666663</ele><time>2026-04-22T11:58:56.139Z</time></trkpt><trkpt lat="43.45506" lon="11.5779583"><ele>460.5</ele><time>2026-04-22T11:58:57.14Z</time></trkpt><trkpt lat="43.4551217" lon="11.5778817"><ele>461.33333333333337</ele><time>2026-04-22T11:58:58.14Z</time></trkpt><trkpt lat="43.4551833" lon="11.57783"><ele>462.1666666666667</ele><time>2026-04-22T11:58:59.141Z</time></trkpt><trkpt lat="43.4552467" lon="11.5777833"><ele>463.0</ele><time>2026-04-22T11:59:00.143Z</time></trkpt><trkpt lat="43.455305" lon="11.5777283"><ele>462.79999999999995</ele><time>2026-04-22T11:59:01.141Z</time></trkpt><trkpt lat="43.455355" lon="11.5776683"><ele>462.59999999999997</ele><time>2026-04-22T11:59:02.14Z</time></trkpt><trkpt lat="43.45541" lon="11.5776183"><ele>462.40000000000003</ele><time>2026-04-22T11:59:03.142Z</time></trkpt><trkpt lat="43.4555067" lon="11.57757"><ele>462.20000000000005</ele><time>2026-04-22T11:59:05.138Z</time></trkpt><trkpt lat="43.4556133" lon="11.57758"><ele>462.0</ele><time>2026-04-22T11:59:07.141Z</time></trkpt><trkpt lat="43.4557367" lon="11.5775283"><ele>462.0</ele><time>2026-04-22T11:59:09.139Z</time></trkpt><trkpt lat="43.4558033" lon="11.5774783"><ele>462.0</ele><time>2026-04-22T11:59:10.139Z</time></trkpt><trkpt lat="43.4558583" lon="11.577425"><ele>462.0</ele><time>2026-04-22T11:59:11.139Z</time></trkpt><trkpt lat="43.45595" lon="11.5773883"><ele>462.0</ele><time>2026-04-22T11:59:13.139Z</time></trkpt><trkpt lat="43.4560417" lon="11.577435"><ele>462.0</ele><time>2026-04-22T11:59:15.139Z</time></trkpt><trkpt lat="43.456125" lon="11.5774983"><ele>462.0</ele><time>2026-04-22T11:59:17.138Z</time></trkpt><trkpt lat="43.45617" lon="11.5776517"><ele>462.0</ele><time>2026-04-22T11:59:19.146Z</time></trkpt><trkpt lat="43.4561633" lon="11.5777533"><ele>462.0</ele><time>2026-04-22T11:59:20.138Z</time></trkpt><trkpt lat="43.45614" lon="11.5778483"><ele>462.0</ele><time>2026-04-22T11:59:21.139Z</time></trkpt><trkpt lat="43.456105" lon="11.5779467"><ele>462.0</ele><time>2026-04-22T11:59:22.138Z</time></trkpt><trkpt lat="43.4560617" lon="11.5780383"><ele>462.0</ele><time>2026-04-22T11:59:23.141Z</time></trkpt><trkpt lat="43.4560267" lon="11.57813"><ele>462.0</ele><time>2026-04-22T11:59:24.14Z</time></trkpt><trkpt lat="43.45599" lon="11.5782217"><ele>460.8</ele><time>2026-04-22T11:59:25.142Z</time></trkpt><trkpt lat="43.455945" lon="11.5783167"><ele>459.6</ele><time>2026-04-22T11:59:26.14Z</time></trkpt><trkpt lat="43.4558867" lon="11.5784117"><ele>458.40000000000003</ele><time>2026-04-22T11:59:27.141Z</time></trkpt><trkpt lat="43.455825" lon="11.5785067"><ele>457.20000000000005</ele><time>2026-04-22T11:59:28.137Z</time></trkpt><trkpt lat="43.4557583" lon="11.5786017"><ele>456.0</ele><time>2026-04-22T11:59:29.137Z</time></trkpt><trkpt lat="43.45569" lon="11.5786933"><ele>455.5</ele><time>2026-04-22T11:59:30.14Z</time></trkpt><trkpt lat="43.45562" lon="11.5787717"><ele>455.0</ele><time>2026-04-22T11:59:31.134Z</time></trkpt><trkpt lat="43.4555567" lon="11.5788433"><ele>454.5</ele><time>2026-04-22T11:59:32.176Z</time></trkpt><trkpt lat="43.4555017" lon="11.5789267"><ele>454.0</ele><time>2026-04-22T11:59:33.138Z</time></trkpt><trkpt lat="43.4554733" lon="11.5790467"><ele>453.5</ele><time>2026-04-22T11:59:34.137Z</time></trkpt><trkpt lat="43.4554517" lon="11.579185"><ele>453.0</ele><time>2026-04-22T11:59:35.137Z</time></trkpt><trkpt lat="43.4554317" lon="11.57931"><ele>453.0</ele><time>2026-04-22T11:59:36.132Z</time></trkpt><trkpt lat="43.455415" lon="11.5794217"><ele>453.0</ele><time>2026-04-22T11:59:37.138Z</time></trkpt><trkpt lat="43.4554033" lon="11.5795283"><ele>453.0</ele><time>2026-04-22T11:59:38.137Z</time></trkpt><trkpt lat="43.4554" lon="11.5796217"><ele>453.0</ele><time>2026-04-22T11:59:39.139Z</time></trkpt><trkpt lat="43.4553917" lon="11.5797117"><ele>453.0</ele><time>2026-04-22T11:59:40.139Z</time></trkpt><trkpt lat="43.4553783" lon="11.5798017"><ele>453.0</ele><time>2026-04-22T11:59:41.138Z</time></trkpt><trkpt lat="43.4553383" lon="11.5799583"><ele>450.4</ele><time>2026-04-22T11:59:43.138Z</time></trkpt><trkpt lat="43.4552833" lon="11.5801133"><ele>447.79999999999995</ele><time>2026-04-22T11:59:45.138Z</time></trkpt><trkpt lat="43.4552333" lon="11.5802583"><ele>445.2</ele><time>2026-04-22T11:59:47.137Z</time></trkpt><trkpt lat="43.4551717" lon="11.580375"><ele>442.6</ele><time>2026-04-22T11:59:49.138Z</time></trkpt><trkpt lat="43.4550917" lon="11.580435"><ele>440.0</ele><time>2026-04-22T11:59:51.139Z</time></trkpt><trkpt lat="43.4550017" lon="11.5804633"><ele>437.4</ele><time>2026-04-22T11:59:53.138Z</time></trkpt><trkpt lat="43.4549133" lon="11.5805367"><ele>434.8</ele><time>2026-04-22T11:59:55.138Z</time></trkpt><trkpt lat="43.454835" lon="11.58064"><ele>432.20000000000005</ele><time>2026-04-22T11:59:57.139Z</time></trkpt><trkpt lat="43.4547683" lon="11.5807717"><ele>429.6</ele><time>2026-04-22T11:59:59.137Z</time></trkpt><trkpt lat="43.4547467" lon="11.5809333"><ele>427.0</ele><time>2026-04-22T12:00:01.137Z</time></trkpt><trkpt lat="43.4547067" lon="11.5811"><ele>425.0</ele><time>2026-04-22T12:00:03.136Z</time></trkpt><trkpt lat="43.4546767" lon="11.58119"><ele>423.00000000000006</ele><time>2026-04-22T12:00:04.136Z</time></trkpt><trkpt lat="43.4546433" lon="11.5812733"><ele>421.0</ele><time>2026-04-22T12:00:05.137Z</time></trkpt><trkpt lat="43.454565" lon="11.5813933"><ele>419.0</ele><time>2026-04-22T12:00:07.141Z</time></trkpt><trkpt lat="43.4544967" lon="11.5814683"><ele>417.0</ele><time>2026-04-22T12:00:09.14Z</time></trkpt><trkpt lat="43.45439" lon="11.5815283"><ele>417.0</ele><time>2026-04-22T12:00:11.139Z</time></trkpt><trkpt lat="43.4543233" lon="11.5815333"><ele>417.0</ele><time>2026-04-22T12:00:12.141Z</time></trkpt><trkpt lat="43.4542017" lon="11.5815117"><ele>417.0</ele><time>2026-04-22T12:00:14.138Z</time></trkpt><trkpt lat="43.4541183" lon="11.581465"><ele>417.0</ele><time>2026-04-22T12:00:16.137Z</time></trkpt><trkpt lat="43.4540633" lon="11.5815117"><ele>417.0</ele><time>2026-04-22T12:00:19.138Z</time></trkpt><trkpt lat="43.4540183" lon="11.5816"><ele>417.0</ele><time>2026-04-22T12:00:22.139Z</time></trkpt><trkpt lat="43.453995" lon="11.5816917"><ele>417.0</ele><time>2026-04-22T12:00:25.138Z</time></trkpt><trkpt lat="43.4540267" lon="11.58178"><ele>417.0</ele><time>2026-04-22T12:00:27.139Z</time></trkpt><trkpt lat="43.4540483" lon="11.5819017"><ele>417.0</ele><time>2026-04-22T12:00:29.139Z</time></trkpt><trkpt lat="43.4540317" lon="11.5820283"><ele>417.0</ele><time>2026-04-22T12:00:31.138Z</time></trkpt><trkpt lat="43.454015" lon="11.5821633"><ele>417.0</ele><time>2026-04-22T12:00:33.14Z</time></trkpt><trkpt lat="43.45396" lon="11.5823067"><ele>414.8333333333333</ele><time>2026-04-22T12:00:35.137Z</time></trkpt><trkpt lat="43.4539383" lon="11.5823967"><ele>412.66666666666663</ele><time>2026-04-22T12:00:36.138Z</time></trkpt><trkpt lat="43.453915" lon="11.5824933"><ele>410.5</ele><time>2026-04-22T12:00:37.138Z</time></trkpt><trkpt lat="43.453895" lon="11.5826"><ele>408.3333333333333</ele><time>2026-04-22T12:00:38.139Z</time></trkpt><trkpt lat="43.4538783" lon="11.5827067"><ele>406.16666666666663</ele><time>2026-04-22T12:00:39.137Z</time></trkpt><trkpt lat="43.4538667" lon="11.58281"><ele>404.0</ele><time>2026-04-22T12:00:40.139Z</time></trkpt><trkpt lat="43.4538767" lon="11.5829217"><ele>403.66666666666663</ele><time>2026-04-22T12:00:41.139Z</time></trkpt><trkpt lat="43.453885" lon="11.5830367"><ele>403.3333333333333</ele><time>2026-04-22T12:00:42.138Z</time></trkpt><trkpt lat="43.4538867" lon="11.5831533"><ele>403.0</ele><time>2026-04-22T12:00:43.138Z</time></trkpt><trkpt lat="43.4538783" lon="11.5832667"><ele>402.66666666666663</ele><time>2026-04-22T12:00:44.138Z</time></trkpt><trkpt lat="43.4538683" lon="11.5833817"><ele>402.3333333333333</ele><time>2026-04-22T12:00:45.139Z</time></trkpt><trkpt lat="43.4538533" lon="11.5835033"><ele>402.0</ele><time>2026-04-22T12:00:46.139Z</time></trkpt><trkpt lat="43.4538367" lon="11.583625"><ele>400.5</ele><time>2026-04-22T12:00:47.139Z</time></trkpt><trkpt lat="43.4538267" lon="11.5837467"><ele>399.0</ele><time>2026-04-22T12:00:48.138Z</time></trkpt><trkpt lat="43.4538167" lon="11.5838617"><ele>397.5</ele><time>2026-04-22T12:00:49.138Z</time></trkpt><trkpt lat="43.4538083" lon="11.5839683"><ele>396.0</ele><time>2026-04-22T12:00:50.138Z</time></trkpt><trkpt lat="43.4538017" lon="11.5840683"><ele>394.5</ele><time>2026-04-22T12:00:51.139Z</time></trkpt><trkpt lat="43.4537967" lon="11.5841667"><ele>393.0</ele><time>2026-04-22T12:00:52.138Z</time></trkpt><trkpt lat="43.4537933" lon="11.5842667"><ele>393.0</ele><time>2026-04-22T12:00:53.137Z</time></trkpt><trkpt lat="43.4538033" lon="11.5843717"><ele>393.0</ele><time>2026-04-22T12:00:54.137Z</time></trkpt><trkpt lat="43.4538317" lon="11.5844817"><ele>393.0</ele><time>2026-04-22T12:00:55.138Z</time></trkpt><trkpt lat="43.4538733" lon="11.58459"><ele>393.0</ele><time>2026-04-22T12:00:56.139Z</time></trkpt><trkpt lat="43.4539117" lon="11.5846983"><ele>393.0</ele><time>2026-04-22T12:00:57.14Z</time></trkpt><trkpt lat="43.45395" lon="11.58481"><ele>393.0</ele><time>2026-04-22T12:00:58.138Z</time></trkpt><trkpt lat="43.4539883" lon="11.5849183"><ele>390.6666666666667</ele><time>2026-04-22T12:00:59.138Z</time></trkpt><trkpt lat="43.45402" lon="11.5850217"><ele>388.3333333333333</ele><time>2026-04-22T12:01:00.136Z</time></trkpt><trkpt lat="43.45405" lon="11.58512"><ele>386.0</ele><time>2026-04-22T12:01:01.138Z</time></trkpt><trkpt lat="43.4540667" lon="11.58522"><ele>383.66666666666663</ele><time>2026-04-22T12:01:02.138Z</time></trkpt><trkpt lat="43.45408" lon="11.585335"><ele>381.3333333333333</ele><time>2026-04-22T12:01:03.139Z</time></trkpt><trkpt lat="43.45409" lon="11.585455"><ele>379.0</ele><time>2026-04-22T12:01:04.138Z</time></trkpt><trkpt lat="43.4541017" lon="11.585575"><ele>377.3333333333333</ele><time>2026-04-22T12:01:05.139Z</time></trkpt><trkpt lat="43.45411" lon="11.5856817"><ele>375.66666666666663</ele><time>2026-04-22T12:01:06.137Z</time></trkpt><trkpt lat="43.4541133" lon="11.5857783"><ele>374.0</ele><time>2026-04-22T12:01:07.138Z</time></trkpt><trkpt lat="43.45412" lon="11.5858783"><ele>372.3333333333333</ele><time>2026-04-22T12:01:08.138Z</time></trkpt><trkpt lat="43.4541267" lon="11.5859867"><ele>370.6666666666667</ele><time>2026-04-22T12:01:09.14Z</time></trkpt><trkpt lat="43.4541267" lon="11.5861017"><ele>369.0</ele><time>2026-04-22T12:01:10.138Z</time></trkpt><trkpt lat="43.4541217" lon="11.5862267"><ele>367.4</ele><time>2026-04-22T12:01:11.138Z</time></trkpt><trkpt lat="43.4541133" lon="11.58636"><ele>365.79999999999995</ele><time>2026-04-22T12:01:12.139Z</time></trkpt><trkpt lat="43.4541017" lon="11.5864967"><ele>364.20000000000005</ele><time>2026-04-22T12:01:13.138Z</time></trkpt><trkpt lat="43.4540883" lon="11.58664"><ele>362.6</ele><time>2026-04-22T12:01:14.138Z</time></trkpt><trkpt lat="43.4540683" lon="11.5867817"><ele>361.0</ele><time>2026-04-22T12:01:15.14Z</time></trkpt><trkpt lat="43.454045" lon="11.5869133"><ele>360.3333333333333</ele><time>2026-04-22T12:01:16.138Z</time></trkpt><trkpt lat="43.4540217" lon="11.5870333"><ele>359.66666666666663</ele><time>2026-04-22T12:01:17.137Z</time></trkpt><trkpt lat="43.4540017" lon="11.5871433"><ele>359.0</ele><time>2026-04-22T12:01:18.138Z</time></trkpt><trkpt lat="43.4539933" lon="11.5872483"><ele>358.3333333333333</ele><time>2026-04-22T12:01:19.138Z</time></trkpt><trkpt lat="43.4539883" lon="11.58735"><ele>357.6666666666667</ele><time>2026-04-22T12:01:20.141Z</time></trkpt><trkpt lat="43.4539767" lon="11.5874517"><ele>357.0</ele><time>2026-04-22T12:01:21.139Z</time></trkpt><trkpt lat="43.453965" lon="11.587555"><ele>357.0</ele><time>2026-04-22T12:01:22.138Z</time></trkpt><trkpt lat="43.4539583" lon="11.5876583"><ele>357.0</ele><time>2026-04-22T12:01:23.138Z</time></trkpt><trkpt lat="43.4539617" lon="11.58776"><ele>357.0</ele><time>2026-04-22T12:01:24.139Z</time></trkpt><trkpt lat="43.453975" lon="11.5878667"><ele>357.0</ele><time>2026-04-22T12:01:25.14Z</time></trkpt><trkpt lat="43.4539917" lon="11.58798"><ele>357.0</ele><time>2026-04-22T12:01:26.141Z</time></trkpt><trkpt lat="43.4540083" lon="11.58809"><ele>357.0</ele><time>2026-04-22T12:01:27.139Z</time></trkpt><trkpt lat="43.4540333" lon="11.5881983"><ele>356.2857142857143</ele><time>2026-04-22T12:01:28.139Z</time></trkpt><trkpt lat="43.4540667" lon="11.588305"><ele>355.57142857142856</ele><time>2026-04-22T12:01:29.14Z</time></trkpt><trkpt lat="43.4541033" lon="11.588405"><ele>354.8571428571429</ele><time>2026-04-22T12:01:30.139Z</time></trkpt><trkpt lat="43.4541267" lon="11.5884967"><ele>354.1428571428571</ele><time>2026-04-22T12:01:31.14Z</time></trkpt><trkpt lat="43.454145" lon="11.5885933"><ele>353.42857142857144</ele><time>2026-04-22T12:01:32.14Z</time></trkpt><trkpt lat="43.4541533" lon="11.58869"><ele>352.7142857142857</ele><time>2026-04-22T12:01:33.141Z</time></trkpt><trkpt lat="43.4541483" lon="11.5887767"><ele>352.0</ele><time>2026-04-22T12:01:34.14Z</time></trkpt><trkpt lat="43.4541217" lon="11.588945"><ele>351.0</ele><time>2026-04-22T12:01:36.145Z</time></trkpt><trkpt lat="43.4541233" lon="11.5890517"><ele>350.0</ele><time>2026-04-22T12:01:37.141Z</time></trkpt><trkpt lat="43.4541233" lon="11.5891717"><ele>349.0</ele><time>2026-04-22T12:01:38.14Z</time></trkpt><trkpt lat="43.4541133" lon="11.5892983"><ele>348.0</ele><time>2026-04-22T12:01:39.139Z</time></trkpt><trkpt lat="43.4541033" lon="11.5894133"><ele>347.0</ele><time>2026-04-22T12:01:40.139Z</time></trkpt><trkpt lat="43.454075" lon="11.589505"><ele>346.0</ele><time>2026-04-22T12:01:41.141Z</time></trkpt><trkpt lat="43.454055" lon="11.58959"><ele>343.8</ele><time>2026-04-22T12:01:42.139Z</time></trkpt><trkpt lat="43.4540383" lon="11.589735"><ele>341.6</ele><time>2026-04-22T12:01:44.138Z</time></trkpt><trkpt lat="43.45403" lon="11.58988"><ele>339.4</ele><time>2026-04-22T12:01:46.137Z</time></trkpt><trkpt lat="43.4540233" lon="11.5900117"><ele>337.2</ele><time>2026-04-22T12:01:48.137Z</time></trkpt><trkpt lat="43.4540083" lon="11.5901333"><ele>335.0</ele><time>2026-04-22T12:01:50.139Z</time></trkpt><trkpt lat="43.4539567" lon="11.590215"><ele>335.0</ele><time>2026-04-22T12:01:52.139Z</time></trkpt><trkpt lat="43.453885" lon="11.5902933"><ele>335.0</ele><time>2026-04-22T12:01:54.138Z</time></trkpt><trkpt lat="43.4538683" lon="11.590415"><ele>335.0</ele><time>2026-04-22T12:01:56.138Z</time></trkpt><trkpt lat="43.4538833" lon="11.5905633"><ele>335.0</ele><time>2026-04-22T12:01:58.138Z</time></trkpt><trkpt lat="43.4539033" lon="11.5906883"><ele>335.0</ele><time>2026-04-22T12:02:00.139Z</time></trkpt><trkpt lat="43.4539217" lon="11.59078"><ele>332.8</ele><time>2026-04-22T12:02:03.14Z</time></trkpt><trkpt lat="43.4539017" lon="11.590905"><ele>330.6</ele><time>2026-04-22T12:03:40.136Z</time></trkpt><trkpt lat="43.4539033" lon="11.5910083"><ele>328.4</ele><time>2026-04-22T12:03:43.138Z</time></trkpt><trkpt lat="43.4538817" lon="11.5911733"><ele>326.2</ele><time>2026-04-22T12:03:45.139Z</time></trkpt><trkpt lat="43.453865" lon="11.59129"><ele>324.0</ele><time>2026-04-22T12:03:46.137Z</time></trkpt><trkpt lat="43.45385" lon="11.5914033"><ele>322.3333333333333</ele><time>2026-04-22T12:03:47.137Z</time></trkpt><trkpt lat="43.45384" lon="11.5915033"><ele>320.6666666666667</ele><time>2026-04-22T12:03:48.139Z</time></trkpt><trkpt lat="43.45384" lon="11.5915933"><ele>319.0</ele><time>2026-04-22T12:03:49.138Z</time></trkpt><trkpt lat="43.4538533" lon="11.5916917"><ele>317.33333333333337</ele><time>2026-04-22T12:03:50.139Z</time></trkpt><trkpt lat="43.4538717" lon="11.5917883"><ele>315.6666666666667</ele><time>2026-04-22T12:03:51.14Z</time></trkpt><trkpt lat="43.4539033" lon="11.5918967"><ele>314.0</ele><time>2026-04-22T12:03:52.138Z</time></trkpt><trkpt lat="43.4539483" lon="11.5920167"><ele>312.59999999999997</ele><time>2026-04-22T12:03:53.138Z</time></trkpt><trkpt lat="43.4540017" lon="11.5921367"><ele>311.2</ele><time>2026-04-22T12:03:54.138Z</time></trkpt><trkpt lat="43.4540533" lon="11.592255"><ele>309.79999999999995</ele><time>2026-04-22T12:03:55.139Z</time></trkpt><trkpt lat="43.4541" lon="11.5923717"><ele>308.4</ele><time>2026-04-22T12:03:56.138Z</time></trkpt><trkpt lat="43.4541433" lon="11.5924817"><ele>307.0</ele><time>2026-04-22T12:03:57.138Z</time></trkpt><trkpt lat="43.4541817" lon="11.5926"><ele>307.0</ele><time>2026-04-22T12:03:58.138Z</time></trkpt><trkpt lat="43.454215" lon="11.5927217"><ele>307.0</ele><time>2026-04-22T12:03:59.138Z</time></trkpt><trkpt lat="43.454245" lon="11.5928417"><ele>307.0</ele><time>2026-04-22T12:04:00.139Z</time></trkpt><trkpt lat="43.4542733" lon="11.5929467"><ele>307.0</ele><time>2026-04-22T12:04:01.139Z</time></trkpt><trkpt lat="43.454295" lon="11.59304"><ele>307.0</ele><time>2026-04-22T12:04:02.135Z</time></trkpt><trkpt lat="43.4543033" lon="11.5931267"><ele>307.0</ele><time>2026-04-22T12:04:03.139Z</time></trkpt><trkpt lat="43.4542983" lon="11.5932133"><ele>306.5</ele><time>2026-04-22T12:04:04.14Z</time></trkpt><trkpt lat="43.454275" lon="11.5932983"><ele>306.0</ele><time>2026-04-22T12:04:05.137Z</time></trkpt><trkpt lat="43.454235" lon="11.5933767"><ele>305.5</ele><time>2026-04-22T12:04:06.14Z</time></trkpt><trkpt lat="43.4541717" lon="11.5934467"><ele>305.0</ele><time>2026-04-22T12:04:07.14Z</time></trkpt><trkpt lat="43.4540983" lon="11.5935267"><ele>304.5</ele><time>2026-04-22T12:04:08.138Z</time></trkpt><trkpt lat="43.4540317" lon="11.5936"><ele>304.0</ele><time>2026-04-22T12:04:09.137Z</time></trkpt><trkpt lat="43.4539767" lon="11.5936633"><ele>303.3333333333333</ele><time>2026-04-22T12:04:10.137Z</time></trkpt><trkpt lat="43.4539283" lon="11.5937317"><ele>302.66666666666663</ele><time>2026-04-22T12:04:11.138Z</time></trkpt><trkpt lat="43.4539" lon="11.5938133"><ele>302.0</ele><time>2026-04-22T12:04:12.14Z</time></trkpt><trkpt lat="43.4538983" lon="11.5939233"><ele>301.3333333333333</ele><time>2026-04-22T12:04:13.138Z</time></trkpt><trkpt lat="43.4539033" lon="11.5940383"><ele>300.6666666666667</ele><time>2026-04-22T12:04:14.138Z</time></trkpt><trkpt lat="43.4539017" lon="11.5941517"><ele>300.0</ele><time>2026-04-22T12:04:15.138Z</time></trkpt><trkpt lat="43.4538883" lon="11.5942617"><ele>300.0</ele><time>2026-04-22T12:04:16.138Z</time></trkpt><trkpt lat="43.4538767" lon="11.594355"><ele>300.0</ele><time>2026-04-22T12:04:17.137Z</time></trkpt><trkpt lat="43.4538583" lon="11.5945017"><ele>300.0</ele><time>2026-04-22T12:04:19.139Z</time></trkpt><trkpt lat="43.4538883" lon="11.59462"><ele>300.0</ele><time>2026-04-22T12:04:21.139Z</time></trkpt><trkpt lat="43.4539383" lon="11.5946817"><ele>300.0</ele><time>2026-04-22T12:04:22.14Z</time></trkpt><trkpt lat="43.45401" lon="11.5947483"><ele>300.0</ele><time>2026-04-22T12:04:23.138Z</time></trkpt><trkpt lat="43.45409" lon="11.594825"><ele>298.1666666666667</ele><time>2026-04-22T12:04:24.139Z</time></trkpt><trkpt lat="43.454165" lon="11.5948967"><ele>296.3333333333333</ele><time>2026-04-22T12:04:25.138Z</time></trkpt><trkpt lat="43.4542383" lon="11.59495"><ele>294.5</ele><time>2026-04-22T12:04:26.138Z</time></trkpt><trkpt lat="43.4543117" lon="11.5949767"><ele>292.66666666666663</ele><time>2026-04-22T12:04:27.138Z</time></trkpt><trkpt lat="43.454385" lon="11.5949783"><ele>290.8333333333333</ele><time>2026-04-22T12:04:28.139Z</time></trkpt><trkpt lat="43.4544583" lon="11.5949483"><ele>289.0</ele><time>2026-04-22T12:04:29.138Z</time></trkpt><trkpt lat="43.4545283" lon="11.5948933"><ele>289.0</ele><time>2026-04-22T12:04:30.139Z</time></trkpt><trkpt lat="43.4546033" lon="11.5948367"><ele>289.0</ele><time>2026-04-22T12:04:31.139Z</time></trkpt><trkpt lat="43.45468" lon="11.5947933"><ele>289.0</ele><time>2026-04-22T12:04:32.138Z</time></trkpt><trkpt lat="43.4547567" lon="11.5947717"><ele>289.0</ele><time>2026-04-22T12:04:33.14Z</time></trkpt><trkpt lat="43.45484" lon="11.59476"><ele>289.0</ele><time>2026-04-22T12:04:34.139Z</time></trkpt><trkpt lat="43.4549217" lon="11.5947567"><ele>289.0</ele><time>2026-04-22T12:04:35.137Z</time></trkpt><trkpt lat="43.4549883" lon="11.59477"><ele>289.4</ele><time>2026-04-22T12:04:36.138Z</time></trkpt><trkpt lat="43.455085" lon="11.59487"><ele>289.79999999999995</ele><time>2026-04-22T12:04:38.139Z</time></trkpt><trkpt lat="43.4550967" lon="11.5949817"><ele>290.20000000000005</ele><time>2026-04-22T12:04:39.139Z</time></trkpt><trkpt lat="43.455085" lon="11.5951133"><ele>290.6</ele><time>2026-04-22T12:04:40.138Z</time></trkpt><trkpt lat="43.4550867" lon="11.5952333"><ele>291.0</ele><time>2026-04-22T12:04:41.138Z</time></trkpt><trkpt lat="43.455095" lon="11.5953617"><ele>289.8</ele><time>2026-04-22T12:04:42.134Z</time></trkpt><trkpt lat="43.4551233" lon="11.5954967"><ele>288.6</ele><time>2026-04-22T12:04:43.136Z</time></trkpt><trkpt lat="43.4551567" lon="11.5956367"><ele>287.4</ele><time>2026-04-22T12:04:44.137Z</time></trkpt><trkpt lat="43.455195" lon="11.5957633"><ele>286.2</ele><time>2026-04-22T12:04:45.139Z</time></trkpt><trkpt lat="43.4552417" lon="11.59587"><ele>285.0</ele><time>2026-04-22T12:04:46.138Z</time></trkpt><trkpt lat="43.455305" lon="11.5959583"><ele>285.0</ele><time>2026-04-22T12:04:47.138Z</time></trkpt><trkpt lat="43.4553883" lon="11.5960333"><ele>285.0</ele><time>2026-04-22T12:04:48.138Z</time></trkpt><trkpt lat="43.4554783" lon="11.5961"><ele>285.0</ele><time>2026-04-22T12:04:49.137Z</time></trkpt><trkpt lat="43.4555517" lon="11.59617"><ele>285.0</ele><time>2026-04-22T12:04:50.138Z</time></trkpt><trkpt lat="43.4556167" lon="11.5962533"><ele>285.0</ele><time>2026-04-22T12:04:51.138Z</time></trkpt><trkpt lat="43.4556717" lon="11.59634"><ele>284.5</ele><time>2026-04-22T12:04:52.138Z</time></trkpt><trkpt lat="43.4557283" lon="11.596425"><ele>284.0</ele><time>2026-04-22T12:04:53.137Z</time></trkpt><trkpt lat="43.4557883" lon="11.5965017"><ele>283.5</ele><time>2026-04-22T12:04:54.139Z</time></trkpt><trkpt lat="43.4558467" lon="11.596555"><ele>283.0</ele><time>2026-04-22T12:04:55.138Z</time></trkpt><trkpt lat="43.455915" lon="11.5965717"><ele>282.5</ele><time>2026-04-22T12:04:56.139Z</time></trkpt><trkpt lat="43.4559933" lon="11.59656"><ele>282.0</ele><time>2026-04-22T12:04:57.139Z</time></trkpt><trkpt lat="43.4560683" lon="11.59655"><ele>282.0</ele><time>2026-04-22T12:04:58.138Z</time></trkpt><trkpt lat="43.4561367" lon="11.5965433"><ele>282.0</ele><time>2026-04-22T12:04:59.137Z</time></trkpt><trkpt lat="43.4562" lon="11.5965483"><ele>282.0</ele><time>2026-04-22T12:05:00.137Z</time></trkpt><trkpt lat="43.4562667" lon="11.5965583"><ele>282.0</ele><time>2026-04-22T12:05:01.138Z</time></trkpt><trkpt lat="43.456345" lon="11.59659"><ele>282.0</ele><time>2026-04-22T12:05:02.138Z</time></trkpt><trkpt lat="43.4564267" lon="11.5966283"><ele>282.0</ele><time>2026-04-22T12:05:03.139Z</time></trkpt><trkpt lat="43.4565033" lon="11.5966667"><ele>282.0</ele><time>2026-04-22T12:05:04.138Z</time></trkpt><trkpt lat="43.4565717" lon="11.596695"><ele>280.8571428571429</ele><time>2026-04-22T12:05:05.137Z</time></trkpt><trkpt lat="43.456635" lon="11.5967217"><ele>279.7142857142857</ele><time>2026-04-22T12:05:06.138Z</time></trkpt><trkpt lat="43.4566933" lon="11.59676"><ele>278.57142857142856</ele><time>2026-04-22T12:05:07.139Z</time></trkpt><trkpt lat="43.45675" lon="11.596815"><ele>277.42857142857144</ele><time>2026-04-22T12:05:08.14Z</time></trkpt><trkpt lat="43.4567983" lon="11.596885"><ele>276.2857142857143</ele><time>2026-04-22T12:05:09.148Z</time></trkpt><trkpt lat="43.456835" lon="11.5969783"><ele>275.14285714285717</ele><time>2026-04-22T12:05:10.14Z</time></trkpt><trkpt lat="43.4568533" lon="11.5970883"><ele>274.0</ele><time>2026-04-22T12:05:11.137Z</time></trkpt><trkpt lat="43.4568617" lon="11.5972033"><ele>273.8</ele><time>2026-04-22T12:05:12.138Z</time></trkpt><trkpt lat="43.4568767" lon="11.5973183"><ele>273.59999999999997</ele><time>2026-04-22T12:05:13.137Z</time></trkpt><trkpt lat="43.4569117" lon="11.5974367"><ele>273.4</ele><time>2026-04-22T12:05:14.138Z</time></trkpt><trkpt lat="43.45697" lon="11.59756"><ele>273.2</ele><time>2026-04-22T12:05:15.14Z</time></trkpt><trkpt lat="43.4570433" lon="11.5976867"><ele>273.0</ele><time>2026-04-22T12:05:16.139Z</time></trkpt><trkpt lat="43.4571283" lon="11.59782"><ele>272.5</ele><time>2026-04-22T12:05:17.137Z</time></trkpt><trkpt lat="43.45722" lon="11.5979633"><ele>272.0</ele><time>2026-04-22T12:05:18.141Z</time></trkpt><trkpt lat="43.457305" lon="11.5981217"><ele>271.5</ele><time>2026-04-22T12:05:19.14Z</time></trkpt><trkpt lat="43.4573767" lon="11.5982967"><ele>271.0</ele><time>2026-04-22T12:05:20.139Z</time></trkpt><trkpt lat="43.45744" lon="11.5984883"><ele>270.0</ele><time>2026-04-22T12:05:21.14Z</time></trkpt><trkpt lat="43.4575083" lon="11.5986917"><ele>269.0</ele><time>2026-04-22T12:05:22.138Z</time></trkpt><trkpt lat="43.4575917" lon="11.5988983"><ele>268.0</ele><time>2026-04-22T12:05:23.138Z</time></trkpt><trkpt lat="43.4576883" lon="11.5991083"><ele>268.0</ele><time>2026-04-22T12:05:24.138Z</time></trkpt><trkpt lat="43.4577933" lon="11.5993367"><ele>268.0</ele><time>2026-04-22T12:05:25.146Z</time></trkpt><trkpt lat="43.45791" lon="11.5995867"><ele>268.0</ele><time>2026-04-22T12:05:26.137Z</time></trkpt><trkpt lat="43.4580333" lon="11.59985"><ele>265.5</ele><time>2026-04-22T12:05:27.139Z</time></trkpt><trkpt lat="43.458165" lon="11.6001283"><ele>263.0</ele><time>2026-04-22T12:05:28.138Z</time></trkpt><trkpt lat="43.4583067" lon="11.6004283"><ele>261.0</ele><time>2026-04-22T12:05:29.138Z</time></trkpt><trkpt lat="43.4584483" lon="11.6007233"><ele>259.0</ele><time>2026-04-22T12:05:30.138Z</time></trkpt><trkpt lat="43.458575" lon="11.6009833"><ele>259.3333333333333</ele><time>2026-04-22T12:05:31.14Z</time></trkpt><trkpt lat="43.4586817" lon="11.601205"><ele>259.6666666666667</ele><time>2026-04-22T12:05:32.137Z</time></trkpt><trkpt lat="43.458765" lon="11.601395"><ele>260.0</ele><time>2026-04-22T12:05:33.139Z</time></trkpt><trkpt lat="43.4588417" lon="11.601565"><ele>260.0</ele><time>2026-04-22T12:05:34.137Z</time></trkpt><trkpt lat="43.458915" lon="11.6017167"><ele>260.0</ele><time>2026-04-22T12:05:35.139Z</time></trkpt><trkpt lat="43.4589833" lon="11.601845"><ele>260.0</ele><time>2026-04-22T12:05:36.139Z</time></trkpt><trkpt lat="43.4590617" lon="11.6019417"><ele>260.0</ele><time>2026-04-22T12:05:37.14Z</time></trkpt><trkpt lat="43.4591567" lon="11.6019967"><ele>259.75</ele><time>2026-04-22T12:05:38.138Z</time></trkpt><trkpt lat="43.45927" lon="11.6020233"><ele>259.5</ele><time>2026-04-22T12:05:39.141Z</time></trkpt><trkpt lat="43.4593967" lon="11.60204"><ele>259.25</ele><time>2026-04-22T12:05:40.138Z</time></trkpt><trkpt lat="43.4595267" lon="11.6020617"><ele>259.0</ele><time>2026-04-22T12:05:41.137Z</time></trkpt><trkpt lat="43.45966" lon="11.6021133"><ele>259.0</ele><time>2026-04-22T12:05:42.137Z</time></trkpt><trkpt lat="43.45979" lon="11.60221"><ele>259.0</ele><time>2026-04-22T12:05:43.137Z</time></trkpt><trkpt lat="43.459915" lon="11.6023433"><ele>259.0</ele><time>2026-04-22T12:05:44.14Z</time></trkpt><trkpt lat="43.4600417" lon="11.6024967"><ele>259.0</ele><time>2026-04-22T12:05:45.139Z</time></trkpt><trkpt lat="43.4601767" lon="11.6026633"><ele>259.0</ele><time>2026-04-22T12:05:46.137Z</time></trkpt><trkpt lat="43.4603167" lon="11.6028333"><ele>259.0</ele><time>2026-04-22T12:05:47.138Z</time></trkpt><trkpt lat="43.4604567" lon="11.6030067"><ele>257.66666666666663</ele><time>2026-04-22T12:05:48.137Z</time></trkpt><trkpt lat="43.4605917" lon="11.6031733"><ele>256.3333333333333</ele><time>2026-04-22T12:05:49.14Z</time></trkpt><trkpt lat="43.4607233" lon="11.6033483"><ele>255.0</ele><time>2026-04-22T12:05:50.137Z</time></trkpt><trkpt lat="43.46085" lon="11.603525"><ele>254.0</ele><time>2026-04-22T12:05:51.14Z</time></trkpt><trkpt lat="43.4609767" lon="11.6037017"><ele>253.0</ele><time>2026-04-22T12:05:52.138Z</time></trkpt><trkpt lat="43.4611133" lon="11.6038817"><ele>252.0</ele><time>2026-04-22T12:05:53.138Z</time></trkpt><trkpt lat="43.461255" lon="11.6040567"><ele>250.0</ele><time>2026-04-22T12:05:54.137Z</time></trkpt><trkpt lat="43.4613917" lon="11.604225"><ele>248.0</ele><time>2026-04-22T12:05:55.137Z</time></trkpt><trkpt lat="43.4615283" lon="11.604395"><ele>246.0</ele><time>2026-04-22T12:05:56.139Z</time></trkpt><trkpt lat="43.4616633" lon="11.6045633"><ele>245.33333333333331</ele><time>2026-04-22T12:05:57.139Z</time></trkpt><trkpt lat="43.461795" lon="11.6047333"><ele>244.66666666666666</ele><time>2026-04-22T12:05:58.139Z</time></trkpt><trkpt lat="43.4619317" lon="11.6049083"><ele>244.0</ele><time>2026-04-22T12:05:59.138Z</time></trkpt><trkpt lat="43.4620833" lon="11.6050817"><ele>242.0</ele><time>2026-04-22T12:06:00.137Z</time></trkpt><trkpt lat="43.462225" lon="11.605245"><ele>240.0</ele><time>2026-04-22T12:06:01.138Z</time></trkpt><trkpt lat="43.46237" lon="11.6054"><ele>238.0</ele><time>2026-04-22T12:06:02.136Z</time></trkpt><trkpt lat="43.4625067" lon="11.6055517"><ele>237.0</ele><time>2026-04-22T12:06:03.139Z</time></trkpt><trkpt lat="43.4626367" lon="11.6057"><ele>236.0</ele><time>2026-04-22T12:06:04.136Z</time></trkpt><trkpt lat="43.4627633" lon="11.60585"><ele>235.0</ele><time>2026-04-22T12:06:05.138Z</time></trkpt><trkpt lat="43.46289" lon="11.606"><ele>236.0</ele><time>2026-04-22T12:06:06.138Z</time></trkpt><trkpt lat="43.4630183" lon="11.606155"><ele>237.0</ele><time>2026-04-22T12:06:07.138Z</time></trkpt><trkpt lat="43.4631483" lon="11.6063117"><ele>238.0</ele><time>2026-04-22T12:06:08.137Z</time></trkpt><trkpt lat="43.4632867" lon="11.60646"><ele>239.66666666666666</ele><time>2026-04-22T12:06:09.138Z</time></trkpt><trkpt lat="43.4634283" lon="11.606605"><ele>241.33333333333331</ele><time>2026-04-22T12:06:10.139Z</time></trkpt><trkpt lat="43.463575" lon="11.6067367"><ele>243.0</ele><time>2026-04-22T12:06:11.137Z</time></trkpt><trkpt lat="43.4637233" lon="11.60685"><ele>245.66666666666669</ele><time>2026-04-22T12:06:12.137Z</time></trkpt><trkpt lat="43.463875" lon="11.60695"><ele>248.33333333333334</ele><time>2026-04-22T12:06:13.134Z</time></trkpt><trkpt lat="43.4640317" lon="11.60704"><ele>251.0</ele><time>2026-04-22T12:06:14.141Z</time></trkpt><trkpt lat="43.4641933" lon="11.60711"><ele>251.66666666666669</ele><time>2026-04-22T12:06:15.14Z</time></trkpt><trkpt lat="43.4643533" lon="11.60716"><ele>252.33333333333331</ele><time>2026-04-22T12:06:16.135Z</time></trkpt><trkpt lat="43.4645183" lon="11.60719"><ele>253.0</ele><time>2026-04-22T12:06:17.135Z</time></trkpt><trkpt lat="43.4646783" lon="11.6071967"><ele>253.0</ele><time>2026-04-22T12:06:18.134Z</time></trkpt><trkpt lat="43.4648383" lon="11.6071783"><ele>253.0</ele><time>2026-04-22T12:06:19.133Z</time></trkpt><trkpt lat="43.4649917" lon="11.607125"><ele>253.0</ele><time>2026-04-22T12:06:20.135Z</time></trkpt><trkpt lat="43.4651483" lon="11.60704"><ele>253.33333333333331</ele><time>2026-04-22T12:06:21.137Z</time></trkpt><trkpt lat="43.465315" lon="11.60693"><ele>253.66666666666669</ele><time>2026-04-22T12:06:22.137Z</time></trkpt><trkpt lat="43.465475" lon="11.6068217"><ele>254.0</ele><time>2026-04-22T12:06:23.136Z</time></trkpt><trkpt lat="43.46562" lon="11.6067333"><ele>254.0</ele><time>2026-04-22T12:06:24.137Z</time></trkpt><trkpt lat="43.4657433" lon="11.6066667"><ele>254.0</ele><time>2026-04-22T12:06:25.139Z</time></trkpt><trkpt lat="43.4658617" lon="11.6066383"><ele>254.0</ele><time>2026-04-22T12:06:26.138Z</time></trkpt><trkpt lat="43.4659817" lon="11.606655"><ele>254.0</ele><time>2026-04-22T12:06:27.138Z</time></trkpt><trkpt lat="43.466105" lon="11.6067167"><ele>254.0</ele><time>2026-04-22T12:06:28.136Z</time></trkpt><trkpt lat="43.4662283" lon="11.6068083"><ele>254.0</ele><time>2026-04-22T12:06:29.138Z</time></trkpt><trkpt lat="43.4663567" lon="11.606915"><ele>254.0</ele><time>2026-04-22T12:06:30.138Z</time></trkpt><trkpt lat="43.466495" lon="11.6070317"><ele>253.0</ele><time>2026-04-22T12:06:31.139Z</time></trkpt><trkpt lat="43.4666417" lon="11.6071583"><ele>252.0</ele><time>2026-04-22T12:06:32.137Z</time></trkpt><trkpt lat="43.4667967" lon="11.6072917"><ele>251.0</ele><time>2026-04-22T12:06:33.139Z</time></trkpt><trkpt lat="43.4669617" lon="11.607435"><ele>249.66666666666669</ele><time>2026-04-22T12:06:34.138Z</time></trkpt><trkpt lat="43.46712" lon="11.60757"><ele>248.33333333333331</ele><time>2026-04-22T12:06:35.137Z</time></trkpt><trkpt lat="43.46727" lon="11.6076983"><ele>247.0</ele><time>2026-04-22T12:06:36.137Z</time></trkpt><trkpt lat="43.467415" lon="11.6078267"><ele>246.33333333333331</ele><time>2026-04-22T12:06:37.138Z</time></trkpt><trkpt lat="43.467545" lon="11.6079517"><ele>245.66666666666669</ele><time>2026-04-22T12:06:38.136Z</time></trkpt><trkpt lat="43.4676683" lon="11.6080817"><ele>245.0</ele><time>2026-04-22T12:06:39.139Z</time></trkpt><trkpt lat="43.4677883" lon="11.6082183"><ele>245.0</ele><time>2026-04-22T12:06:40.138Z</time></trkpt><trkpt lat="43.4679133" lon="11.608355"><ele>245.0</ele><time>2026-04-22T12:06:41.137Z</time></trkpt><trkpt lat="43.4680433" lon="11.608485"><ele>245.0</ele><time>2026-04-22T12:06:42.139Z</time></trkpt><trkpt lat="43.4681833" lon="11.60861"><ele>242.66666666666669</ele><time>2026-04-22T12:06:43.134Z</time></trkpt><trkpt lat="43.468335" lon="11.60873"><ele>240.33333333333331</ele><time>2026-04-22T12:06:44.138Z</time></trkpt><trkpt lat="43.468485" lon="11.608845"><ele>238.0</ele><time>2026-04-22T12:06:45.139Z</time></trkpt><trkpt lat="43.4686317" lon="11.6089517"><ele>238.0</ele><time>2026-04-22T12:06:46.137Z</time></trkpt><trkpt lat="43.4687683" lon="11.6090567"><ele>238.0</ele><time>2026-04-22T12:06:47.137Z</time></trkpt><trkpt lat="43.468895" lon="11.60916"><ele>238.0</ele><time>2026-04-22T12:06:48.139Z</time></trkpt><trkpt lat="43.4690167" lon="11.60926"><ele>238.0</ele><time>2026-04-22T12:06:49.139Z</time></trkpt><trkpt lat="43.469135" lon="11.60936"><ele>237.25</ele><time>2026-04-22T12:06:50.139Z</time></trkpt><trkpt lat="43.4692483" lon="11.6094567"><ele>236.5</ele><time>2026-04-22T12:06:51.138Z</time></trkpt><trkpt lat="43.4693667" lon="11.609545"><ele>235.75</ele><time>2026-04-22T12:06:52.139Z</time></trkpt><trkpt lat="43.46948" lon="11.6096267"><ele>235.0</ele><time>2026-04-22T12:06:53.138Z</time></trkpt><trkpt lat="43.4695817" lon="11.609705"><ele>234.83333333333331</ele><time>2026-04-22T12:06:54.138Z</time></trkpt><trkpt lat="43.4696517" lon="11.609765"><ele>234.66666666666666</ele><time>2026-04-22T12:06:55.138Z</time></trkpt><trkpt lat="43.46973" lon="11.6098617"><ele>234.5</ele><time>2026-04-22T12:06:57.138Z</time></trkpt><trkpt lat="43.4697533" lon="11.6099867"><ele>234.33333333333331</ele><time>2026-04-22T12:06:59.137Z</time></trkpt><trkpt lat="43.4697317" lon="11.61009"><ele>234.16666666666666</ele><time>2026-04-22T12:07:00.138Z</time></trkpt><trkpt lat="43.4697083" lon="11.6101867"><ele>234.0</ele><time>2026-04-22T12:07:01.138Z</time></trkpt><trkpt lat="43.4696967" lon="11.6103233"><ele>234.2</ele><time>2026-04-22T12:07:03.14Z</time></trkpt><trkpt lat="43.469755" lon="11.61041"><ele>234.39999999999998</ele><time>2026-04-22T12:07:05.139Z</time></trkpt><trkpt lat="43.4698167" lon="11.6104567"><ele>234.6</ele><time>2026-04-22T12:07:06.139Z</time></trkpt><trkpt lat="43.46989" lon="11.6105"><ele>234.8</ele><time>2026-04-22T12:07:07.139Z</time></trkpt><trkpt lat="43.4699833" lon="11.610525"><ele>235.0</ele><time>2026-04-22T12:07:08.138Z</time></trkpt><trkpt lat="43.4701133" lon="11.6105417"><ele>235.0</ele><time>2026-04-22T12:07:09.14Z</time></trkpt><trkpt lat="43.4702517" lon="11.6105567"><ele>235.0</ele><time>2026-04-22T12:07:10.138Z</time></trkpt><trkpt lat="43.4703817" lon="11.6105633"><ele>235.0</ele><time>2026-04-22T12:07:11.138Z</time></trkpt><trkpt lat="43.4704983" lon="11.610575"><ele>235.0</ele><time>2026-04-22T12:07:12.14Z</time></trkpt><trkpt lat="43.4705983" lon="11.610585"><ele>235.33333333333331</ele><time>2026-04-22T12:07:13.138Z</time></trkpt><trkpt lat="43.47069" lon="11.6106067"><ele>235.66666666666666</ele><time>2026-04-22T12:07:14.138Z</time></trkpt><trkpt lat="43.470775" lon="11.61064"><ele>236.0</ele><time>2026-04-22T12:07:15.139Z</time></trkpt><trkpt lat="43.4708533" lon="11.61069"><ele>236.33333333333331</ele><time>2026-04-22T12:07:16.138Z</time></trkpt><trkpt lat="43.4709333" lon="11.6107417"><ele>236.66666666666666</ele><time>2026-04-22T12:07:17.138Z</time></trkpt><trkpt lat="43.471005" lon="11.6107933"><ele>237.0</ele><time>2026-04-22T12:07:18.137Z</time></trkpt><trkpt lat="43.47109" lon="11.6108367"><ele>237.0</ele><time>2026-04-22T12:07:19.136Z</time></trkpt><trkpt lat="43.4711917" lon="11.610875"><ele>237.0</ele><time>2026-04-22T12:07:20.137Z</time></trkpt><trkpt lat="43.4712917" lon="11.61091"><ele>237.0</ele><time>2026-04-22T12:07:21.138Z</time></trkpt><trkpt lat="43.4713833" lon="11.610945"><ele>237.0</ele><time>2026-04-22T12:07:22.137Z</time></trkpt><trkpt lat="43.4714667" lon="11.6109817"><ele>237.0</ele><time>2026-04-22T12:07:23.137Z</time></trkpt><trkpt lat="43.47154" lon="11.6110367"><ele>237.16666666666666</ele><time>2026-04-22T12:07:24.137Z</time></trkpt><trkpt lat="43.4716083" lon="11.6111083"><ele>237.33333333333331</ele><time>2026-04-22T12:07:25.139Z</time></trkpt><trkpt lat="43.4716683" lon="11.611205"><ele>237.5</ele><time>2026-04-22T12:07:26.138Z</time></trkpt><trkpt lat="43.4717217" lon="11.61129"><ele>237.66666666666666</ele><time>2026-04-22T12:07:27.139Z</time></trkpt><trkpt lat="43.4717917" lon="11.6113533"><ele>237.83333333333331</ele><time>2026-04-22T12:07:28.132Z</time></trkpt><trkpt lat="43.47187" lon="11.6113867"><ele>238.0</ele><time>2026-04-22T12:07:29.136Z</time></trkpt><trkpt lat="43.471955" lon="11.611405"><ele>238.0</ele><time>2026-04-22T12:07:30.136Z</time></trkpt><trkpt lat="43.4720367" lon="11.6114183"><ele>238.0</ele><time>2026-04-22T12:07:31.138Z</time></trkpt><trkpt lat="43.4721083" lon="11.6114383"><ele>238.0</ele><time>2026-04-22T12:07:32.138Z</time></trkpt><trkpt lat="43.47218" lon="11.61146"><ele>238.0</ele><time>2026-04-22T12:07:33.139Z</time></trkpt><trkpt lat="43.4722517" lon="11.6114733"><ele>238.0</ele><time>2026-04-22T12:07:34.138Z</time></trkpt><trkpt lat="43.472325" lon="11.6114833"><ele>238.0</ele><time>2026-04-22T12:07:35.138Z</time></trkpt><trkpt lat="43.4723967" lon="11.611505"><ele>238.0</ele><time>2026-04-22T12:07:36.137Z</time></trkpt><trkpt lat="43.472465" lon="11.6115433"><ele>237.66666666666666</ele><time>2026-04-22T12:07:37.139Z</time></trkpt><trkpt lat="43.4725167" lon="11.6116083"><ele>237.33333333333331</ele><time>2026-04-22T12:07:38.138Z</time></trkpt><trkpt lat="43.472565" lon="11.611685"><ele>237.0</ele><time>2026-04-22T12:07:39.139Z</time></trkpt><trkpt lat="43.472605" lon="11.61177"><ele>236.66666666666669</ele><time>2026-04-22T12:07:40.138Z</time></trkpt><trkpt lat="43.4726283" lon="11.611855"><ele>236.33333333333334</ele><time>2026-04-22T12:07:41.138Z</time></trkpt><trkpt lat="43.472615" lon="11.6120067"><ele>236.0</ele><time>2026-04-22T12:07:43.138Z</time></trkpt><trkpt lat="43.472515" lon="11.6121067"><ele>236.66666666666669</ele><time>2026-04-22T12:07:45.139Z</time></trkpt><trkpt lat="43.472455" lon="11.6121483"><ele>237.33333333333334</ele><time>2026-04-22T12:07:46.136Z</time></trkpt><trkpt lat="43.47238" lon="11.6121983"><ele>238.0</ele><time>2026-04-22T12:07:48.138Z</time></trkpt><trkpt lat="43.4724733" lon="11.6122767"><ele>238.66666666666669</ele><time>2026-04-22T12:08:00.139Z</time></trkpt><trkpt lat="43.4725167" lon="11.61236"><ele>239.33333333333334</ele><time>2026-04-22T12:08:01.14Z</time></trkpt><trkpt lat="43.4725633" lon="11.6124483"><ele>240.0</ele><time>2026-04-22T12:08:02.138Z</time></trkpt><trkpt lat="43.472625" lon="11.61253"><ele>240.0</ele><time>2026-04-22T12:08:03.139Z</time></trkpt><trkpt lat="43.4726967" lon="11.6125933"><ele>240.0</ele><time>2026-04-22T12:08:04.139Z</time></trkpt><trkpt lat="43.4727783" lon="11.6126317"><ele>240.0</ele><time>2026-04-22T12:08:05.142Z</time></trkpt><trkpt lat="43.47286" lon="11.612635"><ele>240.0</ele><time>2026-04-22T12:08:06.139Z</time></trkpt><trkpt lat="43.4729433" lon="11.6126033"><ele>240.0</ele><time>2026-04-22T12:08:07.138Z</time></trkpt><trkpt lat="43.4730317" lon="11.612525"><ele>240.0</ele><time>2026-04-22T12:08:08.137Z</time></trkpt><trkpt lat="43.4731317" lon="11.6124267"><ele>240.4</ele><time>2026-04-22T12:08:09.139Z</time></trkpt><trkpt lat="43.473225" lon="11.612335"><ele>240.8</ele><time>2026-04-22T12:08:10.138Z</time></trkpt><trkpt lat="43.4733117" lon="11.61226"><ele>241.2</ele><time>2026-04-22T12:08:11.138Z</time></trkpt><trkpt lat="43.4733967" lon="11.6121917"><ele>241.6</ele><time>2026-04-22T12:08:12.136Z</time></trkpt><trkpt lat="43.47348" lon="11.61213"><ele>242.0</ele><time>2026-04-22T12:08:13.137Z</time></trkpt><trkpt lat="43.4735667" lon="11.6120867"><ele>242.0</ele><time>2026-04-22T12:08:14.137Z</time></trkpt><trkpt lat="43.4736617" lon="11.6120567"><ele>242.0</ele><time>2026-04-22T12:08:15.137Z</time></trkpt><trkpt lat="43.4737733" lon="11.6120433"><ele>242.0</ele><time>2026-04-22T12:08:16.137Z</time></trkpt><trkpt lat="43.4738867" lon="11.6120483"><ele>242.0</ele><time>2026-04-22T12:08:17.138Z</time></trkpt><trkpt lat="43.4739933" lon="11.6120683"><ele>242.0</ele><time>2026-04-22T12:08:18.139Z</time></trkpt><trkpt lat="43.4740967" lon="11.612105"><ele>240.5</ele><time>2026-04-22T12:08:19.138Z</time></trkpt><trkpt lat="43.474195" lon="11.6121533"><ele>239.0</ele><time>2026-04-22T12:08:20.137Z</time></trkpt><trkpt lat="43.474295" lon="11.6122117"><ele>237.5</ele><time>2026-04-22T12:08:21.14Z</time></trkpt><trkpt lat="43.4743983" lon="11.6123"><ele>236.0</ele><time>2026-04-22T12:08:22.139Z</time></trkpt><trkpt lat="43.4745017" lon="11.6124083"><ele>235.0</ele><time>2026-04-22T12:08:23.137Z</time></trkpt><trkpt lat="43.4746083" lon="11.6125233"><ele>234.0</ele><time>2026-04-22T12:08:24.138Z</time></trkpt><trkpt lat="43.47473" lon="11.6126417"><ele>233.0</ele><time>2026-04-22T12:08:25.138Z</time></trkpt><trkpt lat="43.474855" lon="11.61276"><ele>232.0</ele><time>2026-04-22T12:08:26.138Z</time></trkpt><trkpt lat="43.4749817" lon="11.6128833"><ele>232.0</ele><time>2026-04-22T12:08:27.138Z</time></trkpt><trkpt lat="43.47511" lon="11.61301"><ele>232.0</ele><time>2026-04-22T12:08:28.138Z</time></trkpt><trkpt lat="43.4752283" lon="11.6131333"><ele>232.0</ele><time>2026-04-22T12:08:29.137Z</time></trkpt><trkpt lat="43.4753283" lon="11.6132417"><ele>232.0</ele><time>2026-04-22T12:08:30.14Z</time></trkpt><trkpt lat="43.47541" lon="11.61334"><ele>232.8</ele><time>2026-04-22T12:08:31.137Z</time></trkpt><trkpt lat="43.475475" lon="11.6134267"><ele>233.6</ele><time>2026-04-22T12:08:32.138Z</time></trkpt><trkpt lat="43.4755217" lon="11.6135133"><ele>234.40000000000003</ele><time>2026-04-22T12:08:33.139Z</time></trkpt><trkpt lat="43.4755433" lon="11.6136183"><ele>235.20000000000002</ele><time>2026-04-22T12:08:34.138Z</time></trkpt><trkpt lat="43.4755317" lon="11.613755"><ele>236.0</ele><time>2026-04-22T12:08:35.139Z</time></trkpt><trkpt lat="43.4755217" lon="11.6139117"><ele>236.0</ele><time>2026-04-22T12:08:36.138Z</time></trkpt><trkpt lat="43.47553" lon="11.614075"><ele>236.0</ele><time>2026-04-22T12:08:37.138Z</time></trkpt><trkpt lat="43.475555" lon="11.61425"><ele>236.0</ele><time>2026-04-22T12:08:38.139Z</time></trkpt><trkpt lat="43.4755867" lon="11.61442"><ele>236.0</ele><time>2026-04-22T12:08:39.139Z</time></trkpt><trkpt lat="43.47561" lon="11.6145917"><ele>238.0</ele><time>2026-04-22T12:08:40.138Z</time></trkpt><trkpt lat="43.4756133" lon="11.6147633"><ele>240.0</ele><time>2026-04-22T12:08:41.137Z</time></trkpt><trkpt lat="43.4755867" lon="11.6149383"><ele>242.0</ele><time>2026-04-22T12:08:42.139Z</time></trkpt><trkpt lat="43.4755333" lon="11.6151233"><ele>244.0</ele><time>2026-04-22T12:08:43.139Z</time></trkpt><trkpt lat="43.47547" lon="11.6153117"><ele>244.75</ele><time>2026-04-22T12:08:44.14Z</time></trkpt><trkpt lat="43.475405" lon="11.615505"><ele>245.5</ele><time>2026-04-22T12:08:45.14Z</time></trkpt><trkpt lat="43.475345" lon="11.61569"><ele>246.25</ele><time>2026-04-22T12:08:46.137Z</time></trkpt><trkpt lat="43.4752967" lon="11.615845"><ele>247.0</ele><time>2026-04-22T12:08:47.138Z</time></trkpt><trkpt lat="43.4752667" lon="11.6159717"><ele>246.99999999999997</ele><time>2026-04-22T12:08:48.137Z</time></trkpt><trkpt lat="43.4752533" lon="11.6160717"><ele>247.0</ele><time>2026-04-22T12:08:49.139Z</time></trkpt><trkpt lat="43.4752533" lon="11.61619"><ele>247.0</ele><time>2026-04-22T12:08:51.138Z</time></trkpt><trkpt lat="43.4753133" lon="11.6162583"><ele>247.0</ele><time>2026-04-22T12:08:54.137Z</time></trkpt><trkpt lat="43.4753767" lon="11.61626"><ele>246.99999999999997</ele><time>2026-04-22T12:08:55.138Z</time></trkpt><trkpt lat="43.4754483" lon="11.616245"><ele>247.0</ele><time>2026-04-22T12:08:56.138Z</time></trkpt><trkpt lat="43.4755367" lon="11.616225"><ele>247.5</ele><time>2026-04-22T12:08:57.14Z</time></trkpt><trkpt lat="43.475655" lon="11.6162083"><ele>248.0</ele><time>2026-04-22T12:08:58.138Z</time></trkpt><trkpt lat="43.475775" lon="11.6161883"><ele>248.5</ele><time>2026-04-22T12:08:59.137Z</time></trkpt><trkpt lat="43.4759017" lon="11.6161683"><ele>249.0</ele><time>2026-04-22T12:09:00.137Z</time></trkpt><trkpt lat="43.4760283" lon="11.61615"><ele>249.5</ele><time>2026-04-22T12:09:01.138Z</time></trkpt><trkpt lat="43.4761617" lon="11.616135"><ele>250.0</ele><time>2026-04-22T12:09:02.138Z</time></trkpt><trkpt lat="43.4762917" lon="11.6161133"><ele>250.5</ele><time>2026-04-22T12:09:03.138Z</time></trkpt><trkpt lat="43.4764217" lon="11.616095"><ele>251.0</ele><time>2026-04-22T12:09:04.138Z</time></trkpt><trkpt lat="43.47655" lon="11.6160783"><ele>251.0</ele><time>2026-04-22T12:09:05.137Z</time></trkpt><trkpt lat="43.476675" lon="11.61606"><ele>251.0</ele><time>2026-04-22T12:09:06.138Z</time></trkpt><trkpt lat="43.4767933" lon="11.6160383"><ele>251.0</ele><time>2026-04-22T12:09:07.137Z</time></trkpt><trkpt lat="43.4769117" lon="11.6160183"><ele>251.0</ele><time>2026-04-22T12:09:08.138Z</time></trkpt><trkpt lat="43.4770333" lon="11.615995"><ele>251.0</ele><time>2026-04-22T12:09:09.14Z</time></trkpt><trkpt lat="43.477165" lon="11.615975"><ele>251.0</ele><time>2026-04-22T12:09:10.138Z</time></trkpt><trkpt lat="43.4773033" lon="11.615955"><ele>251.0</ele><time>2026-04-22T12:09:11.137Z</time></trkpt><trkpt lat="43.4774383" lon="11.6159233"><ele>251.0</ele><time>2026-04-22T12:09:12.135Z</time></trkpt><trkpt lat="43.4775717" lon="11.6158817"><ele>251.0</ele><time>2026-04-22T12:09:13.137Z</time></trkpt><trkpt lat="43.4776983" lon="11.6158233"><ele>251.0</ele><time>2026-04-22T12:09:14.139Z</time></trkpt><trkpt lat="43.4778067" lon="11.61574"><ele>251.0</ele><time>2026-04-22T12:09:15.139Z</time></trkpt><trkpt lat="43.4778967" lon="11.61562"><ele>251.0</ele><time>2026-04-22T12:09:16.136Z</time></trkpt><trkpt lat="43.4779667" lon="11.6154533"><ele>250.25</ele><time>2026-04-22T12:09:17.137Z</time></trkpt><trkpt lat="43.4780183" lon="11.6152717"><ele>249.5</ele><time>2026-04-22T12:09:18.138Z</time></trkpt><trkpt lat="43.4780617" lon="11.6151083"><ele>248.75</ele><time>2026-04-22T12:09:19.138Z</time></trkpt><trkpt lat="43.47811" lon="11.6149717"><ele>248.0</ele><time>2026-04-22T12:09:20.136Z</time></trkpt><trkpt lat="43.4781717" lon="11.6148733"><ele>248.00000000000003</ele><time>2026-04-22T12:09:21.14Z</time></trkpt><trkpt lat="43.4782333" lon="11.6148017"><ele>248.0</ele><time>2026-04-22T12:09:22.138Z</time></trkpt><trkpt lat="43.4783017" lon="11.6147617"><ele>248.0</ele><time>2026-04-22T12:09:23.137Z</time></trkpt><trkpt lat="43.47838" lon="11.6147683"><ele>248.0</ele><time>2026-04-22T12:09:24.139Z</time></trkpt><trkpt lat="43.4784517" lon="11.6148567"><ele>248.00000000000003</ele><time>2026-04-22T12:09:25.137Z</time></trkpt><trkpt lat="43.4785067" lon="11.6149683"><ele>248.0</ele><time>2026-04-22T12:09:26.137Z</time></trkpt><trkpt lat="43.4785367" lon="11.6150967"><ele>248.00000000000003</ele><time>2026-04-22T12:09:27.134Z</time></trkpt><trkpt lat="43.47856" lon="11.6152167"><ele>248.0</ele><time>2026-04-22T12:09:28.138Z</time></trkpt><trkpt lat="43.4785833" lon="11.6153333"><ele>248.0</ele><time>2026-04-22T12:09:29.138Z</time></trkpt><trkpt lat="43.4786167" lon="11.6154417"><ele>248.0</ele><time>2026-04-22T12:09:30.141Z</time></trkpt><trkpt lat="43.4786617" lon="11.6155383"><ele>248.00000000000003</ele><time>2026-04-22T12:09:31.139Z</time></trkpt><trkpt lat="43.4787217" lon="11.6156183"><ele>248.0</ele><time>2026-04-22T12:09:32.139Z</time></trkpt><trkpt lat="43.478805" lon="11.6156983"><ele>246.2</ele><time>2026-04-22T12:09:33.138Z</time></trkpt><trkpt lat="43.4789067" lon="11.6157767"><ele>244.4</ele><time>2026-04-22T12:09:34.137Z</time></trkpt><trkpt lat="43.4790067" lon="11.615855"><ele>242.59999999999997</ele><time>2026-04-22T12:09:35.139Z</time></trkpt><trkpt lat="43.4791" lon="11.61592"><ele>240.79999999999998</ele><time>2026-04-22T12:09:36.138Z</time></trkpt><trkpt lat="43.479165" lon="11.61599"><ele>239.0</ele><time>2026-04-22T12:09:37.138Z</time></trkpt><trkpt lat="43.4792217" lon="11.61606"><ele>239.0</ele><time>2026-04-22T12:09:38.139Z</time></trkpt><trkpt lat="43.47927" lon="11.616135"><ele>238.99999999999997</ele><time>2026-04-22T12:09:39.139Z</time></trkpt><trkpt lat="43.4793017" lon="11.6162267"><ele>238.99999999999997</ele><time>2026-04-22T12:09:40.138Z</time></trkpt><trkpt lat="43.47927" lon="11.616345"><ele>239.0</ele><time>2026-04-22T12:09:41.139Z</time></trkpt><trkpt lat="43.479235" lon="11.6164867"><ele>239.0</ele><time>2026-04-22T12:09:42.138Z</time></trkpt><trkpt lat="43.4792" lon="11.6166333"><ele>239.6</ele><time>2026-04-22T12:09:43.139Z</time></trkpt><trkpt lat="43.4791633" lon="11.61678"><ele>240.2</ele><time>2026-04-22T12:09:44.138Z</time></trkpt><trkpt lat="43.4791317" lon="11.6169383"><ele>240.79999999999998</ele><time>2026-04-22T12:09:45.133Z</time></trkpt><trkpt lat="43.4790767" lon="11.6170583"><ele>241.39999999999998</ele><time>2026-04-22T12:09:46.134Z</time></trkpt><trkpt lat="43.4790067" lon="11.6171567"><ele>242.0</ele><time>2026-04-22T12:09:47.131Z</time></trkpt><trkpt lat="43.4789417" lon="11.617255"><ele>240.39999999999998</ele><time>2026-04-22T12:09:48.138Z</time></trkpt><trkpt lat="43.4788817" lon="11.617355"><ele>238.79999999999998</ele><time>2026-04-22T12:09:49.136Z</time></trkpt><trkpt lat="43.4788267" lon="11.61744"><ele>237.2</ele><time>2026-04-22T12:09:50.135Z</time></trkpt><trkpt lat="43.4787767" lon="11.61756"><ele>235.6</ele><time>2026-04-22T12:09:52.137Z</time></trkpt><trkpt lat="43.4787967" lon="11.6176817"><ele>234.0</ele><time>2026-04-22T12:09:54.136Z</time></trkpt><trkpt lat="43.47885" lon="11.61779"><ele>233.79999999999998</ele><time>2026-04-22T12:09:55.138Z</time></trkpt><trkpt lat="43.4789083" lon="11.6179233"><ele>233.59999999999997</ele><time>2026-04-22T12:09:56.137Z</time></trkpt><trkpt lat="43.4789617" lon="11.6180267"><ele>233.4</ele><time>2026-04-22T12:09:57.139Z</time></trkpt><trkpt lat="43.4790183" lon="11.618115"><ele>233.2</ele><time>2026-04-22T12:09:58.144Z</time></trkpt><trkpt lat="43.479065" lon="11.6182"><ele>233.0</ele><time>2026-04-22T12:09:59.138Z</time></trkpt><trkpt lat="43.47915" lon="11.6182783"><ele>233.0</ele><time>2026-04-22T12:10:01.138Z</time></trkpt><trkpt lat="43.4792183" lon="11.6183383"><ele>233.0</ele><time>2026-04-22T12:10:04.142Z</time></trkpt><trkpt lat="43.4792833" lon="11.61839"><ele>233.0</ele><time>2026-04-22T12:11:18.137Z</time></trkpt><trkpt lat="43.4793367" lon="11.6184367"><ele>233.0</ele><time>2026-04-22T12:11:25.138Z</time></trkpt></trkseg></trk></gpx>